# Wetter Temperatur Luftdruck Luftfeuchtigkeit Sichtweite Windgeschwindigkeit Windrichtung Zeit
1 Rain 15 1008 62 0 0.75 167 20:58 12.07.2020
2 Rain 15 1008 62 0 0.75 167 20:38 12.07.2020
3 Rain 15 1008 61 0 0.66 182 20:19 12.07.2020
4 Rain 15 1008 61 0 0.66 182 19:40 12.07.2020
5 Rain 15 1008 62 0 0.4 158 19:22 12.07.2020
6 Rain 15 1008 62 0 0.4 158 18:59 12.07.2020
7 Rain 15 1008 62 0 0.4 158 18:40 12.07.2020
8 Rain 15 1007 62 0 0.38 41 18:19 12.07.2020
9 Rain 15 1007 62 0 0.38 41 17:40 12.07.2020
10 Rain 15 1006 62 0 0.86 31 17:21 12.07.2020
11 Rain 15 1006 62 0 0.86 31 16:58 12.07.2020
12 Rain 15 1006 62 0 0.86 31 16:40 12.07.2020
13 Rain 16 1005 59 0 1.19 32 16:18 12.07.2020
14 Rain 16 1005 59 0 1.19 32 15:43 12.07.2020
15 Clouds 17 1003 56 0 1.21 72 15:23 12.07.2020
16 Clouds 17 1003 56 0 1.21 72 14:43 12.07.2020
17 Clouds 21 1000 40 0 1.38 226 14:23 12.07.2020
18 Clouds 21 1000 40 0 1.38 226 13:41 12.07.2020
19 Clouds 21 999 39 0 1.2 207 13:22 12.07.2020
20 Clouds 21 999 39 0 1.2 207 12:58 12.07.2020
21 Clouds 21 999 39 0 1.2 207 12:58 12.07.2020
22 Clouds 21 999 39 0 1.2 207 12:40 12.07.2020
23 Rain 22 999 36 0 2.5 207 12:19 12.07.2020
24 Rain 22 999 36 0 2.5 207 11:57 12.07.2020
25 Rain 22 999 36 0 2.5 207 11:39 12.07.2020
26 Rain 23 999 33 0 2.57 200 11:18 12.07.2020
27 Rain 23 999 33 0 2.57 200 10:41 12.07.2020
28 Rain 23 1000 33 0 2.11 194 10:20 12.07.2020
29 Rain 23 1000 33 0 2.11 194 09:43 12.07.2020
30 Rain 22 1001 36 0 2.08 198 09:22 12.07.2020
31 Rain 22 1001 36 0 2.08 198 08:57 12.07.2020
32 Rain 22 1001 36 0 2.08 198 08:38 12.07.2020
33 Rain 21 1002 40 0 1.72 194 08:20 12.07.2020
34 Rain 21 1002 40 0 1.72 194 07:49 12.07.2020
35 Rain 21 1002 40 0 1.72 194 07:31 12.07.2020
36 Rain 20 1004 45 0 1.01 155 06:55 12.07.2020
37 Rain 20 1004 45 0 1.01 155 06:37 12.07.2020
38 Rain 18 1006 51 0 0.86 107 06:18 12.07.2020
39 Clouds 16 1007 56 0 0.97 63 04:59 12.07.2020
40 Clouds 14 1009 61 0 1.29 52 04:29 12.07.2020
41 Clouds 14 1009 61 0 1.29 52 03:45 12.07.2020
42 Clouds 13 1009 65 0 1.58 32 03:25 12.07.2020
43 Clouds 12 1010 68 0 1.57 43 02:26 12.07.2020
44 Clouds 12 1009 70 0 1.67 41 01:29 12.07.2020
45 Clouds 12 1009 70 0 1.67 41 00:39 12.07.2020
46 Rain 11 1009 70 0 1.73 46 00:21 12.07.2020
47 Rain 11 1009 70 0 1.73 46 23:41 11.07.2020
48 Rain 12 1009 70 0 1.98 39 23:22 11.07.2020
49 Rain 12 1009 70 0 1.98 39 22:57 11.07.2020
50 Rain 12 1009 70 0 1.98 39 22:38 11.07.2020
51 Rain 12 1009 71 0 2.17 34 22:20 11.07.2020
52 Rain 12 1009 71 0 2.17 34 21:55 11.07.2020
53 Rain 12 1009 71 0 2.17 34 21:36 11.07.2020
54 Rain 12 1009 72 0 2.35 40 21:18 11.07.2020
55 Rain 10 1009 72 0 2.86 15 20:54 11.07.2020
56 Rain 10 1009 72 0 2.86 15 20:36 11.07.2020
57 Rain 10 1009 72 0 2.32 46 20:18 11.07.2020
58 Rain 10 1009 72 0 2.32 46 19:44 11.07.2020
59 Rain 10 1009 73 0 3.7 58 19:26 11.07.2020
60 Rain 10 1009 73 0 3.7 58 18:57 11.07.2020
61 Rain 10 1009 73 0 3.7 58 18:39 11.07.2020
62 Rain 11 1008 71 0 3.36 48 18:20 11.07.2020
63 Rain 11 1008 71 0 3.36 48 17:56 11.07.2020
64 Rain 11 1008 71 0 3.36 48 17:38 11.07.2020
65 Rain 12 1007 69 0 3.54 63 17:19 11.07.2020
66 Rain 12 1007 69 0 3.54 63 16:44 11.07.2020
67 Rain 14 1005 67 0 4.03 109 16:25 11.07.2020
68 Rain 14 1005 67 0 4.03 109 15:59 11.07.2020
69 Rain 14 1005 67 0 4.03 109 15:41 11.07.2020
70 Rain 15 1002 64 0 4.46 134 15:20 11.07.2020
71 Rain 15 1002 64 0 4.46 134 14:58 11.07.2020
72 Rain 15 1002 64 0 4.46 134 14:39 11.07.2020
73 Rain 18 1000 54 0 1.87 203 14:20 11.07.2020
74 Rain 18 1000 54 0 1.87 203 13:43 11.07.2020
75 Rain 22 998 37 0 1.85 204 13:22 11.07.2020
76 Rain 22 998 37 0 1.85 204 12:58 11.07.2020
77 Rain 22 998 37 0 1.85 204 12:40 11.07.2020
78 Rain 23 997 34 0 1.03 193 12:21 11.07.2020
79 Rain 23 997 34 0 1.03 193 11:56 11.07.2020
80 Rain 23 997 34 0 1.03 193 11:38 11.07.2020
81 Rain 23 997 33 0 0.54 11 11:18 11.07.2020
82 Rain 23 997 33 0 0.54 11 10:41 11.07.2020
83 Rain 23 998 35 0 0.36 42 10:23 11.07.2020
84 Rain 23 998 35 0 0.36 42 09:45 11.07.2020
85 Rain 23 999 35 0 0.3 14 09:21 11.07.2020
86 Rain 23 999 35 0 0.3 14 08:55 11.07.2020
87 Rain 23 999 35 0 0.3 14 08:36 11.07.2020
88 Rain 22 1001 37 0 0.45 194 08:18 11.07.2020
89 Rain 22 1001 37 0 0.45 194 07:40 11.07.2020
90 Rain 21 1002 40 0 1.09 183 07:20 11.07.2020
91 Rain 21 1002 40 0 1.09 183 06:55 11.07.2020
92 Rain 20 1003 43 0 1.49 172 06:22 11.07.2020
93 Rain 18 1004 47 0 1.64 153 05:22 11.07.2020
94 Rain 18 1004 47 0 1.64 153 04:55 11.07.2020
95 Rain 18 1004 47 0 1.64 153 04:32 11.07.2020
96 Rain 16 1006 55 0 2.01 134 02:59 11.07.2020
97 Rain 16 1006 55 0 2.01 134 02:38 11.07.2020
98 Clouds 15 1006 55 0 2.03 148 01:37 11.07.2020
99 Clouds 15 1006 56 0 1.65 160 01:18 11.07.2020
100 Clouds 15 1006 56 0 1.65 160 00:41 11.07.2020
101 Clouds 14 1005 58 0 1.66 158 00:22 11.07.2020
102 Clouds 14 1005 58 0 1.66 158 23:57 10.07.2020
103 Clouds 14 1005 58 0 1.66 158 23:39 10.07.2020
104 Clouds 14 1005 57 0 1.85 168 23:19 10.07.2020
105 Clouds 14 1005 57 0 1.85 168 22:45 10.07.2020
106 Clouds 15 1005 55 0 2.55 161 22:21 10.07.2020
107 Clouds 15 1005 55 0 2.55 161 21:56 10.07.2020
108 Clouds 15 1005 55 0 2.55 161 21:36 10.07.2020
109 Clouds 15 1005 55 0 2.4 171 21:18 10.07.2020
110 Clouds 14 1005 57 0 2.88 168 20:41 10.07.2020
111 Clouds 15 1005 56 0 2.95 173 20:23 10.07.2020
112 Clouds 15 1005 56 0 2.95 173 19:57 10.07.2020
113 Clouds 15 1005 56 0 2.95 173 19:57 10.07.2020
114 Clouds 15 1005 56 0 2.95 173 19:39 10.07.2020
115 Rain 16 1005 54 0 3.03 170 19:20 10.07.2020
116 Rain 16 1005 54 0 3.03 170 18:42 10.07.2020
117 Clouds 16 1004 54 0 3.28 168 18:21 10.07.2020
118 Clouds 16 1004 54 0 3.28 168 17:58 10.07.2020
119 Clouds 16 1004 54 0 3.28 168 17:39 10.07.2020
120 Rain 17 1003 51 0 3.73 164 17:21 10.07.2020
121 Rain 17 1003 51 0 3.73 164 16:43 10.07.2020
122 Clouds 18 1001 47 0 4.01 174 16:21 10.07.2020
123 Clouds 18 1001 47 0 4.01 174 15:48 10.07.2020
124 Clouds 20 999 42 0 4.02 165 15:27 10.07.2020
125 Clouds 20 999 42 0 4.02 165 15:00 10.07.2020
126 Clouds 20 999 42 0 4.02 165 14:40 10.07.2020
127 Clouds 23 997 37 0 3.15 176 14:20 10.07.2020
128 Clouds 23 997 38 0 2.49 179 13:58 10.07.2020
129 Clouds 23 997 38 0 2.49 179 13:38 10.07.2020
130 Clouds 24 996 31 0 2.98 213 13:20 10.07.2020
131 Clouds 24 996 31 0 2.98 213 12:56 10.07.2020
132 Clouds 24 996 31 0 2.98 213 12:37 10.07.2020
133 Clouds 24 996 29 0 2.67 218 12:19 10.07.2020
134 Clouds 24 996 29 0 2.67 218 11:41 10.07.2020
135 Clouds 24 996 30 0 2.54 214 11:21 10.07.2020
136 Clouds 24 996 30 0 2.54 214 10:57 10.07.2020
137 Clouds 24 996 30 0 2.54 214 10:38 10.07.2020
138 Rain 23 997 32 0 2.84 210 10:19 10.07.2020
139 Rain 23 997 32 0 2.84 210 09:40 10.07.2020
140 Clouds 23 998 35 0 2.73 202 09:22 10.07.2020
141 Rain 22 999 37 0 2.45 211 08:58 10.07.2020
142 Rain 22 999 37 0 2.45 211 08:40 10.07.2020
143 Rain 21 1000 40 0 2.13 203 08:22 10.07.2020
144 Rain 21 1000 40 0 2.13 203 07:45 10.07.2020
145 Rain 20 1002 45 0 1.46 213 07:23 10.07.2020
146 Rain 20 1002 45 0 1.46 213 06:54 10.07.2020
147 Rain 20 1002 45 0 1.46 213 06:36 10.07.2020
148 Rain 16 1005 56 0 0.03 99 05:28 10.07.2020
149 Rain 14 1006 61 0 0.85 337 03:54 10.07.2020
150 Clouds 13 1007 65 0 0.51 329 02:54 10.07.2020
151 Clouds 13 1007 66 0 0.57 328 01:57 10.07.2020
152 Clouds 12 1007 67 0 0.55 37 00:55 10.07.2020
153 Clouds 12 1007 67 0 0.62 12 00:23 10.07.2020
154 Clouds 12 1007 67 0 0.62 12 23:56 09.07.2020
155 Clouds 12 1007 67 0 0.62 12 23:37 09.07.2020
156 Clouds 11 1007 69 0 0.94 337 23:19 09.07.2020
157 Clouds 11 1007 69 0 0.94 337 22:56 09.07.2020
158 Clouds 11 1007 69 0 0.94 337 22:38 09.07.2020
159 Rain 12 1008 69 0 1.42 357 22:19 09.07.2020
160 Rain 12 1008 69 0 1.42 357 21:54 09.07.2020
161 Rain 12 1008 69 0 1.42 357 21:36 09.07.2020
162 Rain 11 1009 71 0 2.03 341 21:18 09.07.2020
163 Rain 11 1009 74 0 0.88 268 20:41 09.07.2020
164 Rain 13 1009 73 0 1.61 12 20:22 09.07.2020
165 Rain 13 1009 73 0 1.61 12 19:43 09.07.2020
166 Rain 13 1008 71 0 2.41 38 19:22 09.07.2020
167 Rain 13 1008 71 0 2.41 38 18:59 09.07.2020
168 Rain 13 1008 71 0 2.41 38 18:41 09.07.2020
169 Rain 14 1007 67 0 2.5 96 18:19 09.07.2020
170 Rain 14 1007 67 0 2.5 96 17:43 09.07.2020
171 Rain 15 1006 65 0 2.65 83 17:24 09.07.2020
172 Rain 15 1006 65 0 2.65 83 16:59 09.07.2020
173 Rain 15 1006 65 0 2.65 83 16:41 09.07.2020
174 Rain 17 1005 53 0 2.26 129 16:19 09.07.2020
175 Rain 17 1005 53 0 2.26 129 15:59 09.07.2020
176 Rain 17 1005 53 0 2.26 129 15:40 09.07.2020
177 Rain 19 1003 44 0 1.45 181 15:21 09.07.2020
178 Rain 19 1003 44 0 1.45 181 14:58 09.07.2020
179 Rain 19 1003 44 0 1.45 181 14:40 09.07.2020
180 Clouds 23 1000 36 0 1.09 224 14:22 09.07.2020
181 Clouds 24 999 32 0 1.44 266 13:57 09.07.2020
182 Clouds 24 999 32 0 1.44 266 13:38 09.07.2020
183 Clouds 25 997 27 0 1.69 222 13:19 09.07.2020
184 Clouds 25 997 27 0 1.69 222 12:42 09.07.2020
185 Clouds 25 997 27 0 1.63 230 12:24 09.07.2020
186 Clouds 25 997 27 0 1.63 230 11:59 09.07.2020
187 Clouds 25 997 27 0 1.63 230 11:41 09.07.2020
188 Clouds 25 997 28 0 1.9 228 11:21 09.07.2020
189 Clouds 25 997 28 0 1.9 228 10:57 09.07.2020
190 Clouds 25 997 28 0 1.9 228 10:57 09.07.2020
191 Clouds 25 997 28 0 1.9 228 10:38 09.07.2020
192 Clouds 24 998 30 0 2.02 219 10:20 09.07.2020
193 Clouds 24 998 30 0 2.02 219 09:43 09.07.2020
194 Clouds 24 999 33 0 2.17 214 09:23 09.07.2020
195 Clouds 24 999 32 0 2.28 205 08:54 09.07.2020
196 Clouds 24 999 32 0 2.28 205 08:36 09.07.2020
197 Clouds 23 1001 35 0 2.05 207 08:18 09.07.2020
198 Clouds 23 1001 35 0 2.05 207 07:42 09.07.2020
199 Clouds 21 1003 39 0 1.82 207 07:21 09.07.2020
200 Clouds 21 1003 39 0 1.82 207 06:40 09.07.2020
201 Clouds 20 1005 44 0 1.57 193 06:19 09.07.2020
202 Rain 16 1008 54 0 1.05 161 04:29 09.07.2020
203 Clouds 15 1009 59 0 0.53 163 03:24 09.07.2020
204 Rain 13 1010 66 0 1.48 306 01:58 09.07.2020
205 Rain 13 1010 67 0 0.63 263 01:23 09.07.2020
206 Rain 13 1010 67 0 0.63 263 00:43 09.07.2020
207 Rain 13 1010 68 0 0.88 216 00:23 09.07.2020
208 Rain 13 1010 68 0 0.88 216 23:44 08.07.2020
209 Rain 13 1010 67 0 1.34 204 23:26 08.07.2020
210 Rain 13 1010 67 0 1.34 204 22:57 08.07.2020
211 Rain 13 1010 67 0 1.34 204 22:38 08.07.2020
212 Rain 14 1011 67 0 1.55 195 22:20 08.07.2020
213 Rain 14 1011 67 0 1.55 195 21:57 08.07.2020
214 Rain 14 1011 67 0 1.55 195 21:38 08.07.2020
215 Clouds 14 1011 66 0 0.36 190 21:20 08.07.2020
216 Clouds 14 1011 66 0 0.36 190 20:45 08.07.2020
217 Rain 14 1011 65 0 1.2 209 20:26 08.07.2020
218 Rain 14 1011 65 0 1.2 209 19:58 08.07.2020
219 Rain 14 1011 65 0 1.2 209 19:40 08.07.2020
220 Rain 14 1011 66 0 1.11 106 19:21 08.07.2020
221 Rain 14 1011 66 0 1.11 106 18:55 08.07.2020
222 Rain 14 1011 66 0 1.11 106 18:36 08.07.2020
223 Rain 14 1011 69 0 2.28 104 18:18 08.07.2020
224 Rain 14 1011 69 0 2.28 104 17:55 08.07.2020
225 Rain 14 1011 69 0 2.28 104 17:36 08.07.2020
226 Rain 14 1010 69 0 3.82 359 17:18 08.07.2020
227 Rain 14 1010 69 0 3.82 359 16:39 08.07.2020
228 Rain 15 1008 62 0 4.3 356 16:20 08.07.2020
229 Rain 15 1008 62 0 4.3 356 15:58 08.07.2020
230 Rain 15 1008 62 0 4.3 356 15:40 08.07.2020
231 Rain 18 1006 49 0 3.97 354 15:19 08.07.2020
232 Rain 18 1006 49 0 3.97 354 14:48 08.07.2020
233 Clouds 24 1003 33 0 2.19 68 14:29 08.07.2020
234 Clouds 24 1003 33 0 2.19 68 13:58 08.07.2020
235 Clouds 24 1003 33 0 2.19 68 13:40 08.07.2020
236 Clouds 25 1001 28 0 2.17 84 13:22 08.07.2020
237 Clouds 25 1001 28 0 2.17 84 12:44 08.07.2020
238 Clouds 25 1001 26 0 1.56 98 12:21 08.07.2020
239 Clouds 25 1001 26 0 1.56 98 11:57 08.07.2020
240 Clouds 25 1001 26 0 1.56 98 11:38 08.07.2020
241 Clouds 25 1002 26 0 0.81 129 11:20 08.07.2020
242 Clouds 25 1002 26 0 0.81 129 10:44 08.07.2020
243 Clouds 25 1003 27 0 0.88 186 10:26 08.07.2020
244 Clouds 25 1003 27 0 0.88 186 09:47 08.07.2020
245 Clouds 25 1003 27 0 1.07 204 09:26 08.07.2020
246 Clouds 25 1003 27 0 1.07 204 08:58 08.07.2020
247 Clouds 25 1003 27 0 1.07 204 08:39 08.07.2020
248 Clouds 24 1005 29 0 1.74 200 08:20 08.07.2020
249 Clouds 24 1005 29 0 1.74 200 07:46 08.07.2020
250 Rain 23 1007 33 0 1.99 196 07:22 08.07.2020
251 Rain 23 1007 33 0 1.99 196 06:53 08.07.2020
252 Rain 23 1007 33 0 1.99 196 06:32 08.07.2020
253 Rain 22 1009 37 0 2.01 185 05:50 08.07.2020
254 Rain 20 1010 40 0 1.86 176 05:18 08.07.2020
255 Rain 19 1012 43 0 1.68 157 04:20 08.07.2020
256 Clouds 15 1014 55 0 1.88 160 02:20 08.07.2020
257 Clouds 15 1014 55 0 1.88 160 01:39 08.07.2020
258 Clouds 13 1013 57 0 1.92 162 00:59 08.07.2020
259 Clouds 14 1012 54 0 2.2 164 00:22 08.07.2020
260 Clouds 14 1012 54 0 2.2 164 23:44 07.07.2020
261 Clouds 14 1012 51 0 2.25 165 23:24 07.07.2020
262 Clouds 14 1012 51 0 2.25 165 22:58 07.07.2020
263 Clouds 14 1012 51 0 2.25 165 22:40 07.07.2020
264 Clouds 15 1012 48 0 2.31 166 22:21 07.07.2020
265 Clouds 15 1012 48 0 2.31 166 21:58 07.07.2020
266 Clouds 15 1012 48 0 2.31 166 21:38 07.07.2020
267 Clouds 16 1012 46 0 2.3 166 21:19 07.07.2020
268 Clouds 16 1012 46 0 2.3 166 20:56 07.07.2020
269 Clouds 16 1012 46 0 2.3 166 20:37 07.07.2020
270 Clouds 16 1011 44 0 1.79 150 20:19 07.07.2020
271 Clouds 16 1011 44 0 1.79 150 19:39 07.07.2020
272 Clouds 17 1011 40 0 1.68 129 19:21 07.07.2020
273 Clouds 17 1011 40 0 1.68 129 18:56 07.07.2020
274 Clouds 17 1011 40 0 1.68 129 18:38 07.07.2020
275 Clouds 17 1011 38 0 1.34 112 18:19 07.07.2020
276 Clouds 17 1011 38 0 1.34 112 17:57 07.07.2020
277 Clouds 17 1011 38 0 1.34 112 17:38 07.07.2020
278 Clouds 18 1010 38 0 1.07 72 17:20 07.07.2020
279 Clouds 18 1010 38 0 1.07 72 16:43 07.07.2020
280 Clear 18 1009 37 0 0.97 68 16:23 07.07.2020
281 Clear 18 1009 37 0 0.97 68 15:57 07.07.2020
282 Clear 18 1009 37 0 0.97 68 15:37 07.07.2020
283 Clouds 20 1007 34 0 0.66 60 15:19 07.07.2020
284 Clouds 20 1007 34 0 0.66 60 14:46 07.07.2020
285 Clouds 24 1004 27 0 0.24 103 14:25 07.07.2020
286 Clouds 24 1004 27 0 0.24 103 13:46 07.07.2020
287 Clouds 25 1003 23 0 0.44 248 13:22 07.07.2020
288 Clouds 25 1003 23 0 0.44 248 12:58 07.07.2020
289 Clouds 25 1003 23 0 0.44 248 12:40 07.07.2020
290 Clouds 25 1003 23 0 0.69 230 12:21 07.07.2020
291 Clouds 25 1003 23 0 0.69 230 11:48 07.07.2020
292 Clouds 25 1004 24 0 1.09 217 11:24 07.07.2020
293 Clouds 25 1004 24 0 1.09 217 10:59 07.07.2020
294 Clouds 25 1004 24 0 1.09 217 10:59 07.07.2020
295 Clouds 25 1004 24 0 1.09 217 10:41 07.07.2020
296 Clouds 24 1005 26 0 1.51 193 10:21 07.07.2020
297 Clouds 24 1005 26 0 1.51 193 09:55 07.07.2020
298 Clouds 24 1005 26 0 1.69 201 09:37 07.07.2020
299 Clouds 23 1006 29 0 1.95 193 09:18 07.07.2020
300 Clouds 23 1006 29 0 1.95 193 08:41 07.07.2020
301 Clouds 22 1008 32 0 2.18 187 08:22 07.07.2020
302 Clouds 22 1008 32 0 2.18 187 07:42 07.07.2020
303 Clouds 21 1009 36 0 2.16 182 07:22 07.07.2020
304 Clouds 21 1009 36 0 2.16 182 06:49 07.07.2020
305 Clouds 20 1011 39 0 2.06 172 06:28 07.07.2020
306 Clouds 20 1011 39 0 2.06 172 05:51 07.07.2020
307 Clouds 19 1012 42 0 2.01 173 05:21 07.07.2020
308 Clouds 19 1012 42 0 2.01 173 04:38 07.07.2020
309 Clear 17 1013 45 0 1.86 169 03:35 07.07.2020
310 Clouds 15 1014 56 0 1.79 156 02:21 07.07.2020
311 Clouds 13 1014 61 0 1.82 160 01:22 07.07.2020
312 Clouds 13 1014 61 0 1.82 160 00:43 07.07.2020
313 Clouds 13 1013 60 0 1.94 167 00:24 07.07.2020
314 Clouds 13 1013 60 0 1.94 167 23:55 06.07.2020
315 Clouds 13 1013 60 0 1.94 167 23:37 06.07.2020
316 Clouds 14 1012 59 0 1.84 176 23:18 06.07.2020
317 Clouds 14 1012 59 0 1.84 176 22:41 06.07.2020
318 Clouds 14 1012 59 0 1.84 176 22:41 06.07.2020
319 Rain 15 1012 58 0 2.06 178 22:20 06.07.2020
320 Rain 15 1012 58 0 2.06 178 21:57 06.07.2020
321 Rain 15 1012 58 0 2.06 178 21:39 06.07.2020
322 Rain 15 1012 58 0 2.06 178 21:39 06.07.2020
323 Rain 15 1011 59 0 2.5 175 21:19 06.07.2020
324 Rain 15 1011 59 0 2.5 175 20:59 06.07.2020
325 Rain 15 1011 59 0 2.5 175 20:39 06.07.2020
326 Rain 15 1010 59 0 2.61 183 20:20 06.07.2020
327 Rain 15 1010 59 0 2.61 183 19:57 06.07.2020
328 Rain 15 1010 59 0 2.61 183 19:39 06.07.2020
329 Rain 15 1010 57 0 2.66 181 19:20 06.07.2020
330 Rain 15 1010 57 0 2.66 181 18:55 06.07.2020
331 Rain 15 1010 57 0 2.66 181 18:37 06.07.2020
332 Rain 16 1009 52 0 3.47 180 18:18 06.07.2020
333 Rain 16 1009 52 0 3.47 180 17:42 06.07.2020
334 Rain 18 1008 45 0 3.46 181 17:24 06.07.2020
335 Rain 18 1008 45 0 3.46 181 16:55 06.07.2020
336 Rain 18 1008 45 0 3.46 181 16:37 06.07.2020
337 Clouds 19 1006 37 0 2.68 177 16:18 06.07.2020
338 Clouds 19 1006 37 0 2.68 177 15:42 06.07.2020
339 Clouds 20 1004 33 0 2.07 182 15:24 06.07.2020
340 Clouds 20 1004 33 0 2.07 182 14:57 06.07.2020
341 Clouds 20 1004 33 0 2.07 182 14:38 06.07.2020
342 Clouds 24 1001 30 0 1.75 195 14:19 06.07.2020
343 Clouds 24 1001 30 0 1.72 194 13:51 06.07.2020
344 Clouds 24 1000 24 0 1.34 210 13:28 06.07.2020
345 Clouds 24 1000 24 0 1.34 210 12:59 06.07.2020
346 Clouds 24 1000 24 0 1.34 210 12:41 06.07.2020
347 Clouds 24 1000 24 0 1.54 226 12:18 06.07.2020
348 Clouds 24 1000 24 0 1.54 226 11:57 06.07.2020
349 Clouds 24 1000 24 0 1.54 226 11:37 06.07.2020
350 Clouds 24 1001 25 0 1.95 222 11:19 06.07.2020
351 Clouds 24 1001 25 0 1.95 222 10:42 06.07.2020
352 Clouds 24 1002 27 0 2.18 211 10:22 06.07.2020
353 Clouds 24 1002 27 0 2.18 211 09:58 06.07.2020
354 Clouds 24 1002 27 0 2.18 211 09:39 06.07.2020
355 Clouds 23 1003 28 0 2.61 203 09:21 06.07.2020
356 Clouds 23 1003 28 0 2.61 203 08:55 06.07.2020
357 Clouds 23 1003 28 0 2.61 203 08:36 06.07.2020
358 Clouds 22 1005 31 0 2.81 193 08:18 06.07.2020
359 Clouds 22 1005 31 0 2.81 193 08:18 06.07.2020
360 Clouds 22 1005 31 0 2.81 193 07:40 06.07.2020
361 Clouds 21 1006 35 0 2.9 183 07:22 06.07.2020
362 Clouds 21 1006 35 0 2.9 183 06:39 06.07.2020
363 Clouds 19 1008 38 0 2.75 177 06:21 06.07.2020
364 Clouds 19 1008 38 0 2.75 177 05:38 06.07.2020
365 Clouds 18 1009 42 0 2.47 168 04:52 06.07.2020
366 Clouds 15 1010 49 0 2.02 156 03:26 06.07.2020
367 Clouds 14 1011 57 0 1.7 155 02:22 06.07.2020
368 Clouds 12 1010 63 0 1.46 148 01:28 06.07.2020
369 Clouds 12 1010 63 0 1.46 148 00:36 06.07.2020
370 Clouds 12 1010 62 0 1.39 144 00:18 06.07.2020
371 Clouds 12 1010 62 0 1.39 144 23:41 05.07.2020
372 Clouds 13 1009 61 0 1.33 142 23:23 05.07.2020
373 Clouds 13 1009 61 0 1.33 142 22:59 05.07.2020
374 Clouds 13 1009 61 0 1.33 142 22:40 05.07.2020
375 Clouds 13 1009 60 0 1.43 154 22:20 05.07.2020
376 Clouds 13 1009 60 0 1.43 154 21:57 05.07.2020
377 Clouds 13 1009 60 0 1.43 154 21:38 05.07.2020
378 Clouds 13 1009 62 0 2.01 145 21:18 05.07.2020
379 Clouds 13 1009 62 0 2.01 145 20:57 05.07.2020
380 Clouds 13 1009 62 0 2.01 145 20:38 05.07.2020
381 Rain 14 1009 63 0 2.63 149 20:20 05.07.2020
382 Rain 14 1009 63 0 2.63 149 19:43 05.07.2020
383 Rain 14 1009 63 0 2.63 149 19:43 05.07.2020
384 Rain 14 1009 64 0 3.22 151 19:21 05.07.2020
385 Rain 14 1009 64 0 3.22 151 18:56 05.07.2020
386 Rain 14 1009 64 0 3.22 151 18:37 05.07.2020
387 Rain 14 1009 64 0 3.22 151 18:37 05.07.2020
388 Rain 15 1008 61 0 3.79 157 18:19 05.07.2020
389 Rain 15 1008 61 0 3.79 157 17:43 05.07.2020
390 Rain 16 1007 56 0 4 156 17:20 05.07.2020
391 Rain 16 1007 56 0 4 156 16:59 05.07.2020
392 Rain 16 1007 56 0 4 156 16:41 05.07.2020
393 Rain 18 1005 44 0 3.21 163 16:22 05.07.2020
394 Rain 18 1005 44 0 3.21 163 15:41 05.07.2020
395 Clouds 20 1003 37 0 3.18 174 15:20 05.07.2020
396 Clouds 20 1003 37 0 3.18 174 14:59 05.07.2020
397 Clouds 20 1003 37 0 3.18 174 14:40 05.07.2020
398 Clouds 23 1001 30 0 2.37 181 14:20 05.07.2020
399 Clouds 23 1001 30 0 2.37 181 13:41 05.07.2020
400 Clouds 23 1001 30 0 2.37 181 13:41 05.07.2020
401 Clouds 24 999 24 0 1.83 204 13:23 05.07.2020
402 Clouds 24 999 24 0 1.83 204 12:46 05.07.2020
403 Clouds 24 999 23 0 1.77 226 12:25 05.07.2020
404 Clouds 24 999 23 0 1.77 226 11:58 05.07.2020
405 Clouds 24 999 23 0 1.77 226 11:39 05.07.2020
406 Clouds 24 999 24 0 1.99 218 11:21 05.07.2020
407 Clouds 24 999 24 0 1.99 218 10:57 05.07.2020
408 Clouds 24 999 24 0 1.99 218 10:38 05.07.2020
409 Clouds 24 1000 26 0 2.27 206 10:19 05.07.2020
410 Clouds 24 1000 26 0 2.27 206 09:42 05.07.2020
411 Clouds 23 1001 28 0 2.49 205 09:21 05.07.2020
412 Clouds 23 1001 28 0 2.49 205 08:58 05.07.2020
413 Clouds 23 1001 28 0 2.49 205 08:38 05.07.2020
414 Clouds 23 1001 28 0 2.49 205 08:38 05.07.2020
415 Clouds 23 1001 28 0 2.49 205 08:38 05.07.2020
416 Rain 22 1003 31 0 2.49 201 08:20 05.07.2020
417 Rain 22 1003 31 0 2.49 201 07:44 05.07.2020
418 Rain 21 1005 34 0 2.62 193 07:26 05.07.2020
419 Rain 21 1005 34 0 2.62 193 06:49 05.07.2020
420 Rain 18 1008 40 0 2.4 178 04:42 05.07.2020
421 Clouds 16 1010 48 0 2.48 166 03:19 05.07.2020
422 Clouds 16 1010 48 0 2.48 166 02:41 05.07.2020
423 Clouds 14 1010 53 0 2.23 169 01:59 05.07.2020
424 Clouds 14 1010 53 0 2.23 169 01:31 05.07.2020
425 Clouds 13 1010 56 0 2.09 167 00:53 05.07.2020
426 Clouds 13 1010 56 0 2.09 167 00:31 05.07.2020
427 Clouds 13 1009 55 0 2.34 166 23:58 04.07.2020
428 Clouds 13 1009 55 0 2.34 166 23:40 04.07.2020
429 Clouds 14 1009 54 0 2.47 168 23:22 04.07.2020
430 Clouds 14 1009 54 0 2.47 168 22:43 04.07.2020
431 Clouds 15 1010 51 0 2.55 169 22:25 04.07.2020
432 Clouds 15 1010 51 0 2.55 169 21:58 04.07.2020
433 Clouds 15 1010 51 0 2.55 169 21:40 04.07.2020
434 Clouds 15 1009 51 0 2.95 167 21:22 04.07.2020
435 Clouds 15 1009 51 0 2.95 167 20:43 04.07.2020
436 Rain 16 1009 50 0 3.13 166 20:22 04.07.2020
437 Rain 16 1009 50 0 3.13 166 20:00 04.07.2020
438 Rain 16 1009 50 0 3.13 166 19:41 04.07.2020
439 Rain 16 1008 49 0 3.49 171 19:21 04.07.2020
440 Rain 16 1008 49 0 3.49 171 19:21 04.07.2020
441 Rain 16 1008 49 0 3.49 171 18:46 04.07.2020
442 Rain 17 1007 48 0 3.37 171 18:24 04.07.2020
443 Rain 17 1007 48 0 3.37 171 17:59 04.07.2020
444 Rain 17 1007 48 0 3.37 171 17:41 04.07.2020
445 Rain 18 1005 46 0 3.52 160 17:22 04.07.2020
446 Rain 18 1005 46 0 3.52 160 16:56 04.07.2020
447 Rain 18 1005 46 0 3.52 160 16:37 04.07.2020
448 Clouds 19 1004 40 0 3.87 159 16:18 04.07.2020
449 Clouds 19 1004 40 0 3.87 159 15:42 04.07.2020
450 Clouds 20 1002 37 0 2.3 169 15:24 04.07.2020
451 Clouds 20 1002 37 0 2.3 169 14:58 04.07.2020
452 Clouds 20 1002 37 0 2.3 169 14:37 04.07.2020
453 Clouds 23 1001 32 0 1.81 199 14:18 04.07.2020
454 Clouds 23 1000 30 0 1.86 219 13:56 04.07.2020
455 Clouds 23 1000 30 0 1.86 219 13:36 04.07.2020
456 Clouds 24 999 24 0 2.09 228 13:18 04.07.2020
457 Clouds 24 999 24 0 2.09 228 12:40 04.07.2020
458 Clouds 24 999 25 0 2.2 227 12:20 04.07.2020
459 Clouds 24 999 25 0 2.2 227 11:45 04.07.2020
460 Clouds 24 1000 26 0 2.36 231 11:25 04.07.2020
461 Clouds 24 1000 26 0 2.36 231 10:59 04.07.2020
462 Clouds 24 1000 26 0 2.36 231 10:39 04.07.2020
463 Clouds 23 1001 27 0 2.62 221 10:20 04.07.2020
464 Clouds 23 1001 27 0 2.62 221 09:55 04.07.2020
465 Clouds 23 1001 27 0 3.04 214 09:36 04.07.2020
466 Clouds 23 1002 29 0 3.11 205 09:18 04.07.2020
467 Clouds 23 1002 29 0 3.11 205 08:45 04.07.2020
468 Clouds 22 1004 32 0 2.67 200 08:26 04.07.2020
469 Clouds 22 1004 32 0 2.67 200 07:43 04.07.2020
470 Rain 20 1005 37 0 2.25 194 07:25 04.07.2020
471 Rain 20 1005 37 0 2.25 194 06:48 04.07.2020
472 Rain 18 1007 42 0 1.89 185 06:20 04.07.2020
473 Rain 18 1007 42 0 1.89 185 05:32 04.07.2020
474 Clouds 15 1010 52 0 1.55 128 04:23 04.07.2020
475 Clouds 14 1012 58 0 1.54 101 02:48 04.07.2020
476 Clouds 15 1012 54 0 1.87 147 01:51 04.07.2020
477 Clouds 14 1011 57 0 1.75 147 00:59 04.07.2020
478 Clouds 14 1011 57 0 1.75 147 00:40 04.07.2020
479 Clouds 14 1011 58 0 1.65 155 00:21 04.07.2020
480 Clouds 14 1011 58 0 1.65 155 23:39 03.07.2020
481 Rain 14 1011 57 0 1.85 158 23:18 03.07.2020
482 Rain 14 1011 57 0 1.85 158 23:18 03.07.2020
483 Rain 14 1011 57 0 1.85 158 22:54 03.07.2020
484 Rain 14 1011 57 0 1.85 158 22:36 03.07.2020
485 Rain 14 1011 58 0 1.84 160 22:18 03.07.2020
486 Rain 14 1011 58 0 1.84 160 21:39 03.07.2020
487 Rain 15 1010 60 0 1.53 122 21:20 03.07.2020
488 Rain 15 1010 60 0 1.53 122 20:55 03.07.2020
489 Rain 15 1010 60 0 1.53 122 20:36 03.07.2020
490 Rain 15 1011 58 0 1.95 134 20:18 03.07.2020
491 Rain 15 1011 58 0 1.95 134 19:40 03.07.2020
492 Rain 16 1010 56 0 2.81 159 19:19 03.07.2020
493 Rain 16 1010 56 0 2.81 159 18:55 03.07.2020
494 Rain 16 1010 56 0 2.81 159 18:36 03.07.2020
495 Rain 16 1010 53 0 3.17 159 18:18 03.07.2020
496 Rain 16 1010 53 0 3.17 159 17:41 03.07.2020
497 Rain 17 1008 46 0 2.7 158 17:22 03.07.2020
498 Rain 17 1008 46 0 2.7 158 16:45 03.07.2020
499 Rain 19 1006 41 0 1.43 176 16:26 03.07.2020
500 Rain 19 1006 41 0 1.43 176 15:48 03.07.2020
501 Clouds 19 1004 38 0 0.77 241 15:25 03.07.2020
502 Clouds 19 1004 38 0 0.77 241 14:58 03.07.2020
503 Clouds 20 1004 36 0 1.46 235 14:40 03.07.2020
504 Clouds 23 1003 32 0 1.24 219 14:21 03.07.2020
505 Clouds 23 1002 32 0 1.47 236 13:48 03.07.2020
506 Clouds 24 1001 27 0 1.96 224 13:29 03.07.2020
507 Clouds 24 1001 27 0 1.96 224 12:57 03.07.2020
508 Clouds 24 1001 27 0 1.96 224 12:39 03.07.2020
509 Clouds 24 1000 27 0 2.06 228 12:20 03.07.2020
510 Clouds 24 1000 27 0 2.06 228 11:43 03.07.2020
511 Clouds 24 1000 27 0 2.31 226 11:25 03.07.2020
512 Clouds 24 1000 27 0 2.31 226 10:58 03.07.2020
513 Clouds 24 1000 27 0 2.31 226 10:39 03.07.2020
514 Clouds 23 1001 28 0 2.34 221 10:20 03.07.2020
515 Clouds 23 1001 28 0 2.34 221 09:55 03.07.2020
516 Clouds 23 1001 28 0 2.34 221 09:37 03.07.2020
517 Clouds 23 1004 29 0 2.52 206 09:18 03.07.2020
518 Clouds 23 1004 29 0 2.52 206 08:40 03.07.2020
519 Clouds 22 1005 32 0 2.5 196 08:19 03.07.2020
520 Clouds 22 1005 32 0 2.5 196 07:49 03.07.2020
521 Clouds 21 1007 35 0 2.35 187 07:26 03.07.2020
522 Clouds 21 1007 35 0 2.35 187 06:54 03.07.2020
523 Clouds 20 1008 38 0 2.22 180 06:20 03.07.2020
524 Clouds 18 1009 41 0 2.22 174 04:55 03.07.2020
525 Clouds 17 1010 45 0 2.13 164 03:45 03.07.2020
526 Clouds 15 1011 51 0 1.74 153 02:49 03.07.2020
527 Clouds 15 1011 57 0 1.82 158 02:29 03.07.2020
528 Clouds 14 1011 61 0 1.77 141 01:28 03.07.2020
529 Clouds 14 1011 61 0 1.77 141 00:50 03.07.2020
530 Clouds 14 1011 61 0 1.77 141 00:32 03.07.2020
531 Rain 14 1011 60 0 2.17 148 23:47 02.07.2020
532 Rain 14 1011 60 0 2.04 147 23:20 02.07.2020
533 Rain 14 1011 60 0 2.04 147 22:58 02.07.2020
534 Rain 14 1011 60 0 2.04 147 22:40 02.07.2020
535 Rain 15 1010 59 0 1.36 138 22:20 02.07.2020
536 Rain 15 1010 59 0 1.36 138 21:57 02.07.2020
537 Rain 15 1010 59 0 1.36 138 21:39 02.07.2020
538 Rain 15 1010 60 0 1.45 137 21:19 02.07.2020
539 Rain 15 1010 60 0 1.45 137 20:57 02.07.2020
540 Rain 15 1010 60 0 1.45 137 20:39 02.07.2020
541 Rain 15 1010 60 0 1.98 176 20:18 02.07.2020
542 Rain 15 1010 60 0 1.98 176 19:42 02.07.2020
543 Rain 15 1010 57 0 2.53 158 19:23 02.07.2020
544 Rain 15 1010 57 0 2.53 158 19:23 02.07.2020
545 Rain 15 1010 57 0 2.53 158 18:58 02.07.2020
546 Rain 15 1010 57 0 2.53 158 18:40 02.07.2020
547 Rain 16 1008 51 0 2.77 148 18:21 02.07.2020
548 Rain 16 1008 51 0 2.77 148 17:54 02.07.2020
549 Rain 16 1008 51 0 2.77 148 17:36 02.07.2020
550 Rain 17 1007 46 0 2.56 151 17:18 02.07.2020
551 Rain 17 1007 46 0 2.56 151 16:41 02.07.2020
552 Rain 18 1005 44 0 0.3 323 16:20 02.07.2020
553 Rain 18 1005 44 0 0.3 323 15:55 02.07.2020
554 Rain 18 1005 44 0 0.3 323 15:36 02.07.2020
555 Clouds 19 1002 40 0 1.29 329 15:18 02.07.2020
556 Clouds 19 1002 40 0 1.29 329 14:44 02.07.2020
557 Clouds 19 1002 40 0 1.29 329 14:44 02.07.2020
558 Clouds 22 1000 37 0 1.61 311 14:21 02.07.2020
559 Clouds 22 1000 37 0 1.61 311 13:56 02.07.2020
560 Clouds 22 1000 37 0 1.61 311 13:37 02.07.2020
561 Clouds 22 999 33 0 1.46 292 13:18 02.07.2020
562 Clouds 22 999 33 0 1.46 292 12:41 02.07.2020
563 Clouds 22 999 32 0 1.22 282 12:22 02.07.2020
564 Clouds 22 999 32 0 1.22 282 11:57 02.07.2020
565 Clouds 22 999 32 0 1.22 282 11:39 02.07.2020
566 Clouds 22 999 32 0 1.25 270 11:21 02.07.2020
567 Clouds 22 999 32 0 1.25 270 10:42 02.07.2020
568 Rain 23 1000 32 0 1.63 234 10:24 02.07.2020
569 Rain 23 1000 32 0 1.63 234 09:45 02.07.2020
570 Clouds 23 1001 31 0 2.01 203 09:23 02.07.2020
571 Clouds 23 1001 31 0 2.01 203 08:59 02.07.2020
572 Clouds 23 1001 31 0 2.01 203 08:40 02.07.2020
573 Rain 22 1003 34 0 2.42 187 08:20 02.07.2020
574 Rain 22 1003 34 0 2.42 187 07:42 02.07.2020
575 Rain 21 1005 37 0 2.18 179 07:22 02.07.2020
576 Rain 21 1005 37 0 2.18 179 06:50 02.07.2020
577 Rain 20 1006 41 0 1.99 165 06:27 02.07.2020
578 Rain 20 1006 41 0 1.99 165 05:50 02.07.2020
579 Rain 19 1007 44 0 1.74 142 04:58 02.07.2020
580 Rain 17 1008 48 0 1.7 135 03:34 02.07.2020
581 Clouds 14 1010 59 0 1.26 155 01:51 02.07.2020
582 Rain 13 1010 64 0 1.35 145 00:45 02.07.2020
583 Rain 13 1010 63 0 1.56 132 00:19 02.07.2020
584 Rain 13 1010 63 0 1.56 132 23:43 01.07.2020
585 Rain 13 1010 61 0 1.5 127 23:23 01.07.2020
586 Rain 13 1010 61 0 1.5 127 22:55 01.07.2020
587 Rain 13 1010 61 0 1.5 127 22:37 01.07.2020
588 Rain 14 1010 58 0 1.24 133 22:19 01.07.2020
589 Rain 14 1010 58 0 1.24 133 21:57 01.07.2020
590 Rain 14 1010 58 0 1.24 133 21:39 01.07.2020
591 Rain 15 1009 52 0 1.19 129 21:20 01.07.2020
592 Rain 15 1009 52 0 1.19 129 20:46 01.07.2020
593 Clouds 15 1009 51 0 0.72 125 20:28 01.07.2020
594 Clouds 15 1009 51 0 0.72 125 19:58 01.07.2020
595 Clouds 15 1009 51 0 0.72 125 19:40 01.07.2020
596 Clouds 16 1009 51 0 0.41 116 19:21 01.07.2020
597 Clouds 16 1009 51 0 0.41 116 18:58 01.07.2020
598 Clouds 16 1009 51 0 0.41 116 18:40 01.07.2020
599 Rain 16 1007 49 0 0.23 160 18:21 01.07.2020
600 Rain 16 1007 49 0 0.23 160 17:55 01.07.2020
601 Rain 16 1007 49 0 0.23 160 17:37 01.07.2020
602 Clouds 17 1005 46 0 0.75 142 17:18 01.07.2020
603 Clouds 17 1005 46 0 0.75 142 16:42 01.07.2020
604 Clouds 17 1005 46 0 0.75 142 16:42 01.07.2020
605 Clouds 17 1003 47 0 0.44 176 16:23 01.07.2020
606 Clouds 17 1003 47 0 0.44 176 15:43 01.07.2020
607 Clouds 18 1002 44 0 0.41 195 15:23 01.07.2020
608 Clouds 18 1002 44 0 0.41 195 14:58 01.07.2020
609 Clouds 18 1002 44 0 0.41 195 14:39 01.07.2020
610 Clouds 22 1001 31 0 0.05 189 14:20 01.07.2020
611 Clouds 21 1001 33 0 0.46 130 13:55 01.07.2020
612 Clouds 21 1001 33 0 0.46 130 13:36 01.07.2020
613 Clouds 22 1001 32 0 0.46 193 13:18 01.07.2020
614 Clouds 22 1001 32 0 0.46 193 12:41 01.07.2020
615 Clouds 22 1001 33 0 1.45 177 12:23 01.07.2020
616 Clouds 22 1001 33 0 1.45 177 11:59 01.07.2020
617 Clouds 22 1001 33 0 1.45 177 11:40 01.07.2020
618 Rain 21 1002 35 0 1.11 188 11:21 01.07.2020
619 Rain 21 1002 35 0 1.11 188 10:56 01.07.2020
620 Rain 21 1002 35 0 1.11 188 10:38 01.07.2020
621 Rain 21 1004 37 0 1.33 210 10:20 01.07.2020
622 Rain 21 1004 37 0 1.33 210 09:38 01.07.2020
623 Rain 20 1004 39 0 1.71 191 09:20 01.07.2020
624 Rain 20 1004 39 0 1.71 191 08:59 01.07.2020
625 Rain 20 1004 39 0 1.71 191 08:40 01.07.2020
626 Rain 18 1006 45 0 2.05 178 08:19 01.07.2020
627 Rain 18 1006 45 0 2.05 178 07:42 01.07.2020
628 Rain 17 1008 50 0 3.19 184 07:24 01.07.2020
629 Rain 17 1008 50 0 3.19 184 06:57 01.07.2020
630 Rain 17 1008 50 0 3.19 184 06:38 01.07.2020
631 Rain 17 1010 53 0 3.67 180 06:20 01.07.2020
632 Rain 16 1011 56 0 2.64 177 04:30 01.07.2020
633 Rain 15 1012 57 0 1.45 173 03:42 01.07.2020
634 Rain 14 1012 58 0 0.31 162 03:22 01.07.2020
635 Rain 13 1013 61 0 0.38 338 02:19 01.07.2020
636 Rain 12 1012 64 0 1.01 32 01:23 01.07.2020
637 Rain 12 1012 64 0 1.01 32 00:38 01.07.2020
638 Rain 13 1012 63 0 1.17 32 00:19 01.07.2020
639 Rain 13 1012 63 0 1.17 32 23:40 30.06.2020
640 Rain 13 1011 63 0 1.34 46 23:20 30.06.2020
641 Rain 13 1011 63 0 1.34 46 22:42 30.06.2020
642 Rain 14 1011 61 0 1.91 32 22:19 30.06.2020
643 Rain 14 1011 61 0 1.91 32 21:54 30.06.2020
644 Rain 14 1011 61 0 1.91 32 21:36 30.06.2020
645 Rain 15 1011 56 0 1.78 31 21:18 30.06.2020
646 Rain 14 1011 61 0 2 16 20:42 30.06.2020
647 Rain 15 1011 55 0 1.34 28 20:21 30.06.2020
648 Rain 15 1011 55 0 1.34 28 19:44 30.06.2020
649 Rain 17 1010 44 0 0.83 165 19:21 30.06.2020
650 Rain 17 1010 44 0 0.83 165 18:58 30.06.2020
651 Rain 17 1010 44 0 0.83 165 18:40 30.06.2020
652 Rain 17 1009 42 0 0.63 111 18:20 30.06.2020
653 Rain 17 1009 42 0 0.63 111 17:39 30.06.2020
654 Clouds 18 1008 40 0 0.64 135 17:20 30.06.2020
655 Clouds 18 1008 40 0 0.64 135 16:57 30.06.2020
656 Clouds 18 1008 40 0 0.64 135 16:39 30.06.2020
657 Clouds 18 1005 41 0 0.4 125 16:19 30.06.2020
658 Clouds 18 1005 41 0 0.4 125 15:56 30.06.2020
659 Clouds 18 1005 41 0 0.4 125 15:37 30.06.2020
660 Clouds 19 1003 36 0 0.67 339 15:19 30.06.2020
661 Clouds 19 1003 36 0 0.67 339 14:43 30.06.2020
662 Clouds 23 1002 27 0 0.86 303 14:21 30.06.2020
663 Clouds 24 1001 27 0 1.24 350 13:57 30.06.2020
664 Clouds 24 1001 27 0 1.24 350 13:37 30.06.2020
665 Clouds 24 1000 23 0 1.25 275 13:19 30.06.2020
666 Clouds 24 1000 23 0 1.25 275 12:55 30.06.2020
667 Clouds 24 1000 23 0 1.25 275 12:37 30.06.2020
668 Clouds 24 1001 24 0 1.4 253 12:18 30.06.2020
669 Clouds 24 1001 24 0 1.4 253 12:18 30.06.2020
670 Clouds 24 1001 24 0 1.4 253 11:56 30.06.2020
671 Clouds 24 1001 24 0 1.4 253 11:37 30.06.2020
672 Clouds 24 1001 25 0 1.33 247 11:18 30.06.2020
673 Rain 17 1009 47 0 3.93 168 16:47 28.06.2020
674 Rain 19 1008 40 0 1.48 174 16:28 28.06.2020
675 Rain 19 1008 40 0 1.48 174 15:59 28.06.2020
676 Rain 19 1008 40 0 1.48 174 15:39 28.06.2020
677 Clouds 20 1006 36 0 0.45 254 15:20 28.06.2020
678 Clouds 20 1006 36 0 0.45 254 14:57 28.06.2020
679 Clouds 20 1006 36 0 0.45 254 14:38 28.06.2020
680 Clouds 23 1002 28 0 1.04 179 14:20 28.06.2020
681 Clouds 23 1002 28 0 1.04 179 13:40 28.06.2020
682 Clouds 23 1001 25 0 1.67 194 13:21 28.06.2020
683 Clouds 23 1001 25 0 1.67 194 12:58 28.06.2020
684 Clouds 23 1001 25 0 1.67 194 12:38 28.06.2020
685 Clouds 23 1001 27 0 2.1 194 12:19 28.06.2020
686 Clouds 23 1001 27 0 2.1 194 11:58 28.06.2020
687 Clouds 23 1001 27 0 2.1 194 11:39 28.06.2020
688 Clouds 23 1001 29 0 1.66 213 11:20 28.06.2020
689 Clouds 23 1001 29 0 1.66 213 10:58 28.06.2020
690 Clouds 23 1001 29 0 1.66 213 10:39 28.06.2020
691 Clouds 22 1002 31 0 1.62 210 10:21 28.06.2020
692 Clouds 22 1002 31 0 1.62 210 09:41 28.06.2020
693 Clouds 21 1003 34 0 1.66 199 09:22 28.06.2020
694 Clouds 22 1003 34 0 1.4 197 08:55 28.06.2020
695 Clouds 22 1003 34 0 1.4 197 08:35 28.06.2020
696 Rain 20 1005 38 0 1.41 194 07:55 28.06.2020
697 Rain 20 1005 38 0 1.41 194 07:31 28.06.2020
698 Rain 19 1007 42 0 1.16 161 06:56 28.06.2020
699 Rain 19 1007 42 0 1.16 161 06:32 28.06.2020
700 Rain 17 1008 48 0 1.28 126 05:45 28.06.2020
701 Clouds 13 1011 60 0 1.02 67 04:24 28.06.2020
702 Clouds 12 1011 63 0 1.3 57 02:57 28.06.2020
703 Clouds 12 1011 67 0 1.3 48 02:20 28.06.2020
704 Clouds 11 1011 69 0 1.5 31 01:27 28.06.2020
705 Clouds 11 1011 69 0 1.5 31 00:55 28.06.2020
706 Clouds 11 1011 69 0 1.5 31 00:30 28.06.2020
707 Clouds 11 1011 68 0 1.66 21 23:58 27.06.2020
708 Clouds 11 1011 68 0 1.66 21 23:39 27.06.2020
709 Clouds 11 1011 68 0 1.81 15 23:19 27.06.2020
710 Clouds 11 1011 68 0 1.81 15 22:42 27.06.2020
711 Rain 11 1011 69 0 2.02 19 22:23 27.06.2020
712 Rain 11 1011 69 0 2.02 19 21:59 27.06.2020
713 Rain 11 1011 69 0 2.02 19 21:40 27.06.2020
714 Rain 12 1010 68 0 2.61 55 21:20 27.06.2020
715 Rain 12 1010 68 0 2.61 55 21:20 27.06.2020
716 Rain 12 1010 68 0 2.61 55 20:55 27.06.2020
717 Rain 12 1010 68 0 2.61 55 20:37 27.06.2020
718 Rain 13 1010 66 0 1.84 72 20:18 27.06.2020
719 Rain 13 1010 66 0 1.84 72 19:37 27.06.2020
720 Rain 14 1010 63 0 1.81 95 19:19 27.06.2020
721 Rain 14 1010 63 0 1.81 95 19:19 27.06.2020
722 Rain 14 1010 63 0 1.81 95 18:48 27.06.2020
723 Rain 14 1010 60 0 2.35 119 18:29 27.06.2020
724 Rain 14 1010 60 0 2.35 119 17:59 27.06.2020
725 Rain 14 1010 60 0 2.35 119 17:40 27.06.2020
726 Rain 14 1009 59 0 2.94 112 17:20 27.06.2020
727 Rain 14 1009 59 0 2.94 112 16:57 27.06.2020
728 Rain 14 1009 59 0 2.94 112 16:38 27.06.2020
729 Rain 16 1006 53 0 3.38 132 16:19 27.06.2020
730 Rain 16 1006 53 0 3.38 132 15:42 27.06.2020
731 Rain 19 1004 40 0 3.26 172 15:24 27.06.2020
732 Rain 19 1004 40 0 3.26 172 15:24 27.06.2020
733 Rain 19 1004 40 0 3.26 172 14:56 27.06.2020
734 Rain 19 1004 40 0 3.26 172 14:37 27.06.2020
735 Clouds 23 1000 29 0 1.89 193 14:19 27.06.2020
736 Clouds 23 1000 29 0 1.89 193 13:41 27.06.2020
737 Clouds 24 999 23 0 1.93 223 13:20 27.06.2020
738 Clouds 24 999 23 0 1.93 223 12:58 27.06.2020
739 Clouds 24 999 23 0 1.93 223 12:40 27.06.2020
740 Clouds 24 998 22 0 1.92 225 12:21 27.06.2020
741 Clouds 24 998 22 0 1.92 225 11:57 27.06.2020
742 Clouds 24 998 22 0 1.92 225 11:37 27.06.2020
743 Clouds 24 998 23 0 2.11 223 11:19 27.06.2020
744 Clouds 24 998 23 0 2.11 223 10:40 27.06.2020
745 Clouds 24 998 25 0 2.61 213 10:19 27.06.2020
746 Clouds 24 998 25 0 2.61 213 09:57 27.06.2020
747 Clouds 24 998 25 0 2.61 213 09:37 27.06.2020
748 Clouds 23 999 28 0 2.75 209 09:19 27.06.2020
749 Clouds 23 999 27 0 2.73 207 08:41 27.06.2020
750 Clouds 22 1000 30 0 2.56 202 08:22 27.06.2020
751 Clouds 22 1000 30 0 2.56 202 08:22 27.06.2020
752 Clouds 22 1000 30 0 2.56 202 07:46 27.06.2020
753 Rain 21 1002 34 0 2.48 195 07:25 27.06.2020
754 Rain 21 1002 34 0 2.48 195 06:50 27.06.2020
755 Rain 21 1002 34 0 2.48 195 06:31 27.06.2020
756 Rain 17 1006 46 0 1.9 181 04:24 27.06.2020
757 Rain 17 1006 46 0 1.9 181 03:54 27.06.2020
758 Rain 17 1006 46 0 1.9 181 03:30 27.06.2020
759 Clouds 16 1007 48 0 1.82 152 02:36 27.06.2020
760 Clouds 15 1008 54 0 1.63 151 01:49 27.06.2020
761 Clouds 14 1008 57 0 1.18 153 01:24 27.06.2020
762 Clouds 14 1008 57 0 1.18 153 00:41 27.06.2020
763 Clouds 13 1007 59 0 1.08 156 23:47 26.06.2020
764 Rain 14 1007 59 0 1.2 142 23:27 26.06.2020
765 Rain 14 1007 59 0 1.2 142 22:57 26.06.2020
766 Rain 14 1007 59 0 1.2 142 22:39 26.06.2020
767 Rain 14 1008 57 0 1.72 137 22:20 26.06.2020
768 Rain 14 1008 57 0 1.72 137 21:57 26.06.2020
769 Rain 14 1008 57 0 1.72 137 21:38 26.06.2020
770 Rain 14 1007 61 0 1.81 100 21:20 26.06.2020
771 Rain 14 1007 61 0 1.81 100 20:46 26.06.2020
772 Rain 15 1007 58 0 1.36 71 20:26 26.06.2020
773 Rain 15 1007 58 0 1.36 71 19:47 26.06.2020
774 Rain 16 1007 54 0 0.44 70 19:24 26.06.2020
775 Rain 16 1007 54 0 0.44 70 18:58 26.06.2020
776 Rain 16 1007 54 0 0.44 70 18:38 26.06.2020
777 Rain 16 1007 54 0 1.7 157 18:20 26.06.2020
778 Rain 16 1007 54 0 1.7 157 17:44 26.06.2020
779 Rain 17 1006 49 0 2.98 168 17:26 26.06.2020
780 Rain 17 1006 49 0 2.98 168 16:51 26.06.2020
781 Rain 18 1005 41 0 3.13 172 16:28 26.06.2020
782 Rain 18 1005 41 0 3.13 172 15:58 26.06.2020
783 Rain 18 1005 41 0 3.13 172 15:39 26.06.2020
784 Clouds 19 1002 38 0 2.16 169 15:21 26.06.2020
785 Clouds 19 1002 38 0 2.16 169 14:57 26.06.2020
786 Clouds 19 1002 38 0 2.16 169 14:57 26.06.2020
787 Clouds 19 1002 38 0 2.16 169 14:38 26.06.2020
788 Clouds 22 1000 29 0 2.92 207 14:20 26.06.2020
789 Clouds 22 1000 32 0 3.3 192 13:44 26.06.2020
790 Clouds 23 998 27 0 3.44 224 13:23 26.06.2020
791 Clouds 23 998 27 0 3.44 224 12:56 26.06.2020
792 Clouds 23 998 27 0 3.44 224 12:38 26.06.2020
793 Clouds 24 998 25 0 2.96 217 12:18 26.06.2020
794 Clouds 24 998 25 0 2.96 217 11:56 26.06.2020
795 Clouds 24 998 25 0 2.96 217 11:37 26.06.2020
796 Clouds 24 998 25 0 2.14 209 11:18 26.06.2020
797 Clouds 24 998 25 0 2.14 209 10:55 26.06.2020
798 Clouds 24 998 25 0 2.14 209 10:37 26.06.2020
799 Clouds 23 999 27 0 1.98 207 10:18 26.06.2020
800 Clouds 23 999 27 0 1.98 207 09:41 26.06.2020
801 Clouds 22 999 30 0 2.47 217 09:19 26.06.2020
802 Clouds 23 999 28 0 2.7 218 08:45 26.06.2020
803 Rain 22 1001 33 0 2.62 211 08:27 26.06.2020
804 Rain 22 1001 33 0 2.62 211 07:48 26.06.2020
805 Rain 21 1003 36 0 2.58 207 07:23 26.06.2020
806 Rain 21 1003 36 0 2.58 207 06:49 26.06.2020
807 Rain 21 1003 36 0 2.58 207 06:30 26.06.2020
808 Rain 19 1005 38 0 2.45 201 05:52 26.06.2020
809 Clouds 18 1006 42 0 1.89 191 05:18 26.06.2020
810 Clouds 15 1009 54 0 1.79 201 02:32 26.06.2020
811 Rain 14 1009 57 0 1.91 196 01:35 26.06.2020
812 Clouds 14 1009 55 0 1.71 175 00:50 26.06.2020
813 Clouds 14 1009 55 0 1.71 175 00:30 26.06.2020
814 Clouds 14 1008 55 0 1.34 167 23:47 25.06.2020
815 Clouds 14 1008 55 0 1.6 158 23:22 25.06.2020
816 Clouds 14 1008 55 0 1.6 158 22:58 25.06.2020
817 Clouds 14 1008 55 0 1.6 158 22:39 25.06.2020
818 Clouds 14 1008 56 0 2.01 159 22:20 25.06.2020
819 Clouds 14 1008 56 0 2.01 159 21:58 25.06.2020
820 Clouds 14 1008 56 0 2.01 159 21:39 25.06.2020
821 Clouds 14 1007 55 0 2.17 169 21:20 25.06.2020
822 Clouds 14 1007 55 0 2.17 169 20:57 25.06.2020
823 Clouds 14 1007 55 0 2.17 169 20:39 25.06.2020
824 Rain 15 1007 53 0 2.63 164 20:21 25.06.2020
825 Rain 15 1007 53 0 2.63 164 19:54 25.06.2020
826 Rain 15 1007 53 0 2.63 164 19:36 25.06.2020
827 Rain 15 1008 54 0 2.28 185 19:18 25.06.2020
828 Rain 15 1008 54 0 2.28 185 18:39 25.06.2020
829 Rain 16 1007 54 0 3.46 175 18:20 25.06.2020
830 Rain 16 1007 54 0 3.46 175 17:45 25.06.2020
831 Rain 16 1007 51 0 3.39 174 17:20 25.06.2020
832 Rain 16 1007 51 0 3.39 174 16:59 25.06.2020
833 Rain 16 1007 51 0 3.39 174 16:40 25.06.2020
834 Rain 17 1005 47 0 3.08 172 16:19 25.06.2020
835 Rain 17 1005 47 0 3.08 172 15:43 25.06.2020
836 Clear 18 1002 41 0 3.97 170 15:25 25.06.2020
837 Clear 18 1002 41 0 3.97 170 14:56 25.06.2020
838 Clear 18 1002 41 0 3.97 170 14:37 25.06.2020
839 Clouds 22 998 31 0 4.38 191 14:19 25.06.2020
840 Clouds 22 998 31 0 4.38 191 13:42 25.06.2020
841 Clouds 24 998 25 0 3 214 13:22 25.06.2020
842 Clouds 24 998 25 0 3 214 12:59 25.06.2020
843 Clouds 24 998 25 0 3 214 12:41 25.06.2020
844 Clouds 24 997 25 0 2.38 227 12:20 25.06.2020
845 Clouds 24 997 25 0 2.38 227 11:43 25.06.2020
846 Clouds 24 998 26 0 2.22 221 11:23 25.06.2020
847 Clouds 24 998 26 0 2.22 221 10:46 25.06.2020
848 Clouds 23 999 29 0 2.3 214 10:27 25.06.2020
849 Clouds 23 999 29 0 2.3 214 09:59 25.06.2020
850 Clouds 23 999 29 0 2.3 214 09:40 25.06.2020
851 Clouds 23 1000 31 0 3.23 212 09:20 25.06.2020
852 Clouds 23 1000 31 0 3.23 212 08:45 25.06.2020
853 Rain 21 1002 34 0 2.94 206 08:20 25.06.2020
854 Rain 21 1002 34 0 2.94 206 07:45 25.06.2020
855 Rain 20 1004 38 0 2.75 203 07:26 25.06.2020
856 Rain 20 1004 38 0 2.75 203 06:50 25.06.2020
857 Rain 19 1006 41 0 2.21 202 06:27 25.06.2020
858 Rain 19 1006 41 0 2.21 202 05:51 25.06.2020
859 Rain 17 1010 47 0 2.05 175 03:58 25.06.2020
860 Rain 17 1010 47 0 2.05 175 03:32 25.06.2020
861 Rain 16 1011 51 0 2.19 160 02:42 25.06.2020
862 Clouds 14 1011 55 0 2.21 170 01:59 25.06.2020
863 Clouds 13 1011 58 0 1.97 168 01:21 25.06.2020
864 Clouds 13 1011 58 0 1.97 168 00:44 25.06.2020
865 Rain 13 1011 55 0 2.18 167 00:21 25.06.2020
866 Rain 13 1011 55 0 2.18 167 23:44 24.06.2020
867 Rain 14 1010 53 0 1.92 163 23:26 24.06.2020
868 Rain 14 1010 53 0 1.92 163 22:59 24.06.2020
869 Rain 14 1010 53 0 1.92 163 22:41 24.06.2020
870 Clouds 14 1011 52 0 1.86 166 22:20 24.06.2020
871 Clouds 14 1011 52 0 1.86 166 21:56 24.06.2020
872 Clouds 14 1010 52 0 2.35 167 21:37 24.06.2020
873 Clouds 14 1010 48 0 1.96 165 21:18 24.06.2020
874 Clouds 14 1010 50 0 2.11 172 20:58 24.06.2020
875 Clouds 14 1010 50 0 2.11 172 20:39 24.06.2020
876 Clear 14 1010 47 0 2.2 175 20:20 24.06.2020
877 Clear 14 1010 47 0 2.2 175 19:57 24.06.2020
878 Clear 14 1010 47 0 2.2 175 19:37 24.06.2020
879 Clear 15 1010 44 0 2.29 186 19:18 24.06.2020
880 Clear 15 1010 44 0 2.29 186 18:58 24.06.2020
881 Clear 15 1010 44 0 2.29 186 18:39 24.06.2020
882 Clear 15 1009 41 0 2.41 186 18:20 24.06.2020
883 Clear 15 1009 41 0 2.41 186 17:44 24.06.2020
884 Clear 15 1009 41 0 2.41 186 17:44 24.06.2020
885 Clear 16 1008 40 0 2.05 189 17:21 24.06.2020
886 Clear 16 1008 40 0 2.05 189 16:59 24.06.2020
887 Clear 16 1008 40 0 2.05 189 16:41 24.06.2020
888 Clear 16 1007 39 0 1.75 214 16:23 24.06.2020
889 Clear 16 1007 39 0 1.75 214 15:59 24.06.2020
890 Clear 16 1007 39 0 1.75 214 15:39 24.06.2020
891 Clear 17 1006 37 0 1.6 231 15:20 24.06.2020
892 Clear 17 1006 37 0 1.6 231 14:58 24.06.2020
893 Clear 17 1006 37 0 1.6 231 14:40 24.06.2020
894 Clear 17 1006 37 0 1.6 231 14:40 24.06.2020
895 Clouds 22 1004 29 0 1.37 196 14:20 24.06.2020
896 Clouds 22 1004 29 0 1.37 196 13:42 24.06.2020
897 Clouds 22 1003 27 0 1.25 206 13:21 24.06.2020
898 Clouds 22 1003 27 0 1.25 206 13:21 24.06.2020
899 Clouds 22 1003 27 0 1.25 206 12:43 24.06.2020
900 Clouds 22 1004 28 0 1.23 211 12:21 24.06.2020
901 Clouds 22 1004 28 0 1.23 211 11:58 24.06.2020
902 Clouds 22 1004 28 0 1.23 211 11:40 24.06.2020
903 Clouds 22 1005 29 0 1.41 200 11:21 24.06.2020
904 Clouds 22 1005 29 0 1.41 200 10:47 24.06.2020
905 Clouds 22 1006 32 0 1.77 203 10:19 24.06.2020
906 Clouds 22 1006 32 0 1.77 203 09:56 24.06.2020
907 Clouds 22 1006 32 0 1.77 203 09:38 24.06.2020
908 Clouds 21 1008 35 0 2.33 177 09:19 24.06.2020
909 Clouds 21 1008 35 0 2.33 177 08:40 24.06.2020
910 Clouds 19 1010 39 0 2.46 181 08:19 24.06.2020
911 Clouds 19 1010 39 0 2.46 181 07:48 24.06.2020
912 Clouds 18 1012 44 0 2.41 180 07:25 24.06.2020
913 Clouds 18 1012 44 0 2.41 180 06:46 24.06.2020
914 Rain 16 1013 50 0 2.26 171 06:24 24.06.2020
915 Rain 16 1013 50 0 2.26 171 06:24 24.06.2020
916 Rain 16 1013 50 0 2.26 171 05:45 24.06.2020
917 Rain 14 1014 58 0 2.03 198 04:39 24.06.2020
918 Rain 13 1016 62 0 2.07 213 03:39 24.06.2020
919 Clouds 12 1016 66 0 1.87 203 02:55 24.06.2020
920 Clouds 12 1016 70 0 2.33 208 02:23 24.06.2020
921 Clouds 11 1015 71 0 2.11 208 00:53 24.06.2020
922 Clouds 11 1015 71 0 2.11 208 00:53 24.06.2020
923 Clouds 11 1015 71 0 2.11 208 00:34 24.06.2020
924 Clouds 12 1014 67 0 1.69 196 23:49 23.06.2020
925 Rain 12 1014 64 0 1.47 200 23:24 23.06.2020
926 Rain 12 1014 64 0 1.47 200 22:59 23.06.2020
927 Rain 12 1014 64 0 1.47 200 22:41 23.06.2020
928 Rain 13 1014 60 0 1.47 197 22:19 23.06.2020
929 Rain 13 1014 60 0 1.47 197 21:57 23.06.2020
930 Rain 13 1014 60 0 1.47 197 21:38 23.06.2020
931 Clouds 13 1014 56 0 1.02 86 21:18 23.06.2020
932 Clouds 13 1014 56 0 1.02 86 20:55 23.06.2020
933 Clouds 13 1014 56 0 1.02 86 20:36 23.06.2020
934 Clouds 14 1014 54 0 1.22 84 20:18 23.06.2020
935 Clouds 14 1014 54 0 1.22 84 19:43 23.06.2020
936 Rain 15 1014 51 0 1.74 104 19:24 23.06.2020
937 Rain 15 1014 51 0 1.74 104 18:40 23.06.2020
938 Rain 15 1014 49 0 1.85 118 18:19 23.06.2020
939 Rain 15 1014 49 0 1.85 118 17:44 23.06.2020
940 Rain 17 1013 43 0 1.35 83 17:25 23.06.2020
941 Rain 17 1013 43 0 1.35 83 16:57 23.06.2020
942 Rain 17 1013 43 0 1.35 83 16:39 23.06.2020
943 Rain 16 1012 46 0 1.36 50 16:21 23.06.2020
944 Rain 16 1012 46 0 1.36 50 15:59 23.06.2020
945 Rain 16 1012 46 0 1.36 50 15:41 23.06.2020
946 Clouds 17 1009 41 0 1.96 30 15:23 23.06.2020
947 Clouds 17 1009 41 0 1.96 30 14:54 23.06.2020
948 Clouds 17 1009 41 0 1.96 30 14:36 23.06.2020
949 Clouds 20 1008 35 0 2.28 40 14:18 23.06.2020
950 Clouds 20 1008 35 0 2.28 40 13:45 23.06.2020
951 Clouds 21 1007 32 0 2.57 41 13:25 23.06.2020
952 Clouds 21 1007 32 0 2.57 41 12:55 23.06.2020
953 Clouds 21 1007 32 0 2.57 41 12:37 23.06.2020
954 Rain 21 1007 33 0 2.62 33 12:18 23.06.2020
955 Rain 21 1007 33 0 2.62 33 11:42 23.06.2020
956 Rain 20 1008 36 0 2.2 41 11:22 23.06.2020
957 Rain 20 1008 36 0 2.2 41 10:58 23.06.2020
958 Rain 20 1008 36 0 2.2 41 10:40 23.06.2020
959 Rain 19 1009 40 0 2.15 43 10:21 23.06.2020
960 Rain 19 1009 40 0 2.15 43 09:56 23.06.2020
961 Rain 19 1009 40 0 2.15 43 09:38 23.06.2020
962 Clouds 18 1011 44 0 2.49 34 09:18 23.06.2020
963 Clouds 18 1012 41 0 1.05 63 08:44 23.06.2020
964 Clouds 16 1014 47 0 1.25 56 08:25 23.06.2020
965 Clouds 16 1014 47 0 1.25 56 07:46 23.06.2020
966 Rain 14 1015 55 0 1.47 50 07:24 23.06.2020
967 Rain 14 1015 55 0 1.47 50 06:52 23.06.2020
968 Rain 14 1015 55 0 1.47 50 06:32 23.06.2020
969 Rain 11 1016 64 0 1.84 72 05:56 23.06.2020
970 Rain 10 1017 69 0 2.13 58 04:53 23.06.2020
971 Rain 10 1016 70 0 3.31 12 03:22 23.06.2020
972 Rain 10 1016 70 0 3.31 12 02:49 23.06.2020
973 -273 0 0 0 0 0 02:29 23.06.2020
974 Rain 10 1016 72 0 2.62 357 01:46 23.06.2020
975 Rain 11 1015 66 0 3.3 5 01:24 23.06.2020
976 Rain 11 1015 66 0 3.3 5 00:41 23.06.2020
977 Rain 12 1015 61 0 2.67 13 00:20 23.06.2020
978 Rain 12 1015 61 0 2.67 13 23:54 22.06.2020
979 Rain 12 1015 61 0 2.67 13 23:54 22.06.2020
980 Rain 12 1015 61 0 2.67 13 23:36 22.06.2020
981 Rain 13 1014 58 0 1.14 36 23:18 22.06.2020
982 Rain 13 1014 58 0 1.14 36 22:54 22.06.2020
983 Rain 13 1014 58 0 1.14 36 22:36 22.06.2020
984 Rain 14 1014 58 0 1.26 86 22:18 22.06.2020
985 Rain 14 1014 58 0 1.26 86 21:40 22.06.2020
986 Rain 15 1013 55 0 1.32 67 21:22 22.06.2020
987 Rain 15 1013 55 0 1.32 67 20:58 22.06.2020
988 Rain 15 1013 55 0 1.32 67 20:40 22.06.2020
989 Rain 15 1013 56 0 0.83 21 20:20 22.06.2020
990 Rain 15 1013 56 0 0.83 21 19:44 22.06.2020
991 Rain 15 1013 53 0 0.49 85 19:19 22.06.2020
992 Rain 15 1013 53 0 0.49 85 18:57 22.06.2020
993 Rain 15 1013 53 0 0.49 85 18:37 22.06.2020
994 Rain 16 1012 48 0 0.55 117 18:19 22.06.2020
995 Rain 16 1012 48 0 0.55 117 17:55 22.06.2020
996 Rain 16 1012 48 0 0.55 117 17:37 22.06.2020
997 Rain 18 1010 41 0 1.66 140 17:18 22.06.2020
998 Rain 18 1010 41 0 1.66 140 16:43 22.06.2020
999 Rain 19 1008 33 0 2.55 162 16:19 22.06.2020
1000 Rain 19 1008 33 0 2.55 162 15:58 22.06.2020
1001 Rain 19 1008 33 0 2.55 162 15:39 22.06.2020
1002 Clouds 20 1005 31 0 1.9 185 15:21 22.06.2020
1003 Clouds 20 1005 31 0 1.9 185 14:40 22.06.2020
1004 Clouds 24 1003 25 0 2.83 210 14:21 22.06.2020
1005 Clouds 24 1003 25 0 2.83 210 13:58 22.06.2020
1006 Clouds 24 1003 25 0 2.83 210 13:38 22.06.2020
1007 Clouds 24 1002 22 0 3.43 221 13:20 22.06.2020
1008 Clouds 24 1002 22 0 3.43 221 12:44 22.06.2020
1009 Clouds 24 1002 22 0 3.43 221 12:44 22.06.2020
1010 Clouds 25 1001 21 0 3.49 219 12:23 22.06.2020
1011 Clouds 25 1001 21 0 3.49 219 11:59 22.06.2020
1012 Clouds 25 1001 21 0 3.49 219 11:37 22.06.2020
1013 Clouds 25 1002 20 0 3.42 216 11:18 22.06.2020
1014 Clouds 25 1002 20 0 3.42 216 10:55 22.06.2020
1015 Clouds 25 1002 20 0 3.42 216 10:36 22.06.2020
1016 Clouds 24 1003 21 0 3.18 208 10:18 22.06.2020
1017 Clouds 24 1003 21 0 3.18 208 09:54 22.06.2020
1018 Clouds 24 1003 21 0 3.18 208 09:36 22.06.2020
1019 Clouds 23 1004 23 0 3.16 204 09:18 22.06.2020
1020 Clouds 23 1004 23 0 3.16 204 08:39 22.06.2020
1021 Clouds 22 1005 26 0 2.96 204 08:21 22.06.2020
1022 Clouds 22 1005 26 0 2.96 204 07:53 22.06.2020
1023 Clouds 22 1005 26 0 2.96 204 07:34 22.06.2020
1024 Clouds 21 1007 29 0 2.93 200 06:56 22.06.2020
1025 Clouds 21 1007 29 0 2.93 200 06:36 22.06.2020
1026 Clouds 19 1008 32 0 2.89 194 06:18 22.06.2020
1027 Clouds 19 1008 32 0 2.89 194 05:33 22.06.2020
1028 Clear 15 1010 44 0 2.74 181 02:58 22.06.2020
1029 Clear 13 1011 50 0 2.29 172 01:38 22.06.2020
1030 Clear 12 1011 55 0 2.43 173 00:41 22.06.2020
1031 Clear 12 1010 53 0 2.64 179 00:19 22.06.2020
1032 Clear 12 1010 53 0 2.64 179 23:55 21.06.2020
1033 Clear 12 1010 53 0 2.64 179 23:36 21.06.2020
1034 Clear 13 1010 52 0 2.82 177 23:18 21.06.2020
1035 Clear 13 1010 52 0 2.82 177 22:54 21.06.2020
1036 Clear 13 1010 52 0 2.82 177 22:36 21.06.2020
1037 Clear 13 1010 52 0 2.82 177 22:36 21.06.2020
1038 Clear 13 1010 50 0 2.9 175 22:18 21.06.2020
1039 Clear 13 1010 50 0 2.9 175 21:42 21.06.2020
1040 Clear 14 1010 48 0 2.86 174 21:22 21.06.2020
1041 Clouds 14 1009 50 0 2.68 174 20:59 21.06.2020
1042 Clouds 14 1009 50 0 2.68 174 20:39 21.06.2020
1043 Clouds 15 1009 49 0 2.53 170 20:19 21.06.2020
1044 Clouds 15 1009 49 0 2.53 170 19:57 21.06.2020
1045 Clouds 15 1009 49 0 2.53 170 19:39 21.06.2020
1046 Rain 16 1009 47 0 2.64 171 19:20 21.06.2020
1047 Rain 16 1009 47 0 2.64 171 18:55 21.06.2020
1048 Rain 16 1009 47 0 2.64 171 18:37 21.06.2020
1049 Rain 17 1009 43 0 3.14 164 18:19 21.06.2020
1050 Rain 17 1009 43 0 3.14 164 18:19 21.06.2020
1051 Rain 17 1009 43 0 3.14 164 17:41 21.06.2020
1052 Rain 18 1007 38 0 3.36 167 17:21 21.06.2020
1053 Rain 18 1007 38 0 3.36 167 16:57 21.06.2020
1054 Rain 18 1007 38 0 3.36 167 16:39 21.06.2020
1055 Clouds 20 1006 32 0 2.81 190 16:20 21.06.2020
1056 Clouds 20 1006 32 0 2.81 190 15:40 21.06.2020
1057 Clouds 20 1003 30 0 2.53 210 15:21 21.06.2020
1058 Clouds 20 1003 30 0 2.53 210 14:58 21.06.2020
1059 Clouds 20 1003 30 0 2.53 210 14:37 21.06.2020
1060 Clouds 23 1001 24 0 2.89 208 14:19 21.06.2020
1061 Clouds 23 1001 24 0 2.89 208 13:55 21.06.2020
1062 Clouds 23 1001 24 0 2.89 208 13:36 21.06.2020
1063 Clouds 24 1000 21 0 3.03 214 13:18 21.06.2020
1064 Clouds 24 1000 21 0 3.03 214 12:42 21.06.2020
1065 Clouds 25 999 20 0 2.98 222 12:23 21.06.2020
1066 Clouds 25 999 20 0 2.98 222 11:43 21.06.2020
1067 Clouds 25 1000 20 0 3 221 11:25 21.06.2020
1068 Clouds 25 1000 20 0 3 221 10:59 21.06.2020
1069 Clouds 25 1000 20 0 3 221 10:40 21.06.2020
1070 Clouds 24 1001 21 0 2.74 210 10:22 21.06.2020
1071 Clouds 24 1001 21 0 2.74 210 09:55 21.06.2020
1072 Clouds 24 1001 21 0 2.74 210 09:36 21.06.2020
1073 Clouds 23 1002 23 0 2.7 209 09:18 21.06.2020
1074 Clouds 23 1002 23 0 2.59 209 08:41 21.06.2020
1075 Clouds 22 1004 25 0 2.96 206 08:21 21.06.2020
1076 Clouds 22 1004 25 0 2.96 206 07:59 21.06.2020
1077 Clouds 22 1004 25 0 2.96 206 07:40 21.06.2020
1078 Clouds 21 1005 28 0 3.03 200 07:20 21.06.2020
1079 Clouds 21 1005 28 0 3.03 200 07:20 21.06.2020
1080 Clouds 21 1005 28 0 3.03 200 06:46 21.06.2020
1081 Clouds 20 1006 32 0 2.95 192 05:58 21.06.2020
1082 Clouds 19 1008 37 0 2.88 181 04:49 21.06.2020
1083 Clear 16 1011 45 0 2.26 168 03:20 21.06.2020
1084 Clear 16 1011 45 0 2.26 168 02:53 21.06.2020
1085 Clouds 14 1012 50 0 2.19 163 01:48 21.06.2020
1086 Clouds 12 1012 55 0 2.04 163 01:21 21.06.2020
1087 Clouds 12 1012 55 0 2.04 163 00:55 21.06.2020
1088 Clouds 12 1012 55 0 2.04 163 00:36 21.06.2020
1089 Clouds 12 1011 53 0 2.25 165 00:18 21.06.2020
1090 Clouds 12 1011 53 0 2.25 165 23:41 20.06.2020
1091 Clouds 13 1011 52 0 2.34 170 23:21 20.06.2020
1092 Clouds 13 1011 52 0 2.34 170 22:55 20.06.2020
1093 Clouds 13 1011 52 0 2.34 170 22:55 20.06.2020
1094 Clouds 13 1011 52 0 2.34 170 22:37 20.06.2020
1095 Clouds 14 1011 50 0 2.56 170 22:18 20.06.2020
1096 Clouds 14 1011 50 0 2.56 170 21:55 20.06.2020
1097 Clouds 14 1011 50 0 2.56 170 21:37 20.06.2020
1098 Clouds 14 1010 49 0 3.07 172 21:19 20.06.2020
1099 Clouds 14 1010 49 0 3.07 172 20:54 20.06.2020
1100 Clouds 14 1010 49 0 3.07 172 20:36 20.06.2020
1101 Clouds 15 1010 47 0 3.82 174 20:18 20.06.2020
1102 Clouds 15 1010 47 0 3.82 174 19:42 20.06.2020
1103 Clouds 16 1009 44 0 3.83 176 19:22 20.06.2020
1104 Clouds 16 1009 44 0 3.83 176 18:43 20.06.2020
1105 Clouds 17 1009 41 0 3.94 173 18:21 20.06.2020
1106 Clouds 17 1009 41 0 3.94 173 17:59 20.06.2020
1107 Clouds 17 1009 41 0 3.94 173 17:41 20.06.2020
1108 Clouds 19 1007 35 0 3.26 161 17:21 20.06.2020
1109 Clouds 19 1007 35 0 3.26 161 16:58 20.06.2020
1110 Clouds 19 1007 35 0 3.26 161 16:38 20.06.2020
1111 Clouds 20 1006 35 0 1.89 175 16:18 20.06.2020
1112 Clouds 20 1006 35 0 1.89 175 15:42 20.06.2020
1113 Clouds 20 1004 35 0 1.34 185 15:18 20.06.2020
1114 Clouds 20 1004 35 0 1.34 185 14:55 20.06.2020
1115 Clouds 20 1004 35 0 1.34 185 14:36 20.06.2020
1116 Clouds 23 1002 26 0 2.18 203 14:18 20.06.2020
1117 Clouds 23 1002 26 0 2.18 203 13:41 20.06.2020
1118 Clouds 24 1001 25 0 2.32 194 13:19 20.06.2020
1119 Clouds 24 1001 25 0 2.32 194 12:43 20.06.2020
1120 Clouds 24 1001 25 0 2.81 197 12:22 20.06.2020
1121 Clouds 24 1001 25 0 2.81 197 11:58 20.06.2020
1122 Clouds 24 1001 25 0 2.81 197 11:38 20.06.2020
1123 Clouds 24 1002 26 0 3.06 195 11:20 20.06.2020
1124 Clouds 24 1002 26 0 3.06 195 10:57 20.06.2020
1125 Clouds 24 1002 26 0 3.06 195 10:38 20.06.2020
1126 Clouds 23 1003 26 0 2.95 201 10:18 20.06.2020
1127 Clouds 23 1003 26 0 2.95 201 09:40 20.06.2020
1128 Clouds 23 1004 27 0 3.42 199 09:22 20.06.2020
1129 Clouds 23 1004 27 0 3.42 199 08:56 20.06.2020
1130 Clouds 23 1004 27 0 3.42 199 08:38 20.06.2020
1131 Clouds 22 1006 28 0 3.28 197 08:20 20.06.2020
1132 Clouds 22 1006 28 0 3.28 197 07:44 20.06.2020
1133 Clouds 21 1007 31 0 3.03 191 07:25 20.06.2020
1134 Clouds 20 1008 34 0 2.71 185 06:24 20.06.2020
1135 Clouds 20 1008 34 0 2.71 185 05:59 20.06.2020
1136 Clouds 20 1008 34 0 2.71 185 05:40 20.06.2020
1137 Clouds 16 1012 45 0 2.4 171 03:21 20.06.2020
1138 Clouds 14 1013 50 0 2.19 168 01:52 20.06.2020
1139 Clouds 14 1013 50 0 2.19 168 01:33 20.06.2020
1140 Clouds 13 1012 54 0 2.17 163 00:22 20.06.2020
1141 Clouds 13 1012 54 0 2.17 163 23:58 19.06.2020
1142 Clouds 13 1012 54 0 2.17 163 23:39 19.06.2020
1143 Clouds 13 1011 53 0 2.49 165 23:19 19.06.2020
1144 Clouds 13 1011 53 0 2.49 165 22:54 19.06.2020
1145 Clouds 13 1011 53 0 2.49 165 22:36 19.06.2020
1146 Clouds 14 1011 51 0 2.94 171 22:18 19.06.2020
1147 Clouds 14 1011 51 0 2.94 171 21:40 19.06.2020
1148 Clouds 15 1010 49 0 3.34 171 21:19 19.06.2020
1149 Clouds 15 1010 49 0 3.34 171 20:59 19.06.2020
1150 Clouds 15 1010 49 0 3.34 171 20:40 19.06.2020
1151 Clouds 16 1010 46 0 3.65 172 20:22 19.06.2020
1152 Clouds 16 1010 46 0 3.65 172 19:59 19.06.2020
1153 Clouds 16 1010 46 0 3.65 172 19:41 19.06.2020
1154 Rain 18 1010 44 0 3.75 171 19:23 19.06.2020
1155 Rain 18 1010 44 0 3.75 171 18:58 19.06.2020
1156 Rain 18 1010 44 0 3.75 171 18:38 19.06.2020
1157 Rain 19 1009 40 0 3.4 173 18:20 19.06.2020
1158 Rain 19 1009 40 0 3.4 173 17:42 19.06.2020
1159 Rain 20 1007 37 0 3.4 172 17:23 19.06.2020
1160 Rain 20 1007 37 0 3.4 172 16:57 19.06.2020
1161 Rain 20 1007 37 0 3.4 172 16:38 19.06.2020
1162 Rain 20 1006 35 0 2.99 171 16:20 19.06.2020
1163 Rain 20 1006 35 0 2.99 171 15:44 19.06.2020
1164 Clouds 21 1004 33 0 2.63 177 15:25 19.06.2020
1165 Clouds 21 1004 33 0 2.63 177 14:57 19.06.2020
1166 Clouds 21 1004 33 0 2.63 177 14:39 19.06.2020
1167 Clouds 23 1002 28 0 2.6 193 14:21 19.06.2020
1168 Clouds 23 1002 28 0 2.6 193 13:58 19.06.2020
1169 Clouds 23 1002 28 0 2.6 193 13:39 19.06.2020
1170 Clouds 24 1001 26 0 2.73 178 13:21 19.06.2020
1171 Clouds 24 1001 26 0 2.73 178 12:44 19.06.2020
1172 Clouds 24 1001 25 0 2.88 182 12:20 19.06.2020
1173 Clouds 24 1001 25 0 2.88 182 11:41 19.06.2020
1174 Clouds 24 1001 25 0 3.18 192 11:19 19.06.2020
1175 Clouds 24 1001 25 0 3.18 192 10:59 19.06.2020
1176 Clouds 24 1001 25 0 3.18 192 10:41 19.06.2020
1177 Clouds 24 1002 26 0 3.19 199 10:21 19.06.2020
1178 Clouds 24 1002 26 0 3.19 199 09:54 19.06.2020
1179 Clouds 24 1001 25 0 3.17 196 09:36 19.06.2020
1180 Clouds 23 1003 26 0 3.01 199 09:18 19.06.2020
1181 Clouds 23 1003 26 0 3.01 199 08:39 19.06.2020
1182 Clouds 22 1005 28 0 2.86 195 08:20 19.06.2020
1183 Clouds 22 1005 28 0 2.86 195 07:41 19.06.2020
1184 Clouds 21 1007 30 0 2.7 194 07:22 19.06.2020
1185 Clouds 21 1007 30 0 2.7 194 06:50 19.06.2020
1186 Clouds 20 1008 34 0 2.57 186 06:22 19.06.2020
1187 Clouds 18 1010 37 0 2.41 184 05:29 19.06.2020
1188 Clouds 17 1011 42 0 1.98 181 03:45 19.06.2020
1189 Clouds 14 1012 53 0 2.14 169 02:20 19.06.2020
1190 Clouds 12 1011 57 0 1.98 178 00:45 19.06.2020
1191 Clouds 12 1011 57 0 2.2 171 00:22 19.06.2020
1192 Clouds 12 1011 57 0 2.2 171 23:58 18.06.2020
1193 Clouds 12 1011 57 0 2.2 171 23:39 18.06.2020
1194 Clouds 13 1010 56 0 2.43 166 23:21 18.06.2020
1195 Clouds 13 1010 56 0 2.43 166 22:41 18.06.2020
1196 Clouds 13 1010 54 0 2.45 169 22:21 18.06.2020
1197 Clouds 13 1010 54 0 2.45 169 21:57 18.06.2020
1198 Clouds 13 1010 54 0 2.45 169 21:38 18.06.2020
1199 Clouds 14 1010 52 0 2.66 168 21:19 18.06.2020
1200 Clouds 14 1010 52 0 2.66 168 20:41 18.06.2020
1201 Clouds 15 1011 49 0 2.81 163 20:22 18.06.2020
1202 Clouds 15 1011 49 0 2.81 163 19:58 18.06.2020
1203 Clouds 15 1011 49 0 2.81 163 19:40 18.06.2020
1204 Clouds 15 1010 49 0 2.82 163 19:20 18.06.2020
1205 Clouds 15 1010 49 0 2.82 163 18:42 18.06.2020
1206 Clouds 16 1010 48 0 2.81 167 18:23 18.06.2020
1207 Clouds 16 1010 48 0 2.81 167 17:57 18.06.2020
1208 Clouds 16 1010 48 0 2.81 167 17:39 18.06.2020
1209 Clouds 16 1009 48 0 2.74 163 17:21 18.06.2020
1210 Clouds 16 1009 48 0 2.74 163 16:44 18.06.2020
1211 Clouds 17 1008 48 0 2.42 154 16:25 18.06.2020
1212 Clouds 17 1008 48 0 2.42 154 15:59 18.06.2020
1213 Clouds 17 1008 48 0 2.42 154 15:40 18.06.2020
1214 Clouds 17 1006 45 0 2.21 151 15:20 18.06.2020
1215 Clouds 17 1006 45 0 2.21 151 14:57 18.06.2020
1216 Clouds 17 1006 45 0 2.21 151 14:57 18.06.2020
1217 Clouds 17 1006 45 0 2.21 151 14:39 18.06.2020
1218 Clouds 19 1004 39 0 2.62 172 14:20 18.06.2020
1219 Clouds 21 1003 35 0 2.22 189 13:48 18.06.2020
1220 Clouds 22 1002 32 0 3.43 194 13:29 18.06.2020
1221 Clouds 22 1002 32 0 3.43 194 12:58 18.06.2020
1222 Clouds 22 1002 32 0 3.43 194 12:40 18.06.2020
1223 Clouds 22 1001 32 0 4.09 180 12:20 18.06.2020
1224 Clouds 22 1001 32 0 4.09 180 11:59 18.06.2020
1225 Clouds 22 1001 32 0 4.09 180 11:40 18.06.2020
1226 Clouds 22 1000 33 0 4.08 171 11:19 18.06.2020
1227 Clouds 22 1000 33 0 4.08 171 10:41 18.06.2020
1228 Clouds 22 1000 31 0 4.1 179 10:19 18.06.2020
1229 Clouds 22 1000 31 0 4.1 179 09:54 18.06.2020
1230 Clouds 23 1001 29 0 3.3 171 09:36 18.06.2020
1231 Clouds 22 1002 31 0 3.65 166 09:18 18.06.2020
1232 Clouds 22 1002 31 0 3.65 166 08:39 18.06.2020
1233 Clouds 21 1004 33 0 4.43 166 08:20 18.06.2020
1234 Clouds 21 1004 33 0 4.43 166 07:46 18.06.2020
1235 Clouds 21 1005 33 0 3.57 174 07:26 18.06.2020
1236 Clouds 21 1005 33 0 3.57 174 06:54 18.06.2020
1237 Clouds 21 1006 34 0 2.48 173 05:40 18.06.2020
1238 Clouds 18 1009 41 0 2.04 162 04:21 18.06.2020
1239 Clouds 16 1010 45 0 1.62 158 02:37 18.06.2020
1240 Clouds 13 1010 57 0 1.38 158 01:28 18.06.2020
1241 Clouds 13 1010 57 0 1.38 158 00:55 18.06.2020
1242 Clouds 13 1010 57 0 1.38 158 00:33 18.06.2020
1243 Clouds 13 1009 57 0 1.93 162 23:58 17.06.2020
1244 Clouds 13 1009 57 0 1.93 162 23:39 17.06.2020
1245 Clouds 14 1008 56 0 2.12 156 23:20 17.06.2020
1246 Clouds 14 1008 56 0 2.12 156 22:57 17.06.2020
1247 Clouds 14 1008 56 0 2.12 156 22:38 17.06.2020
1248 Clouds 14 1008 55 0 2.24 156 22:20 17.06.2020
1249 Clouds 14 1008 55 0 2.24 156 22:20 17.06.2020
1250 Clouds 14 1008 55 0 2.24 156 21:42 17.06.2020
1251 Clouds 15 1008 55 0 2.04 158 21:24 17.06.2020
1252 Rain 15 1007 56 0 2.75 163 21:00 17.06.2020
1253 Rain 15 1007 56 0 2.75 163 20:38 17.06.2020
1254 Rain 16 1007 52 0 2.9 171 20:19 17.06.2020
1255 Rain 16 1007 52 0 2.9 171 19:46 17.06.2020
1256 Rain 16 1007 49 0 2.8 170 19:23 17.06.2020
1257 Rain 16 1007 49 0 2.8 170 18:59 17.06.2020
1258 Rain 16 1007 49 0 2.8 170 18:40 17.06.2020
1259 Rain 18 1006 41 0 3.19 158 18:22 17.06.2020
1260 Rain 18 1006 41 0 3.19 158 17:44 17.06.2020
1261 Clouds 20 1005 35 0 3.07 161 17:22 17.06.2020
1262 Clouds 20 1005 35 0 3.07 161 16:57 17.06.2020
1263 Clouds 20 1005 35 0 3.07 161 16:39 17.06.2020
1264 Clouds 20 1003 33 0 2.59 168 16:20 17.06.2020
1265 Clouds 20 1003 33 0 2.59 168 15:56 17.06.2020
1266 Clouds 20 1003 33 0 2.59 168 15:38 17.06.2020
1267 Clouds 21 1001 31 0 1.51 182 15:19 17.06.2020
1268 Clouds 21 1001 31 0 1.51 182 14:57 17.06.2020
1269 Clouds 21 1001 31 0 1.51 182 14:38 17.06.2020
1270 Clouds 24 999 24 0 1.43 180 14:19 17.06.2020
1271 Clouds 24 999 24 0 1.43 180 13:42 17.06.2020
1272 Clouds 24 998 22 0 1.7 197 13:22 17.06.2020
1273 Clouds 24 998 22 0 1.7 197 12:59 17.06.2020
1274 Clouds 24 998 22 0 1.7 197 12:40 17.06.2020
1275 Clouds 24 997 22 0 2.03 199 12:21 17.06.2020
1276 Clouds 24 997 22 0 2.03 199 11:44 17.06.2020
1277 Clouds 24 998 23 0 2.63 201 11:26 17.06.2020
1278 Clouds 24 998 23 0 2.63 201 10:58 17.06.2020
1279 Clouds 24 998 23 0 2.63 201 10:38 17.06.2020
1280 Clouds 24 999 24 0 2.64 203 10:19 17.06.2020
1281 Clouds 24 999 24 0 2.64 203 10:19 17.06.2020
1282 Clouds 24 999 24 0 2.64 203 09:55 17.06.2020
1283 Clouds 24 999 24 0 2.64 203 09:37 17.06.2020
1284 Clouds 23 1000 25 0 2.41 196 09:18 17.06.2020
1285 Clouds 23 1000 25 0 2.41 196 08:44 17.06.2020
1286 Clouds 22 1002 29 0 2.46 188 08:19 17.06.2020
1287 Clouds 22 1002 29 0 2.46 188 07:44 17.06.2020
1288 Clouds 21 1004 32 0 2.33 188 07:23 17.06.2020
1289 Clouds 21 1004 32 0 2.33 188 06:59 17.06.2020
1290 Clouds 21 1004 32 0 2.33 188 06:40 17.06.2020
1291 Clouds 20 1005 35 0 2.08 188 06:22 17.06.2020
1292 Clouds 20 1005 35 0 2.08 188 05:48 17.06.2020
1293 Clear 19 1007 38 0 1.69 190 04:38 17.06.2020
1294 Clouds 14 1010 53 0 1.84 166 02:21 17.06.2020
1295 Clouds 12 1010 57 0 1.74 163 00:53 17.06.2020
1296 Clouds 12 1010 57 0 1.74 163 00:30 17.06.2020
1297 Clouds 12 1009 56 0 1.93 169 23:59 16.06.2020
1298 Clouds 12 1009 56 0 1.93 169 23:41 16.06.2020
1299 Clouds 13 1009 53 0 2.23 173 23:22 16.06.2020
1300 Clouds 13 1009 53 0 2.23 173 22:57 16.06.2020
1301 Clouds 13 1009 53 0 2.23 173 22:38 16.06.2020
1302 Clouds 14 1009 50 0 2.86 173 22:19 16.06.2020
1303 Clouds 14 1009 50 0 2.86 173 22:19 16.06.2020
1304 Clouds 14 1009 50 0 2.86 173 21:57 16.06.2020
1305 Clouds 14 1009 50 0 2.86 173 21:39 16.06.2020
1306 Clouds 15 1009 50 0 3.04 177 21:20 16.06.2020
1307 Clouds 15 1008 49 0 2.99 176 20:43 16.06.2020
1308 Clouds 16 1008 48 0 3.01 177 20:22 16.06.2020
1309 Clouds 16 1008 48 0 3.01 177 19:58 16.06.2020
1310 Clouds 16 1008 48 0 3.01 177 19:40 16.06.2020
1311 Clouds 16 1009 47 0 2.91 180 19:22 16.06.2020
1312 Clouds 16 1009 47 0 2.91 180 18:58 16.06.2020
1313 Clouds 16 1009 47 0 2.91 180 18:39 16.06.2020
1314 Clouds 16 1008 48 0 2.34 188 18:20 16.06.2020
1315 Clouds 16 1008 48 0 2.34 188 17:56 16.06.2020
1316 Clouds 16 1008 48 0 2.34 188 17:37 16.06.2020
1317 Clouds 16 1007 48 0 1.75 203 17:19 16.06.2020
1318 Clouds 16 1007 48 0 1.75 203 16:55 16.06.2020
1319 Clouds 16 1007 48 0 1.75 203 16:37 16.06.2020
1320 Clouds 16 1006 49 0 1.31 198 16:18 16.06.2020
1321 Clouds 16 1006 49 0 1.31 198 15:56 16.06.2020
1322 Clouds 16 1006 49 0 1.31 198 15:56 16.06.2020
1323 Clouds 16 1006 49 0 1.31 198 15:37 16.06.2020
1324 Clear 17 1004 47 0 0.91 198 15:19 16.06.2020
1325 Clear 17 1004 47 0 0.91 198 14:43 16.06.2020
1326 Clouds 20 1002 36 0 3.13 195 14:25 16.06.2020
1327 Clouds 20 1002 36 0 3.13 195 13:55 16.06.2020
1328 Clouds 20 1002 36 0 3.13 195 13:37 16.06.2020
1329 Clouds 21 1001 34 0 2.93 188 13:18 16.06.2020
1330 Clouds 21 1001 34 0 2.93 188 12:41 16.06.2020
1331 Clouds 21 1000 31 0 3.56 206 12:21 16.06.2020
1332 Clouds 21 1000 31 0 3.56 206 11:56 16.06.2020
1333 Clouds 21 1000 31 0 3.56 206 11:37 16.06.2020
1334 Clouds 21 1000 31 0 3.56 206 11:37 16.06.2020
1335 Clouds 21 1001 30 0 3.72 204 11:19 16.06.2020
1336 Clouds 21 1001 30 0 3.72 204 10:43 16.06.2020
1337 Clouds 22 1001 28 0 3.54 207 10:21 16.06.2020
1338 Clouds 22 1001 28 0 3.54 207 09:59 16.06.2020
1339 Clouds 22 1001 28 0 3.54 207 09:41 16.06.2020
1340 Clouds 22 1001 28 0 3.07 199 09:21 16.06.2020
1341 Clouds 22 1001 28 0 3.07 199 08:48 16.06.2020
1342 Clouds 22 1001 28 0 3.07 199 08:30 16.06.2020
1343 Clouds 21 1003 29 0 3.35 189 07:51 16.06.2020
1344 Clouds 20 1005 32 0 3.29 188 07:28 16.06.2020
1345 Clouds 20 1005 32 0 3.29 188 06:54 16.06.2020
1346 Clouds 19 1007 34 0 3.2 183 06:27 16.06.2020
1347 Clouds 19 1007 34 0 3.2 183 05:46 16.06.2020
1348 Clouds 18 1008 37 0 3.08 183 04:42 16.06.2020
1349 Clouds 17 1009 41 0 2.81 173 03:31 16.06.2020
1350 Clouds 14 1010 52 0 2.34 170 02:19 16.06.2020
1351 Clouds 14 1010 52 0 2.34 170 01:31 16.06.2020
1352 Clear 12 1010 56 0 2.39 174 00:52 16.06.2020
1353 Clear 13 1009 55 0 2.29 173 00:22 16.06.2020
1354 Clear 13 1009 55 0 2.29 173 23:43 15.06.2020
1355 Clear 13 1009 54 0 2.44 169 23:23 15.06.2020
1356 Clear 13 1009 54 0 2.44 169 22:58 15.06.2020
1357 Clear 13 1009 54 0 2.44 169 22:39 15.06.2020
1358 Clear 14 1009 53 0 2.75 170 22:21 15.06.2020
1359 Clear 14 1009 53 0 2.75 170 21:56 15.06.2020
1360 Clear 14 1009 53 0 2.75 170 21:38 15.06.2020
1361 Clouds 14 1009 52 0 2.94 172 21:19 15.06.2020
1362 Clear 15 1008 51 0 2.97 169 20:56 15.06.2020
1363 Clear 15 1008 51 0 2.97 169 20:38 15.06.2020
1364 Clouds 16 1009 48 0 3.23 169 20:19 15.06.2020
1365 Clouds 16 1009 48 0 3.23 169 19:56 15.06.2020
1366 Clouds 16 1009 48 0 3.23 169 19:38 15.06.2020
1367 Rain 17 1009 46 0 3.34 177 19:19 15.06.2020
1368 Rain 17 1009 46 0 3.34 177 18:55 15.06.2020
1369 Rain 17 1009 46 0 3.34 177 18:37 15.06.2020
1370 Clouds 17 1008 44 0 3.29 178 18:19 15.06.2020
1371 Clouds 17 1008 44 0 3.29 178 17:42 15.06.2020
1372 Rain 18 1007 44 0 2.98 177 17:22 15.06.2020
1373 Rain 18 1007 44 0 2.98 177 16:59 15.06.2020
1374 Rain 18 1007 44 0 2.98 177 16:40 15.06.2020
1375 Rain 18 1006 41 0 2.36 187 16:19 15.06.2020
1376 Rain 18 1006 41 0 2.36 187 15:56 15.06.2020
1377 Rain 18 1006 41 0 2.36 187 15:56 15.06.2020
1378 Rain 18 1006 41 0 2.36 187 15:36 15.06.2020
1379 Clouds 20 1003 37 0 1.98 218 15:18 15.06.2020
1380 Clouds 20 1003 37 0 1.98 218 14:42 15.06.2020
1381 Clouds 22 1002 31 0 2.96 205 14:21 15.06.2020
1382 Rain 22 1001 32 0 2.79 194 13:59 15.06.2020
1383 Rain 22 1001 32 0 2.79 194 13:40 15.06.2020
1384 Clouds 22 1001 29 0 2.67 187 13:22 15.06.2020
1385 Clouds 22 1001 29 0 2.67 187 12:56 15.06.2020
1386 Clouds 22 1001 29 0 2.67 187 12:38 15.06.2020
1387 Clouds 23 1001 27 0 2.87 207 12:19 15.06.2020
1388 Clouds 23 1001 27 0 2.87 207 11:43 15.06.2020
1389 Clouds 23 1001 26 0 2.72 201 11:24 15.06.2020
1390 Clouds 23 1001 26 0 2.72 201 10:44 15.06.2020
1391 Clouds 23 1002 27 0 3 203 10:22 15.06.2020
1392 Clouds 23 1002 27 0 3 203 09:56 15.06.2020
1393 Clouds 23 1002 27 0 3 203 09:38 15.06.2020
1394 Clouds 22 1003 27 0 2.91 199 09:19 15.06.2020
1395 Clouds 23 1003 27 0 3.05 197 08:39 15.06.2020
1396 Clouds 22 1004 28 0 3.18 199 08:21 15.06.2020
1397 Clouds 22 1004 28 0 3.18 199 07:46 15.06.2020
1398 Clouds 22 1004 28 0 3.18 199 07:46 15.06.2020
1399 Clouds 21 1006 31 0 3.1 194 07:28 15.06.2020
1400 Clouds 21 1006 31 0 3.1 194 06:49 15.06.2020
1401 Rain 20 1008 35 0 3.05 188 06:25 15.06.2020
1402 Rain 20 1008 35 0 3.05 188 05:46 15.06.2020
1403 Rain 19 1009 38 0 2.95 176 05:26 15.06.2020
1404 Clouds 17 1010 42 0 2.76 165 04:20 15.06.2020
1405 Clouds 17 1010 42 0 2.76 165 03:41 15.06.2020
1406 Clouds 16 1011 46 0 2.55 161 02:54 15.06.2020
1407 Clouds 15 1012 52 0 2.27 158 01:57 15.06.2020
1408 Clouds 15 1012 52 0 2.27 158 01:34 15.06.2020
1409 Clouds 13 1012 56 0 2.05 163 00:58 15.06.2020
1410 Clouds 13 1012 56 0 2.05 163 00:39 15.06.2020
1411 Clouds 14 1011 55 0 2.29 164 00:20 15.06.2020
1412 Clouds 14 1011 55 0 2.29 164 23:46 14.06.2020
1413 Rain 14 1011 54 0 2.59 166 23:25 14.06.2020
1414 Rain 14 1011 54 0 2.59 166 22:58 14.06.2020
1415 Rain 14 1011 54 0 2.59 166 22:39 14.06.2020
1416 Rain 14 1011 54 0 2.71 165 22:20 14.06.2020
1417 Rain 14 1011 54 0 2.71 165 22:20 14.06.2020
1418 Rain 14 1011 54 0 2.71 165 21:57 14.06.2020
1419 Rain 14 1011 54 0 2.71 165 21:38 14.06.2020
1420 Rain 15 1010 52 0 3.08 165 21:19 14.06.2020
1421 Rain 15 1010 52 0 3.08 165 20:58 14.06.2020
1422 Rain 15 1010 52 0 3.08 165 20:38 14.06.2020
1423 Rain 16 1010 51 0 2.95 170 20:20 14.06.2020
1424 Rain 16 1010 51 0 2.95 170 19:59 14.06.2020
1425 Rain 16 1010 51 0 2.95 170 19:38 14.06.2020
1426 Rain 17 1010 49 0 2.94 181 19:19 14.06.2020
1427 Rain 17 1010 49 0 2.94 181 19:19 14.06.2020
1428 Rain 17 1010 49 0 2.94 181 18:57 14.06.2020
1429 Rain 17 1010 49 0 2.94 181 18:39 14.06.2020
1430 Rain 17 1010 44 0 3.13 179 18:20 14.06.2020
1431 Rain 17 1010 44 0 3.13 179 17:58 14.06.2020
1432 Rain 17 1010 44 0 3.13 179 17:38 14.06.2020
1433 Rain 19 1008 37 0 3.1 166 17:19 14.06.2020
1434 Rain 19 1008 37 0 3.1 166 16:41 14.06.2020
1435 Clouds 20 1006 32 0 2.57 169 16:22 14.06.2020
1436 Clouds 20 1006 32 0 2.57 169 15:59 14.06.2020
1437 Clouds 20 1006 32 0 2.57 169 15:40 14.06.2020
1438 Clouds 21 1004 29 0 2.1 172 15:19 14.06.2020
1439 Clouds 21 1004 29 0 2.1 172 14:59 14.06.2020
1440 Clouds 21 1004 29 0 2.1 172 14:40 14.06.2020
1441 Clouds 24 1002 24 0 2.47 180 14:21 14.06.2020
1442 Clouds 23 1001 25 0 2.77 194 13:57 14.06.2020
1443 Clouds 23 1001 25 0 2.77 194 13:39 14.06.2020
1444 Clouds 24 1000 23 0 2.84 192 13:21 14.06.2020
1445 Clouds 24 1000 23 0 2.84 192 12:55 14.06.2020
1446 Clouds 24 1000 23 0 2.84 192 12:37 14.06.2020
1447 Clouds 24 1000 22 0 2.41 189 12:18 14.06.2020
1448 Clouds 24 1000 22 0 2.41 189 11:56 14.06.2020
1449 Clouds 24 1000 22 0 2.41 189 11:37 14.06.2020
1450 Clouds 24 1001 23 0 2.32 200 11:18 14.06.2020
1451 Clouds 24 1001 23 0 2.32 200 10:42 14.06.2020
1452 Clouds 24 1002 24 0 2.61 205 10:19 14.06.2020
1453 Clouds 24 1002 24 0 2.61 205 09:45 14.06.2020
1454 Clouds 23 1004 26 0 2.81 194 09:25 14.06.2020
1455 Clouds 23 1004 26 0 2.81 194 08:56 14.06.2020
1456 Clouds 23 1004 26 0 2.81 194 08:38 14.06.2020
1457 Clouds 22 1005 28 0 2.62 190 08:18 14.06.2020
1458 Clouds 22 1005 28 0 2.62 190 07:48 14.06.2020
1459 Clouds 22 1005 28 0 2.62 190 07:30 14.06.2020
1460 Clear 20 1008 34 0 2.15 182 06:26 14.06.2020
1461 Clear 20 1008 34 0 2.15 182 05:40 14.06.2020
1462 Clear 19 1010 37 0 1.77 174 04:53 14.06.2020
1463 Clear 17 1011 41 0 1.41 163 04:28 14.06.2020
1464 Clear 16 1012 46 0 1.41 157 03:23 14.06.2020
1465 Clouds 14 1013 53 0 1.34 160 02:27 14.06.2020
1466 Clouds 14 1013 53 0 1.34 160 01:41 14.06.2020
1467 Clouds 12 1012 60 0 1.23 159 00:56 14.06.2020
1468 Clouds 12 1012 60 0 1.23 159 00:37 14.06.2020
1469 Clouds 12 1012 59 0 1.46 165 00:18 14.06.2020
1470 Clouds 12 1012 59 0 1.46 165 23:42 13.06.2020
1471 Clouds 13 1011 58 0 1.62 167 23:23 13.06.2020
1472 Clouds 13 1011 58 0 1.62 167 22:56 13.06.2020
1473 Clouds 13 1011 58 0 1.62 167 22:37 13.06.2020
1474 Clouds 14 1011 57 0 2.03 169 22:18 13.06.2020
1475 Clouds 14 1011 57 0 2.03 169 21:43 13.06.2020
1476 Clouds 14 1011 57 0 2.49 163 21:25 13.06.2020
1477 Rain 14 1011 54 0 2.55 166 21:00 13.06.2020
1478 Rain 14 1011 54 0 2.55 166 20:41 13.06.2020
1479 Rain 15 1011 52 0 2.71 173 20:19 13.06.2020
1480 Rain 15 1011 52 0 2.71 173 19:42 13.06.2020
1481 Rain 16 1010 49 0 2.82 181 19:22 13.06.2020
1482 Rain 16 1010 49 0 2.82 181 18:59 13.06.2020
1483 Rain 16 1010 49 0 2.82 181 18:41 13.06.2020
1484 Rain 17 1009 46 0 2.92 179 18:21 13.06.2020
1485 Rain 17 1009 46 0 2.92 179 17:59 13.06.2020
1486 Rain 17 1009 46 0 2.92 179 17:41 13.06.2020
1487 Rain 17 1008 42 0 3.43 162 17:22 13.06.2020
1488 Rain 17 1008 42 0 3.43 162 16:56 13.06.2020
1489 Rain 17 1008 42 0 3.43 162 16:38 13.06.2020
1490 Rain 19 1006 33 0 4.34 173 16:19 13.06.2020
1491 Rain 19 1006 33 0 4.34 173 15:44 13.06.2020
1492 Clouds 21 1004 28 0 2.58 190 15:26 13.06.2020
1493 Clouds 21 1004 28 0 2.58 190 14:58 13.06.2020
1494 Clouds 21 1004 28 0 2.58 190 14:39 13.06.2020
1495 Clouds 24 1002 21 0 1.85 203 14:20 13.06.2020
1496 Clouds 24 1002 22 0 2.57 211 13:44 13.06.2020
1497 Clouds 24 1001 20 0 1.85 215 13:26 13.06.2020
1498 Clouds 24 1001 20 0 1.85 215 12:45 13.06.2020
1499 Clouds 24 1000 20 0 1.2 218 12:27 13.06.2020
1500 Clouds 24 1000 20 0 1.2 218 11:59 13.06.2020
1501 Clouds 24 1000 20 0 1.2 218 11:40 13.06.2020
1502 Clouds 24 1001 21 0 1.51 222 11:19 13.06.2020
1503 Clouds 24 1001 21 0 1.51 222 10:57 13.06.2020
1504 Clouds 24 1001 21 0 1.51 222 10:38 13.06.2020
1505 Clouds 24 1002 22 0 2.19 206 10:19 13.06.2020
1506 Clouds 24 1002 22 0 2.19 206 09:45 13.06.2020
1507 Clouds 23 1003 24 0 2.37 199 09:27 13.06.2020
1508 Clouds 23 1003 24 0 2.37 199 08:55 13.06.2020
1509 Clouds 23 1003 24 0 2.37 199 08:37 13.06.2020
1510 Clouds 22 1005 27 0 2.07 191 08:19 13.06.2020
1511 Clouds 22 1005 27 0 2.07 191 07:42 13.06.2020
1512 Clouds 21 1006 31 0 1.88 188 07:22 13.06.2020
1513 Clouds 21 1006 31 0 1.88 188 06:38 13.06.2020
1514 Clear 19 1007 34 0 1.79 178 06:19 13.06.2020
1515 Clear 18 1009 38 0 1.75 168 05:27 13.06.2020
1516 Clear 16 1010 43 0 1.51 152 03:57 13.06.2020
1517 Clear 15 1011 48 0 1.51 133 02:55 13.06.2020
1518 Clear 15 1011 48 0 1.51 133 02:55 13.06.2020
1519 Clear 15 1011 48 0 1.51 133 02:36 13.06.2020
1520 Clouds 13 1012 56 0 1.44 124 01:47 13.06.2020
1521 Clouds 12 1012 62 0 1.44 131 01:22 13.06.2020
1522 Clouds 12 1012 62 0 1.44 131 00:45 13.06.2020
1523 Clouds 12 1011 62 0 1.8 145 00:26 13.06.2020
1524 Clouds 12 1011 62 0 1.8 145 23:55 12.06.2020
1525 Clouds 12 1011 62 0 1.8 145 23:37 12.06.2020
1526 Clouds 12 1011 61 0 2.25 154 23:18 12.06.2020
1527 Clouds 12 1011 61 0 2.25 154 22:41 12.06.2020
1528 Clouds 13 1011 60 0 2.67 157 22:19 12.06.2020
1529 Clouds 13 1011 60 0 2.67 157 21:50 12.06.2020
1530 Clear 14 1010 51 0 2.83 170 21:27 12.06.2020
1531 Clear 14 1010 51 0 2.83 170 20:59 12.06.2020
1532 Clear 14 1010 51 0 2.83 170 20:41 12.06.2020
1533 Rain 15 1010 50 0 3.07 168 20:22 12.06.2020
1534 Rain 15 1010 50 0 3.07 168 19:57 12.06.2020
1535 Rain 15 1010 50 0 3.07 168 19:57 12.06.2020
1536 Rain 15 1010 50 0 3.07 168 19:39 12.06.2020
1537 Rain 16 1009 48 0 2.9 173 19:19 12.06.2020
1538 Rain 16 1009 48 0 2.9 173 18:39 12.06.2020
1539 Rain 17 1008 42 0 3.29 170 18:19 12.06.2020
1540 Rain 17 1008 42 0 3.29 170 17:58 12.06.2020
1541 Rain 17 1008 42 0 3.29 170 17:39 12.06.2020
1542 Rain 18 1007 35 0 3.02 191 17:19 12.06.2020
1543 Rain 18 1007 35 0 3.02 191 16:44 12.06.2020
1544 Clouds 19 1006 30 0 2.83 205 16:20 12.06.2020
1545 Clouds 19 1006 30 0 2.83 205 15:49 12.06.2020
1546 Clouds 20 1004 28 0 2.34 208 15:26 12.06.2020
1547 Clouds 20 1004 28 0 2.34 208 14:58 12.06.2020
1548 Clouds 20 1004 28 0 2.34 208 14:39 12.06.2020
1549 Clouds 23 1001 21 0 1.5 229 14:21 12.06.2020
1550 Clouds 23 1001 21 0 1.5 229 13:42 12.06.2020
1551 Clouds 24 1000 20 0 1.85 228 13:21 12.06.2020
1552 Clouds 24 1000 20 0 1.85 228 12:41 12.06.2020
1553 Clouds 24 1000 20 0 2.15 225 12:20 12.06.2020
1554 Clouds 24 1000 20 0 2.15 225 11:58 12.06.2020
1555 Clouds 24 1000 20 0 2.15 225 11:40 12.06.2020
1556 Clouds 24 1001 20 0 2.38 218 11:21 12.06.2020
1557 Clouds 24 1001 20 0 2.38 218 10:46 12.06.2020
1558 Clouds 23 1002 21 0 2.66 211 10:25 12.06.2020
1559 Clouds 23 1002 21 0 2.66 211 09:47 12.06.2020
1560 Clear 22 1003 24 0 2.74 206 09:22 12.06.2020
1561 Clear 22 1003 24 0 2.74 206 08:46 12.06.2020
1562 Clear 21 1005 27 0 2.72 200 08:25 12.06.2020
1563 Clear 21 1005 27 0 2.72 200 07:56 12.06.2020
1564 Clear 21 1005 27 0 2.72 200 07:38 12.06.2020
1565 Clear 20 1007 30 0 2.61 190 07:19 12.06.2020
1566 Clear 20 1007 30 0 2.61 190 06:38 12.06.2020
1567 Clear 19 1008 33 0 2.48 180 06:19 12.06.2020
1568 Clear 19 1008 33 0 2.48 180 05:47 12.06.2020
1569 Clear 17 1010 37 0 2.31 174 05:20 12.06.2020
1570 Clear 16 1011 42 0 1.97 171 03:43 12.06.2020
1571 Clear 13 1013 51 0 2.1 161 01:58 12.06.2020
1572 Clear 13 1013 51 0 2.1 161 01:33 12.06.2020
1573 Clear 11 1013 56 0 2.04 159 00:57 12.06.2020
1574 Clear 11 1013 56 0 2.04 159 00:38 12.06.2020
1575 Clear 12 1012 54 0 2.28 164 00:19 12.06.2020
1576 Clear 12 1012 54 0 2.28 164 23:56 11.06.2020
1577 Clear 12 1012 54 0 2.28 164 23:36 11.06.2020
1578 Clear 12 1012 53 0 2.4 167 23:18 11.06.2020
1579 Clear 12 1012 53 0 2.4 167 22:40 11.06.2020
1580 Clear 13 1011 51 0 2.46 170 22:20 11.06.2020
1581 Clear 13 1011 51 0 2.46 170 21:57 11.06.2020
1582 Clear 13 1011 51 0 2.46 170 21:38 11.06.2020
1583 Clear 14 1011 47 0 2.87 180 21:20 11.06.2020
1584 Clear 14 1011 47 0 2.87 180 20:55 11.06.2020
1585 Clear 14 1011 47 0 2.87 180 20:37 11.06.2020
1586 Clear 14 1011 45 0 2.95 185 20:19 11.06.2020
1587 Clear 14 1011 45 0 2.95 185 19:41 11.06.2020
1588 Clear 15 1011 42 0 2.92 191 19:22 11.06.2020
1589 Clear 15 1011 42 0 2.92 191 18:43 11.06.2020
1590 Clear 16 1010 39 0 3.26 193 18:25 11.06.2020
1591 Clear 16 1010 39 0 3.26 193 17:57 11.06.2020
1592 Clear 16 1010 39 0 3.26 193 17:39 11.06.2020
1593 Clouds 17 1009 36 0 3.25 197 17:20 11.06.2020
1594 Clouds 17 1009 36 0 3.25 197 16:58 11.06.2020
1595 Clouds 17 1009 36 0 3.25 197 16:40 11.06.2020
1596 Clouds 18 1007 33 0 3.09 198 16:22 11.06.2020
1597 Clouds 18 1007 33 0 3.09 198 15:57 11.06.2020
1598 Clouds 18 1007 33 0 3.09 198 15:38 11.06.2020
1599 Clouds 19 1005 31 0 3.01 194 15:19 11.06.2020
1600 Clouds 19 1005 31 0 3.01 194 14:43 11.06.2020
1601 Clouds 22 1003 26 0 3.1 199 14:21 11.06.2020
1602 Clouds 22 1003 26 0 3.13 210 13:56 11.06.2020
1603 Clouds 22 1003 26 0 3.13 210 13:38 11.06.2020
1604 Clouds 22 1003 26 0 3.13 210 13:38 11.06.2020
1605 Clouds 22 1002 22 0 2.74 221 13:20 11.06.2020
1606 Clouds 22 1002 22 0 2.74 221 12:56 11.06.2020
1607 Clouds 22 1002 22 0 2.74 221 12:38 11.06.2020
1608 Clouds 23 1002 21 0 2.47 236 12:19 11.06.2020
1609 Clouds 23 1002 21 0 2.47 236 11:57 11.06.2020
1610 Clouds 23 1002 21 0 2.47 236 11:38 11.06.2020
1611 Clouds 22 1003 22 0 2.55 237 11:19 11.06.2020
1612 Clouds 22 1003 22 0 2.55 237 10:54 11.06.2020
1613 Clouds 22 1003 22 0 2.55 237 10:36 11.06.2020
1614 Clouds 22 1004 24 0 2.53 226 10:18 11.06.2020
1615 Clouds 22 1004 24 0 2.53 226 09:40 11.06.2020
1616 Clouds 21 1005 27 0 2.43 216 09:22 11.06.2020
1617 Clouds 21 1005 27 0 2.43 216 08:43 11.06.2020
1618 Clouds 20 1007 31 0 2.58 200 08:19 11.06.2020
1619 Clouds 20 1007 31 0 2.58 200 07:42 11.06.2020
1620 Clouds 19 1009 34 0 2.71 195 07:24 11.06.2020
1621 Clouds 19 1009 34 0 2.71 195 06:39 11.06.2020
1622 Rain 17 1010 38 0 2.85 193 06:20 11.06.2020
1623 Clouds 16 1012 42 0 2.73 188 05:28 11.06.2020
1624 Clouds 14 1014 50 0 2.31 183 03:28 11.06.2020
1625 Clouds 14 1014 50 0 2.31 183 02:50 11.06.2020
1626 Clouds 14 1013 48 0 2.48 160 02:31 11.06.2020
1627 Clouds 13 1014 53 0 1.99 151 01:43 11.06.2020
1628 Clouds 12 1014 58 0 1.39 155 01:22 11.06.2020
1629 Clouds 12 1014 58 0 1.39 155 00:45 11.06.2020
1630 Clouds 12 1013 58 0 1.22 163 00:26 11.06.2020
1631 Clouds 12 1013 58 0 1.22 163 23:43 10.06.2020
1632 Clouds 12 1013 59 0 0.91 173 23:24 10.06.2020
1633 Clouds 12 1013 59 0 0.91 173 22:56 10.06.2020
1634 Clouds 12 1013 59 0 0.91 173 22:37 10.06.2020
1635 Rain 13 1013 55 0 1.45 211 22:18 10.06.2020
1636 Rain 13 1013 55 0 1.45 211 21:55 10.06.2020
1637 Rain 13 1013 55 0 1.45 211 21:37 10.06.2020
1638 Clouds 14 1013 47 0 2.84 176 21:18 10.06.2020
1639 Clouds 14 1013 47 0 2.84 176 20:56 10.06.2020
1640 Clouds 14 1013 47 0 2.84 176 20:37 10.06.2020
1641 Rain 14 1013 46 0 2.92 181 20:19 10.06.2020
1642 Rain 14 1013 46 0 2.92 181 19:40 10.06.2020
1643 Clouds 15 1013 42 0 3.05 187 19:19 10.06.2020
1644 Clouds 15 1013 42 0 3.05 187 18:57 10.06.2020
1645 Clouds 15 1013 42 0 3.05 187 18:39 10.06.2020
1646 Clouds 16 1012 38 0 3.12 196 18:19 10.06.2020
1647 Clouds 16 1012 38 0 3.12 196 17:55 10.06.2020
1648 Clouds 16 1012 38 0 3.12 196 17:36 10.06.2020
1649 Clouds 16 1010 35 0 2.59 202 17:18 10.06.2020
1650 Clouds 16 1010 35 0 2.59 202 16:56 10.06.2020
1651 Clouds 16 1010 35 0 2.59 202 16:38 10.06.2020
1652 Clouds 17 1008 33 0 2.03 202 16:18 10.06.2020
1653 Clouds 17 1008 33 0 2.03 202 15:40 10.06.2020
1654 Clouds 18 1007 30 0 1.38 212 15:21 10.06.2020
1655 Clouds 18 1007 30 0 1.38 212 14:56 10.06.2020
1656 Clouds 18 1007 30 0 1.38 212 14:37 10.06.2020
1657 Clouds 22 1005 23 0 2.36 218 14:19 10.06.2020
1658 Clouds 22 1005 23 0 2.36 218 13:40 10.06.2020
1659 Clouds 22 1004 21 0 2.44 220 13:21 10.06.2020
1660 Clouds 22 1004 21 0 2.44 220 12:43 10.06.2020
1661 Clouds 23 1004 21 0 2.35 221 12:20 10.06.2020
1662 Clouds 23 1004 21 0 2.35 221 11:58 10.06.2020
1663 Clouds 23 1004 21 0 2.35 221 11:40 10.06.2020
1664 Clouds 22 1005 22 0 2.33 219 11:19 10.06.2020
1665 Clouds 22 1005 22 0 2.33 219 10:57 10.06.2020
1666 Clouds 22 1005 22 0 2.33 219 10:39 10.06.2020
1667 Clouds 22 1006 23 0 2.49 216 10:20 10.06.2020
1668 Clouds 22 1006 23 0 2.49 216 09:41 10.06.2020
1669 Clouds 21 1007 25 0 2.81 203 09:22 10.06.2020
1670 Clouds 21 1007 25 0 2.81 203 08:44 10.06.2020
1671 Clouds 20 1008 29 0 2.99 197 08:24 10.06.2020
1672 Clouds 20 1008 29 0 2.99 197 07:57 10.06.2020
1673 Clouds 20 1008 29 0 2.99 197 07:38 10.06.2020
1674 Clouds 19 1010 32 0 3.04 192 07:19 10.06.2020
1675 Clouds 19 1010 32 0 3.04 192 06:44 10.06.2020
1676 Clouds 18 1011 35 0 2.84 185 06:22 10.06.2020
1677 Clouds 18 1011 35 0 2.84 185 05:55 10.06.2020
1678 Clouds 17 1012 38 0 2.42 176 05:23 10.06.2020
1679 Clouds 17 1012 38 0 2.42 176 04:34 10.06.2020
1680 Clear 14 1014 46 0 1.73 161 02:55 10.06.2020
1681 Clouds 12 1015 53 0 1.74 150 01:59 10.06.2020
1682 Clouds 12 1015 53 0 1.74 150 01:36 10.06.2020
1683 Clouds 11 1015 57 0 1.89 152 00:39 10.06.2020
1684 Clouds 12 1014 55 0 2.33 154 00:21 10.06.2020
1685 Clouds 12 1014 55 0 2.33 154 23:56 09.06.2020
1686 Clouds 12 1014 55 0 2.33 154 23:37 09.06.2020
1687 Clouds 12 1014 54 0 2.26 155 23:19 09.06.2020
1688 Clouds 12 1014 54 0 2.26 155 22:55 09.06.2020
1689 Clouds 12 1014 54 0 2.26 155 22:37 09.06.2020
1690 Rain 13 1014 54 0 2.1 150 22:18 09.06.2020
1691 Rain 13 1014 54 0 2.1 150 21:55 09.06.2020
1692 Rain 13 1014 54 0 2.1 150 21:37 09.06.2020
1693 Rain 13 1013 52 0 1.98 154 21:19 09.06.2020
1694 Rain 13 1013 52 0 1.98 154 20:56 09.06.2020
1695 Rain 13 1013 52 0 1.98 154 20:38 09.06.2020
1696 Clouds 15 1013 47 0 1.68 145 20:18 09.06.2020
1697 Clouds 15 1013 47 0 1.68 145 19:55 09.06.2020
1698 Clouds 15 1013 47 0 1.68 145 19:36 09.06.2020
1699 Clouds 15 1012 43 0 1.71 141 19:18 09.06.2020
1700 Clouds 15 1012 43 0 1.71 141 18:44 09.06.2020
1701 Clouds 16 1012 41 0 1.4 130 18:25 09.06.2020
1702 Clouds 16 1012 41 0 1.4 130 17:57 09.06.2020
1703 Clouds 16 1012 41 0 1.4 130 17:39 09.06.2020
1704 Clouds 16 1011 39 0 0.93 150 17:21 09.06.2020
1705 Clouds 16 1011 39 0 0.93 150 16:55 09.06.2020
1706 Clouds 16 1011 39 0 0.93 150 16:36 09.06.2020
1707 Clouds 17 1010 37 0 0.85 174 16:18 09.06.2020
1708 Clouds 17 1010 37 0 0.85 174 15:40 09.06.2020
1709 Clouds 18 1008 36 0 0.65 178 15:21 09.06.2020
1710 Clouds 18 1008 36 0 0.65 178 14:57 09.06.2020
1711 Clouds 18 1008 36 0 0.65 178 14:37 09.06.2020
1712 Clouds 21 1006 25 0 1.12 212 14:18 09.06.2020
1713 Clouds 21 1005 25 0 1.14 225 13:46 09.06.2020
1714 Clouds 21 1005 23 0 1.57 230 13:22 09.06.2020
1715 Clouds 21 1005 23 0 1.57 230 12:59 09.06.2020
1716 Clouds 21 1005 23 0 1.57 230 12:41 09.06.2020
1717 Clouds 21 1005 23 0 1.96 225 12:19 09.06.2020
1718 Clouds 21 1005 23 0 1.96 225 11:56 09.06.2020
1719 Clouds 21 1005 23 0 1.96 225 11:37 09.06.2020
1720 Clouds 21 1006 24 0 2.02 217 11:19 09.06.2020
1721 Clouds 21 1006 24 0 2.02 217 11:19 09.06.2020
1722 Clouds 21 1006 24 0 2.02 217 10:45 09.06.2020
1723 Clouds 21 1007 27 0 2.15 212 10:27 09.06.2020
1724 Clouds 21 1007 27 0 2.15 212 09:57 09.06.2020
1725 Clouds 21 1007 27 0 2.15 212 09:38 09.06.2020
1726 Clouds 19 1008 33 0 2.16 196 09:18 09.06.2020
1727 Clouds 19 1008 33 0 2.16 196 08:39 09.06.2020
1728 Clouds 19 1008 33 0 2.16 196 08:39 09.06.2020
1729 Clouds 19 1008 33 0 2.16 196 08:39 09.06.2020
1730 Rain 18 1010 38 0 2.13 195 08:21 09.06.2020
1731 Rain 18 1010 38 0 2.13 195 07:42 09.06.2020
1732 Rain 16 1012 44 0 1.73 196 07:22 09.06.2020
1733 Rain 16 1012 44 0 1.73 196 06:55 09.06.2020
1734 Rain 16 1012 44 0 1.73 196 06:36 09.06.2020
1735 Rain 13 1013 53 0 1.14 199 05:48 09.06.2020
1736 Rain 12 1015 60 0 0.91 178 03:55 09.06.2020
1737 Clouds 10 1016 66 0 0.76 68 02:22 09.06.2020
1738 Clouds 10 1016 66 0 0.76 68 01:37 09.06.2020
1739 Clouds 10 1016 67 0 0.54 97 01:18 09.06.2020
1740 Clouds 10 1016 67 0 0.54 97 00:42 09.06.2020
1741 Clouds 10 1015 67 0 0.73 140 00:19 09.06.2020
1742 Clouds 10 1015 67 0 0.73 140 23:42 08.06.2020
1743 Rain 10 1014 67 0 1.07 167 23:21 08.06.2020
1744 Rain 10 1014 67 0 1.07 167 22:59 08.06.2020
1745 Rain 10 1014 67 0 1.07 167 22:38 08.06.2020
1746 Rain 10 1014 66 0 1.58 177 22:20 08.06.2020
1747 Rain 10 1014 66 0 1.58 177 21:56 08.06.2020
1748 Rain 10 1014 66 0 1.58 177 21:37 08.06.2020
1749 Rain 11 1015 65 0 1.91 174 21:19 08.06.2020
1750 Rain 12 1014 60 0 2.71 172 20:55 08.06.2020
1751 Rain 12 1014 60 0 2.71 172 20:55 08.06.2020
1752 Rain 12 1014 60 0 2.71 172 20:36 08.06.2020
1753 Rain 12 1014 59 0 2.11 162 20:18 08.06.2020
1754 Rain 12 1014 59 0 2.11 162 19:43 08.06.2020
1755 Rain 12 1014 59 0 2.11 162 19:43 08.06.2020
1756 Rain 13 1014 53 0 1.21 131 19:21 08.06.2020
1757 Rain 13 1014 53 0 1.21 131 18:44 08.06.2020
1758 Clouds 14 1014 50 0 0.73 165 18:21 08.06.2020
1759 Clouds 14 1014 50 0 0.73 165 17:58 08.06.2020
1760 Clouds 14 1014 50 0 0.73 165 17:40 08.06.2020
1761 Clouds 14 1014 50 0 0.73 165 17:40 08.06.2020
1762 Clouds 14 1012 50 0 0.28 154 17:22 08.06.2020
1763 Clouds 14 1012 50 0 0.28 154 16:58 08.06.2020
1764 Clouds 14 1012 50 0 0.28 154 16:39 08.06.2020
1765 Clouds 15 1011 48 0 0.65 290 16:21 08.06.2020
1766 Clouds 15 1011 48 0 0.65 290 15:43 08.06.2020
1767 Clouds 15 1009 45 0 1.3 318 15:22 08.06.2020
1768 Clouds 15 1009 45 0 1.3 318 14:58 08.06.2020
1769 Clouds 15 1009 45 0 1.3 318 14:39 08.06.2020
1770 Rain 15 1008 47 0 1.83 105 14:19 08.06.2020
1771 Rain 15 1008 47 0 1.83 105 13:43 08.06.2020
1772 Rain 15 1006 48 0 0.8 78 13:24 08.06.2020
1773 Rain 15 1006 48 0 0.8 78 12:43 08.06.2020
1774 Rain 17 1006 42 0 1.13 271 12:20 08.06.2020
1775 Rain 17 1006 42 0 1.13 271 11:59 08.06.2020
1776 Rain 17 1006 42 0 1.13 271 11:40 08.06.2020
1777 Rain 17 1006 42 0 1.13 271 11:40 08.06.2020
1778 Rain 19 1006 33 0 1.43 260 11:22 08.06.2020
1779 Rain 19 1006 33 0 1.43 260 10:58 08.06.2020
1780 Rain 19 1006 33 0 1.43 260 10:38 08.06.2020
1781 Rain 19 1006 33 0 1.43 260 10:38 08.06.2020
1782 Clouds 19 1006 32 0 1.12 342 10:20 08.06.2020
1783 Clouds 19 1006 32 0 1.12 342 09:57 08.06.2020
1784 Clouds 19 1006 32 0 1.12 342 09:57 08.06.2020
1785 Clouds 19 1006 32 0 1.12 342 09:39 08.06.2020
1786 Rain 17 1007 39 0 1.68 313 09:21 08.06.2020
1787 Rain 17 1007 39 0 1.68 313 08:46 08.06.2020
1788 Rain 16 1009 43 0 1.17 320 08:22 08.06.2020
1789 Rain 16 1009 43 0 1.17 320 07:46 08.06.2020
1790 Rain 14 1010 49 0 0.82 7 07:22 08.06.2020
1791 Rain 14 1010 49 0 0.82 7 06:50 08.06.2020
1792 Rain 12 1011 57 0 1.1 38 06:28 08.06.2020
1793 Rain 12 1011 57 0 1.1 38 05:47 08.06.2020
1794 Rain 9 1013 68 0 1.38 36 04:29 08.06.2020
1795 Rain 8 1014 71 0 1.26 23 02:32 08.06.2020
1796 Rain 8 1014 71 0 1.6 32 01:49 08.06.2020
1797 Rain 8 1014 71 0 1.6 32 01:30 08.06.2020
1798 Rain 9 1013 69 0 1.9 21 00:30 08.06.2020
1799 Rain 9 1012 66 0 1.63 26 23:42 07.06.2020
1800 Rain 10 1012 66 0 1.78 43 23:20 07.06.2020
1801 Rain 10 1012 66 0 1.78 43 22:59 07.06.2020
1802 Rain 10 1012 66 0 1.78 43 22:39 07.06.2020
1803 Rain 10 1012 65 0 2.05 27 22:19 07.06.2020
1804 Rain 10 1012 65 0 2.05 27 21:59 07.06.2020
1805 Rain 10 1012 65 0 2.05 27 21:38 07.06.2020
1806 Rain 11 1011 63 0 1.49 353 21:20 07.06.2020
1807 Rain 11 1011 63 0 1.49 353 21:20 07.06.2020
1808 Rain 11 1011 63 0 1.49 353 20:56 07.06.2020
1809 Rain 11 1011 63 0 1.49 353 20:37 07.06.2020
1810 Rain 11 1011 62 0 1.67 16 20:18 07.06.2020
1811 Rain 11 1011 62 0 1.67 16 19:55 07.06.2020
1812 Rain 11 1011 62 0 1.67 16 19:37 07.06.2020
1813 Rain 12 1011 60 0 1.61 43 19:18 07.06.2020
1814 Rain 12 1011 60 0 1.61 43 18:42 07.06.2020
1815 Rain 13 1011 55 0 0.48 212 18:23 07.06.2020
1816 Rain 13 1011 55 0 0.48 212 17:59 07.06.2020
1817 Rain 12 1011 57 0 1.86 349 17:40 07.06.2020
1818 Rain 13 1010 54 0 1.04 310 17:22 07.06.2020
1819 Rain 13 1010 54 0 1.04 310 16:45 07.06.2020
1820 Rain 15 1008 45 0 2.17 238 16:23 07.06.2020
1821 Rain 15 1008 45 0 2.17 238 15:45 07.06.2020
1822 Clouds 16 1006 37 0 2.07 222 15:24 07.06.2020
1823 Clouds 16 1006 37 0 2.07 222 15:00 07.06.2020
1824 Clouds 16 1006 37 0 2.07 222 14:38 07.06.2020
1825 Clouds 18 1004 31 0 1.94 186 14:19 07.06.2020
1826 Clouds 18 1004 30 0 2.81 203 13:45 07.06.2020
1827 Clouds 18 1004 30 0 2.81 203 13:45 07.06.2020
1828 Clouds 18 1004 30 0 2.81 203 13:45 07.06.2020
1829 Clouds 18 1004 30 0 2.81 203 13:45 07.06.2020
1830 Clouds 19 1003 27 0 1.74 184 13:20 07.06.2020
1831 Clouds 19 1003 27 0 1.74 184 12:44 07.06.2020
1832 Clouds 19 1002 27 0 2.11 216 12:26 07.06.2020
1833 Clouds 19 1002 27 0 2.11 216 12:26 07.06.2020
1834 Clouds 19 1002 27 0 2.11 216 11:56 07.06.2020
1835 Clouds 19 1002 27 0 2.11 216 11:56 07.06.2020
1836 Clouds 19 1002 27 0 2.11 216 11:38 07.06.2020
1837 Clouds 21 1003 24 0 3.14 236 11:20 07.06.2020
1838 Clouds 21 1003 24 0 3.14 236 10:58 07.06.2020
1839 Clouds 21 1003 24 0 3.14 236 10:39 07.06.2020
1840 Clouds 21 1004 24 0 2.41 220 10:19 07.06.2020
1841 Clouds 21 1004 24 0 2.41 220 09:56 07.06.2020
1842 Clouds 21 1004 24 0 2.41 220 09:38 07.06.2020
1843 Clouds 20 1006 25 0 2.7 214 09:19 07.06.2020
1844 Clouds 20 1005 25 0 2.77 213 08:45 07.06.2020
1845 Clouds 19 1007 27 0 2.45 210 08:23 07.06.2020
1846 Clouds 19 1007 27 0 2.45 210 07:47 07.06.2020
1847 Clouds 19 1007 27 0 2.45 210 07:28 07.06.2020
1848 Clouds 18 1008 31 0 2.31 201 06:38 07.06.2020
1849 Clouds 16 1010 35 0 2.21 194 05:36 07.06.2020
1850 Clear 14 1013 42 0 1.99 181 04:20 07.06.2020
1851 Clear 14 1013 42 0 1.99 181 04:20 07.06.2020
1852 Clouds 12 1014 46 0 1.99 178 02:31 07.06.2020
1853 Clouds 12 1014 46 0 1.99 178 02:31 07.06.2020
1854 Clear 11 1014 51 0 2.07 176 01:50 07.06.2020
1855 Clear 9 1014 55 0 2.24 179 01:25 07.06.2020
1856 Clear 9 1014 55 0 2.24 179 00:42 07.06.2020
1857 Clear 10 1013 54 0 2.47 179 00:18 07.06.2020
1858 Clear 10 1013 54 0 2.47 179 23:57 06.06.2020
1859 Clear 10 1013 54 0 2.47 179 23:36 06.06.2020
1860 Clear 10 1013 53 0 2.62 180 23:18 06.06.2020
1861 Clear 10 1013 53 0 2.62 180 22:56 06.06.2020
1862 Clear 10 1013 53 0 2.62 180 22:37 06.06.2020
1863 Clear 11 1012 51 0 2.78 179 22:18 06.06.2020
1864 Clear 11 1012 51 0 2.78 179 21:43 06.06.2020
1865 Clear 12 1012 50 0 2.92 180 21:22 06.06.2020
1866 Clear 12 1012 50 0 2.92 180 20:56 06.06.2020
1867 Clear 12 1012 50 0 2.92 180 20:37 06.06.2020
1868 Clear 12 1012 48 0 3.05 182 20:18 06.06.2020
1869 Clear 12 1012 48 0 3.05 182 19:56 06.06.2020
1870 Clear 12 1012 48 0 3.05 182 19:36 06.06.2020
1871 Clear 13 1011 46 0 3.28 185 19:18 06.06.2020
1872 Clear 13 1011 46 0 3.28 185 18:42 06.06.2020
1873 Clouds 14 1010 44 0 3.22 190 18:23 06.06.2020
1874 Clouds 14 1010 44 0 3.22 190 18:23 06.06.2020
1875 Clouds 14 1010 44 0 3.22 190 17:44 06.06.2020
1876 Clouds 15 1009 41 0 3.7 191 17:21 06.06.2020
1877 Clouds 15 1009 41 0 3.7 191 16:58 06.06.2020
1878 Clouds 15 1009 41 0 3.7 191 16:39 06.06.2020
1879 Clouds 16 1008 38 0 3.65 191 16:21 06.06.2020
1880 Clouds 16 1008 38 0 3.65 191 15:55 06.06.2020
1881 Clouds 16 1008 38 0 3.65 191 15:36 06.06.2020
1882 Clouds 17 1006 36 0 3.26 203 15:18 06.06.2020
1883 Clouds 17 1006 36 0 3.26 203 14:39 06.06.2020
1884 Clouds 19 1003 28 0 3.88 201 14:20 06.06.2020
1885 Clouds 19 1003 28 0 3.88 201 13:55 06.06.2020
1886 Clouds 19 1003 28 0 3.88 201 13:37 06.06.2020
1887 Clouds 20 1002 25 0 4.1 213 13:18 06.06.2020
1888 Clouds 20 1002 25 0 4.1 213 12:42 06.06.2020
1889 Clouds 21 1001 24 0 4.11 212 12:22 06.06.2020
1890 Clouds 21 1001 24 0 4.11 212 11:58 06.06.2020
1891 Clouds 21 1001 24 0 4.11 212 11:38 06.06.2020
1892 Clouds 21 1002 24 0 4.16 215 11:19 06.06.2020
1893 Clouds 21 1002 24 0 4.16 215 10:57 06.06.2020
1894 Clouds 21 1002 24 0 4.16 215 10:39 06.06.2020
1895 Clouds 21 1004 25 0 3.92 214 10:20 06.06.2020
1896 Clouds 21 1004 25 0 3.92 214 09:45 06.06.2020
1897 Clouds 20 1005 27 0 3.75 202 09:27 06.06.2020
1898 Clouds 18 1005 34 0 2.05 222 08:56 06.06.2020
1899 Clouds 18 1005 34 0 2.05 222 08:38 06.06.2020
1900 Rain 17 1007 38 0 2.39 208 08:18 06.06.2020
1901 Rain 17 1007 38 0 2.39 208 07:45 06.06.2020
1902 Rain 16 1008 41 0 2.33 197 07:20 06.06.2020
1903 Rain 16 1008 41 0 2.33 197 06:46 06.06.2020
1904 Rain 15 1009 43 0 2.01 189 06:27 06.06.2020
1905 Rain 15 1009 43 0 2.01 189 05:50 06.06.2020
1906 Rain 15 1010 45 0 1.68 184 05:25 06.06.2020
1907 Rain 15 1010 45 0 1.68 184 04:38 06.06.2020
1908 Clouds 12 1012 52 0 1.16 140 02:36 06.06.2020
1909 Clouds 11 1012 56 0 1.47 145 01:42 06.06.2020
1910 Clouds 10 1012 60 0 1.36 140 01:18 06.06.2020
1911 Clouds 10 1012 60 0 1.36 140 00:41 06.06.2020
1912 Clouds 10 1011 61 0 1.4 142 00:23 06.06.2020
1913 Clouds 10 1011 61 0 1.4 142 23:40 05.06.2020
1914 Clouds 11 1011 60 0 1.93 145 23:21 05.06.2020
1915 Clouds 11 1011 60 0 1.93 145 22:59 05.06.2020
1916 Clouds 11 1011 60 0 1.93 145 22:41 05.06.2020
1917 Clouds 11 1010 58 0 1.99 156 22:22 05.06.2020
1918 Clouds 11 1010 58 0 1.99 156 21:57 05.06.2020
1919 Clouds 11 1010 58 0 1.99 156 21:39 05.06.2020
1920 Rain 12 1010 57 0 2.4 170 21:19 05.06.2020
1921 Rain 12 1010 57 0 2.4 170 20:55 05.06.2020
1922 Rain 12 1010 57 0 2.4 170 20:37 05.06.2020
1923 Rain 12 1011 57 0 2.31 171 20:18 05.06.2020
1924 Rain 12 1011 57 0 2.31 171 19:40 05.06.2020
1925 Rain 12 1010 57 0 1.39 164 19:21 05.06.2020
1926 Rain 12 1010 57 0 1.39 164 18:40 05.06.2020
1927 Rain 12 1010 58 0 0.33 133 18:21 05.06.2020
1928 Rain 12 1010 58 0 0.33 133 17:59 05.06.2020
1929 Rain 12 1010 58 0 0.33 133 17:41 05.06.2020
1930 Clouds 12 1009 60 0 0.28 293 17:21 05.06.2020
1931 Clouds 12 1009 60 0 0.28 293 16:58 05.06.2020
1932 Clouds 12 1009 60 0 0.28 293 16:37 05.06.2020
1933 Rain 13 1008 58 0 0.22 36 16:19 05.06.2020
1934 Rain 13 1008 58 0 0.22 36 15:40 05.06.2020
1935 Rain 13 1007 56 0 0.5 159 15:21 05.06.2020
1936 Rain 13 1007 56 0 0.5 159 14:58 05.06.2020
1937 Rain 13 1007 56 0 0.5 159 14:40 05.06.2020
1938 Rain 14 1006 51 0 2.07 178 14:21 05.06.2020
1939 Rain 16 1005 45 0 3.58 198 13:47 05.06.2020
1940 Rain 16 1005 45 0 3.58 198 13:28 05.06.2020
1941 Clouds 17 1004 41 0 2.67 203 12:57 05.06.2020
1942 Clouds 17 1004 41 0 2.67 203 12:39 05.06.2020
1943 Rain 17 1003 40 0 2.77 179 12:19 05.06.2020
1944 Rain 17 1003 40 0 2.77 179 11:43 05.06.2020
1945 Rain 17 1003 38 0 2.25 209 11:24 05.06.2020
1946 Rain 17 1003 38 0 2.25 209 10:59 05.06.2020
1947 Rain 17 1003 38 0 2.25 209 10:41 05.06.2020
1948 Rain 18 1004 37 0 1.45 217 10:20 05.06.2020
1949 Rain 18 1004 37 0 1.45 217 09:57 05.06.2020
1950 Rain 18 1004 37 0 1.45 217 09:39 05.06.2020
1951 Rain 17 1006 39 0 1.75 215 09:20 05.06.2020
1952 Rain 17 1006 39 0 1.75 215 08:58 05.06.2020
1953 Rain 17 1006 39 0 1.75 215 08:40 05.06.2020
1954 Rain 16 1008 41 0 1.45 212 08:18 05.06.2020
1955 Rain 16 1008 41 0 1.45 212 07:50 05.06.2020
1956 Rain 16 1008 41 0 1.45 212 07:32 05.06.2020
1957 Rain 15 1009 44 0 1.04 186 06:49 05.06.2020
1958 Rain 13 1012 51 0 1.2 151 05:23 05.06.2020
1959 Rain 12 1012 56 0 1.83 141 04:28 05.06.2020
1960 Rain 12 1012 56 0 1.83 141 03:32 05.06.2020
1961 Clouds 11 1012 60 0 1.65 138 02:30 05.06.2020
1962 Clouds 10 1012 65 0 0.84 142 01:59 05.06.2020
1963 Clouds 10 1012 65 0 0.84 142 01:33 05.06.2020
1964 Clouds 10 1012 66 0 0.9 140 00:46 05.06.2020
1965 Rain 10 1012 68 0 0.78 133 00:22 05.06.2020
1966 Rain 10 1012 68 0 0.78 133 23:58 04.06.2020
1967 Rain 10 1012 68 0 0.78 133 23:40 04.06.2020
1968 Rain 10 1011 69 0 1.25 201 23:21 04.06.2020
1969 Rain 10 1011 69 0 1.25 201 22:42 04.06.2020
1970 Rain 10 1011 66 0 0.38 117 22:21 04.06.2020
1971 Rain 10 1011 66 0 0.38 117 21:58 04.06.2020
1972 Rain 10 1011 66 0 0.38 117 21:39 04.06.2020
1973 Rain 11 1011 61 0 1.39 53 21:20 04.06.2020
1974 Rain 11 1011 61 0 1.39 53 20:57 04.06.2020
1975 Rain 11 1011 61 0 1.39 53 20:39 04.06.2020
1976 Rain 11 1011 61 0 1.39 53 20:39 04.06.2020
1977 Rain 11 1011 61 0 1.35 61 20:20 04.06.2020
1978 Rain 11 1011 61 0 1.35 61 19:55 04.06.2020
1979 Rain 11 1011 61 0 1.35 61 19:37 04.06.2020
1980 Rain 11 1011 61 0 1.61 89 19:18 04.06.2020
1981 Rain 11 1011 61 0 1.61 89 18:39 04.06.2020
1982 Rain 11 1011 58 0 1.06 202 18:20 04.06.2020
1983 Rain 11 1011 58 0 1.06 202 17:58 04.06.2020
1984 Rain 11 1011 58 0 1.06 202 17:40 04.06.2020
1985 Rain 12 1011 51 0 1.48 274 17:19 04.06.2020
1986 Rain 12 1011 51 0 1.48 274 16:41 04.06.2020
1987 Rain 13 1009 48 0 1.02 337 16:20 04.06.2020
1988 Rain 13 1009 48 0 1.02 337 15:46 04.06.2020
1989 Clouds 14 1007 45 0 1.26 328 15:27 04.06.2020
1990 Clouds 14 1007 45 0 1.26 328 14:56 04.06.2020
1991 Clouds 14 1007 45 0 1.26 328 14:38 04.06.2020
1992 Clouds 15 1005 38 0 1.73 320 14:19 04.06.2020
1993 Clouds 15 1004 41 0 1.31 275 13:42 04.06.2020
1994 Clouds 16 1003 36 0 1.47 309 13:21 04.06.2020
1995 Clouds 16 1003 36 0 1.47 309 12:59 04.06.2020
1996 Clouds 16 1003 36 0 1.47 309 12:41 04.06.2020
1997 Clouds 17 1003 34 0 1.39 322 12:23 04.06.2020
1998 Clouds 17 1003 34 0 1.39 322 11:58 04.06.2020
1999 Clouds 17 1003 34 0 1.39 322 11:38 04.06.2020
2000 Clouds 17 1004 34 0 0.66 344 11:20 04.06.2020
2001 Clouds 17 1004 34 0 0.66 344 10:56 04.06.2020
2002 Clouds 17 1004 34 0 0.66 344 10:37 04.06.2020
2003 Clouds 16 1005 35 0 0.66 356 10:18 04.06.2020
2004 Clouds 16 1005 35 0 0.66 356 09:42 04.06.2020
2005 Rain 16 1006 37 0 0.42 342 09:23 04.06.2020
2006 Rain 16 1006 36 0 0.26 258 08:46 04.06.2020
2007 Rain 15 1008 40 0 0.12 208 08:26 04.06.2020
2008 Rain 15 1008 40 0 0.12 208 07:48 04.06.2020
2009 Rain 14 1009 44 0 0.25 162 07:28 04.06.2020
2010 Rain 14 1009 44 0 0.25 162 06:44 04.06.2020
2011 Rain 12 1011 50 0 0.73 101 06:25 04.06.2020
2012 Rain 12 1011 50 0 0.73 101 05:39 04.06.2020
2013 Rain 11 1012 54 0 0.76 84 05:20 04.06.2020
2014 Clouds 9 1013 61 0 1.31 68 03:25 04.06.2020
2015 Rain 9 1014 64 0 1.51 89 01:56 04.06.2020
2016 Clouds 8 1014 67 0 1.4 82 01:20 04.06.2020
2017 Clouds 8 1014 67 0 1.4 82 00:48 04.06.2020
2018 Clouds 9 1013 65 0 1.45 85 23:48 03.06.2020
2019 Rain 9 1013 66 0 1.48 109 23:21 03.06.2020
2020 Rain 9 1013 66 0 1.48 109 22:59 03.06.2020
2021 Rain 9 1013 66 0 1.48 109 22:39 03.06.2020
2022 Rain 9 1013 66 0 1.55 80 22:19 03.06.2020
2023 Rain 9 1013 66 0 1.55 80 21:57 03.06.2020
2024 Rain 9 1013 66 0 1.55 80 21:39 03.06.2020
2025 Rain 9 1013 64 0 0.83 100 21:21 03.06.2020
2026 Rain 10 1012 58 0 0.79 122 20:56 03.06.2020
2027 Rain 10 1012 58 0 0.79 122 20:37 03.06.2020
2028 Rain 10 1013 56 0 0.86 132 20:19 03.06.2020
2029 Rain 10 1013 56 0 0.86 132 19:56 03.06.2020
2030 Rain 10 1013 56 0 0.86 132 19:36 03.06.2020
2031 Rain 10 1013 55 0 1.26 148 19:18 03.06.2020
2032 Rain 10 1013 55 0 1.26 148 18:43 03.06.2020
2033 Clouds 11 1013 52 0 1.87 138 18:22 03.06.2020
2034 Clouds 11 1013 52 0 1.87 138 17:57 03.06.2020
2035 Clouds 11 1013 52 0 1.87 138 17:37 03.06.2020
2036 Clouds 11 1012 51 0 2.13 137 17:19 03.06.2020
2037 Clouds 11 1012 51 0 2.13 137 16:42 03.06.2020
2038 Clouds 12 1011 49 0 1.96 129 16:21 03.06.2020
2039 Clouds 12 1011 49 0 1.96 129 15:59 03.06.2020
2040 Clouds 12 1011 49 0 1.96 129 15:41 03.06.2020
2041 Clouds 13 1009 47 0 2.19 154 15:20 03.06.2020
2042 Clouds 13 1009 47 0 2.19 154 14:47 03.06.2020
2043 Clouds 15 1007 39 0 2.16 160 14:25 03.06.2020
2044 Clouds 15 1006 36 0 1.79 185 13:56 03.06.2020
2045 Clouds 15 1006 36 0 1.79 185 13:38 03.06.2020
2046 Clouds 17 1005 32 0 1.39 201 13:18 03.06.2020
2047 Clouds 17 1005 32 0 1.39 201 12:42 03.06.2020
2048 Clouds 17 1005 30 0 0.35 281 12:21 03.06.2020
2049 Clouds 17 1005 30 0 0.35 281 11:45 03.06.2020
2050 Clouds 17 1005 30 0 0.25 219 11:27 03.06.2020
2051 Clouds 17 1005 30 0 0.25 219 10:57 03.06.2020
2052 Clouds 17 1005 30 0 0.25 219 10:38 03.06.2020
2053 Clouds 17 1005 32 0 0.43 341 10:20 03.06.2020
2054 Clouds 17 1005 32 0 0.43 341 09:43 03.06.2020
2055 Clouds 18 1005 29 0 1.29 199 09:20 03.06.2020
2056 Clouds 18 1005 29 0 1.29 199 08:48 03.06.2020
2057 Rain 17 1007 30 0 1.63 191 08:25 03.06.2020
2058 Rain 17 1007 30 0 1.63 191 07:59 03.06.2020
2059 Rain 17 1007 30 0 1.63 191 07:41 03.06.2020
2060 Rain 16 1008 34 0 1.97 177 07:19 03.06.2020
2061 Rain 16 1008 34 0 1.97 177 06:49 03.06.2020
2062 Rain 16 1008 34 0 1.97 177 06:30 03.06.2020
2063 Rain 15 1010 38 0 1.73 162 05:46 03.06.2020
2064 Rain 13 1011 43 0 1.75 141 04:44 03.06.2020
2065 Rain 12 1012 51 0 1.51 135 03:50 03.06.2020
2066 Clouds 10 1013 56 0 1.33 104 02:46 03.06.2020
2067 Clouds 9 1013 61 0 1.94 97 01:48 03.06.2020
2068 Rain 8 1013 65 0 1.73 87 00:41 03.06.2020
2069 Rain 9 1012 64 0 1.85 83 00:23 03.06.2020
2070 Rain 9 1012 64 0 1.85 83 23:51 02.06.2020
2071 Rain 9 1012 64 0 1.82 86 23:27 02.06.2020
2072 Rain 9 1012 64 0 1.82 86 22:56 02.06.2020
2073 Rain 9 1012 64 0 1.82 86 22:38 02.06.2020
2074 Rain 10 1012 61 0 2.29 92 22:18 02.06.2020
2075 Rain 10 1012 61 0 2.29 92 21:56 02.06.2020
2076 Rain 10 1012 61 0 2.29 92 21:37 02.06.2020
2077 Rain 10 1012 60 0 1.66 112 21:19 02.06.2020
2078 Rain 10 1012 60 0 1.66 112 20:55 02.06.2020
2079 Rain 10 1012 60 0 1.66 112 20:36 02.06.2020
2080 Rain 10 1012 59 0 1.04 120 20:18 02.06.2020
2081 Rain 10 1012 59 0 1.04 120 19:42 02.06.2020
2082 Rain 11 1012 56 0 1.42 80 19:24 02.06.2020
2083 Rain 11 1012 56 0 1.42 80 18:57 02.06.2020
2084 Rain 11 1012 56 0 1.42 80 18:39 02.06.2020
2085 Clouds 11 1012 54 0 1.73 66 18:20 02.06.2020
2086 Clouds 11 1012 54 0 1.73 66 17:55 02.06.2020
2087 Clouds 11 1012 54 0 1.73 66 17:37 02.06.2020
2088 Clouds 12 1011 53 0 1.86 67 17:18 02.06.2020
2089 Clouds 12 1011 53 0 1.86 67 16:40 02.06.2020
2090 Clouds 13 1010 48 0 2.35 61 16:21 02.06.2020
2091 Clouds 13 1010 48 0 2.35 61 16:21 02.06.2020
2092 Clouds 13 1010 48 0 2.35 61 15:57 02.06.2020
2093 Clouds 13 1010 48 0 2.35 61 15:37 02.06.2020
2094 Clouds 14 1008 42 0 2.34 94 15:19 02.06.2020
2095 Clouds 14 1008 42 0 2.34 94 14:45 02.06.2020
2096 Clouds 16 1005 33 0 0.75 99 14:26 02.06.2020
2097 Clouds 16 1005 33 0 0.75 99 13:54 02.06.2020
2098 Clouds 16 1005 33 0 0.75 99 13:36 02.06.2020
2099 Clouds 18 1004 27 0 0.88 344 13:18 02.06.2020
2100 Clouds 18 1004 27 0 0.88 344 12:40 02.06.2020
2101 Clouds 18 1003 27 0 0.68 301 12:22 02.06.2020
2102 Clouds 18 1003 27 0 0.68 301 11:59 02.06.2020
2103 Clouds 18 1003 27 0 0.68 301 11:39 02.06.2020
2104 Clouds 19 1003 27 0 1.9 257 11:20 02.06.2020
2105 Clouds 19 1003 27 0 1.9 257 10:50 02.06.2020
2106 Clouds 19 1003 27 0 1.9 257 10:28 02.06.2020
2107 Rain 18 1004 28 0 1.39 237 09:59 02.06.2020
2108 Rain 18 1004 28 0 1.39 237 09:40 02.06.2020
2109 Rain 17 1006 31 0 1.77 211 09:20 02.06.2020
2110 Rain 17 1006 31 0 1.77 211 08:51 02.06.2020
2111 Rain 16 1007 35 0 1.94 202 08:23 02.06.2020
2112 Rain 16 1007 35 0 1.94 202 07:53 02.06.2020
2113 Rain 16 1007 35 0 1.94 202 07:30 02.06.2020
2114 Rain 15 1009 39 0 1.37 186 06:51 02.06.2020
2115 Rain 15 1009 39 0 1.37 186 06:31 02.06.2020
2116 Rain 12 1012 48 0 0.98 124 05:27 02.06.2020
2117 Clouds 11 1012 53 0 1.11 102 03:53 02.06.2020
2118 Clouds 10 1013 56 0 1.05 79 02:30 02.06.2020
2119 Clouds 9 1014 60 0 1.35 66 01:34 02.06.2020
2120 Rain 9 1013 61 0 0.57 48 00:26 02.06.2020
2121 Rain 9 1013 61 0 0.57 48 23:59 01.06.2020
2122 Rain 9 1013 61 0 0.57 48 23:38 01.06.2020
2123 Clouds 9 1013 59 0 0.26 107 23:19 01.06.2020
2124 Clouds 9 1013 59 0 0.26 107 22:56 01.06.2020
2125 Clouds 9 1013 59 0 0.26 107 22:37 01.06.2020
2126 Clouds 9 1013 59 0 0.4 133 22:18 01.06.2020
2127 Clouds 9 1013 59 0 0.4 133 21:41 01.06.2020
2128 Clouds 11 1013 48 0 1.75 194 21:20 01.06.2020
2129 Clouds 11 1013 48 0 1.75 194 20:58 01.06.2020
2130 Clouds 11 1013 48 0 1.75 194 20:40 01.06.2020
2131 Rain 12 1013 48 0 1.78 186 20:20 01.06.2020
2132 Rain 12 1013 48 0 1.78 186 20:20 01.06.2020
2133 Rain 12 1013 48 0 1.78 186 19:58 01.06.2020
2134 Rain 12 1013 48 0 1.78 186 19:39 01.06.2020
2135 Clouds 13 1013 44 0 2.04 180 19:20 01.06.2020
2136 Clouds 13 1013 44 0 2.04 180 18:57 01.06.2020
2137 Clouds 13 1013 44 0 2.04 180 18:38 01.06.2020
2138 Clouds 13 1013 45 0 1.99 218 18:18 01.06.2020
2139 Clouds 13 1013 45 0 1.99 218 17:41 01.06.2020
2140 Clouds 13 1012 44 0 1.31 256 17:20 01.06.2020
2141 Clouds 13 1012 44 0 1.31 256 16:56 01.06.2020
2142 Clouds 13 1012 44 0 1.31 256 16:37 01.06.2020
2143 Rain 14 1011 41 0 1.97 236 16:18 01.06.2020
2144 Rain 14 1011 41 0 1.97 236 15:44 01.06.2020
2145 Clouds 16 1008 34 0 1.35 193 15:21 01.06.2020
2146 Clouds 16 1008 34 0 1.35 193 14:59 01.06.2020
2147 Clouds 16 1008 34 0 1.35 193 14:41 01.06.2020
2148 Clouds 18 1006 29 0 1.96 175 14:21 01.06.2020
2149 Rain 14 1007 42 0 0.96 109 13:56 01.06.2020
2150 Rain 14 1007 42 0 0.96 109 13:38 01.06.2020
2151 Rain 16 1005 38 0 2.35 235 13:19 01.06.2020
2152 Rain 16 1005 38 0 2.35 235 12:57 01.06.2020
2153 Rain 16 1005 38 0 2.35 235 12:39 01.06.2020
2154 Rain 16 1005 36 0 1.79 118 12:20 01.06.2020
2155 Rain 16 1005 36 0 1.79 118 11:41 01.06.2020
2156 Rain 16 1005 37 0 1.82 215 11:23 01.06.2020
2157 Rain 16 1005 37 0 1.82 215 10:58 01.06.2020
2158 Rain 16 1005 37 0 1.82 215 10:39 01.06.2020
2159 Rain 18 1006 31 0 3.63 236 10:20 01.06.2020
2160 Rain 18 1006 31 0 3.63 236 09:55 01.06.2020
2161 Rain 18 1006 31 0 3.63 236 09:37 01.06.2020
2162 Rain 17 1006 30 0 3.14 207 09:19 01.06.2020
2163 Rain 17 1006 30 0 3.14 207 08:45 01.06.2020
2164 Rain 17 1008 31 0 3.1 199 08:25 01.06.2020
2165 Rain 17 1008 31 0 3.1 199 07:45 01.06.2020
2166 Rain 16 1010 34 0 3.01 194 07:27 01.06.2020
2167 Rain 16 1010 34 0 3.01 194 06:54 01.06.2020
2168 Rain 14 1011 38 0 2.96 189 06:20 01.06.2020
2169 Rain 14 1011 38 0 2.96 189 05:50 01.06.2020
2170 Rain 12 1013 46 0 2.37 169 04:23 01.06.2020
2171 Rain 12 1013 46 0 2.37 169 03:45 01.06.2020
2172 Clouds 11 1014 52 0 2.07 152 03:18 01.06.2020
2173 Clouds 9 1015 60 0 2.18 154 01:47 01.06.2020
2174 Clouds 9 1015 60 0 2.18 154 01:29 01.06.2020
2175 Clouds 8 1015 65 0 1.49 139 00:57 01.06.2020
2176 Clouds 8 1015 65 0 1.49 139 00:39 01.06.2020
2177 Clouds 8 1014 65 0 1.55 136 00:21 01.06.2020
2178 Clouds 8 1014 65 0 1.55 136 23:55 31.05.2020
2179 Clouds 8 1014 65 0 1.55 136 23:37 31.05.2020
2180 Clouds 9 1014 63 0 1.52 120 23:19 31.05.2020
2181 Clouds 9 1014 63 0 1.52 120 22:43 31.05.2020
2182 Clouds 9 1014 63 0 1.52 120 22:43 31.05.2020
2183 Clouds 9 1015 64 0 1.53 117 22:25 31.05.2020
2184 Clouds 9 1015 64 0 1.53 117 21:58 31.05.2020
2185 Clouds 9 1015 64 0 1.53 117 21:39 31.05.2020
2186 Clouds 10 1015 60 0 1.94 125 21:21 31.05.2020
2187 Clouds 10 1015 60 0 1.94 125 20:48 31.05.2020
2188 Rain 10 1015 60 0 1.83 129 20:26 31.05.2020
2189 Rain 10 1015 60 0 1.83 129 19:59 31.05.2020
2190 Rain 10 1015 60 0 1.83 129 19:40 31.05.2020
2191 Clouds 10 1015 61 0 1.54 119 19:22 31.05.2020
2192 Clouds 10 1015 61 0 1.54 119 18:59 31.05.2020
2193 Clouds 10 1015 61 0 1.54 119 18:41 31.05.2020
2194 Rain 11 1015 59 0 1.94 122 18:22 31.05.2020
2195 Rain 11 1015 59 0 1.94 122 17:43 31.05.2020
2196 Rain 11 1014 58 0 1.12 115 17:24 31.05.2020
2197 Rain 11 1014 58 0 1.12 115 16:55 31.05.2020
2198 Rain 11 1014 58 0 1.12 115 16:37 31.05.2020
2199 Rain 11 1013 55 0 2.46 167 16:18 31.05.2020
2200 Rain 11 1013 55 0 2.46 167 15:39 31.05.2020
2201 Clouds 13 1011 46 0 2.93 175 15:21 31.05.2020
2202 Clouds 13 1011 46 0 2.93 175 14:47 31.05.2020
2203 Clouds 16 1009 35 0 1.39 139 14:20 31.05.2020
2204 Clouds 16 1009 34 0 1.43 163 13:56 31.05.2020
2205 Clouds 16 1009 34 0 1.43 163 13:38 31.05.2020
2206 Clouds 17 1008 31 0 1.74 176 13:19 31.05.2020
2207 Clouds 17 1008 31 0 1.74 176 13:19 31.05.2020
2208 Clouds 17 1008 31 0 1.74 176 12:56 31.05.2020
2209 Clouds 17 1008 31 0 1.74 176 12:37 31.05.2020
2210 Clouds 17 1007 30 0 1.55 215 12:18 31.05.2020
2211 Clouds 17 1007 30 0 1.55 215 11:47 31.05.2020
2212 Rain 17 1008 31 0 1.16 205 11:23 31.05.2020
2213 Rain 17 1008 31 0 1.16 205 10:55 31.05.2020
2214 Rain 17 1008 31 0 1.16 205 10:37 31.05.2020
2215 Rain 16 1009 35 0 1.27 196 10:18 31.05.2020
2216 Rain 16 1009 35 0 1.27 196 09:42 31.05.2020
2217 Rain 12 1011 53 0 0.82 150 09:22 31.05.2020
2218 Rain 12 1011 53 0 0.82 150 08:57 31.05.2020
2219 Rain 12 1011 53 0 0.82 150 08:37 31.05.2020
2220 Rain 11 1013 57 0 1.07 126 08:19 31.05.2020
2221 Rain 11 1013 57 0 1.07 126 07:40 31.05.2020
2222 Clouds 10 1015 61 0 1.11 110 07:20 31.05.2020
2223 Clouds 10 1015 61 0 1.11 110 06:50 31.05.2020
2224 Clouds 10 1015 61 0 1.11 110 06:31 31.05.2020
2225 Clouds 9 1016 65 0 0.92 84 05:41 31.05.2020
2226 Clouds 7 1019 72 0 0.86 107 04:25 31.05.2020
2227 Clouds 7 1019 72 0 0.86 107 03:48 31.05.2020
2228 Clouds 6 1019 74 0 1.28 124 02:59 31.05.2020
2229 Rain 6 1019 73 0 1.2 84 01:48 31.05.2020
2230 Rain 6 1019 74 0 1.06 80 01:19 31.05.2020
2231 Rain 6 1019 74 0 1.06 80 00:30 31.05.2020
2232 Rain 6 1019 75 0 0.69 105 23:55 30.05.2020
2233 Rain 6 1019 75 0 0.69 105 23:36 30.05.2020
2234 Rain 6 1019 75 0 0.96 91 23:18 30.05.2020
2235 Rain 6 1019 75 0 0.96 91 22:41 30.05.2020
2236 Rain 6 1019 76 0 1.11 97 22:22 30.05.2020
2237 Rain 6 1019 76 0 1.11 97 21:56 30.05.2020
2238 Rain 6 1019 76 0 1.11 97 21:37 30.05.2020
2239 Snow 6 1019 73 0 0.85 164 21:18 30.05.2020
2240 Snow 6 1019 73 0 0.85 164 20:56 30.05.2020
2241 Snow 6 1019 73 0 0.85 164 20:37 30.05.2020
2242 Rain 7 1019 67 0 0.9 161 20:19 30.05.2020
2243 Rain 7 1019 67 0 0.9 161 19:42 30.05.2020
2244 Rain 8 1019 64 0 1.41 146 19:21 30.05.2020
2245 Rain 8 1019 64 0 1.41 146 18:45 30.05.2020
2246 Rain 8 1019 60 0 0.38 55 18:24 30.05.2020
2247 Rain 8 1019 60 0 0.38 55 17:55 30.05.2020
2248 Rain 8 1019 60 0 0.38 55 17:37 30.05.2020
2249 Clouds 8 1018 60 0 0.74 43 17:18 30.05.2020
2250 Clouds 8 1018 60 0 0.74 43 16:42 30.05.2020
2251 Clouds 8 1016 61 0 2.49 29 16:22 30.05.2020
2252 Clouds 8 1016 61 0 2.49 29 15:49 30.05.2020
2253 Clouds 8 1016 61 0 2.49 29 15:29 30.05.2020
2254 Clouds 8 1014 60 0 2.57 49 14:48 30.05.2020
2255 Clouds 8 1014 60 0 2.57 49 14:30 30.05.2020
2256 Rain 10 1011 49 0 2.98 45 13:58 30.05.2020
2257 Rain 10 1011 49 0 2.98 45 13:40 30.05.2020
2258 Rain 10 1010 51 0 2.85 356 13:18 30.05.2020
2259 Rain 10 1010 51 0 2.85 356 12:39 30.05.2020
2260 Rain 11 1009 51 0 4.33 28 12:20 30.05.2020
2261 Rain 11 1009 51 0 4.33 28 11:54 30.05.2020
2262 Rain 11 1009 51 0 4.33 28 11:36 30.05.2020
2263 Rain 13 1010 45 0 4.72 40 11:18 30.05.2020
2264 Rain 13 1010 45 0 4.72 40 10:39 30.05.2020
2265 Rain 15 1010 36 0 2.38 47 10:20 30.05.2020
2266 Rain 15 1010 36 0 2.38 47 10:20 30.05.2020
2267 Rain 15 1010 36 0 2.38 47 09:45 30.05.2020
2268 Clouds 16 1011 32 0 1.24 217 09:27 30.05.2020
2269 Clouds 16 1011 32 0 1.24 217 08:46 30.05.2020
2270 Rain 15 1013 35 0 1.97 187 08:27 30.05.2020
2271 Rain 15 1013 35 0 1.97 187 07:43 30.05.2020
2272 Clouds 13 1014 37 0 2.04 184 07:20 30.05.2020
2273 Clouds 13 1014 37 0 2.04 184 06:31 30.05.2020
2274 Clouds 12 1015 40 0 1.98 192 05:52 30.05.2020
2275 Clouds 11 1016 43 0 2.26 191 05:20 30.05.2020
2276 Clouds 10 1017 45 0 2.72 180 03:38 30.05.2020
2277 Clouds 9 1017 49 0 3.16 177 02:29 30.05.2020
2278 Clouds 8 1018 55 0 2.88 171 01:40 30.05.2020
2279 Clouds 7 1017 58 0 2.71 171 00:37 30.05.2020
2280 Clouds 7 1016 56 0 2.73 162 00:18 30.05.2020
2281 Clouds 7 1016 56 0 2.73 162 23:41 29.05.2020
2282 Clouds 8 1017 56 0 1.98 153 23:21 29.05.2020
2283 Clouds 8 1017 56 0 1.98 153 22:58 29.05.2020
2284 Clouds 8 1017 56 0 1.98 153 22:39 29.05.2020
2285 Clouds 8 1017 55 0 1.3 141 22:19 29.05.2020
2286 Clouds 8 1017 55 0 1.3 141 21:55 29.05.2020
2287 Clouds 8 1017 55 0 1.3 141 21:36 29.05.2020
2288 Clouds 8 1016 54 0 1.17 127 21:18 29.05.2020
2289 Clouds 8 1016 54 0 1.17 127 20:44 29.05.2020
2290 Clouds 9 1016 52 0 0.75 91 20:20 29.05.2020
2291 Clouds 9 1016 52 0 0.75 91 19:56 29.05.2020
2292 Clouds 9 1016 52 0 0.75 91 19:37 29.05.2020
2293 Clouds 10 1017 49 0 0.9 76 19:19 29.05.2020
2294 Clouds 10 1017 49 0 0.9 76 18:44 29.05.2020
2295 Clouds 11 1016 45 0 1.7 75 18:19 29.05.2020
2296 Clouds 11 1016 45 0 1.7 75 17:56 29.05.2020
2297 Clouds 11 1016 45 0 1.7 75 17:37 29.05.2020
2298 Snow 12 1015 41 0 1.08 108 17:19 29.05.2020
2299 Snow 12 1015 41 0 1.08 108 16:42 29.05.2020
2300 Clouds 13 1013 37 0 2.77 145 16:23 29.05.2020
2301 Clouds 13 1013 37 0 2.77 145 15:55 29.05.2020
2302 Clouds 13 1013 37 0 2.77 145 15:37 29.05.2020
2303 Clouds 14 1011 35 0 3.07 126 15:18 29.05.2020
2304 Clouds 14 1011 35 0 3.07 126 14:40 29.05.2020
2305 Clouds 17 1008 28 0 3.72 167 14:21 29.05.2020
2306 Clouds 17 1008 28 0 3.72 167 13:43 29.05.2020
2307 Clouds 17 1007 26 0 3.79 187 13:24 29.05.2020
2308 Clouds 17 1007 26 0 3.79 187 12:58 29.05.2020
2309 Clouds 17 1007 26 0 3.79 187 12:40 29.05.2020
2310 Clouds 17 1006 26 0 3.6 200 12:21 29.05.2020
2311 Clouds 17 1006 26 0 3.6 200 11:45 29.05.2020
2312 Clouds 17 1007 25 0 3.21 198 11:26 29.05.2020
2313 Clouds 17 1007 25 0 3.21 198 10:57 29.05.2020
2314 Clouds 17 1007 25 0 3.21 198 10:36 29.05.2020
2315 Clouds 17 1008 26 0 3.26 202 10:18 29.05.2020
2316 Clouds 17 1008 26 0 3.26 202 09:43 29.05.2020
2317 Clouds 17 1009 26 0 2.84 201 09:20 29.05.2020
2318 Clouds 17 1009 26 0 2.84 201 09:20 29.05.2020
2319 Clouds 17 1009 26 0 2.66 197 08:48 29.05.2020
2320 Clear 16 1011 28 0 2.09 193 08:26 29.05.2020
2321 Clear 16 1011 28 0 2.09 193 07:59 29.05.2020
2322 Clear 16 1011 28 0 2.09 193 07:39 29.05.2020
2323 Clear 15 1012 30 0 1.73 190 07:21 29.05.2020
2324 Clear 15 1012 30 0 1.73 190 06:46 29.05.2020
2325 Clear 13 1014 33 0 1.2 182 06:27 29.05.2020
2326 Clear 13 1014 33 0 1.2 182 05:46 29.05.2020
2327 Clear 9 1018 42 0 0.83 95 02:36 29.05.2020
2328 Clouds 7 1019 48 0 0.56 84 01:29 29.05.2020
2329 Clouds 4 1019 57 0 0.67 112 00:54 29.05.2020
2330 Clouds 4 1019 57 0 0.67 112 00:34 29.05.2020
2331 Clouds 5 1019 53 0 0.79 78 23:59 28.05.2020
2332 Clouds 5 1019 53 0 0.79 78 23:39 28.05.2020
2333 Clouds 6 1019 49 0 0.84 86 23:18 28.05.2020
2334 Clouds 6 1019 49 0 0.84 86 22:42 28.05.2020
2335 Clouds 6 1019 47 0 0.68 90 22:24 28.05.2020
2336 Clouds 6 1019 47 0 0.68 90 21:57 28.05.2020
2337 Clouds 6 1019 47 0 0.68 90 21:38 28.05.2020
2338 Clouds 7 1019 48 0 0.69 96 21:19 28.05.2020
2339 Clouds 7 1019 48 0 0.69 96 20:57 28.05.2020
2340 Clouds 7 1019 48 0 0.69 96 20:57 28.05.2020
2341 Clouds 7 1019 48 0 0.69 96 20:38 28.05.2020
2342 Clear 7 1019 48 0 0.5 89 20:18 28.05.2020
2343 Clear 7 1019 48 0 0.5 89 19:54 28.05.2020
2344 Clear 7 1019 48 0 0.5 89 19:54 28.05.2020
2345 Clear 7 1019 48 0 0.5 89 19:36 28.05.2020
2346 Clear 8 1019 46 0 0.34 88 19:18 28.05.2020
2347 Clear 8 1019 46 0 0.34 88 18:41 28.05.2020
2348 Clear 8 1019 44 0 0.34 59 18:22 28.05.2020
2349 Clear 8 1019 44 0 0.34 59 17:43 28.05.2020
2350 Clear 9 1018 43 0 0.25 23 17:22 28.05.2020
2351 Clear 9 1018 43 0 0.25 23 16:58 28.05.2020
2352 Clear 9 1018 43 0 0.25 23 16:39 28.05.2020
2353 Clear 10 1016 42 0 0.48 11 16:20 28.05.2020
2354 Clear 10 1016 42 0 0.48 11 15:45 28.05.2020
2355 Clear 11 1014 39 0 1.46 19 15:24 28.05.2020
2356 Clear 11 1014 39 0 1.46 19 14:57 28.05.2020
2357 Clear 11 1014 39 0 1.46 19 14:38 28.05.2020
2358 Clouds 13 1011 32 0 2.96 17 14:20 28.05.2020
2359 Clouds 13 1011 32 0 2.96 17 13:42 28.05.2020
2360 Clouds 14 1010 29 0 3.73 3 13:24 28.05.2020
2361 Clouds 14 1010 29 0 3.73 3 12:42 28.05.2020
2362 Clouds 15 1010 27 0 3.65 345 12:19 28.05.2020
2363 Clouds 15 1010 27 0 3.65 345 11:44 28.05.2020
2364 Clouds 15 1010 26 0 2.83 326 11:26 28.05.2020
2365 Clouds 15 1010 26 0 2.83 326 10:57 28.05.2020
2366 Clouds 15 1010 26 0 2.83 326 10:39 28.05.2020
2367 Clouds 14 1012 26 0 3.13 309 10:21 28.05.2020
2368 Clouds 14 1012 26 0 3.13 309 09:39 28.05.2020
2369 Clouds 15 1012 26 0 4.32 298 09:21 28.05.2020
2370 Clouds 15 1012 26 0 4.32 298 08:51 28.05.2020
2371 Clouds 15 1012 26 0 4.32 298 08:31 28.05.2020
2372 Clear 14 1013 26 0 3.9 294 07:58 28.05.2020
2373 Clear 14 1013 26 0 3.9 294 07:38 28.05.2020
2374 Clear 14 1014 27 0 3.17 288 07:20 28.05.2020
2375 Clear 14 1014 27 0 3.17 288 06:39 28.05.2020
2376 Clear 13 1015 30 0 2.44 282 06:20 28.05.2020
2377 Clear 13 1015 30 0 2.44 282 05:37 28.05.2020
2378 Clear 11 1016 34 0 1.11 278 04:34 28.05.2020
2379 Clear 9 1017 38 0 0.65 298 03:52 28.05.2020
2380 Clear 8 1018 43 0 1.06 331 02:49 28.05.2020
2381 Clear 5 1019 49 0 1.13 348 01:56 28.05.2020
2382 Clear 5 1019 49 0 1.13 348 01:28 28.05.2020
2383 Clear 3 1019 58 0 1.49 355 00:46 28.05.2020
2384 Clear 4 1018 55 0 2.08 343 00:19 28.05.2020
2385 Clear 4 1018 55 0 2.08 343 23:54 27.05.2020
2386 Clear 4 1018 55 0 2.08 343 23:36 27.05.2020
2387 Clear 4 1018 55 0 1.59 323 23:18 27.05.2020
2388 Clear 4 1018 55 0 1.59 323 22:41 27.05.2020
2389 Clear 5 1019 54 0 1.36 306 22:22 27.05.2020
2390 Clear 5 1019 54 0 1.36 306 21:55 27.05.2020
2391 Clear 5 1019 54 0 1.36 306 21:37 27.05.2020
2392 Clear 6 1018 53 0 1.17 283 21:18 27.05.2020
2393 Clear 6 1018 53 0 1.17 283 20:54 27.05.2020
2394 Clear 6 1018 53 0 1.17 283 20:36 27.05.2020
2395 Clouds 6 1018 51 0 1.48 270 20:18 27.05.2020
2396 Clouds 6 1018 51 0 1.48 270 19:41 27.05.2020
2397 Clouds 7 1019 49 0 1.35 257 19:20 27.05.2020
2398 Clouds 7 1019 49 0 1.35 257 18:43 27.05.2020
2399 Clouds 8 1018 49 0 1 346 18:20 27.05.2020
2400 Clouds 8 1018 49 0 1 346 17:57 27.05.2020
2401 Clouds 8 1018 49 0 1 346 17:38 27.05.2020
2402 Clouds 8 1018 48 0 1.26 23 17:19 27.05.2020
2403 Clouds 8 1018 48 0 1.26 23 16:55 27.05.2020
2404 Clouds 8 1018 48 0 1.26 23 16:37 27.05.2020
2405 Clouds 9 1016 47 0 1.07 39 16:18 27.05.2020
2406 Clouds 9 1016 47 0 1.07 39 16:18 27.05.2020
2407 Clouds 9 1016 47 0 1.07 39 15:46 27.05.2020
2408 Clouds 10 1014 44 0 1.16 26 15:21 27.05.2020
2409 Clouds 10 1014 44 0 1.16 26 14:45 27.05.2020
2410 Clouds 11 1012 37 0 1.97 337 14:22 27.05.2020
2411 Clouds 11 1012 37 0 1.97 337 14:22 27.05.2020
2412 Clouds 11 1012 37 0 1.97 337 14:22 27.05.2020
2413 Clouds 11 1012 37 0 1.97 337 14:22 27.05.2020
2414 Clouds 11 1012 37 0 1.97 337 13:58 27.05.2020
2415 Clouds 11 1012 37 0 1.97 337 13:39 27.05.2020
2416 Clouds 11 1012 37 0 1.97 337 13:39 27.05.2020
2417 Clouds 12 1011 35 0 3.09 327 13:20 27.05.2020
2418 Clouds 12 1011 35 0 3.09 327 12:42 27.05.2020
2419 Clouds 13 1011 33 0 3.43 320 12:23 27.05.2020
2420 Clouds 13 1011 33 0 3.43 320 11:55 27.05.2020
2421 Clouds 13 1011 33 0 3.43 320 11:55 27.05.2020
2422 Clouds 13 1011 33 0 3.43 320 11:36 27.05.2020
2423 Clouds 13 1011 33 0 3.43 320 11:36 27.05.2020
2424 Clouds 13 1011 32 0 3.06 319 11:18 27.05.2020
2425 Clouds 13 1011 32 0 3.06 319 10:42 27.05.2020
2426 Clouds 13 1012 32 0 2.82 317 10:23 27.05.2020
2427 Clouds 13 1012 32 0 2.82 317 09:56 27.05.2020
2428 Clouds 13 1012 32 0 2.82 317 09:38 27.05.2020
2429 Clouds 13 1013 32 0 2.98 313 09:20 27.05.2020
2430 Clouds 13 1012 32 0 4.85 311 08:42 27.05.2020
2431 Clouds 13 1013 32 0 4.54 302 08:24 27.05.2020
2432 Clouds 13 1013 32 0 4.54 302 07:53 27.05.2020
2433 Clouds 13 1013 32 0 4.54 302 07:34 27.05.2020
2434 Clouds 13 1014 33 0 3.62 302 06:55 27.05.2020
2435 Clouds 13 1014 33 0 3.62 302 06:30 27.05.2020
2436 Clouds 12 1015 36 0 2.72 312 05:50 27.05.2020
2437 Clouds 11 1016 39 0 2.2 339 05:28 27.05.2020
2438 Clouds 10 1017 45 0 2.04 349 03:39 27.05.2020
2439 Clouds 8 1018 50 0 2 8 02:30 27.05.2020
2440 Clouds 7 1018 54 0 1.83 15 01:34 27.05.2020
2441 Clouds 6 1018 57 0 1.38 12 00:58 27.05.2020
2442 Clouds 6 1018 57 0 1.38 12 00:40 27.05.2020
2443 Clouds 7 1017 56 0 1.14 24 00:18 27.05.2020
2444 Clouds 7 1017 56 0 1.14 24 23:41 26.05.2020
2445 Clouds 7 1017 55 0 1.08 30 23:23 26.05.2020
2446 Clouds 7 1017 55 0 1.08 30 22:58 26.05.2020
2447 Clouds 7 1017 55 0 1.08 30 22:38 26.05.2020
2448 Clouds 8 1017 53 0 0.7 16 22:19 26.05.2020
2449 Clouds 8 1017 53 0 0.7 16 21:56 26.05.2020
2450 Clouds 8 1017 53 0 0.7 16 21:38 26.05.2020
2451 Clouds 8 1017 51 0 0.33 121 21:19 26.05.2020
2452 Clouds 8 1017 51 0 0.33 121 20:42 26.05.2020
2453 Clouds 8 1017 50 0 0.62 103 20:21 26.05.2020
2454 Clouds 8 1017 50 0 0.62 103 19:55 26.05.2020
2455 Clouds 8 1017 50 0 0.62 103 19:37 26.05.2020
2456 Clouds 8 1018 51 0 0.59 48 19:18 26.05.2020
2457 Clouds 8 1018 51 0 0.59 48 18:41 26.05.2020
2458 Clouds 9 1018 50 0 1.04 71 18:21 26.05.2020
2459 Clouds 9 1018 50 0 1.04 71 17:43 26.05.2020
2460 Clouds 9 1017 49 0 1.19 102 17:24 26.05.2020
2461 Clouds 9 1017 49 0 1.19 102 16:59 26.05.2020
2462 Clouds 9 1017 49 0 1.19 102 16:41 26.05.2020
2463 Clouds 11 1016 42 0 1.79 66 16:19 26.05.2020
2464 Clouds 11 1016 42 0 1.79 66 15:44 26.05.2020
2465 Clouds 11 1015 42 0 1.38 9 15:21 26.05.2020
2466 Clouds 11 1015 42 0 1.38 9 14:56 26.05.2020
2467 Clouds 11 1015 42 0 1.38 9 14:38 26.05.2020
2468 Clouds 12 1012 40 0 3.79 34 14:20 26.05.2020
2469 Clouds 12 1012 40 0 3.79 34 13:41 26.05.2020
2470 Clouds 13 1011 37 0 3.31 30 13:23 26.05.2020
2471 Clouds 13 1011 37 0 3.31 30 12:57 26.05.2020
2472 Clouds 13 1011 37 0 3.31 30 12:39 26.05.2020
2473 Clouds 14 1011 35 0 3.13 8 12:19 26.05.2020
2474 Clouds 14 1011 35 0 3.13 8 11:41 26.05.2020
2475 Clouds 14 1011 35 0 2.72 344 11:21 26.05.2020
2476 Clouds 14 1011 35 0 2.72 344 10:58 26.05.2020
2477 Clouds 14 1011 35 0 2.72 344 10:38 26.05.2020
2478 Clouds 14 1013 36 0 1.8 356 10:18 26.05.2020
2479 Clouds 14 1013 36 0 1.8 356 09:39 26.05.2020
2480 Clouds 13 1014 37 0 1.53 357 09:19 26.05.2020
2481 Clouds 13 1014 37 0 1.53 357 08:42 26.05.2020
2482 Clouds 13 1015 37 0 1.41 356 08:22 26.05.2020
2483 Clouds 13 1015 37 0 1.41 356 07:44 26.05.2020
2484 Clouds 12 1016 39 0 1.22 15 07:24 26.05.2020
2485 Clouds 12 1016 39 0 1.22 15 06:54 26.05.2020
2486 Clouds 12 1016 39 0 1.22 15 06:36 26.05.2020
2487 Clouds 11 1017 42 0 1.28 11 05:48 26.05.2020
2488 Clouds 10 1018 46 0 0.84 13 05:28 26.05.2020
2489 Clouds 10 1018 46 0 0.84 13 04:50 26.05.2020
2490 Clouds 10 1018 46 0 0.84 13 04:31 26.05.2020
2491 Clouds 9 1019 51 0 0.45 16 03:55 26.05.2020
2492 Clouds 7 1019 57 0 0.64 59 02:44 26.05.2020
2493 Clouds 6 1019 61 0 1.23 115 01:48 26.05.2020
2494 Clouds 6 1018 63 0 0.59 94 01:21 26.05.2020
2495 Clouds 6 1018 63 0 0.59 94 00:37 26.05.2020
2496 Clouds 6 1017 65 0 1.14 67 00:18 26.05.2020
2497 Clouds 6 1017 65 0 1.14 67 23:55 25.05.2020
2498 Clouds 6 1017 65 0 1.14 67 23:36 25.05.2020
2499 Clouds 6 1017 66 0 1.48 69 23:18 25.05.2020
2500 Clouds 6 1017 66 0 1.48 69 23:18 25.05.2020
2501 Clouds 6 1017 66 0 1.48 69 22:54 25.05.2020
2502 Clouds 6 1017 66 0 1.48 69 22:36 25.05.2020
2503 Snow 6 1017 66 0 1.74 61 22:18 25.05.2020
2504 Snow 6 1017 66 0 1.74 61 21:54 25.05.2020
2505 Snow 6 1017 66 0 1.74 61 21:36 25.05.2020
2506 Snow 6 1017 68 0 1.71 55 21:18 25.05.2020
2507 Snow 6 1017 68 0 1.71 55 20:41 25.05.2020
2508 Snow 7 1017 62 0 2.14 50 20:21 25.05.2020
2509 Snow 7 1017 62 0 2.14 50 19:59 25.05.2020
2510 Snow 7 1017 62 0 2.14 50 19:59 25.05.2020
2511 Snow 7 1017 62 0 2.14 50 19:39 25.05.2020
2512 Rain 8 1018 63 0 2.09 84 19:18 25.05.2020
2513 Rain 8 1018 63 0 2.09 84 18:45 25.05.2020
2514 Rain 9 1017 61 0 2.11 54 18:22 25.05.2020
2515 Rain 9 1017 61 0 2.11 54 17:59 25.05.2020
2516 Rain 9 1017 61 0 2.11 54 17:40 25.05.2020
2517 Rain 9 1016 61 0 2.33 30 17:22 25.05.2020
2518 Rain 9 1016 61 0 2.33 30 16:56 25.05.2020
2519 Rain 9 1016 61 0 2.33 30 16:38 25.05.2020
2520 Clouds 9 1016 61 0 2.3 37 16:19 25.05.2020
2521 Clouds 9 1016 61 0 2.3 37 15:42 25.05.2020
2522 Clouds 9 1014 63 0 1.79 13 15:19 25.05.2020
2523 Clouds 9 1014 63 0 1.79 13 14:56 25.05.2020
2524 Clouds 9 1014 63 0 1.79 13 14:38 25.05.2020
2525 Clouds 9 1012 63 0 2.6 20 14:18 25.05.2020
2526 Rain 10 1012 61 0 2.3 5 13:39 25.05.2020
2527 Rain 11 1011 57 0 3.29 11 13:20 25.05.2020
2528 Rain 11 1011 57 0 3.29 11 12:57 25.05.2020
2529 Rain 11 1011 57 0 3.29 11 12:38 25.05.2020
2530 Rain 12 1010 50 0 1.98 313 12:20 25.05.2020
2531 Rain 12 1010 50 0 1.98 313 11:39 25.05.2020
2532 Clouds 13 1010 45 0 0.61 154 11:20 25.05.2020
2533 Clouds 13 1010 45 0 0.61 154 10:56 25.05.2020
2534 Clouds 13 1010 45 0 0.61 154 10:56 25.05.2020
2535 Clouds 13 1010 45 0 0.61 154 10:37 25.05.2020
2536 Clouds 12 1011 47 0 0.97 138 10:19 25.05.2020
2537 Clouds 12 1011 47 0 0.97 138 09:54 25.05.2020
2538 Clouds 12 1011 47 0 0.97 138 09:36 25.05.2020
2539 Rain 10 1013 62 0 1.24 101 09:18 25.05.2020
2540 Rain 10 1013 62 0 1.24 101 09:18 25.05.2020
2541 Rain 10 1013 62 0 1.24 101 08:39 25.05.2020
2542 Rain 8 1014 72 0 0.87 110 08:20 25.05.2020
2543 Rain 8 1014 72 0 0.87 110 07:48 25.05.2020
2544 Rain 7 1015 74 0 0.68 98 07:27 25.05.2020
2545 Rain 7 1015 74 0 0.68 98 06:57 25.05.2020
2546 Rain 7 1015 74 0 0.68 98 06:35 25.05.2020
2547 Rain 7 1016 75 0 0.58 16 05:25 25.05.2020
2548 Rain 6 1017 76 0 0.94 311 03:28 25.05.2020
2549 Rain 6 1017 76 0 0.94 311 02:47 25.05.2020
2550 Rain 6 1018 75 0 0.87 2 02:20 25.05.2020
2551 Rain 6 1018 75 0 0.87 2 01:42 25.05.2020
2552 Rain 6 1017 75 0 0.44 319 00:47 25.05.2020
2553 Rain 7 1017 70 0 0.36 306 00:26 25.05.2020
2554 Rain 7 1017 70 0 0.36 306 23:58 24.05.2020
2555 Rain 7 1017 70 0 0.36 306 23:39 24.05.2020
2556 Rain 7 1017 70 0 0.36 306 23:39 24.05.2020
2557 Rain 8 1016 66 0 0.65 191 23:20 24.05.2020
2558 Rain 8 1016 66 0 0.65 191 22:55 24.05.2020
2559 Rain 8 1016 66 0 0.65 191 22:55 24.05.2020
2560 Rain 8 1016 66 0 0.65 191 22:37 24.05.2020
2561 Rain 8 1016 66 0 1.29 187 22:18 24.05.2020
2562 Rain 8 1016 66 0 1.29 187 21:54 24.05.2020
2563 Rain 7 1016 69 0 1 203 21:36 24.05.2020
2564 Rain 8 1017 65 0 1.64 206 21:18 24.05.2020
2565 Rain 7 1016 66 0 1.03 235 20:42 24.05.2020
2566 Rain 8 1017 63 0 0.92 255 20:19 24.05.2020
2567 Rain 8 1017 63 0 0.92 255 19:56 24.05.2020
2568 Rain 8 1017 63 0 0.92 255 19:37 24.05.2020
2569 Rain 8 1017 62 0 0.95 166 19:18 24.05.2020
2570 Rain 8 1017 62 0 0.95 166 18:42 24.05.2020
2571 Rain 8 1017 65 0 0.31 139 18:23 24.05.2020
2572 Rain 8 1017 65 0 0.31 139 17:57 24.05.2020
2573 Rain 8 1017 65 0 0.31 139 17:38 24.05.2020
2574 Rain 9 1016 68 0 0.15 31 17:19 24.05.2020
2575 Rain 9 1016 68 0 0.15 31 16:56 24.05.2020
2576 Rain 9 1016 68 0 0.15 31 16:37 24.05.2020
2577 Rain 9 1015 69 0 0.53 41 16:19 24.05.2020
2578 Rain 9 1015 69 0 0.53 41 15:55 24.05.2020
2579 Rain 9 1015 69 0 0.53 41 15:37 24.05.2020
2580 Rain 11 1013 58 0 1.48 297 15:18 24.05.2020
2581 Rain 11 1013 58 0 1.48 297 14:42 24.05.2020
2582 Rain 13 1012 49 0 1.33 216 14:22 24.05.2020
2583 Rain 13 1012 46 0 2.16 258 13:56 24.05.2020
2584 Rain 13 1012 46 0 2.16 258 13:38 24.05.2020
2585 Rain 14 1011 43 0 2.07 187 13:20 24.05.2020
2586 Rain 14 1011 43 0 2.07 187 12:57 24.05.2020
2587 Rain 14 1011 43 0 2.07 187 12:38 24.05.2020
2588 Rain 15 1010 40 0 1.98 161 12:20 24.05.2020
2589 Rain 15 1010 40 0 1.98 161 11:56 24.05.2020
2590 Rain 15 1010 40 0 1.98 161 11:56 24.05.2020
2591 Rain 15 1010 40 0 1.98 161 11:38 24.05.2020
2592 Clouds 17 1010 32 0 2.15 210 11:20 24.05.2020
2593 Clouds 17 1010 32 0 2.15 210 10:55 24.05.2020
2594 Clouds 17 1010 32 0 2.15 210 10:36 24.05.2020
2595 Clouds 17 1010 31 0 2.27 206 10:18 24.05.2020
2596 Clouds 17 1010 31 0 2.27 206 09:41 24.05.2020
2597 Clouds 17 1011 31 0 3.17 208 09:18 24.05.2020
2598 Clouds 15 1011 38 0 2.68 236 08:54 24.05.2020
2599 Clouds 15 1011 38 0 2.68 236 08:36 24.05.2020
2600 Clouds 15 1012 39 0 2.78 230 08:18 24.05.2020
2601 Clouds 15 1012 39 0 2.78 230 07:41 24.05.2020
2602 Clouds 14 1014 43 0 2.68 222 07:22 24.05.2020
2603 Clouds 14 1014 43 0 2.68 222 06:47 24.05.2020
2604 Rain 13 1014 46 0 2.67 212 05:50 24.05.2020
2605 Rain 12 1015 51 0 2.71 206 04:51 24.05.2020
2606 Clouds 11 1015 55 0 2.4 209 03:41 24.05.2020
2607 Clouds 9 1016 60 0 1.98 215 02:31 24.05.2020
2608 Clouds 8 1016 63 0 2.03 194 01:46 24.05.2020
2609 Rain 8 1016 64 0 1.79 193 00:39 24.05.2020
2610 Clouds 8 1015 62 0 1.33 212 00:21 24.05.2020
2611 Clouds 8 1015 62 0 1.33 212 23:43 23.05.2020
2612 Clouds 8 1014 62 0 1.58 210 23:23 23.05.2020
2613 Clouds 8 1014 62 0 1.58 210 22:57 23.05.2020
2614 Clouds 8 1014 62 0 1.58 210 22:38 23.05.2020
2615 Clouds 8 1014 62 0 1.19 210 22:20 23.05.2020
2616 Clouds 8 1014 62 0 1.19 210 21:57 23.05.2020
2617 Clouds 8 1014 62 0 1.19 210 21:38 23.05.2020
2618 Clouds 8 1015 61 0 1.39 218 21:20 23.05.2020
2619 Clouds 8 1015 61 0 1.39 218 21:19 23.05.2020
2620 Clouds 7 1015 62 0 0.69 227 20:58 23.05.2020
2621 Clouds 7 1015 62 0 0.69 227 20:38 23.05.2020
2622 Clouds 8 1016 62 0 0.98 216 20:19 23.05.2020
2623 Clouds 8 1016 62 0 0.98 216 19:42 23.05.2020
2624 Clouds 9 1017 61 0 1.34 190 19:20 23.05.2020
2625 Clouds 9 1017 61 0 1.34 190 19:20 23.05.2020
2626 Clouds 9 1017 61 0 1.34 190 18:59 23.05.2020
2627 Clouds 9 1017 61 0 1.34 190 18:40 23.05.2020
2628 Clouds 9 1017 61 0 1.34 190 18:40 23.05.2020
2629 Clouds 9 1017 62 0 1.73 236 18:22 23.05.2020
2630 Clouds 9 1017 62 0 1.73 236 17:56 23.05.2020
2631 Clouds 9 1017 62 0 1.73 236 17:38 23.05.2020
2632 Clouds 9 1016 62 0 1.26 231 17:19 23.05.2020
2633 Clouds 9 1016 62 0 1.26 231 16:56 23.05.2020
2634 Clouds 9 1016 62 0 1.26 231 16:38 23.05.2020
2635 Clouds 10 1015 62 0 0.76 245 16:19 23.05.2020
2636 Clouds 10 1015 62 0 0.76 245 15:42 23.05.2020
2637 Clouds 11 1013 59 0 1.09 253 15:24 23.05.2020
2638 Clouds 11 1013 59 0 1.09 253 15:24 23.05.2020
2639 Clouds 11 1013 59 0 1.09 253 15:24 23.05.2020
2640 Clouds 11 1013 59 0 1.09 253 14:58 23.05.2020
2641 Clouds 11 1013 59 0 1.09 253 14:39 23.05.2020
2642 Clouds 12 1012 52 0 1.66 246 14:21 23.05.2020
2643 Clouds 12 1012 52 0 1.66 246 13:40 23.05.2020
2644 Rain 13 1011 51 0 2.33 237 13:19 23.05.2020
2645 Rain 13 1011 51 0 2.33 237 13:19 23.05.2020
2646 Rain 13 1011 51 0 2.33 237 13:19 23.05.2020
2647 Rain 13 1011 51 0 2.33 237 12:56 23.05.2020
2648 Rain 13 1011 51 0 2.33 237 12:38 23.05.2020
2649 Rain 14 1010 48 0 1.81 231 12:19 23.05.2020
2650 Rain 14 1010 48 0 1.81 231 11:43 23.05.2020
2651 Rain 14 1010 48 0 1.84 234 11:22 23.05.2020
2652 Rain 14 1010 48 0 1.84 234 10:57 23.05.2020
2653 Rain 14 1010 48 0 1.84 234 10:39 23.05.2020
2654 Rain 14 1011 49 0 2.07 232 10:20 23.05.2020
2655 Rain 14 1011 49 0 2.07 232 09:58 23.05.2020
2656 Rain 14 1011 49 0 2.07 232 09:40 23.05.2020
2657 Rain 14 1011 50 0 1.58 218 09:21 23.05.2020
2658 Rain 14 1011 50 0 1.58 218 08:44 23.05.2020
2659 Rain 13 1012 51 0 1.44 209 08:20 23.05.2020
2660 Rain 13 1012 51 0 1.44 209 07:57 23.05.2020
2661 Rain 13 1012 51 0 1.44 209 07:37 23.05.2020
2662 Rain 13 1014 52 0 1.25 213 07:19 23.05.2020
2663 Rain 13 1014 52 0 1.25 213 06:38 23.05.2020
2664 Clouds 11 1016 57 0 0.21 357 05:26 23.05.2020
2665 Clouds 10 1017 61 0 0.41 352 03:43 23.05.2020
2666 Clouds 9 1018 63 0 0.38 1 02:59 23.05.2020
2667 Clouds 8 1019 63 0 0.59 338 01:58 23.05.2020
2668 Clouds 8 1018 63 0 0.67 344 01:26 23.05.2020
2669 Clouds 8 1018 63 0 0.67 344 00:47 23.05.2020
2670 Clouds 7 1018 63 0 0.94 340 00:26 23.05.2020
2671 Clouds 7 1018 63 0 0.94 340 23:58 22.05.2020
2672 Clouds 7 1018 63 0 0.94 340 23:39 22.05.2020
2673 Clouds 8 1019 62 0 0.6 345 23:19 22.05.2020
2674 Clouds 8 1019 62 0 0.6 345 22:55 22.05.2020
2675 Clouds 8 1019 62 0 0.6 345 22:36 22.05.2020
2676 Clouds 8 1019 63 0 0.87 340 22:18 22.05.2020
2677 Clouds 8 1019 63 0 0.87 340 22:18 22.05.2020
2678 Clouds 8 1019 63 0 0.87 340 21:42 22.05.2020
2679 Clouds 8 1020 62 0 1.16 332 21:21 22.05.2020
2680 Clouds 7 1020 62 0 1.05 328 20:46 22.05.2020
2681 Clouds 7 1020 61 0 0.95 313 20:21 22.05.2020
2682 Clouds 7 1020 61 0 0.95 313 19:59 22.05.2020
2683 Clouds 7 1020 61 0 0.95 313 19:40 22.05.2020
2684 Clouds 8 1021 61 0 0.84 306 19:22 22.05.2020
2685 Clouds 8 1021 61 0 0.84 306 18:39 22.05.2020
2686 Clouds 8 1021 61 0 0.86 303 18:21 22.05.2020
2687 Clouds 8 1021 61 0 0.86 303 17:58 22.05.2020
2688 Clouds 8 1021 61 0 0.86 303 17:38 22.05.2020
2689 Clouds 8 1021 60 0 0.74 301 17:18 22.05.2020
2690 Clouds 8 1021 60 0 0.74 301 16:44 22.05.2020
2691 Clouds 8 1020 62 0 0.5 225 16:20 22.05.2020
2692 Clouds 8 1020 62 0 0.5 225 15:59 22.05.2020
2693 Clouds 8 1020 62 0 0.5 225 15:41 22.05.2020
2694 Clouds 9 1018 62 0 0.7 209 15:19 22.05.2020
2695 Clouds 9 1018 62 0 0.7 209 14:44 22.05.2020
2696 Clouds 10 1016 54 0 0.82 280 14:24 22.05.2020
2697 Clouds 10 1016 54 0 0.82 280 13:46 22.05.2020
2698 Clouds 11 1015 54 0 0.89 267 13:21 22.05.2020
2699 Clouds 11 1015 54 0 0.89 267 12:54 22.05.2020
2700 Clouds 11 1015 54 0 0.89 267 12:36 22.05.2020
2701 Clouds 12 1015 53 0 0.99 259 12:18 22.05.2020
2702 Clouds 12 1015 53 0 0.99 259 11:43 22.05.2020
2703 Clouds 12 1015 51 0 1.01 234 11:20 22.05.2020
2704 Clouds 12 1015 51 0 1.01 234 10:55 22.05.2020
2705 Clouds 12 1015 51 0 1.01 234 10:55 22.05.2020
2706 Clouds 12 1015 51 0 1.01 234 10:37 22.05.2020
2707 Clouds 12 1015 51 0 1.01 234 10:37 22.05.2020
2708 Clouds 13 1016 47 0 1.06 237 10:18 22.05.2020
2709 Clouds 13 1016 47 0 1.06 237 09:42 22.05.2020
2710 Clouds 14 1014 40 0 1.91 163 09:19 22.05.2020
2711 Clouds 14 1014 40 0 1.91 163 08:44 22.05.2020
2712 Clouds 14 1015 42 0 1.68 161 08:22 22.05.2020
2713 Clouds 14 1015 42 0 1.68 161 07:57 22.05.2020
2714 Clouds 12 1017 46 0 1.2 161 07:27 22.05.2020
2715 Clouds 12 1017 46 0 1.2 161 06:59 22.05.2020
2716 Clouds 12 1017 46 0 1.2 161 06:40 22.05.2020
2717 Clouds 11 1018 50 0 1.1 128 05:53 22.05.2020
2718 Clouds 11 1018 50 0 1.1 128 05:32 22.05.2020
2719 Clouds 10 1019 55 0 0.63 108 04:44 22.05.2020
2720 Clouds 9 1020 59 0 0.44 103 03:49 22.05.2020
2721 Clouds 8 1020 63 0 0.93 81 03:28 22.05.2020
2722 Clouds 7 1020 68 0 0.54 51 01:57 22.05.2020
2723 Clouds 7 1020 68 0 0.54 51 01:30 22.05.2020
2724 Clouds 6 1019 69 0 0.59 40 00:50 22.05.2020
2725 Clouds 7 1019 69 0 1.28 28 00:28 22.05.2020
2726 Clouds 7 1019 69 0 1.28 28 23:54 21.05.2020
2727 Clouds 7 1019 69 0 1.28 28 23:36 21.05.2020
2728 Clouds 7 1019 66 0 0.64 27 23:18 21.05.2020
2729 Clouds 7 1019 66 0 0.64 27 22:55 21.05.2020
2730 Clouds 7 1019 66 0 0.64 27 22:36 21.05.2020
2731 Clouds 7 1019 66 0 1.26 24 22:18 21.05.2020
2732 Clouds 7 1019 66 0 1.26 24 21:43 21.05.2020
2733 Clouds 7 1020 66 0 1.03 32 21:25 21.05.2020
2734 Clouds 7 1019 70 0 1.4 13 20:46 21.05.2020
2735 Rain 7 1019 69 0 1.9 359 20:22 21.05.2020
2736 Rain 7 1019 69 0 1.9 359 19:57 21.05.2020
2737 Rain 7 1019 69 0 1.9 359 19:38 21.05.2020
2738 Rain 7 1020 69 0 1.88 343 19:19 21.05.2020
2739 Rain 7 1020 69 0 1.88 343 18:40 21.05.2020
2740 Rain 7 1020 71 0 2.48 353 18:20 21.05.2020
2741 Rain 7 1020 71 0 2.48 353 18:20 21.05.2020
2742 Rain 7 1020 71 0 2.48 353 17:58 21.05.2020
2743 Rain 7 1020 71 0 2.48 353 17:40 21.05.2020
2744 Rain 8 1020 68 0 3.1 326 17:22 21.05.2020
2745 Rain 8 1020 68 0 3.1 326 16:47 21.05.2020
2746 Rain 8 1019 70 0 2.22 347 16:25 21.05.2020
2747 Rain 8 1019 70 0 2.22 347 15:54 21.05.2020
2748 Rain 8 1019 70 0 2.22 347 15:36 21.05.2020
2749 Rain 9 1017 70 0 0.79 7 15:18 21.05.2020
2750 Rain 9 1017 70 0 0.79 7 14:39 21.05.2020
2751 Rain 9 1017 68 0 0.66 42 14:18 21.05.2020
2752 Rain 9 1017 71 0 1.13 40 13:41 21.05.2020
2753 Rain 9 1016 69 0 0.75 52 13:22 21.05.2020
2754 Rain 9 1016 69 0 0.75 52 12:57 21.05.2020
2755 Rain 9 1016 69 0 0.75 52 12:37 21.05.2020
2756 Rain 10 1015 66 0 0.67 50 12:19 21.05.2020
2757 Rain 10 1015 66 0 0.67 50 11:42 21.05.2020
2758 Rain 10 1014 65 0 0.74 31 11:23 21.05.2020
2759 Rain 10 1014 65 0 0.74 31 11:23 21.05.2020
2760 Rain 10 1014 65 0 0.74 31 10:58 21.05.2020
2761 Rain 10 1014 65 0 0.74 31 10:39 21.05.2020
2762 Rain 9 1015 66 0 1.23 21 10:19 21.05.2020
2763 Rain 9 1015 66 0 1.23 21 09:54 21.05.2020
2764 Rain 9 1015 66 0 1.23 21 09:36 21.05.2020
2765 Rain 9 1015 69 0 1.38 15 09:18 21.05.2020
2766 Rain 10 1016 60 0 1.81 1 08:45 21.05.2020
2767 Rain 9 1017 65 0 1.83 355 08:26 21.05.2020
2768 Rain 9 1017 65 0 1.83 355 07:46 21.05.2020
2769 Rain 8 1018 69 0 2.17 353 07:27 21.05.2020
2770 Rain 8 1018 69 0 2.17 353 06:52 21.05.2020
2771 Rain 7 1019 73 0 2.43 355 05:54 21.05.2020
2772 Rain 7 1018 74 0 2.3 0 05:22 21.05.2020
2773 Rain 6 1017 75 0 2.16 1 03:22 21.05.2020
2774 Rain 6 1017 75 0 2.16 1 03:22 21.05.2020
2775 Rain 6 1017 75 0 2.16 1 02:45 21.05.2020
2776 Snow 6 1017 75 0 2.47 3 02:25 21.05.2020
2777 Rain 6 1016 75 0 2.57 3 01:45 21.05.2020
2778 Rain 7 1015 75 0 2.69 6 01:19 21.05.2020
2779 Rain 7 1015 75 0 2.69 6 00:48 21.05.2020
2780 Rain 7 1015 74 0 2.97 2 00:23 21.05.2020
2781 Rain 7 1015 74 0 2.97 2 23:41 20.05.2020
2782 Rain 7 1015 74 0 2.93 356 23:20 20.05.2020
2783 Rain 7 1015 74 0 2.93 356 22:58 20.05.2020
2784 Rain 7 1015 74 0 2.93 356 22:39 20.05.2020
2785 Rain 7 1015 72 0 2.93 353 22:20 20.05.2020
2786 Rain 7 1015 72 0 2.93 353 21:40 20.05.2020
2787 Rain 9 1014 71 0 2.92 349 21:21 20.05.2020
2788 Rain 9 1014 71 0 2.92 349 20:45 20.05.2020
2789 Rain 10 1014 66 0 1.64 16 20:25 20.05.2020
2790 Rain 10 1014 66 0 1.64 16 19:57 20.05.2020
2791 Rain 10 1014 66 0 1.64 16 19:38 20.05.2020
2792 Rain 11 1014 63 0 1.88 11 19:19 20.05.2020
2793 Rain 11 1014 63 0 1.88 11 18:44 20.05.2020
2794 Rain 11 1014 60 0 1.67 341 18:26 20.05.2020
2795 Rain 11 1014 60 0 1.67 341 17:46 20.05.2020
2796 Rain 12 1013 57 0 1.06 318 17:24 20.05.2020
2797 Rain 12 1013 57 0 1.06 318 16:59 20.05.2020
2798 Rain 12 1013 57 0 1.06 318 16:41 20.05.2020
2799 Rain 13 1012 55 0 0.61 152 16:21 20.05.2020
2800 Rain 13 1012 55 0 0.61 152 15:55 20.05.2020
2801 Rain 13 1012 55 0 0.61 152 15:36 20.05.2020
2802 Rain 14 1011 53 0 0.65 221 15:18 20.05.2020
2803 Rain 14 1011 53 0 0.65 221 14:41 20.05.2020
2804 Rain 14 1010 52 0 2.07 139 14:20 20.05.2020
2805 Rain 14 1010 52 0 2.07 139 13:40 20.05.2020
2806 Rain 14 1009 51 0 1.44 152 13:19 20.05.2020
2807 Rain 14 1009 51 0 1.44 152 13:19 20.05.2020
2808 Rain 14 1009 51 0 1.44 152 12:43 20.05.2020
2809 Rain 15 1008 46 0 2.65 159 12:21 20.05.2020
2810 Rain 15 1008 46 0 2.65 159 11:58 20.05.2020
2811 Rain 15 1008 46 0 2.65 159 11:36 20.05.2020
2812 Clouds 16 1008 41 0 1.77 160 11:18 20.05.2020
2813 Clouds 16 1008 41 0 1.77 160 10:42 20.05.2020
2814 Clouds 16 1008 41 0 1.33 143 10:20 20.05.2020
2815 Clouds 16 1008 41 0 1.33 143 09:44 20.05.2020
2816 Rain 14 1009 45 0 1.69 195 09:21 20.05.2020
2817 Rain 14 1009 45 0 1.69 195 09:21 20.05.2020
2818 Rain 14 1009 45 0 1.69 195 08:56 20.05.2020
2819 Rain 14 1009 45 0 1.69 195 08:38 20.05.2020
2820 Clouds 14 1010 42 0 0.58 136 08:18 20.05.2020
2821 Clouds 14 1010 42 0 0.58 136 07:45 20.05.2020
2822 Clouds 14 1011 44 0 0.45 203 07:19 20.05.2020
2823 Clouds 14 1011 44 0 0.45 203 06:35 20.05.2020
2824 Clouds 11 1012 52 0 0.5 6 05:23 20.05.2020
2825 Clouds 10 1012 50 0 0.63 202 04:27 20.05.2020
2826 Clouds 10 1012 50 0 0.63 202 03:42 20.05.2020
2827 Clouds 10 1012 47 0 2.28 157 02:25 20.05.2020
2828 Clouds 10 1011 48 0 2.02 137 01:28 20.05.2020
2829 Clouds 10 1011 48 0 2.02 137 00:44 20.05.2020
2830 Clouds 10 1011 48 0 2.38 151 00:23 20.05.2020
2831 Clouds 10 1011 48 0 2.38 151 23:42 19.05.2020
2832 Clouds 11 1012 46 0 2.2 142 23:19 19.05.2020
2833 Clouds 11 1012 46 0 2.2 142 22:56 19.05.2020
2834 Clouds 11 1012 46 0 2.2 142 22:38 19.05.2020
2835 Clouds 11 1012 45 0 2.65 153 22:19 19.05.2020
2836 Clouds 11 1012 45 0 2.65 153 21:58 19.05.2020
2837 Clouds 11 1012 45 0 2.65 153 21:38 19.05.2020
2838 Clouds 11 1012 45 0 2.65 153 21:38 19.05.2020
2839 Clouds 11 1012 45 0 2.95 172 21:19 19.05.2020
2840 Clouds 11 1012 45 0 2.95 172 20:57 19.05.2020
2841 Clouds 11 1012 45 0 2.95 172 20:39 19.05.2020
2842 Clouds 12 1012 43 0 2.93 169 20:20 19.05.2020
2843 Clouds 12 1012 43 0 2.93 169 19:55 19.05.2020
2844 Clouds 12 1012 43 0 2.93 169 19:37 19.05.2020
2845 Clouds 12 1012 40 0 2.76 172 19:18 19.05.2020
2846 Clouds 12 1012 40 0 2.76 172 18:40 19.05.2020
2847 Clouds 13 1012 39 0 2.77 174 18:20 19.05.2020
2848 Clouds 13 1012 39 0 2.77 174 17:43 19.05.2020
2849 Clouds 14 1011 36 0 3.2 184 17:21 19.05.2020
2850 Clouds 14 1011 36 0 3.2 184 16:59 19.05.2020
2851 Clouds 14 1011 36 0 3.2 184 16:39 19.05.2020
2852 Clouds 15 1009 34 0 3.6 183 16:20 19.05.2020
2853 Clouds 15 1009 34 0 3.6 183 15:47 19.05.2020
2854 Clouds 16 1007 31 0 3.76 182 15:23 19.05.2020
2855 Clouds 16 1007 31 0 3.76 182 14:58 19.05.2020
2856 Clouds 16 1007 31 0 3.76 182 14:40 19.05.2020
2857 Clouds 18 1005 25 0 4.1 189 14:21 19.05.2020
2858 Clouds 18 1005 25 0 4.1 189 13:58 19.05.2020
2859 Clouds 18 1005 25 0 4.1 189 13:39 19.05.2020
2860 Clouds 19 1004 22 0 3.8 200 13:21 19.05.2020
2861 Clouds 19 1004 22 0 3.8 200 12:57 19.05.2020
2862 Clouds 19 1004 22 0 3.8 200 12:38 19.05.2020
2863 Clouds 20 1003 21 0 3.18 203 12:20 19.05.2020
2864 Clouds 20 1003 21 0 3.18 203 11:55 19.05.2020
2865 Clouds 20 1003 21 0 3.18 203 11:37 19.05.2020
2866 Clouds 19 1004 22 0 2.58 205 11:18 19.05.2020
2867 Clouds 19 1004 22 0 2.58 205 10:43 19.05.2020
2868 Clouds 19 1005 23 0 2.6 209 10:23 19.05.2020
2869 Clouds 19 1005 23 0 2.6 209 09:56 19.05.2020
2870 Clouds 19 1005 23 0 2.6 209 09:38 19.05.2020
2871 Clouds 18 1006 26 0 2.75 199 09:20 19.05.2020
2872 Clouds 17 1006 27 0 2.66 202 08:42 19.05.2020
2873 Clouds 16 1007 29 0 2.85 203 08:23 19.05.2020
2874 Clouds 16 1007 29 0 2.85 203 07:43 19.05.2020
2875 Clouds 15 1009 32 0 3.17 199 07:25 19.05.2020
2876 Clouds 15 1009 32 0 3.17 199 06:45 19.05.2020
2877 Clouds 14 1010 35 0 2.8 189 06:24 19.05.2020
2878 Clouds 14 1010 35 0 2.8 189 05:40 19.05.2020
2879 Clouds 13 1012 39 0 2.68 177 04:56 19.05.2020
2880 Clouds 11 1013 44 0 2.39 171 04:18 19.05.2020
2881 Clear 8 1014 54 0 1.98 156 01:30 19.05.2020
2882 Clear 7 1013 57 0 2.06 152 00:43 19.05.2020
2883 Clear 8 1013 56 0 1.85 146 00:22 19.05.2020
2884 Clear 8 1013 56 0 1.85 146 23:56 18.05.2020
2885 Clear 8 1013 56 0 1.85 146 23:38 18.05.2020
2886 Clear 9 1013 54 0 1.77 144 23:19 18.05.2020
2887 Clear 9 1013 54 0 1.77 144 22:40 18.05.2020
2888 Clear 9 1013 52 0 1.89 147 22:21 18.05.2020
2889 Clear 9 1013 52 0 1.89 147 22:21 18.05.2020
2890 Clear 9 1013 52 0 1.89 147 21:54 18.05.2020
2891 Clear 9 1013 52 0 1.89 147 21:36 18.05.2020
2892 Clear 10 1013 49 0 1.95 155 21:18 18.05.2020
2893 Clear 10 1013 49 0 1.95 155 20:42 18.05.2020
2894 Clouds 10 1013 47 0 1.88 152 20:22 18.05.2020
2895 Clouds 10 1013 47 0 1.88 152 19:58 18.05.2020
2896 Clouds 10 1013 47 0 1.88 152 19:40 18.05.2020
2897 Clouds 11 1012 45 0 1.8 143 19:19 18.05.2020
2898 Clouds 11 1012 46 0 1.85 144 18:46 18.05.2020
2899 Clouds 11 1012 44 0 2.25 135 18:24 18.05.2020
2900 Clouds 11 1012 44 0 2.25 135 17:54 18.05.2020
2901 Clouds 11 1012 44 0 2.25 135 17:36 18.05.2020
2902 Clouds 12 1011 42 0 2.44 118 17:18 18.05.2020
2903 Clouds 12 1011 42 0 2.44 118 16:42 18.05.2020
2904 Clouds 13 1010 41 0 3.38 106 16:20 18.05.2020
2905 Clouds 13 1010 40 0 3.71 117 15:57 18.05.2020
2906 Clouds 13 1010 40 0 3.71 117 15:39 18.05.2020
2907 Clouds 15 1009 33 0 2.66 128 15:20 18.05.2020
2908 Clouds 15 1009 33 0 2.66 128 14:56 18.05.2020
2909 Rain 14 1008 37 0 3.58 132 14:38 18.05.2020
2910 Clouds 16 1006 30 0 2.29 150 14:19 18.05.2020
2911 Clouds 16 1006 30 0 2.29 150 13:41 18.05.2020
2912 Clouds 18 1005 27 0 0.92 235 13:20 18.05.2020
2913 Clouds 18 1005 27 0 0.92 235 12:58 18.05.2020
2914 Clouds 18 1005 27 0 0.92 235 12:39 18.05.2020
2915 Clouds 18 1004 27 0 0.86 270 12:19 18.05.2020
2916 Clouds 18 1004 27 0 0.86 270 11:47 18.05.2020
2917 Clouds 18 1004 28 0 1.55 257 11:27 18.05.2020
2918 Clouds 18 1004 28 0 1.55 257 10:59 18.05.2020
2919 Clouds 18 1004 28 0 1.55 257 10:41 18.05.2020
2920 Clouds 18 1006 27 0 1.85 225 10:22 18.05.2020
2921 Clouds 18 1006 27 0 1.85 225 09:45 18.05.2020
2922 Clouds 17 1008 29 0 2.11 182 09:26 18.05.2020
2923 Clouds 17 1007 28 0 1.77 189 08:54 18.05.2020
2924 Clouds 17 1007 28 0 1.77 189 08:36 18.05.2020
2925 Clouds 17 1008 30 0 1.75 192 08:18 18.05.2020
2926 Clouds 17 1008 30 0 1.75 192 07:41 18.05.2020
2927 Clear 16 1009 31 0 1.81 182 07:20 18.05.2020
2928 Clear 16 1009 31 0 1.81 182 06:46 18.05.2020
2929 Clear 15 1010 34 0 1.59 167 06:18 18.05.2020
2930 Clear 15 1010 34 0 1.59 167 05:42 18.05.2020
2931 Clear 12 1014 41 0 0.63 167 03:37 18.05.2020
2932 Clouds 11 1015 44 0 0.34 224 02:31 18.05.2020
2933 Clear 9 1015 49 0 0.2 263 01:34 18.05.2020
2934 Clear 9 1014 51 0 0.21 187 00:28 18.05.2020
2935 Clear 9 1014 51 0 0.21 187 23:59 17.05.2020
2936 Clear 9 1014 51 0 0.21 187 23:40 17.05.2020
2937 Clear 9 1013 49 0 0.53 201 23:20 17.05.2020
2938 Clear 9 1013 49 0 0.53 201 22:58 17.05.2020
2939 Clear 9 1013 49 0 0.53 201 22:39 17.05.2020
2940 Clear 10 1014 47 0 0.85 208 22:21 17.05.2020
2941 Clear 10 1014 47 0 0.85 208 21:58 17.05.2020
2942 Clear 10 1014 47 0 0.85 208 21:40 17.05.2020
2943 Clear 11 1014 46 0 0.72 214 21:19 17.05.2020
2944 Clear 11 1014 46 0 0.72 214 20:43 17.05.2020
2945 Clouds 11 1014 43 0 1.04 217 20:22 17.05.2020
2946 Clouds 11 1014 43 0 1.04 217 19:58 17.05.2020
2947 Clouds 11 1014 43 0 1.04 217 19:40 17.05.2020
2948 Clouds 12 1014 41 0 1.67 215 19:22 17.05.2020
2949 Clouds 12 1014 41 0 1.67 215 18:55 17.05.2020
2950 Clouds 12 1014 41 0 1.67 215 18:37 17.05.2020
2951 Clouds 13 1013 38 0 1.75 231 18:19 17.05.2020
2952 Clouds 13 1013 38 0 1.75 231 17:40 17.05.2020
2953 Clouds 14 1013 35 0 1.73 208 17:21 17.05.2020
2954 Clouds 14 1013 35 0 1.73 208 17:21 17.05.2020
2955 Clouds 14 1013 35 0 1.73 208 17:21 17.05.2020
2956 Clouds 14 1013 35 0 1.73 208 16:57 17.05.2020
2957 Clouds 14 1013 35 0 1.73 208 16:38 17.05.2020
2958 Clouds 14 1012 34 0 1.6 210 16:19 17.05.2020
2959 Clouds 14 1012 34 0 1.6 210 15:45 17.05.2020
2960 Clouds 15 1010 33 0 0.72 275 15:24 17.05.2020
2961 Clouds 15 1010 33 0 0.72 275 14:58 17.05.2020
2962 Clouds 15 1010 33 0 0.72 275 14:39 17.05.2020
2963 Clouds 16 1008 30 0 1.4 259 14:19 17.05.2020
2964 Clouds 16 1008 30 0 1.4 259 13:41 17.05.2020
2965 Clouds 17 1007 28 0 2.11 238 13:20 17.05.2020
2966 Clear 12 1015 45 0 0.49 353 05:22 17.05.2020
2967 Clear 10 1017 50 0 0.55 18 03:34 17.05.2020
2968 Clouds 7 1018 63 0 0.99 28 02:27 17.05.2020
2969 Clouds 7 1018 63 0 0.99 28 01:54 17.05.2020
2970 Clouds 6 1018 66 0 0.85 30 00:52 17.05.2020
2971 Clouds 6 1018 66 0 0.85 30 00:30 17.05.2020
2972 Clouds 7 1017 65 0 0.91 44 23:56 16.05.2020
2973 Clouds 7 1017 65 0 0.91 44 23:38 16.05.2020
2974 Clouds 7 1017 65 0 1.06 53 23:19 16.05.2020
2975 Clouds 7 1017 65 0 1.06 53 22:42 16.05.2020
2976 Clouds 7 1017 63 0 1.33 78 22:23 16.05.2020
2977 Clouds 7 1017 63 0 1.33 78 22:23 16.05.2020
2978 Clouds 7 1017 63 0 1.33 78 21:59 16.05.2020
2979 Clouds 7 1017 63 0 1.33 78 21:41 16.05.2020
2980 Clouds 8 1017 60 0 1.79 85 21:21 16.05.2020
2981 Clouds 8 1017 57 0 1.02 113 20:57 16.05.2020
2982 Clouds 8 1017 57 0 1.02 113 20:38 16.05.2020
2983 Clouds 8 1016 56 0 1.43 151 20:19 16.05.2020
2984 Clouds 8 1016 56 0 1.43 151 19:43 16.05.2020
2985 Clouds 9 1017 55 0 1.08 131 19:23 16.05.2020
2986 Clouds 9 1017 55 0 1.08 131 18:59 16.05.2020
2987 Clouds 9 1017 55 0 1.08 131 18:41 16.05.2020
2988 Rain 9 1017 53 0 1.15 136 18:22 16.05.2020
2989 Rain 9 1017 53 0 1.15 136 17:42 16.05.2020
2990 Rain 10 1016 51 0 1.66 145 17:22 16.05.2020
2991 Rain 10 1016 51 0 1.66 145 16:59 16.05.2020
2992 Rain 10 1016 51 0 1.66 145 16:39 16.05.2020
2993 Clouds 10 1015 48 0 2.18 137 16:19 16.05.2020
2994 Clouds 10 1015 48 0 2.18 137 15:55 16.05.2020
2995 Clouds 10 1015 48 0 2.18 137 15:36 16.05.2020
2996 Clouds 11 1013 46 0 1.73 132 15:18 16.05.2020
2997 Clouds 11 1013 46 0 1.73 132 14:42 16.05.2020
2998 Clouds 12 1011 42 0 1.69 143 14:20 16.05.2020
2999 Clouds 12 1011 42 0 1.69 143 13:56 16.05.2020
3000 Clouds 12 1011 42 0 1.69 143 13:37 16.05.2020
3001 Clouds 13 1009 41 0 1.85 147 13:19 16.05.2020
3002 Clouds 13 1009 41 0 1.85 147 12:44 16.05.2020
3003 Rain 12 1008 42 0 2.47 175 12:20 16.05.2020
3004 Rain 12 1008 42 0 2.47 175 11:56 16.05.2020
3005 Rain 12 1008 42 0 2.47 175 11:37 16.05.2020
3006 Rain 14 1008 36 0 2.79 248 11:18 16.05.2020
3007 Rain 14 1008 36 0 2.79 248 10:54 16.05.2020
3008 Rain 14 1008 36 0 2.79 248 10:36 16.05.2020
3009 Clouds 17 1008 29 0 1.06 219 10:18 16.05.2020
3010 Clouds 17 1008 29 0 1.06 219 09:40 16.05.2020
3011 Clouds 17 1009 30 0 0.52 126 09:18 16.05.2020
3012 Clouds 16 1009 31 0 1.12 163 08:42 16.05.2020
3013 Clouds 15 1010 34 0 2.19 199 08:21 16.05.2020
3014 Clouds 15 1010 34 0 2.19 199 07:45 16.05.2020
3015 Rain 14 1011 37 0 2.04 178 07:26 16.05.2020
3016 Rain 14 1011 37 0 2.04 178 06:57 16.05.2020
3017 Rain 14 1011 37 0 2.04 178 06:37 16.05.2020
3018 Rain 13 1013 41 0 1.78 158 06:18 16.05.2020
3019 Rain 13 1013 41 0 1.78 158 05:32 16.05.2020
3020 Rain 10 1015 50 0 1.37 142 03:36 16.05.2020
3021 Clear 8 1016 55 0 0.9 149 02:59 16.05.2020
3022 Clouds 7 1016 61 0 0.97 129 02:21 16.05.2020
3023 Clouds 7 1016 61 0 0.97 129 01:47 16.05.2020
3024 Clouds 6 1016 64 0 0.71 105 01:22 16.05.2020
3025 Clouds 6 1016 64 0 0.71 105 00:46 16.05.2020
3026 Clouds 6 1015 63 0 0.7 149 00:22 16.05.2020
3027 Clouds 6 1015 63 0 0.7 149 23:41 15.05.2020
3028 Clouds 7 1015 61 0 1.15 155 23:20 15.05.2020
3029 Clouds 7 1015 61 0 1.15 155 22:58 15.05.2020
3030 Clouds 7 1015 61 0 1.15 155 22:39 15.05.2020
3031 Clouds 7 1015 59 0 1.3 153 22:18 15.05.2020
3032 Clouds 7 1015 59 0 1.3 153 21:40 15.05.2020
3033 Clouds 7 1015 62 0 1.4 181 21:22 15.05.2020
3034 Clouds 7 1015 62 0 1.4 181 20:59 15.05.2020
3035 Clouds 7 1016 60 0 1.75 194 20:41 15.05.2020
3036 Clouds 8 1016 59 0 1.94 193 20:22 15.05.2020
3037 Clouds 8 1016 61 0 1.56 177 19:56 15.05.2020
3038 Clouds 8 1016 61 0 1.56 177 19:37 15.05.2020
3039 Clouds 8 1016 62 0 1.96 170 19:19 15.05.2020
3040 Clouds 8 1017 59 0 2.05 186 18:45 15.05.2020
3041 Rain 8 1016 64 0 2.3 171 18:27 15.05.2020
3042 Rain 8 1016 64 0 2.3 171 17:40 15.05.2020
3043 Rain 8 1015 61 0 2.7 185 17:20 15.05.2020
3044 Rain 8 1015 61 0 2.7 185 16:58 15.05.2020
3045 Rain 8 1015 61 0 2.7 185 16:39 15.05.2020
3046 Rain 10 1014 49 0 3.5 204 16:19 15.05.2020
3047 Rain 10 1014 49 0 3.5 204 15:58 15.05.2020
3048 Rain 10 1014 49 0 3.5 204 15:39 15.05.2020
3049 Rain 10 1012 47 0 3.9 171 15:19 15.05.2020
3050 Rain 10 1012 47 0 3.9 171 14:42 15.05.2020
3051 Rain 10 1012 47 0 3.9 171 14:42 15.05.2020
3052 Clouds 12 1010 41 0 4 178 14:24 15.05.2020
3053 Clouds 12 1010 41 0 4 178 13:59 15.05.2020
3054 Clouds 12 1010 41 0 4 178 13:39 15.05.2020
3055 Clouds 14 1008 36 0 2.22 182 13:20 15.05.2020
3056 Clouds 14 1008 36 0 2.22 182 12:40 15.05.2020
3057 Clouds 16 1007 32 0 2.37 194 12:19 15.05.2020
3058 Clouds 16 1007 32 0 2.37 194 11:57 15.05.2020
3059 Clouds 16 1007 32 0 2.37 194 11:39 15.05.2020
3060 Clouds 16 1007 31 0 0.87 257 11:21 15.05.2020
3061 Clouds 16 1007 31 0 0.87 257 10:59 15.05.2020
3062 Clouds 16 1007 31 0 0.87 257 10:40 15.05.2020
3063 Clouds 16 1008 31 0 1.12 214 10:21 15.05.2020
3064 Clouds 16 1008 31 0 1.12 214 09:58 15.05.2020
3065 Clouds 16 1008 31 0 1.12 214 09:37 15.05.2020
3066 Clouds 16 1009 32 0 1.62 193 09:18 15.05.2020
3067 Clouds 16 1009 32 0 1.62 193 08:56 15.05.2020
3068 Clouds 16 1009 32 0 1.62 193 08:37 15.05.2020
3069 Rain 15 1011 34 0 1.48 184 08:18 15.05.2020
3070 Rain 15 1011 34 0 1.48 184 07:42 15.05.2020
3071 Clouds 14 1012 38 0 1.01 178 07:24 15.05.2020
3072 Clouds 14 1012 38 0 1.01 178 06:38 15.05.2020
3073 Clear 12 1013 41 0 0.65 183 05:49 15.05.2020
3074 Clear 9 1016 50 0 0.25 55 04:25 15.05.2020
3075 Clear 9 1016 50 0 0.25 55 03:40 15.05.2020
3076 Clouds 6 1019 61 0 0.74 324 02:26 15.05.2020
3077 Clouds 5 1019 66 0 0.75 319 01:19 15.05.2020
3078 Clouds 5 1019 66 0 0.75 319 00:45 15.05.2020
3079 Clouds 6 1018 63 0 0.45 329 00:25 15.05.2020
3080 Clouds 6 1018 63 0 0.45 329 23:43 14.05.2020
3081 Clouds 6 1019 61 0 0.26 277 23:21 14.05.2020
3082 Clouds 6 1019 61 0 0.26 277 22:56 14.05.2020
3083 Clouds 6 1019 61 0 0.26 277 22:56 14.05.2020
3084 Clouds 6 1019 61 0 0.26 277 22:37 14.05.2020
3085 Clouds 6 1019 62 0 1.2 289 22:19 14.05.2020
3086 Clouds 6 1019 62 0 1.2 289 21:55 14.05.2020
3087 Clouds 6 1019 62 0 1.2 289 21:37 14.05.2020
3088 Clouds 7 1019 59 0 1.5 249 21:18 14.05.2020
3089 Clouds 7 1019 59 0 1.5 249 20:42 14.05.2020
3090 Clouds 7 1019 57 0 2.23 246 20:20 14.05.2020
3091 Clouds 7 1019 57 0 2.23 246 20:20 14.05.2020
3092 Clouds 7 1019 57 0 2.23 246 19:58 14.05.2020
3093 Clouds 7 1019 57 0 2.23 246 19:39 14.05.2020
3094 Clouds 8 1019 54 0 2.13 203 19:20 14.05.2020
3095 Clouds 8 1019 54 0 2.13 203 18:58 14.05.2020
3096 Clouds 8 1019 54 0 2.13 203 18:58 14.05.2020
3097 Clouds 8 1019 54 0 2.13 203 18:38 14.05.2020
3098 Clouds 8 1019 54 0 2.13 203 18:38 14.05.2020
3099 Rain 9 1018 52 0 2.94 246 18:20 14.05.2020
3100 Rain 9 1018 52 0 2.94 246 17:58 14.05.2020
3101 Rain 9 1018 52 0 2.94 246 17:37 14.05.2020
3102 Snow 10 1017 45 0 3.8 277 17:19 14.05.2020
3103 Snow 10 1017 45 0 3.8 277 16:57 14.05.2020
3104 Snow 10 1017 45 0 3.8 277 16:38 14.05.2020
3105 Clouds 12 1016 39 0 3.13 199 16:19 14.05.2020
3106 Clouds 12 1016 39 0 3.13 199 15:56 14.05.2020
3107 Clouds 12 1016 39 0 3.13 199 15:36 14.05.2020
3108 Clouds 12 1015 37 0 3.03 206 15:18 14.05.2020
3109 Clouds 12 1015 37 0 3.03 206 14:40 14.05.2020
3110 Clouds 13 1013 37 0 3.12 191 14:20 14.05.2020
3111 Clouds 13 1013 37 0 3.12 191 14:20 14.05.2020
3112 Clouds 13 1013 37 0 3.12 191 13:57 14.05.2020
3113 Clouds 13 1013 37 0 3.12 191 13:39 14.05.2020
3114 Clouds 13 1011 35 0 3.68 175 13:20 14.05.2020
3115 Clouds 13 1011 35 0 3.68 175 12:58 14.05.2020
3116 Clouds 13 1011 35 0 3.68 175 12:39 14.05.2020
3117 Clouds 14 1011 32 0 2.65 168 12:20 14.05.2020
3118 Clouds 14 1011 32 0 2.65 168 11:58 14.05.2020
3119 Clouds 14 1011 32 0 2.65 168 11:39 14.05.2020
3120 Clouds 14 1010 32 0 1.56 103 11:20 14.05.2020
3121 Clouds 14 1010 32 0 1.56 103 10:55 14.05.2020
3122 Clouds 14 1010 32 0 1.56 103 10:36 14.05.2020
3123 Clouds 14 1011 33 0 1.59 87 10:18 14.05.2020
3124 Clouds 14 1011 33 0 1.59 87 09:39 14.05.2020
3125 Clouds 16 1011 28 0 1.37 171 09:19 14.05.2020
3126 Clouds 16 1011 28 0 1.37 171 08:41 14.05.2020
3127 Clouds 15 1013 31 0 1.47 182 08:20 14.05.2020
3128 Clouds 15 1013 31 0 1.47 182 07:46 14.05.2020
3129 Clouds 14 1014 35 0 1.16 187 07:24 14.05.2020
3130 Clouds 14 1014 35 0 1.16 187 06:54 14.05.2020
3131 Clouds 14 1014 35 0 1.16 187 06:31 14.05.2020
3132 Clouds 12 1016 39 0 1.04 177 05:55 14.05.2020
3133 Clouds 12 1016 39 0 1.04 177 05:29 14.05.2020
3134 Clouds 9 1018 50 0 0.56 91 04:25 14.05.2020
3135 Clouds 7 1019 56 0 0.86 54 03:23 14.05.2020
3136 Clouds 7 1019 56 0 0.86 54 02:41 14.05.2020
3137 Clouds 5 1021 68 0 1.54 41 01:56 14.05.2020
3138 Clouds 4 1020 71 0 1.55 48 01:23 14.05.2020
3139 Clouds 4 1020 71 0 1.55 48 00:44 14.05.2020
3140 Clouds 5 1020 70 0 1.64 47 00:23 14.05.2020
3141 Clouds 5 1020 70 0 1.64 47 23:42 13.05.2020
3142 Clouds 5 1019 69 0 1.67 46 23:21 13.05.2020
3143 Clouds 5 1019 69 0 1.67 46 22:54 13.05.2020
3144 Clouds 5 1019 69 0 1.67 46 22:36 13.05.2020
3145 Clear 5 1019 67 0 1.93 46 22:18 13.05.2020
3146 Clear 5 1019 67 0 1.93 46 21:55 13.05.2020
3147 Clear 5 1019 67 0 1.93 46 21:36 13.05.2020
3148 Clouds 7 1019 59 0 1.31 32 21:18 13.05.2020
3149 Clouds 7 1019 59 0 1.31 32 20:40 13.05.2020
3150 Rain 8 1019 56 0 1.11 34 20:22 13.05.2020
3151 Rain 8 1019 56 0 1.11 34 19:43 13.05.2020
3152 Rain 8 1019 55 0 1 21 19:24 13.05.2020
3153 Rain 8 1019 55 0 1 21 18:56 13.05.2020
3154 Rain 8 1019 55 0 1 21 18:37 13.05.2020
3155 Snow 9 1019 53 0 0.41 358 18:18 13.05.2020
3156 Snow 9 1019 53 0 0.41 358 17:39 13.05.2020
3157 Rain 9 1018 52 0 1.26 176 17:19 13.05.2020
3158 Rain 9 1018 52 0 1.26 176 16:55 13.05.2020
3159 Rain 9 1018 52 0 1.26 176 16:37 13.05.2020
3160 Rain 9 1016 51 0 0.76 113 16:18 13.05.2020
3161 Rain 9 1016 51 0 0.76 113 16:18 13.05.2020
3162 Rain 9 1016 51 0 0.76 113 15:42 13.05.2020
3163 Rain 10 1014 48 0 1.26 113 15:19 13.05.2020
3164 Rain 10 1014 48 0 1.26 113 14:57 13.05.2020
3165 Rain 10 1014 48 0 1.26 113 14:39 13.05.2020
3166 Rain 12 1012 41 0 1.87 137 14:21 13.05.2020
3167 Clouds 13 1012 39 0 2.67 193 13:57 13.05.2020
3168 Clouds 13 1012 39 0 2.67 193 13:38 13.05.2020
3169 Clouds 13 1011 37 0 2.51 182 13:19 13.05.2020
3170 Clouds 13 1011 37 0 2.51 182 12:43 13.05.2020
3171 Clouds 13 1010 38 0 2.96 194 12:23 13.05.2020
3172 Clouds 13 1010 38 0 2.96 194 11:57 13.05.2020
3173 Clouds 13 1010 38 0 2.96 194 11:39 13.05.2020
3174 Clouds 12 1009 41 0 2.73 205 11:20 13.05.2020
3175 Clouds 12 1009 41 0 2.73 205 10:59 13.05.2020
3176 Clouds 12 1009 41 0 2.73 205 10:39 13.05.2020
3177 Rain 12 1010 42 0 3.08 234 10:20 13.05.2020
3178 Rain 12 1010 42 0 3.08 234 10:20 13.05.2020
3179 Rain 12 1010 42 0 3.08 234 09:58 13.05.2020
3180 Rain 12 1010 42 0 3.08 234 09:39 13.05.2020
3181 Snow 11 1010 44 0 2.25 221 09:21 13.05.2020
3182 Snow 11 1010 44 0 2.25 221 08:41 13.05.2020
3183 Snow 11 1011 45 0 1.11 207 08:22 13.05.2020
3184 Snow 11 1011 45 0 1.11 207 07:59 13.05.2020
3185 Snow 11 1011 45 0 1.11 207 07:59 13.05.2020
3186 Snow 11 1011 45 0 1.11 207 07:36 13.05.2020
3187 Snow 11 1013 44 0 2.01 193 06:58 13.05.2020
3188 Snow 11 1013 44 0 2.01 193 06:40 13.05.2020
3189 Snow 11 1014 44 0 2.05 175 05:50 13.05.2020
3190 Snow 8 1015 52 0 1.72 139 04:22 13.05.2020
3191 Snow 7 1016 56 0 1.24 136 02:58 13.05.2020
3192 Clouds 6 1017 62 0 0.82 167 01:47 13.05.2020
3193 Clouds 5 1017 65 0 0.88 147 01:21 13.05.2020
3194 Clouds 5 1017 65 0 0.88 147 00:39 13.05.2020
3195 Clouds 6 1017 64 0 1.03 145 00:18 13.05.2020
3196 Clouds 6 1017 64 0 1.03 145 23:39 12.05.2020
3197 Snow 6 1017 63 0 1.34 155 23:21 12.05.2020
3198 Snow 6 1017 63 0 1.34 155 22:55 12.05.2020
3199 Snow 6 1017 63 0 1.34 155 22:36 12.05.2020
3200 Snow 7 1017 61 0 1.71 153 22:18 12.05.2020
3201 Snow 7 1017 61 0 1.71 153 21:54 12.05.2020
3202 Snow 6 1017 61 0 1.86 125 21:36 12.05.2020
3203 Snow 7 1017 60 0 1.44 132 21:18 12.05.2020
3204 Snow 7 1017 60 0 1.44 132 20:55 12.05.2020
3205 Snow 7 1017 60 0 1.44 132 20:36 12.05.2020
3206 Snow 7 1018 60 0 1.39 172 20:18 12.05.2020
3207 Snow 7 1018 60 0 1.39 172 19:54 12.05.2020
3208 Snow 7 1018 60 0 1.39 172 19:36 12.05.2020
3209 Rain 7 1018 61 0 2.07 171 19:18 12.05.2020
3210 Rain 7 1018 61 0 2.07 171 18:41 12.05.2020
3211 Snow 7 1018 61 0 2.76 172 18:23 12.05.2020
3212 Snow 7 1018 61 0 2.76 172 17:54 12.05.2020
3213 Snow 7 1018 61 0 2.76 172 17:36 12.05.2020
3214 Snow 7 1017 60 0 1.86 203 17:18 12.05.2020
3215 Snow 7 1017 60 0 1.86 203 16:42 12.05.2020
3216 Snow 8 1016 54 0 2.1 195 16:20 12.05.2020
3217 Snow 8 1016 54 0 2.1 195 15:55 12.05.2020
3218 Snow 8 1016 54 0 2.1 195 15:36 12.05.2020
3219 Rain 9 1014 51 0 0.59 118 15:18 12.05.2020
3220 Rain 9 1014 51 0 0.59 118 14:54 12.05.2020
3221 Rain 9 1014 51 0 0.59 118 14:36 12.05.2020
3222 Rain 9 1013 51 0 1.68 72 14:18 12.05.2020
3223 Rain 11 1013 44 0 1.23 58 13:54 12.05.2020
3224 Rain 11 1013 44 0 1.23 58 13:36 12.05.2020
3225 Rain 12 1011 41 0 1.76 350 13:18 12.05.2020
3226 Rain 12 1011 41 0 1.76 350 12:54 12.05.2020
3227 Rain 12 1011 41 0 1.76 350 12:36 12.05.2020
3228 Rain 11 1010 44 0 0.63 202 12:18 12.05.2020
3229 Rain 11 1010 44 0 0.63 202 11:55 12.05.2020
3230 Rain 11 1010 44 0 0.63 202 11:36 12.05.2020
3231 Rain 10 1009 48 0 1.77 115 11:18 12.05.2020
3232 Rain 10 1009 48 0 1.77 115 10:54 12.05.2020
3233 Rain 10 1009 48 0 1.77 115 10:36 12.05.2020
3234 Snow 15 1010 32 0 3.08 234 10:18 12.05.2020
3235 Snow 15 1010 32 0 3.08 234 09:54 12.05.2020
3236 Snow 15 1010 32 0 3.08 234 09:36 12.05.2020
3237 Clouds 14 1011 31 0 1.72 205 09:18 12.05.2020
3238 Clouds 14 1011 31 0 1.72 205 08:39 12.05.2020
3239 Clouds 14 1013 34 0 2.28 212 08:19 12.05.2020
3240 Clouds 14 1013 34 0 2.28 212 07:44 12.05.2020
3241 Clouds 12 1014 38 0 1.84 207 07:25 12.05.2020
3242 Clouds 12 1014 38 0 1.84 207 06:50 12.05.2020
3243 Clouds 12 1014 38 0 1.84 207 06:29 12.05.2020
3244 Clouds 11 1016 42 0 1.23 203 05:59 12.05.2020
3245 Clouds 11 1016 42 0 1.23 203 05:41 12.05.2020
3246 Clouds 8 1018 54 0 0.72 173 03:43 12.05.2020
3247 Clouds 6 1019 60 0 0.55 142 02:53 12.05.2020
3248 Clouds 5 1020 67 0 0.69 105 02:26 12.05.2020
3249 Clouds 5 1020 67 0 0.77 97 01:29 12.05.2020
3250 Clouds 5 1020 69 0 0.88 126 00:40 12.05.2020
3251 Snow 5 1019 69 0 2 146 00:18 12.05.2020
3252 Snow 5 1019 69 0 2 146 23:54 11.05.2020
3253 Snow 5 1019 69 0 2 146 23:36 11.05.2020
3254 Snow 5 1019 66 0 1.26 206 23:18 11.05.2020
3255 Snow 5 1019 66 0 1.26 206 22:54 11.05.2020
3256 Snow 5 1019 66 0 1.26 206 22:36 11.05.2020
3257 Snow 8 1019 54 0 2.4 227 22:18 11.05.2020
3258 Snow 8 1019 54 0 2.4 227 21:54 11.05.2020
3259 Snow 8 1019 54 0 1.92 236 21:36 11.05.2020
3260 Clouds 8 1018 51 0 2.89 186 21:18 11.05.2020
3261 Clouds 8 1018 51 0 2.89 186 20:42 11.05.2020
3262 Clouds 9 1018 48 0 3.56 183 20:21 11.05.2020
3263 Clouds 9 1018 48 0 3.56 183 19:58 11.05.2020
3264 Clouds 9 1018 48 0 3.56 183 19:40 11.05.2020
3265 Clouds 10 1018 45 0 3.84 182 19:21 11.05.2020
3266 Clouds 10 1018 45 0 3.84 182 18:56 11.05.2020
3267 Clouds 10 1018 45 0 3.84 182 18:38 11.05.2020
3268 Clouds 11 1018 41 0 3.86 181 18:19 11.05.2020
3269 Clouds 11 1018 41 0 3.86 181 17:57 11.05.2020
3270 Clouds 11 1018 41 0 3.86 181 17:57 11.05.2020
3271 Clouds 11 1018 41 0 3.86 181 17:57 11.05.2020
3272 Clouds 11 1018 41 0 3.86 181 17:38 11.05.2020
3273 Clouds 12 1016 38 0 4.08 172 17:19 11.05.2020
3274 Clouds 12 1016 38 0 4.08 172 16:45 11.05.2020
3275 Clouds 13 1015 34 0 4.63 178 16:23 11.05.2020
3276 Clouds 13 1015 34 0 4.63 178 15:59 11.05.2020
3277 Clouds 13 1015 34 0 4.63 178 15:40 11.05.2020
3278 Clouds 14 1012 31 0 4.07 184 15:19 11.05.2020
3279 Clouds 14 1012 31 0 4.07 184 14:57 11.05.2020
3280 Clouds 14 1012 31 0 4.07 184 14:39 11.05.2020
3281 Clouds 15 1010 28 0 3.83 190 14:21 11.05.2020
3282 Clouds 15 1010 28 0 4.33 193 13:42 11.05.2020
3283 Clouds 17 1010 25 0 3.27 196 13:22 11.05.2020
3284 Clouds 17 1010 25 0 3.27 196 12:59 11.05.2020
3285 Clouds 17 1010 25 0 3.27 196 12:41 11.05.2020
3286 Clouds 17 1010 25 0 2.62 209 12:22 11.05.2020
3287 Clouds 17 1010 25 0 2.62 209 11:57 11.05.2020
3288 Clouds 17 1010 25 0 2.62 209 11:39 11.05.2020
3289 Clouds 17 1010 26 0 2.25 204 11:21 11.05.2020
3290 Clouds 17 1010 26 0 2.25 204 10:57 11.05.2020
3291 Clouds 17 1010 26 0 2.25 204 10:39 11.05.2020
3292 Clouds 16 1012 27 0 2.11 184 10:20 11.05.2020
3293 Clouds 16 1012 27 0 2.11 184 09:57 11.05.2020
3294 Clouds 16 1012 27 0 2.11 184 09:39 11.05.2020
3295 Clouds 15 1013 29 0 2.39 180 09:19 11.05.2020
3296 Clouds 15 1013 29 0 2.39 180 08:44 11.05.2020
3297 Clear 15 1015 32 0 1.97 182 08:25 11.05.2020
3298 Clear 15 1015 32 0 1.97 182 07:59 11.05.2020
3299 Clear 15 1015 32 0 1.97 182 07:41 11.05.2020
3300 Clear 14 1017 34 0 1.81 186 07:23 11.05.2020
3301 Clear 14 1017 34 0 1.81 186 06:34 11.05.2020
3302 Clear 12 1019 38 0 1.25 176 05:54 11.05.2020
3303 Clear 11 1020 42 0 1.2 161 05:23 11.05.2020
3304 Clear 10 1021 46 0 1.17 156 03:56 11.05.2020
3305 Clear 8 1022 51 0 1.19 147 02:36 11.05.2020
3306 Clear 7 1023 56 0 0.65 129 02:18 11.05.2020
3307 Clear 5 1023 60 0 0.47 123 01:21 11.05.2020
3308 Clear 5 1023 60 0 0.47 123 00:41 11.05.2020
3309 Clear 6 1022 58 0 0.91 153 00:19 11.05.2020
3310 Clear 6 1022 58 0 0.91 153 23:40 10.05.2020
3311 Clear 7 1022 55 0 1.31 147 23:20 10.05.2020
3312 Clear 7 1022 55 0 1.31 147 22:55 10.05.2020
3313 Clear 7 1022 55 0 1.31 147 22:55 10.05.2020
3314 Clear 7 1022 55 0 1.31 147 22:37 10.05.2020
3315 Clear 7 1022 52 0 1.56 156 22:18 10.05.2020
3316 Clear 7 1022 52 0 1.56 156 21:43 10.05.2020
3317 Clear 8 1022 50 0 1.2 173 21:19 10.05.2020
3318 Clear 8 1022 50 0 1.64 177 20:43 10.05.2020
3319 Clouds 9 1022 48 0 1.63 177 20:25 10.05.2020
3320 Clouds 9 1022 48 0 1.63 177 20:25 10.05.2020
3321 Clouds 9 1022 48 0 1.63 177 19:59 10.05.2020
3322 Clouds 9 1022 48 0 1.63 177 19:39 10.05.2020
3323 Clouds 10 1022 44 0 1.58 179 19:21 10.05.2020
3324 Clouds 10 1022 44 0 1.58 179 18:56 10.05.2020
3325 Clouds 10 1022 44 0 1.58 179 18:37 10.05.2020
3326 Clouds 10 1020 42 0 1.71 170 18:19 10.05.2020
3327 Clouds 10 1020 42 0 1.71 170 17:58 10.05.2020
3328 Clouds 10 1020 42 0 1.71 170 17:40 10.05.2020
3329 Clouds 10 1020 42 0 1.71 170 17:40 10.05.2020
3330 Clouds 11 1019 41 0 2.16 166 17:20 10.05.2020
3331 Clouds 11 1019 41 0 2.16 166 16:55 10.05.2020
3332 Clouds 11 1019 41 0 2.16 166 16:37 10.05.2020
3333 Clouds 12 1018 37 0 1.98 145 16:18 10.05.2020
3334 Clouds 12 1018 37 0 1.98 145 15:42 10.05.2020
3335 Clouds 13 1016 33 0 1.64 132 15:23 10.05.2020
3336 Clouds 13 1016 33 0 1.64 132 14:57 10.05.2020
3337 Clouds 13 1016 33 0 1.64 132 14:38 10.05.2020
3338 Clouds 14 1014 30 0 1.46 174 14:19 10.05.2020
3339 Clouds 12 1014 38 0 0.61 190 13:58 10.05.2020
3340 Clouds 12 1014 38 0 0.61 190 13:37 10.05.2020
3341 Clouds 14 1013 32 0 1.65 190 13:19 10.05.2020
3342 Clouds 14 1013 32 0 1.65 190 12:56 10.05.2020
3343 Clouds 14 1013 32 0 1.65 190 12:37 10.05.2020
3344 Clouds 15 1012 29 0 1.22 144 12:19 10.05.2020
3345 Clouds 15 1012 29 0 1.22 144 11:54 10.05.2020
3346 Clouds 15 1012 29 0 1.22 144 11:36 10.05.2020
3347 Clouds 15 1012 28 0 0.41 211 11:18 10.05.2020
3348 Clouds 15 1012 28 0 0.41 211 10:42 10.05.2020
3349 Clouds 15 1012 28 0 0.41 211 10:42 10.05.2020
3350 Clouds 15 1013 28 0 0.7 196 10:24 10.05.2020
3351 Clouds 15 1013 28 0 0.7 196 09:56 10.05.2020
3352 Clouds 15 1013 28 0 0.7 196 09:38 10.05.2020
3353 Clouds 15 1014 29 0 1.25 210 09:19 10.05.2020
3354 Clouds 15 1014 30 0 1.11 216 08:44 10.05.2020
3355 Clear 14 1015 31 0 1.25 213 08:23 10.05.2020
3356 Clear 14 1015 31 0 1.25 213 07:44 10.05.2020
3357 Clear 13 1017 35 0 1.08 207 07:19 10.05.2020
3358 Clear 13 1017 35 0 1.08 207 06:51 10.05.2020
3359 Clear 13 1017 35 0 1.08 207 06:29 10.05.2020
3360 Clear 12 1018 39 0 0.65 196 05:48 10.05.2020
3361 Clear 10 1019 43 0 0.45 163 04:49 10.05.2020
3362 Clear 10 1019 43 0 0.45 163 04:29 10.05.2020
3363 Clear 9 1021 48 0 0.43 118 03:52 10.05.2020
3364 Clear 9 1021 48 0 0.43 118 03:31 10.05.2020
3365 Clear 7 1022 53 0 0.45 50 02:41 10.05.2020
3366 Clear 5 1023 60 0 0.71 1 02:18 10.05.2020
3367 Clear 5 1023 60 0 0.71 1 01:40 10.05.2020
3368 Clear 4 1023 65 0 0.61 7 01:19 10.05.2020
3369 Clear 4 1023 65 0 0.61 7 00:53 10.05.2020
3370 Clear 4 1022 63 0 0.8 7 00:23 10.05.2020
3371 Clear 4 1022 63 0 0.8 7 23:57 09.05.2020
3372 Clear 4 1022 63 0 0.8 7 23:39 09.05.2020
3373 Clear 5 1022 62 0 0.86 354 23:19 09.05.2020
3374 Clear 5 1022 62 0 0.86 354 23:19 09.05.2020
3375 Clear 5 1022 62 0 0.86 354 22:41 09.05.2020
3376 Clear 5 1022 60 0 1.1 9 22:23 09.05.2020
3377 Clear 5 1022 60 0 1.1 9 21:58 09.05.2020
3378 Clear 5 1022 60 0 1.1 9 21:40 09.05.2020
3379 Clear 6 1022 55 0 0.33 21 21:20 09.05.2020
3380 Clear 6 1022 55 0 0.33 21 20:57 09.05.2020
3381 Clear 6 1022 55 0 0.33 21 20:38 09.05.2020
3382 Clouds 7 1022 53 0 0.64 358 20:20 09.05.2020
3383 Clouds 7 1022 53 0 0.64 358 19:56 09.05.2020
3384 Clouds 7 1022 53 0 0.64 358 19:37 09.05.2020
3385 Clouds 7 1022 51 0 0.79 19 19:18 09.05.2020
3386 Clouds 7 1022 51 0 0.79 19 18:43 09.05.2020
3387 Clouds 8 1021 49 0 1.52 31 18:23 09.05.2020
3388 Clouds 8 1021 49 0 1.52 31 17:46 09.05.2020
3389 Clouds 8 1021 47 0 1.93 32 17:23 09.05.2020
3390 Clouds 8 1021 47 0 1.93 32 16:57 09.05.2020
3391 Clouds 8 1021 47 0 1.93 32 16:38 09.05.2020
3392 Clouds 9 1020 44 0 2.2 40 16:19 09.05.2020
3393 Clouds 9 1020 44 0 2.2 40 15:44 09.05.2020
3394 Clouds 10 1018 39 0 2.35 32 15:26 09.05.2020
3395 Clouds 10 1018 39 0 2.35 32 14:56 09.05.2020
3396 Clouds 10 1018 39 0 2.35 32 14:38 09.05.2020
3397 Clouds 12 1016 29 0 2.77 351 14:18 09.05.2020
3398 Clouds 12 1016 29 0 2.77 351 13:56 09.05.2020
3399 Clouds 12 1016 29 0 2.77 351 13:38 09.05.2020
3400 Clouds 13 1014 27 0 2.27 312 13:18 09.05.2020
3401 Clouds 13 1014 27 0 2.27 312 13:18 09.05.2020
3402 Clouds 13 1014 27 0 2.27 312 12:41 09.05.2020
3403 Clouds 13 1014 28 0 2.91 286 12:22 09.05.2020
3404 Clouds 13 1014 28 0 2.91 286 11:55 09.05.2020
3405 Clouds 13 1014 28 0 2.91 286 11:37 09.05.2020
3406 Clouds 13 1014 29 0 2.64 271 11:18 09.05.2020
3407 Clouds 13 1014 29 0 2.64 271 10:42 09.05.2020
3408 Clouds 13 1016 30 0 2.21 263 10:23 09.05.2020
3409 Clouds 13 1016 30 0 2.21 263 09:55 09.05.2020
3410 Clouds 13 1016 30 0 2.21 263 09:37 09.05.2020
3411 Clouds 13 1017 32 0 1.89 264 09:18 09.05.2020
3412 Clouds 12 1017 33 0 1.53 290 08:48 09.05.2020
3413 Clouds 12 1017 33 0 1.53 290 08:30 09.05.2020
3414 Clear 12 1018 35 0 1.34 280 07:48 09.05.2020
3415 Clear 12 1018 35 0 1.34 280 07:30 09.05.2020
3416 Clear 11 1019 38 0 0.93 260 06:47 09.05.2020
3417 Clear 10 1020 42 0 0.68 285 06:22 09.05.2020
3418 Clear 10 1020 42 0 0.68 285 05:45 09.05.2020
3419 Clear 7 1023 53 0 1.12 346 03:44 09.05.2020
3420 Clear 5 1024 59 0 1.33 340 03:22 09.05.2020
3421 Clear 5 1024 59 0 1.33 340 02:30 09.05.2020
3422 Clear 3 1024 67 0 1.52 337 01:52 09.05.2020
3423 Clear 2 1024 71 0 1.51 335 01:23 09.05.2020
3424 Clear 2 1024 71 0 1.51 335 00:47 09.05.2020
3425 Clear 3 1022 70 0 1.8 340 00:29 09.05.2020
3426 Clear 3 1022 70 0 1.8 340 23:49 08.05.2020
3427 Clear 3 1022 70 0 1.8 340 23:29 08.05.2020
3428 Clouds 3 1022 68 0 1.84 332 22:58 08.05.2020
3429 Clouds 3 1022 68 0 1.84 332 22:58 08.05.2020
3430 Clouds 3 1022 68 0 1.84 332 22:40 08.05.2020
3431 Clouds 4 1022 66 0 1.83 344 22:19 08.05.2020
3432 Clouds 4 1022 66 0 1.83 344 21:59 08.05.2020
3433 Clouds 4 1022 66 0 1.83 344 21:39 08.05.2020
3434 Clouds 4 1022 67 0 1.38 348 21:18 08.05.2020
3435 Clouds 4 1022 67 0 1.38 348 20:56 08.05.2020
3436 Clouds 4 1022 67 0 1.38 348 20:38 08.05.2020
3437 Clouds 5 1022 65 0 1.08 339 20:20 08.05.2020
3438 Clouds 5 1022 65 0 1.08 339 19:44 08.05.2020
3439 Clouds 6 1021 62 0 0.29 303 19:24 08.05.2020
3440 Clouds 6 1021 62 0 0.29 303 18:55 08.05.2020
3441 Clouds 6 1021 62 0 0.29 303 18:37 08.05.2020
3442 Rain 6 1020 62 0 0.26 171 18:18 08.05.2020
3443 Rain 6 1020 62 0 0.26 171 17:41 08.05.2020
3444 Snow 6 1018 62 0 0.47 152 17:18 08.05.2020
3445 Snow 6 1018 62 0 0.47 152 16:44 08.05.2020
3446 Snow 6 1017 62 0 0.94 114 16:26 08.05.2020
3447 Snow 6 1017 62 0 0.94 114 15:57 08.05.2020
3448 Snow 6 1017 62 0 0.94 114 15:39 08.05.2020
3449 Snow 6 1014 63 0 2.01 339 15:18 08.05.2020
3450 Snow 6 1014 63 0 2.01 339 14:54 08.05.2020
3451 Snow 6 1014 63 0 2.01 339 14:36 08.05.2020
3452 Rain 9 1012 49 0 3.01 340 14:18 08.05.2020
3453 Rain 9 1012 49 0 3.01 340 13:39 08.05.2020
3454 Rain 11 1010 41 0 1.77 198 13:20 08.05.2020
3455 Rain 11 1010 41 0 1.77 198 12:54 08.05.2020
3456 Rain 11 1010 41 0 1.77 198 12:36 08.05.2020
3457 Rain 12 1007 39 0 3.22 179 12:18 08.05.2020
3458 Rain 12 1007 39 0 3.22 179 11:43 08.05.2020
3459 Clouds 12 1006 36 0 2.85 211 11:22 08.05.2020
3460 Clouds 12 1006 36 0 2.85 211 10:58 08.05.2020
3461 Clouds 12 1006 36 0 2.85 211 10:39 08.05.2020
3462 Rain 12 1007 37 0 2.21 243 10:19 08.05.2020
3463 Rain 12 1007 37 0 2.21 243 09:42 08.05.2020
3464 Clouds 12 1008 36 0 2.64 260 09:20 08.05.2020
3465 Clouds 12 1008 36 0 2.64 260 08:59 08.05.2020
3466 Clouds 12 1008 36 0 2.64 260 08:40 08.05.2020
3467 Rain 11 1010 41 0 2.39 238 08:21 08.05.2020
3468 Rain 11 1010 41 0 2.39 238 07:41 08.05.2020
3469 Snow 9 1010 46 0 2.15 231 07:23 08.05.2020
3470 Snow 9 1010 46 0 2.15 231 06:49 08.05.2020
3471 Snow 8 1011 50 0 1.58 228 06:20 08.05.2020
3472 Snow 8 1011 50 0 1.58 228 05:36 08.05.2020
3473 Snow 6 1013 58 0 2.07 205 04:21 08.05.2020
3474 Snow 5 1013 60 0 2.11 202 02:32 08.05.2020
3475 Snow 5 1014 65 0 2.23 189 01:44 08.05.2020
3476 Snow 4 1013 66 0 2.01 196 01:21 08.05.2020
3477 Snow 4 1013 66 0 2.01 196 00:51 08.05.2020
3478 Clouds 5 1013 64 0 2.23 189 00:28 08.05.2020
3479 Clouds 5 1013 64 0 2.23 189 23:57 07.05.2020
3480 Clouds 5 1013 64 0 2.23 189 23:39 07.05.2020
3481 Clouds 5 1013 64 0 2.23 189 23:39 07.05.2020
3482 Clouds 5 1013 62 0 2.54 179 23:21 07.05.2020
3483 Clouds 5 1013 62 0 2.54 179 22:54 07.05.2020
3484 Clouds 5 1013 62 0 2.54 179 22:36 07.05.2020
3485 Clouds 6 1013 58 0 3.18 172 22:18 07.05.2020
3486 Clouds 6 1013 58 0 3.18 172 21:54 07.05.2020
3487 Clouds 6 1013 57 0 3.24 168 21:36 07.05.2020
3488 Clouds 7 1013 54 0 2.93 167 21:18 07.05.2020
3489 Clouds 7 1013 54 0 2.93 167 20:41 07.05.2020
3490 Clouds 7 1013 54 0 2.43 168 20:20 07.05.2020
3491 Clouds 7 1013 54 0 2.43 168 19:50 07.05.2020
3492 Snow 8 1013 52 0 2.01 144 19:24 07.05.2020
3493 Snow 8 1013 52 0 2.01 144 18:59 07.05.2020
3494 Snow 8 1013 52 0 2.01 144 18:40 07.05.2020
3495 Snow 8 1013 50 0 1.69 133 18:21 07.05.2020
3496 Snow 8 1013 50 0 1.69 133 17:43 07.05.2020
3497 Rain 9 1012 48 0 1.48 127 17:21 07.05.2020
3498 Rain 9 1012 48 0 1.48 127 17:21 07.05.2020
3499 Rain 9 1012 48 0 1.48 127 16:56 07.05.2020
3500 Rain 9 1012 48 0 1.48 127 16:38 07.05.2020
3501 Clouds 9 1012 48 0 1.53 116 16:18 07.05.2020
3502 Clouds 9 1012 48 0 1.53 116 15:55 07.05.2020
3503 Clouds 9 1012 48 0 1.53 116 15:36 07.05.2020
3504 Clouds 10 1010 47 0 1.29 56 15:18 07.05.2020
3505 Clouds 10 1010 47 0 1.29 56 14:41 07.05.2020
3506 Clouds 10 1008 45 0 1.32 94 14:19 07.05.2020
3507 Rain 10 1009 45 0 1.06 115 13:43 07.05.2020
3508 Clouds 11 1007 42 0 1.56 87 13:25 07.05.2020
3509 Clouds 11 1007 42 0 1.56 87 13:25 07.05.2020
3510 Clouds 11 1007 42 0 1.56 87 12:44 07.05.2020
3511 Clouds 10 1006 45 0 1.9 85 12:20 07.05.2020
3512 Clouds 10 1006 45 0 1.9 85 11:58 07.05.2020
3513 Clouds 10 1006 45 0 1.9 85 11:38 07.05.2020
3514 Rain 9 1006 48 0 1.02 295 11:20 07.05.2020
3515 Rain 9 1006 48 0 1.02 295 10:41 07.05.2020
3516 Clouds 13 1007 34 0 3.24 235 10:22 07.05.2020
3517 Clouds 13 1007 34 0 3.24 235 09:41 07.05.2020
3518 Clouds 13 1009 34 0 2.99 205 09:20 07.05.2020
3519 Clouds 13 1009 34 0 2.85 187 08:57 07.05.2020
3520 Clouds 13 1009 34 0 2.85 187 08:38 07.05.2020
3521 Clouds 12 1011 36 0 3.03 192 08:20 07.05.2020
3522 Clouds 12 1011 36 0 3.03 192 07:45 07.05.2020
3523 Clouds 11 1013 39 0 2.92 193 07:26 07.05.2020
3524 Clouds 11 1013 39 0 2.92 193 06:52 07.05.2020
3525 Clouds 11 1013 39 0 2.92 193 06:33 07.05.2020
3526 Clouds 10 1014 43 0 2.68 189 05:32 07.05.2020
3527 Clouds 8 1016 51 0 2.03 182 04:24 07.05.2020
3528 Clouds 6 1017 56 0 2.12 179 03:25 07.05.2020
3529 Clouds 6 1017 56 0 2.12 179 02:53 07.05.2020
3530 Clouds 5 1018 62 0 1.91 182 01:46 07.05.2020
3531 Clouds 4 1017 65 0 1.63 183 01:24 07.05.2020
3532 Clouds 4 1017 65 0 1.63 183 00:47 07.05.2020
3533 Clouds 5 1017 63 0 2.05 175 00:28 07.05.2020
3534 Clouds 5 1017 63 0 2.05 175 23:48 06.05.2020
3535 Clouds 5 1016 60 0 2.49 184 23:26 06.05.2020
3536 Clouds 5 1016 60 0 2.49 184 22:58 06.05.2020
3537 Clouds 5 1016 60 0 2.49 184 22:40 06.05.2020
3538 Clouds 6 1016 58 0 2.64 188 22:20 06.05.2020
3539 Clouds 6 1016 58 0 2.64 188 21:58 06.05.2020
3540 Clouds 6 1016 58 0 2.64 188 21:40 06.05.2020
3541 Clouds 7 1015 54 0 2.66 185 21:21 06.05.2020
3542 Clouds 7 1015 54 0 2.66 185 20:54 06.05.2020
3543 Clouds 7 1015 54 0 2.66 185 20:36 06.05.2020
3544 Clouds 8 1016 52 0 2.96 184 20:18 06.05.2020
3545 Clouds 8 1016 52 0 2.96 184 19:55 06.05.2020
3546 Clouds 8 1016 52 0 2.96 184 19:36 06.05.2020
3547 Clouds 8 1016 49 0 3.1 187 19:18 06.05.2020
3548 Clouds 8 1016 49 0 3.1 187 18:54 06.05.2020
3549 Clouds 8 1016 49 0 3.1 187 18:36 06.05.2020
3550 Clouds 9 1015 46 0 2.83 189 18:18 06.05.2020
3551 Clouds 9 1015 46 0 2.83 189 17:54 06.05.2020
3552 Clouds 9 1015 46 0 2.83 189 17:36 06.05.2020
3553 Clouds 10 1013 43 0 2.53 201 17:18 06.05.2020
3554 Clouds 10 1013 43 0 2.53 201 16:54 06.05.2020
3555 Clouds 10 1013 43 0 2.53 201 16:36 06.05.2020
3556 Clouds 11 1011 40 0 2.73 212 16:18 06.05.2020
3557 Clouds 11 1011 40 0 2.73 212 15:42 06.05.2020
3558 Clouds 12 1010 36 0 2.96 224 15:22 06.05.2020
3559 Clouds 12 1010 36 0 2.96 224 14:56 06.05.2020
3560 Clouds 12 1010 36 0 2.96 224 14:38 06.05.2020
3561 Clouds 13 1009 34 0 3.69 261 14:18 06.05.2020
3562 Clouds 13 1009 34 0 3.69 261 13:57 06.05.2020
3563 Clouds 13 1009 34 0 3.69 261 13:37 06.05.2020
3564 Clouds 14 1007 31 0 4.48 244 13:18 06.05.2020
3565 Clouds 14 1007 31 0 4.48 244 12:42 06.05.2020
3566 Clouds 14 1007 32 0 3.78 243 12:24 06.05.2020
3567 Clouds 14 1007 32 0 3.78 243 11:41 06.05.2020
3568 Clouds 13 1007 37 0 2.45 234 11:22 06.05.2020
3569 Clouds 13 1007 37 0 2.45 234 10:58 06.05.2020
3570 Clouds 13 1007 37 0 2.45 234 10:39 06.05.2020
3571 Rain 12 1007 40 0 3.44 256 10:19 06.05.2020
3572 Rain 12 1007 40 0 3.44 256 09:56 06.05.2020
3573 Rain 12 1007 40 0 3.44 256 09:36 06.05.2020
3574 Clouds 14 1009 33 0 3.06 180 09:18 06.05.2020
3575 Clouds 14 1009 33 0 3.06 180 08:41 06.05.2020
3576 Clouds 13 1011 35 0 3.17 187 08:20 06.05.2020
3577 Clouds 13 1011 35 0 3.17 187 07:55 06.05.2020
3578 Clouds 13 1011 35 0 3.17 187 07:36 06.05.2020
3579 Clouds 12 1012 38 0 3.29 189 07:18 06.05.2020
3580 Clouds 12 1012 38 0 3.29 189 06:43 06.05.2020
3581 Clouds 11 1014 41 0 3.28 186 06:19 06.05.2020
3582 Clouds 11 1014 41 0 3.28 186 05:37 06.05.2020
3583 Clear 10 1014 44 0 3.28 183 04:49 06.05.2020
3584 Clear 8 1015 49 0 3.21 177 03:49 06.05.2020
3585 Clear 7 1016 53 0 3.09 173 03:24 06.05.2020
3586 Clear 7 1016 53 0 3.09 173 02:38 06.05.2020
3587 Clear 6 1017 60 0 2.81 174 02:20 06.05.2020
3588 Clear 6 1017 60 0 2.81 174 01:41 06.05.2020
3589 Clear 5 1016 62 0 2.67 175 00:56 06.05.2020
3590 Clear 5 1016 62 0 2.67 175 00:31 06.05.2020
3591 Clear 6 1015 59 0 2.99 179 23:58 05.05.2020
3592 Clear 6 1015 59 0 2.99 179 23:39 05.05.2020
3593 Clear 7 1015 57 0 3.35 176 23:19 05.05.2020
3594 Clear 7 1015 57 0 3.35 176 23:19 05.05.2020
3595 Clear 7 1015 57 0 3.35 176 22:42 05.05.2020
3596 Clear 7 1014 55 0 3.35 175 22:20 05.05.2020
3597 Clear 7 1014 55 0 3.35 175 21:59 05.05.2020
3598 Clear 7 1014 55 0 3.35 175 21:41 05.05.2020
3599 Clouds 8 1014 52 0 3.36 174 21:21 05.05.2020
3600 Clear 8 1015 53 0 3.08 176 20:59 05.05.2020
3601 Clear 8 1015 53 0 3.08 176 20:39 05.05.2020
3602 Clouds 9 1015 51 0 2.99 181 20:19 05.05.2020
3603 Clouds 9 1015 51 0 2.99 181 19:58 05.05.2020
3604 Clouds 9 1015 51 0 2.99 181 19:37 05.05.2020
3605 Clouds 9 1015 51 0 2.99 181 19:37 05.05.2020
3606 Clouds 9 1016 49 0 2.32 184 19:18 05.05.2020
3607 Clouds 9 1016 49 0 2.32 184 18:55 05.05.2020
3608 Clouds 9 1016 49 0 2.32 184 18:37 05.05.2020
3609 Clouds 9 1016 49 0 2.32 184 18:37 05.05.2020
3610 Clouds 10 1016 47 0 1.58 193 18:19 05.05.2020
3611 Clouds 10 1016 47 0 1.58 193 17:43 05.05.2020
3612 Clouds 10 1015 45 0 1.17 234 17:25 05.05.2020
3613 Clouds 10 1015 45 0 1.17 234 16:58 05.05.2020
3614 Clouds 10 1015 45 0 1.17 234 16:37 05.05.2020
3615 Clouds 11 1013 43 0 1.04 271 16:18 05.05.2020
3616 Clouds 11 1013 43 0 1.04 271 15:56 05.05.2020
3617 Clouds 11 1013 43 0 1.04 271 15:38 05.05.2020
3618 Clouds 12 1012 41 0 2.16 292 15:19 05.05.2020
3619 Clouds 12 1012 41 0 2.16 292 14:54 05.05.2020
3620 Clouds 12 1012 41 0 2.16 292 14:36 05.05.2020
3621 Clouds 12 1010 40 0 0.54 344 14:18 05.05.2020
3622 Clouds 12 1010 40 0 0.54 344 13:54 05.05.2020
3623 Clouds 12 1010 40 0 0.54 344 13:36 05.05.2020
3624 Clouds 13 1009 38 0 0.88 19 13:18 05.05.2020
3625 Clouds 13 1009 12 0 0.88 19 12:40 05.05.2020
3626 Clouds 13 1007 12 0 0.57 346 12:22 05.05.2020
3627 Clouds 13 1007 12 0 0.57 346 11:59 05.05.2020
3628 Clouds 13 1007 12 0 0.57 346 11:40 05.05.2020
3629 Rain 13 1007 13 0 2.52 297 11:19 05.05.2020
3630 Rain 13 1007 13 0 2.52 297 10:54 05.05.2020
3631 Rain 13 1007 13 0 2.52 297 10:36 05.05.2020
3632 Clouds 16 1008 9 0 2.34 239 10:18 05.05.2020
3633 Clouds 16 1008 9 0 2.34 239 09:44 05.05.2020
3634 Clouds 15 1009 10 0 2.06 220 09:25 05.05.2020
3635 Clouds 15 1009 10 0 2.06 220 08:56 05.05.2020
3636 Clouds 15 1009 10 0 2.06 220 08:37 05.05.2020
3637 Rain 14 1011 11 0 2.23 205 08:18 05.05.2020
3638 Rain 14 1011 11 0 2.23 205 07:43 05.05.2020
3639 Rain 13 1013 12 0 2.01 191 07:20 05.05.2020
3640 Rain 13 1013 12 0 2.01 191 06:51 05.05.2020
3641 Rain 13 1013 12 0 2.01 191 06:30 05.05.2020
3642 Rain 12 1014 13 0 2.22 178 05:51 05.05.2020
3643 Snow 11 1016 15 0 2.09 170 04:58 05.05.2020
3644 Clouds 8 1017 17 0 1.39 176 02:37 05.05.2020
3645 Clouds 7 1017 18 0 1.88 177 00:56 05.05.2020
3646 Clouds 7 1017 18 0 1.88 177 00:31 05.05.2020
3647 Clouds 8 1017 18 0 1.89 171 23:48 04.05.2020
3648 Clouds 8 1017 17 0 1.78 165 23:26 04.05.2020
3649 Clouds 8 1017 17 0 1.78 165 22:59 04.05.2020
3650 Clouds 8 1017 17 0 1.78 165 22:41 04.05.2020
3651 Snow 9 1017 17 0 1.94 155 22:22 04.05.2020
3652 Snow 9 1017 17 0 1.94 155 22:22 04.05.2020
3653 Snow 9 1017 17 0 1.94 155 22:22 04.05.2020
3654 Snow 9 1017 17 0 1.94 155 21:57 04.05.2020
3655 Snow 9 1017 17 0 1.94 155 21:37 04.05.2020
3656 Snow 9 1017 17 0 1.94 155 21:37 04.05.2020
3657 Snow 9 1016 18 0 2.26 174 21:19 04.05.2020
3658 Snow 9 1016 18 0 2.26 174 20:41 04.05.2020
3659 Snow 9 1016 18 0 2.26 174 20:41 04.05.2020
3660 Snow 9 1016 18 0 2.26 174 20:41 04.05.2020
3661 Rain 9 1016 50 0 2.31 168 20:21 04.05.2020
3662 Rain 9 1016 17 0 2.31 168 19:56 04.05.2020
3663 Rain 9 1016 17 0 2.31 168 19:37 04.05.2020
3664 Rain 10 1016 49 0 2.45 153 19:18 04.05.2020
3665 Rain 10 1016 17 0 2.46 153 18:39 04.05.2020
3666 Rain 10 1016 17 0 2.31 144 18:20 04.05.2020
3667 Rain 10 1016 17 0 2.31 144 18:20 04.05.2020
3668 Rain 10 1016 17 0 2.31 144 17:57 04.05.2020
3669 Rain 10 1016 17 0 2.31 144 17:38 04.05.2020
3670 Rain 11 1016 16 0 2.05 135 17:20 04.05.2020
3671 Rain 11 1016 16 0 2.05 135 16:56 04.05.2020
3672 Rain 11 1016 46 0 2.04 135 16:37 04.05.2020
3673 Rain 12 1014 16 0 2.98 150 16:19 04.05.2020
3674 Rain 12 1014 16 0 2.98 150 15:42 04.05.2020
3675 Rain 12 1012 16 0 3.41 150 15:22 04.05.2020
3676 Rain 12 1012 16 0 3.41 150 14:53 04.05.2020
3677 Rain 12 1012 16 0 3.41 150 14:53 04.05.2020
3678 Rain 12 1012 16 0 3.41 150 14:53 04.05.2020
3679 Rain 12 1012 16 0 3.41 150 14:53 04.05.2020
3680 Rain 12 1012 16 0 3.41 150 14:53 04.05.2020
3681 Snow 13 1010 13 0 2.89 177 14:24 04.05.2020
3682 Clouds 14 1010 12 0 2.84 167 14:24 04.05.2020
3683 Snow 13 1010 13 0 2.89 177 14:24 04.05.2020
3684 Clouds 14 1010 12 0 2.84 167 14:24 04.05.2020
3685 Clouds 15 1008 11 0 2 184 13:22 04.05.2020
3686 Clouds 15 1008 11 0 2 184 13:22 04.05.2020
3687 Clouds 15 1008 11 0 2 184 13:22 04.05.2020
3688 Clouds 15 1008 11 0 2 184 13:22 04.05.2020
3689 Clouds 15 1008 11 0 2 184 13:22 04.05.2020
3690 Clouds 15 1008 11 0 2 184 12:44 04.05.2020
3691 Clouds 15 1008 11 0 2 184 12:44 04.05.2020
3692 Clouds 15 1008 11 0 2 184 12:44 04.05.2020
3693 Clouds 15 1008 11 0 2 184 12:44 04.05.2020
3694 Clouds 15 1008 11 0 2 184 12:44 04.05.2020
3695 Clouds 15 1009 10 0 1.87 260 11:27 04.05.2020
3696 Clouds 15 1009 10 0 1.87 260 11:27 04.05.2020
3697 Clouds 15 1009 10 0 1.87 260 11:27 04.05.2020
3698 Clouds 15 1009 10 0 1.87 260 11:27 04.05.2020
3699 Clouds 15 1009 10 0 1.87 260 11:27 04.05.2020
3700 Clouds 15 1011 10 0 1.57 269 09:29 04.05.2020
3701 Rain 13 1013 14 0 1.46 198 07:54 04.05.2020
3702 Rain 13 1013 14 0 1.46 198 07:34 04.05.2020
3703 Rain 10 1016 18 0 0.74 208 05:55 04.05.2020
3704 Snow 8 1018 20 0 0.56 194 04:52 04.05.2020
3705 Clouds 6 1019 23 0 0.29 153 02:56 04.05.2020
3706 Clouds 6 1019 24 0 0.59 208 01:45 04.05.2020
3707 Clouds 6 1019 24 0 0.59 208 01:45 04.05.2020
3708 Snow 5 1017 26 0 0.96 170 00:23 04.05.2020
3709 Snow 5 1017 26 0 0.96 170 00:22 04.05.2020
3710 Snow 5 1017 26 0 0.96 170 23:44 03.05.2020
3711 Snow 5 1018 26 0 1.13 201 23:24 03.05.2020
3712 Snow 5 1018 26 0 1.13 201 22:44 03.05.2020
3713 Snow 5 1018 26 0 1.13 201 22:44 03.05.2020
3714 Snow 6 1018 23 0 1.74 255 22:25 03.05.2020
3715 Snow 6 1018 23 0 1.74 255 21:56 03.05.2020
3716 Snow 6 1018 23 0 1.74 255 21:38 03.05.2020
3717 Snow 7 1018 23 0 1.79 197 21:20 03.05.2020
3718 Snow 7 1018 23 0 1.79 197 20:42 03.05.2020
3719 Snow 7 1018 23 0 1.79 197 20:42 03.05.2020
3720 Rain 8 1018 21 0 2.27 174 20:21 03.05.2020
3721 Rain 8 1018 21 0 2.27 174 19:50 03.05.2020
3722 Rain 8 1018 21 0 2.27 174 19:50 03.05.2020
3723 Rain 8 1018 21 0 2.27 174 19:50 03.05.2020
3724 Rain 8 1018 21 0 2.27 174 19:31 03.05.2020
3725 Rain 8 1017 21 0 2.68 172 18:58 03.05.2020
3726 Rain 8 1017 21 0 2.68 172 18:38 03.05.2020
3727 Rain 8 1017 21 0 2.68 172 18:38 03.05.2020
3728 Rain 8 1017 21 0 2.68 172 18:38 03.05.2020
3729 Rain 8 1017 21 0 2.68 172 18:38 03.05.2020
3730 Rain 8 1017 21 0 2.68 172 18:38 03.05.2020
3731 Rain 8 1017 19 0 3.44 165 18:19 03.05.2020
3732 Rain 8 1017 19 0 3.44 165 17:41 03.05.2020
3733 Rain 9 1017 18 0 3.44 170 17:21 03.05.2020
3734 Rain 9 1017 18 0 3.44 170 16:46 03.05.2020
3735 Rain 11 1016 15 0 3.81 174 16:21 03.05.2020
3736 Rain 11 1016 15 0 3.81 174 15:59 03.05.2020
3737 Rain 11 1016 15 0 3.81 174 15:40 03.05.2020
3738 Clouds 12 1014 12 0 2.53 173 15:20 03.05.2020
3739 Clouds 12 1014 12 0 2.53 173 14:58 03.05.2020
3740 Clouds 12 1014 12 0 2.53 173 14:40 03.05.2020
3741 Clouds 13 1011 11 0 3.03 216 14:21 03.05.2020
3742 Clouds 13 1011 11 0 3.03 216 13:54 03.05.2020
3743 Clouds 15 1009 9 0 2.2 236 13:21 03.05.2020
3744 Clouds 15 1009 9 0 2.2 236 13:21 03.05.2020
3745 Clouds 15 1009 9 0 2.2 236 13:21 03.05.2020
3746 Clouds 15 1009 9 0 2.2 236 13:21 03.05.2020
3747 Clouds 15 1009 9 0 2.2 236 13:21 03.05.2020
3748 Clouds 15 1009 9 0 2.2 236 12:45 03.05.2020
3749 Clouds 15 1008 9 0 0.43 240 12:18 03.05.2020
3750 Clouds 15 1008 9 0 0.43 240 11:56 03.05.2020
3751 Clouds 15 1008 9 0 0.43 240 11:37 03.05.2020
3752 Clouds 15 1009 10 0 1.12 261 11:19 03.05.2020
3753 Clouds 15 1009 10 0 1.12 261 11:19 03.05.2020
3754 Clouds 15 1009 10 0 1.12 261 10:46 03.05.2020
3755 Clouds 15 1009 10 0 1.12 261 10:46 03.05.2020
3756 Clouds 15 1009 10 0 1.12 261 10:46 03.05.2020
3757 Clouds 15 1009 10 0 1.12 261 10:46 03.05.2020
3758 Clouds 15 1010 10 0 1.26 236 09:58 03.05.2020
3759 Clouds 15 1010 10 0 1.26 236 09:36 03.05.2020
3760 Clouds 15 1010 10 0 1.26 236 09:36 03.05.2020
3761 Clouds 14 1012 10 0 1.3 203 08:56 03.05.2020
3762 Clouds 14 1012 10 0 1.3 203 08:56 03.05.2020
3763 Clouds 14 1012 10 0 1.3 203 08:56 03.05.2020
3764 Clouds 13 1013 11 0 1.25 187 08:26 03.05.2020
3765 Clouds 13 1013 11 0 1.25 187 08:26 03.05.2020
3766 Clouds 13 1013 11 0 1.25 187 08:26 03.05.2020
3767 Clouds 13 1013 11 0 1.25 187 07:40 03.05.2020
3768 Clouds 13 1013 11 0 1.25 187 07:40 03.05.2020
3769 Clouds 11 1016 12 0 1.1 175 06:20 03.05.2020
3770 Clouds 11 1016 12 0 1.1 175 05:47 03.05.2020
3771 Clouds 10 1018 12 0 0.9 152 04:56 03.05.2020
3772 Clouds 9 1019 13 0 0.2 90 04:27 03.05.2020
3773 Clouds 8 1020 13 0 0.31 53 02:59 03.05.2020
3774 Clouds 6 1020 13 0 0.6 103 02:24 03.05.2020
3775 Clouds 6 1020 13 0 0.6 103 01:45 03.05.2020
3776 Clouds 6 1019 14 0 0.48 108 01:27 03.05.2020
3777 Clouds 6 1019 14 0 0.48 108 01:27 03.05.2020
3778 Clouds 6 1019 14 0 0.48 108 00:55 03.05.2020
3779 Clouds 6 1019 14 0 0.48 108 00:37 03.05.2020
3780 Clouds 6 1019 14 0 0.48 108 00:37 03.05.2020
3781 Clouds 6 1018 14 0 0.67 94 00:18 03.05.2020
3782 Clouds 6 1018 14 0 0.67 94 23:43 02.05.2020
3783 Clouds 7 1018 14 0 0.17 67 23:24 02.05.2020
3784 Clouds 7 1018 14 0 0.17 67 22:43 02.05.2020
3785 Clouds 7 1019 13 0 0.23 197 22:24 02.05.2020
3786 Clouds 7 1019 13 0 0.23 197 22:24 02.05.2020
3787 Clouds 7 1019 13 0 0.23 197 21:56 02.05.2020
3788 Clouds 7 1019 13 0 0.23 197 21:38 02.05.2020
3789 Clouds 7 1019 13 0 0.21 170 21:19 02.05.2020
3790 Clouds 7 1019 13 0 0.21 170 20:57 02.05.2020
3791 Clouds 7 1019 13 0 0.21 170 20:37 02.05.2020
3792 Clouds 8 1019 13 0 0.55 176 20:19 02.05.2020
3793 Clouds 8 1019 13 0 0.55 176 19:57 02.05.2020
3794 Clouds 8 1019 13 0 0.55 176 19:38 02.05.2020
3795 Clouds 9 1019 12 0 1.09 173 19:19 02.05.2020
3796 Clouds 9 1019 12 0 1.09 173 18:41 02.05.2020
3797 Clouds 9 1018 11 0 1.17 144 18:23 02.05.2020
3798 Clouds 9 1018 11 0 1.17 144 17:58 02.05.2020
3799 Clouds 9 1018 11 0 1.17 144 17:39 02.05.2020
3800 Clouds 10 1018 10 0 1.43 118 17:20 02.05.2020
3801 Clouds 10 1018 10 0 1.43 118 16:59 02.05.2020
3802 Clouds 10 1018 10 0 1.43 118 16:39 02.05.2020
3803 Clouds 11 1017 10 0 1.25 93 16:21 02.05.2020
3804 Clouds 11 1017 10 0 1.25 93 15:43 02.05.2020
3805 Clouds 12 1015 9 0 1.2 82 15:20 02.05.2020
3806 Clouds 12 1015 9 0 1.2 82 15:20 02.05.2020
3807 Clouds 12 1015 9 0 1.2 82 14:58 02.05.2020
3808 Clouds 12 1015 9 0 1.2 82 14:39 02.05.2020
3809 Clouds 13 1012 9 0 1.23 106 14:20 02.05.2020
3810 Clouds 13 1012 9 0 1.23 106 13:40 02.05.2020
3811 Clouds 14 1011 8 0 0.87 53 13:22 02.05.2020
3812 Clouds 14 1011 8 0 0.87 53 12:44 02.05.2020
3813 Clouds 14 1011 8 0 1.45 25 12:25 02.05.2020
3814 Clouds 14 1011 8 0 1.45 25 11:59 02.05.2020
3815 Clouds 14 1011 8 0 1.45 25 11:41 02.05.2020
3816 Clouds 15 1011 8 0 1.73 18 11:22 02.05.2020
3817 Clouds 15 1011 8 0 1.73 18 10:59 02.05.2020
3818 Clouds 15 1011 8 0 1.73 18 10:39 02.05.2020
3819 Clouds 14 1013 8 0 1.24 17 10:20 02.05.2020
3820 Clouds 14 1013 8 0 1.24 17 10:20 02.05.2020
3821 Clouds 14 1013 8 0 1.24 17 09:57 02.05.2020
3822 Clouds 14 1013 8 0 1.24 17 09:38 02.05.2020
3823 Clouds 14 1014 8 0 0.86 354 09:20 02.05.2020
3824 Clouds 14 1014 8 0 0.6 16 09:20 02.05.2020
3825 Clouds 14 1014 8 0 0.86 354 08:49 02.05.2020
3826 Clouds 14 1014 8 0 0.86 354 08:30 02.05.2020
3827 Clouds 13 1015 9 0 0.48 335 07:48 02.05.2020
3828 Clouds 12 1017 9 0 0.27 329 07:29 02.05.2020
3829 Clouds 12 1017 9 0 0.27 329 06:52 02.05.2020
3830 Clouds 11 1018 10 0 0.1 82 05:30 02.05.2020
3831 Clouds 9 1020 10 0 0.43 68 04:59 02.05.2020
3832 Clouds 7 1021 11 0 0.58 42 04:25 02.05.2020
3833 Clouds 7 1021 11 0 0.58 42 03:34 02.05.2020
3834 Clouds 6 1022 12 0 0.82 29 02:37 02.05.2020
3835 Clouds 4 1023 14 0 1.25 19 01:51 02.05.2020
3836 Clouds 3 1022 15 0 1.35 18 00:58 02.05.2020
3837 Clouds 3 1022 15 0 1.35 18 00:36 02.05.2020
3838 Clouds 3 1022 14 0 1.58 17 00:18 02.05.2020
3839 Clouds 3 1022 14 0 1.58 17 23:39 01.05.2020
3840 Clouds 4 1022 14 0 1.79 22 23:20 01.05.2020
3841 Clouds 4 1022 14 0 1.79 22 22:57 01.05.2020
3842 Clouds 4 1022 14 0 1.79 22 22:38 01.05.2020
3843 Clouds 5 1022 13 0 1.78 34 22:18 01.05.2020
3844 Clouds 5 1022 13 0 1.78 34 21:57 01.05.2020
3845 Clouds 5 1022 13 0 1.78 34 21:38 01.05.2020
3846 Clear 5 1022 13 0 1.73 34 21:18 01.05.2020
3847 Clear 5 1022 13 0 1.73 34 21:18 01.05.2020
3848 Clear 5 1022 13 0 1.73 34 21:18 01.05.2020
3849 Clear 5 1022 13 0 1.73 34 20:56 01.05.2020
3850 Clear 5 1022 13 0 1.73 34 20:37 01.05.2020
3851 Clouds 6 1022 12 0 2 43 20:19 01.05.2020
3852 Clouds 6 1022 12 0 2 43 19:42 01.05.2020
3853 Clouds 7 1022 12 0 2.06 47 19:22 01.05.2020
3854 Clouds 7 1022 12 0 2.06 47 18:58 01.05.2020
3855 Clouds 7 1022 12 0 2.06 47 18:40 01.05.2020
3856 Clouds 8 1021 11 0 2.2 47 18:20 01.05.2020
3857 Clouds 8 1021 11 0 2.2 47 17:57 01.05.2020
3858 Clouds 8 1021 11 0 2.2 47 17:39 01.05.2020
3859 Clouds 9 1021 11 0 2.4 44 17:20 01.05.2020
3860 Clouds 9 1021 11 0 2.4 44 16:55 01.05.2020
3861 Clouds 9 1021 11 0 2.4 44 16:55 01.05.2020
3862 Clouds 9 1021 11 0 2.4 44 16:37 01.05.2020
3863 Clouds 9 1020 10 0 2.37 46 16:19 01.05.2020
3864 Clouds 9 1020 10 0 2.37 46 15:55 01.05.2020
3865 Clouds 9 1020 10 0 2.37 46 15:36 01.05.2020
3866 Clouds 11 1018 9 0 2.7 45 15:18 01.05.2020
3867 Clouds 11 1018 9 0 2.7 45 14:41 01.05.2020
3868 Clouds 12 1015 8 0 2.59 54 14:23 01.05.2020
3869 Clouds 12 1015 8 0 2.59 54 13:41 01.05.2020
3870 Clouds 13 1013 8 0 1.67 34 13:23 01.05.2020
3871 Clouds 13 1013 8 0 1.67 34 12:58 01.05.2020
3872 Clouds 13 1013 8 0 1.67 34 12:40 01.05.2020
3873 Clouds 13 1013 8 0 1.19 19 12:20 01.05.2020
3874 Clouds 13 1013 8 0 1.19 19 11:59 01.05.2020
3875 Clouds 13 1013 8 0 1.19 19 11:40 01.05.2020
3876 Clear 13 1013 8 0 1.06 19 11:19 01.05.2020
3877 Clear 13 1013 8 0 1.06 19 10:41 01.05.2020
3878 Clear 13 1014 8 0 0.79 28 10:20 01.05.2020
3879 Clear 13 1014 8 0 0.79 28 09:59 01.05.2020
3880 Clear 13 1014 8 0 0.79 28 09:41 01.05.2020
3881 Clear 13 1016 8 0 0.61 28 09:18 01.05.2020
3882 Clear 13 1015 8 0 0.42 3 08:46 01.05.2020
3883 Clear 12 1017 8 0 0.43 356 08:28 01.05.2020
3884 Clear 12 1017 8 0 0.43 356 07:56 01.05.2020
3885 Clear 12 1017 8 0 0.43 356 07:37 01.05.2020
3886 Clear 12 1018 9 0 0.46 357 06:59 01.05.2020
3887 Clear 10 1019 10 0 0.62 355 06:18 01.05.2020
3888 Clear 9 1021 11 0 0.77 356 05:21 01.05.2020
3889 Clear 7 1022 12 0 1.05 345 03:43 01.05.2020
3890 Clear 6 1023 12 0 1.42 344 02:52 01.05.2020
3891 Clear 5 1023 13 0 1.33 343 02:34 01.05.2020
3892 Clear 3 1023 14 0 1.6 341 01:47 01.05.2020
3893 Clear 2 1023 15 0 1.57 346 01:27 01.05.2020
3894 Clear 2 1023 15 0 1.57 346 00:40 01.05.2020
3895 Clear 3 1022 15 0 1.73 352 00:21 01.05.2020
3896 Clear 3 1022 15 0 1.73 352 23:57 30.04.2020
3897 Clear 3 1022 15 0 1.73 352 23:38 30.04.2020
3898 Clear 3 1022 15 0 1.73 352 23:38 30.04.2020
3899 Clear 3 1022 14 0 1.87 350 23:20 30.04.2020
3900 Clear 3 1022 14 0 1.87 350 22:55 30.04.2020
3901 Clear 3 1022 14 0 1.87 350 22:37 30.04.2020
3902 Clear 4 1022 14 0 1.95 351 22:18 30.04.2020
3903 Clear 4 1022 14 0 1.95 351 21:41 30.04.2020
3904 Clear 4 1022 14 0 2.01 353 21:22 30.04.2020
3905 Clear 4 1022 14 0 2.01 353 20:58 30.04.2020
3906 Clear 4 1022 14 0 2.01 353 20:40 30.04.2020
3907 Clear 5 1022 13 0 1.96 351 20:18 30.04.2020
3908 Clear 5 1022 13 0 1.96 351 19:46 30.04.2020
3909 Clear 6 1022 13 0 1.71 340 19:26 30.04.2020
3910 Clear 6 1022 13 0 1.71 340 18:59 30.04.2020
3911 Clear 6 1022 13 0 1.71 340 18:39 30.04.2020
3912 Clear 7 1022 12 0 1.95 323 18:21 30.04.2020
3913 Clear 7 1022 12 0 1.95 323 17:58 30.04.2020
3914 Clear 7 1022 12 0 1.95 323 17:39 30.04.2020
3915 Clear 8 1021 12 0 1.77 330 17:20 30.04.2020
3916 Clear 8 1021 12 0 1.77 330 16:57 30.04.2020
3917 Clear 8 1021 12 0 1.77 330 16:38 30.04.2020
3918 Clear 8 1020 11 0 1.62 334 16:18 30.04.2020
3919 Clear 8 1020 11 0 1.62 334 15:45 30.04.2020
3920 Clear 9 1018 10 0 1.68 342 15:24 30.04.2020
3921 Clear 9 1018 10 0 1.68 342 14:56 30.04.2020
3922 Clear 9 1018 10 0 1.68 342 14:38 30.04.2020
3923 Clouds 11 1015 9 0 2.68 18 14:18 30.04.2020
3924 Clouds 11 1015 9 0 2.68 18 13:54 30.04.2020
3925 Clouds 11 1015 9 0 2.68 18 13:36 30.04.2020
3926 Clouds 11 1015 9 0 2.68 18 13:36 30.04.2020
3927 Clouds 12 1014 9 0 3.98 14 13:18 30.04.2020
3928 Clouds 12 1014 9 0 3.98 14 12:41 30.04.2020
3929 Clouds 12 1014 9 0 3.98 14 12:41 30.04.2020
3930 Clouds 13 1013 8 0 4.79 7 12:19 30.04.2020
3931 Clouds 13 1013 8 0 4.79 7 11:58 30.04.2020
3932 Clouds 13 1013 8 0 4.79 7 11:36 30.04.2020
3933 Clouds 13 1014 9 0 4.67 1 11:18 30.04.2020
3934 Clouds 13 1014 9 0 4.67 1 10:41 30.04.2020
3935 Clouds 13 1015 9 0 4.19 354 10:21 30.04.2020
3936 Clouds 13 1015 9 0 4.19 354 09:57 30.04.2020
3937 Clouds 13 1015 9 0 4.19 354 09:39 30.04.2020
3938 Clouds 12 1016 9 0 2.72 353 09:20 30.04.2020
3939 Clouds 12 1016 9 0 2.72 353 08:47 30.04.2020
3940 Clouds 12 1017 10 0 2.12 357 08:26 30.04.2020
3941 Clouds 12 1017 10 0 2.12 357 07:48 30.04.2020
3942 Clouds 11 1018 10 0 1.67 2 07:26 30.04.2020
3943 Clouds 11 1018 10 0 1.67 2 06:59 30.04.2020
3944 Clouds 11 1018 10 0 1.67 2 06:59 30.04.2020
3945 Clouds 11 1018 10 0 1.67 2 06:32 30.04.2020
3946 Clouds 10 1019 12 0 1.46 10 05:47 30.04.2020
3947 Clouds 8 1020 14 0 1.46 9 04:46 30.04.2020
3948 Clouds 7 1021 15 0 1.4 351 04:24 30.04.2020
3949 Clouds 6 1022 17 0 1.54 327 02:50 30.04.2020
3950 Clouds 4 1022 19 0 1.51 305 02:28 30.04.2020
3951 Clouds 4 1022 19 0 1.51 305 01:37 30.04.2020
3952 Clouds 4 1022 20 0 1.25 309 00:53 30.04.2020
3953 Clouds 4 1021 20 0 0.9 285 00:24 30.04.2020
3954 Clouds 4 1021 20 0 0.9 285 23:58 29.04.2020
3955 Clouds 4 1021 20 0 0.9 285 23:40 29.04.2020
3956 Clouds 5 1021 21 0 1.22 278 23:22 29.04.2020
3957 Clouds 5 1021 21 0 1.22 278 22:58 29.04.2020
3958 Clouds 5 1021 21 0 1.22 278 22:38 29.04.2020
3959 Clouds 5 1021 20 0 1.73 290 22:18 29.04.2020
3960 Clouds 5 1021 20 0 1.73 290 21:38 29.04.2020
3961 Clouds 6 1021 19 0 0.66 294 21:20 29.04.2020
3962 Clouds 6 1021 19 0 0.66 294 20:58 29.04.2020
3963 Clouds 6 1021 19 0 0.66 294 20:39 29.04.2020
3964 Clouds 7 1021 18 0 0.38 318 20:19 29.04.2020
3965 Clouds 7 1021 18 0 0.38 318 19:54 29.04.2020
3966 Clouds 7 1021 18 0 0.38 318 19:36 29.04.2020
3967 Snow 7 1021 17 0 0.36 64 19:18 29.04.2020
3968 Snow 7 1021 17 0 0.36 64 18:41 29.04.2020
3969 Snow 7 1020 17 0 0.77 67 18:20 29.04.2020
3970 Snow 7 1020 17 0 0.77 67 17:55 29.04.2020
3971 Snow 7 1020 17 0 0.77 67 17:55 29.04.2020
3972 Snow 7 1020 17 0 0.77 67 17:37 29.04.2020
3973 Snow 7 1019 16 0 0.62 47 17:18 29.04.2020
3974 Snow 7 1019 16 0 0.62 47 16:37 29.04.2020
3975 Snow 8 1018 15 0 0.29 288 16:18 29.04.2020
3976 Snow 8 1018 15 0 0.29 288 15:56 29.04.2020
3977 Snow 8 1018 15 0 0.29 288 15:38 29.04.2020
3978 Clouds 9 1016 14 0 0.83 346 15:19 29.04.2020
3979 Clouds 9 1016 14 0 0.83 346 14:45 29.04.2020
3980 Clouds 10 1014 13 0 0.81 50 14:26 29.04.2020
3981 Clouds 10 1014 13 0 0.81 50 13:58 29.04.2020
3982 Clouds 10 1014 13 0 0.81 50 13:39 29.04.2020
3983 Clouds 11 1012 12 0 2.17 23 13:19 29.04.2020
3984 Clouds 11 1012 12 0 2.17 23 12:56 29.04.2020
3985 Clouds 11 1011 13 0 3.42 14 12:37 29.04.2020
3986 Clouds 11 1011 13 0 3.42 14 12:18 29.04.2020
3987 Clouds 11 1011 13 0 3.42 14 11:39 29.04.2020
3988 Clouds 11 1011 13 0 3.42 14 11:39 29.04.2020
3989 Rain 11 1010 14 0 4.01 13 11:20 29.04.2020
3990 Rain 11 1010 14 0 4.01 13 10:55 29.04.2020
3991 Rain 11 1010 14 0 4.01 13 10:37 29.04.2020
3992 Rain 11 1011 13 0 2.9 28 10:18 29.04.2020
3993 Rain 11 1011 13 0 2.9 28 09:41 29.04.2020
3994 Snow 9 1013 18 0 1.84 31 09:22 29.04.2020
3995 Snow 9 1013 18 0 1.84 31 08:45 29.04.2020
3996 Snow 8 1015 20 0 0.81 62 08:26 29.04.2020
3997 Snow 8 1015 20 0 0.81 62 07:57 29.04.2020
3998 Snow 8 1015 20 0 0.81 62 07:38 29.04.2020
3999 Snow 7 1016 21 0 1.14 82 07:18 29.04.2020
4000 Snow 7 1016 21 0 1.14 82 06:48 29.04.2020
4001 Snow 7 1016 21 0 1.14 82 06:29 29.04.2020
4002 Snow 6 1018 22 0 0.67 98 05:21 29.04.2020
4003 Snow 5 1019 22 0 0.46 159 04:21 29.04.2020
4004 Snow 5 1019 22 0 0.46 159 03:55 29.04.2020
4005 Clouds 4 1019 23 0 0.72 132 02:32 29.04.2020
4006 Clouds 2 1020 22 0 0.67 357 01:44 29.04.2020
4007 Clouds 2 1019 23 0 0.84 2 01:20 29.04.2020
4008 Clouds 2 1019 23 0 0.84 2 00:39 29.04.2020
4009 Snow 3 1019 23 0 0.94 17 00:18 29.04.2020
4010 Snow 3 1019 23 0 0.94 17 23:47 28.04.2020
4011 Snow 3 1019 24 0 0.93 37 23:23 28.04.2020
4012 Snow 3 1019 24 0 0.93 37 22:40 28.04.2020
4013 Snow 4 1019 24 0 0.71 26 22:22 28.04.2020
4014 Snow 4 1019 24 0 0.71 26 21:59 28.04.2020
4015 Snow 3 1019 24 0 0.56 34 21:41 28.04.2020
4016 Snow 4 1019 24 0 0.72 67 21:23 28.04.2020
4017 Snow 4 1019 24 0 0.72 67 20:59 28.04.2020
4018 Snow 4 1019 24 0 0.72 67 20:59 28.04.2020
4019 Snow 4 1019 24 0 0.72 67 20:40 28.04.2020
4020 Snow 4 1019 23 0 1.24 104 20:21 28.04.2020
4021 Snow 4 1019 23 0 1.24 104 19:58 28.04.2020
4022 Snow 4 1019 23 0 1.24 104 19:40 28.04.2020
4023 Snow 4 1019 22 0 1.64 130 19:21 28.04.2020
4024 Snow 4 1019 22 0 1.64 130 18:58 28.04.2020
4025 Snow 4 1019 22 0 1.64 130 18:38 28.04.2020
4026 Snow 5 1019 21 0 1.51 127 18:19 28.04.2020
4027 Snow 5 1019 21 0 1.51 127 17:38 28.04.2020
4028 Snow 5 1018 20 0 1.46 125 17:20 28.04.2020
4029 Snow 5 1018 20 0 1.46 125 16:59 28.04.2020
4030 Snow 5 1018 20 0 1.46 125 16:40 28.04.2020
4031 Rain 5 1017 20 0 1.18 129 16:22 28.04.2020
4032 Rain 5 1017 20 0 1.18 129 15:57 28.04.2020
4033 Rain 5 1017 20 0 1.18 129 15:38 28.04.2020
4034 Clouds 6 1015 19 0 0.91 126 15:20 28.04.2020
4035 Clouds 6 1015 19 0 0.91 126 14:56 28.04.2020
4036 Snow 5 1015 21 0 1.49 221 14:38 28.04.2020
4037 Clouds 6 1012 19 0 1.42 98 14:19 28.04.2020
4038 Snow 6 1012 20 0 0.82 108 13:56 28.04.2020
4039 Snow 6 1012 20 0 0.82 108 13:37 28.04.2020
4040 Clouds 8 1010 20 0 1.88 94 13:19 28.04.2020
4041 Clouds 8 1010 20 0 1.88 94 12:43 28.04.2020
4042 Clouds 8 1009 20 0 0.63 54 12:23 28.04.2020
4043 Clouds 8 1009 20 0 0.63 54 11:43 28.04.2020
4044 Rain 8 1010 21 0 1.04 14 11:24 28.04.2020
4045 Rain 8 1010 21 0 1.04 14 10:59 28.04.2020
4046 Rain 8 1010 21 0 1.04 14 10:39 28.04.2020
4047 Rain 7 1011 22 0 0.97 22 10:19 28.04.2020
4048 Rain 7 1011 22 0 0.97 22 09:55 28.04.2020
4049 Rain 7 1011 22 0 0.97 22 09:37 28.04.2020
4050 Snow 7 1014 22 0 0.99 13 09:19 28.04.2020
4051 Snow 7 1014 22 0 0.99 13 08:45 28.04.2020
4052 Snow 6 1015 23 0 0.68 44 08:26 28.04.2020
4053 Snow 6 1015 23 0 0.68 44 07:44 28.04.2020
4054 Snow 6 1017 23 0 0.64 81 07:19 28.04.2020
4055 Snow 6 1017 23 0 0.64 81 06:44 28.04.2020
4056 Snow 5 1019 24 0 1.07 145 05:57 28.04.2020
4057 Snow 5 1019 24 0 1.07 145 05:38 28.04.2020
4058 Snow 5 1020 25 0 1.88 151 04:39 28.04.2020
4059 Snow 3 1022 25 0 0.63 123 02:59 28.04.2020
4060 Snow 3 1022 26 0 0.82 48 02:27 28.04.2020
4061 Snow 3 1021 26 0 1.04 39 01:23 28.04.2020
4062 Snow 3 1021 26 0 1.04 39 00:51 28.04.2020
4063 Snow 3 1021 26 0 1.13 34 00:20 28.04.2020
4064 Snow 3 1021 26 0 1.13 34 23:44 27.04.2020
4065 Snow 4 1021 26 0 0.68 33 23:22 27.04.2020
4066 Snow 4 1021 26 0 0.68 33 22:55 27.04.2020
4067 Snow 4 1021 26 0 0.68 33 22:55 27.04.2020
4068 Snow 4 1021 26 0 0.68 33 22:37 27.04.2020
4069 Snow 4 1021 26 0 0.49 94 22:18 27.04.2020
4070 Snow 4 1021 26 0 0.49 94 21:55 27.04.2020
4071 Snow 4 1021 26 0 0.49 94 21:37 27.04.2020
4072 Snow 4 1022 25 0 0.76 105 21:18 27.04.2020
4073 Snow 4 1022 25 0 0.76 105 20:43 27.04.2020
4074 Snow 4 1022 25 0 1.08 134 20:22 27.04.2020
4075 Snow 4 1022 25 0 1.08 134 19:58 27.04.2020
4076 Snow 4 1022 25 0 1.08 134 19:38 27.04.2020
4077 Snow 5 1023 22 0 1.51 166 19:19 27.04.2020
4078 Snow 5 1023 22 0 1.51 166 18:56 27.04.2020
4079 Snow 5 1023 22 0 1.51 166 18:38 27.04.2020
4080 Clouds 7 1022 18 0 2.29 177 18:18 27.04.2020
4081 Clouds 7 1022 18 0 2.29 177 17:43 27.04.2020
4082 Clouds 8 1021 16 0 2.45 152 17:21 27.04.2020
4083 Clouds 8 1021 16 0 2.45 152 16:57 27.04.2020
4084 Clouds 8 1021 16 0 2.45 152 16:38 27.04.2020
4085 Clouds 8 1020 17 0 2.68 157 16:20 27.04.2020
4086 Clouds 8 1020 17 0 2.68 157 15:56 27.04.2020
4087 Clouds 8 1020 17 0 2.68 157 15:37 27.04.2020
4088 Clouds 9 1016 13 0 2.75 124 15:18 27.04.2020
4089 Clouds 9 1016 13 0 2.75 124 14:42 27.04.2020
4090 Clouds 9 1016 13 0 2.75 124 14:22 27.04.2020
4091 Clouds 9 1016 14 0 3.01 129 13:58 27.04.2020
4092 Clouds 9 1016 14 0 3.01 129 13:39 27.04.2020
4093 Clouds 9 1016 14 0 3.01 129 13:19 27.04.2020
4094 Clouds 9 1016 14 0 3.01 129 12:44 27.04.2020
4095 Clouds 13 1014 9 0 1.8 337 12:24 27.04.2020
4096 Clouds 13 1014 9 0 1.8 337 11:59 27.04.2020
4097 Clouds 13 1014 9 0 1.8 337 11:40 27.04.2020
4098 Clouds 13 1014 9 0 1.8 337 11:19 27.04.2020
4099 Clouds 13 1014 9 0 1.8 337 10:56 27.04.2020
4100 Clouds 13 1014 9 0 1.8 337 10:37 27.04.2020
4101 Clouds 13 1014 9 0 1.8 337 10:19 27.04.2020
4102 Clouds 13 1014 9 0 1.8 337 09:43 27.04.2020
4103 Clouds 11 1019 10 0 1.08 201 09:18 27.04.2020
4104 Clouds 11 1019 10 0 1.08 201 08:53 27.04.2020
4105 Clouds 11 1019 10 0 1.08 201 08:34 27.04.2020
4106 Clouds 11 1019 10 0 1.08 201 07:58 27.04.2020
4107 Clouds 11 1019 10 0 1.08 201 07:40 27.04.2020
4108 Clouds 11 1019 10 0 1.08 201 07:19 27.04.2020
4109 Clouds 11 1019 10 0 1.08 201 06:39 27.04.2020
4110 Clouds 8 1023 11 0 0.8 153 06:21 27.04.2020
4111 Clouds 8 1023 11 0 0.8 153 05:48 27.04.2020
4112 Clouds 8 1023 11 0 0.8 153 04:40 27.04.2020
4113 Clouds 8 1023 11 0 0.8 153 03:49 27.04.2020
4114 Clouds 3 1027 14 0 1.31 11 02:40 27.04.2020
4115 Clouds 3 1027 14 0 1.34 14 01:23 27.04.2020
4116 Clouds 3 1027 14 0 1.34 14 00:46 27.04.2020
4117 Clouds 3 1024 14 0 1.25 4 00:19 27.04.2020
4118 Clouds 3 1024 14 0 1.25 4 23:55 26.04.2020
4119 Clouds 3 1024 14 0 1.25 4 23:37 26.04.2020
4120 Clouds 3 1024 14 0 1.25 4 23:18 26.04.2020
4121 Clouds 3 1024 14 0 1.25 4 22:55 26.04.2020
4122 Clouds 3 1024 14 0 1.25 4 22:37 26.04.2020
4123 Clouds 3 1024 14 0 1.25 4 22:18 26.04.2020
4124 Clouds 3 1024 14 0 1.25 4 21:56 26.04.2020
4125 Clouds 3 1024 14 0 1.25 4 21:37 26.04.2020
4126 Clear 4 1025 13 0 1.75 0 21:18 26.04.2020
4127 Clear 4 1025 13 0 1.75 0 20:39 26.04.2020
4128 Clear 4 1025 13 0 1.75 0 20:20 26.04.2020
4129 Clear 4 1025 13 0 1.75 0 19:59 26.04.2020
4130 Clear 4 1025 13 0 1.75 0 19:38 26.04.2020
4131 Clear 4 1025 13 0 1.75 0 19:19 26.04.2020
4132 Clear 4 1025 13 0 1.75 0 18:45 26.04.2020
4133 Clear 5 1023 12 0 2.24 6 18:25 26.04.2020
4134 Clear 5 1023 12 0 2.24 6 17:58 26.04.2020
4135 Clear 5 1023 12 0 2.24 6 17:39 26.04.2020
4136 Clear 5 1023 12 0 2.24 6 17:21 26.04.2020
4137 Clear 5 1023 12 0 2.24 6 16:42 26.04.2020
4138 Clear 5 1023 12 0 2.24 6 16:24 26.04.2020
4139 Clear 5 1023 12 0 2.24 6 15:59 26.04.2020
4140 Clear 5 1023 12 0 2.24 6 15:41 26.04.2020
4141 Clouds 9 1017 10 0 1.68 352 15:21 26.04.2020
4142 Clouds 9 1017 10 0 1.68 352 14:57 26.04.2020
4143 Clouds 9 1017 10 0 1.68 352 14:38 26.04.2020
4144 Clouds 9 1017 10 0 1.51 353 14:18 26.04.2020
4145 Clouds 9 1017 10 0 1.51 353 13:56 26.04.2020
4146 Clouds 9 1017 10 0 1.51 353 13:38 26.04.2020
4147 Clouds 9 1017 10 0 1.51 353 13:18 26.04.2020
4148 Clouds 9 1017 10 0 1.51 353 12:41 26.04.2020
4149 Clouds 10 1015 9 0 1.89 340 12:22 26.04.2020
4150 Clouds 10 1015 9 0 1.89 340 11:59 26.04.2020
4151 Clouds 10 1015 9 0 1.89 340 11:40 26.04.2020
4152 Clouds 10 1015 9 0 1.89 340 11:22 26.04.2020
4153 Clouds 10 1015 9 0 1.89 340 10:57 26.04.2020
4154 Clouds 10 1015 9 0 1.89 340 10:39 26.04.2020
4155 Clouds 10 1015 9 0 1.89 340 10:21 26.04.2020
4156 Clouds 10 1015 9 0 1.89 340 09:41 26.04.2020
4157 Clear 6 1020 13 0 2.23 339 09:22 26.04.2020
4158 Clear 6 1020 13 0 2.23 339 08:59 26.04.2020
4159 Clear 6 1020 13 0 2.23 339 08:40 26.04.2020
4160 Clear 6 1020 13 0 2.23 339 08:20 26.04.2020
4161 Clear 6 1020 13 0 2.23 339 07:47 26.04.2020
4162 Clear 6 1020 13 0 2.23 339 07:21 26.04.2020
4163 Clear 6 1020 13 0 2.23 339 06:45 26.04.2020
4164 Clear 3 1023 16 0 1.57 351 05:59 26.04.2020
4165 Clear 3 1023 16 0 1.57 351 05:41 26.04.2020
4166 Clear 3 1023 16 0 1.57 351 05:22 26.04.2020
4167 Clear 3 1023 16 0 1.57 351 04:23 26.04.2020
4168 Clouds -4 1026 21 0 3.2 360 02:53 26.04.2020
4169 Clouds -4 1026 21 0 3.2 360 02:32 26.04.2020
4170 Clouds -4 1026 21 0 3.22 0 01:51 26.04.2020
4171 Clouds -4 1026 21 0 3.22 0 01:27 26.04.2020
4172 Clouds -4 1026 21 0 3.22 0 00:40 26.04.2020
4173 Clouds -3 1024 21 0 3.12 0 00:19 26.04.2020
4174 Clouds -3 1024 21 0 3.12 0 23:39 25.04.2020
4175 Clouds -3 1024 21 0 3.12 0 23:21 25.04.2020
4176 Clouds -3 1024 21 0 3.12 0 22:58 25.04.2020
4177 Clouds -3 1024 21 0 3.12 0 22:40 25.04.2020
4178 Clouds -3 1024 21 0 3.12 0 22:19 25.04.2020
4179 Clouds -3 1024 21 0 3.12 0 21:56 25.04.2020
4180 Clouds -3 1024 21 0 3.12 0 21:36 25.04.2020
4181 Clouds -1 1024 19 0 3.15 358 21:18 25.04.2020
4182 Clouds -1 1024 19 0 3.15 358 20:42 25.04.2020
4183 Clouds -1 1024 19 0 3.15 358 20:22 25.04.2020
4184 Clouds -1 1024 19 0 3.15 358 19:56 25.04.2020
4185 Clouds -1 1024 19 0 3.15 358 19:38 25.04.2020
4186 Clouds -1 1024 19 0 3.15 358 19:19 25.04.2020
4187 Clouds -1 1024 19 0 3.15 358 18:42 25.04.2020
4188 Clouds 0 1022 18 0 3.19 350 18:21 25.04.2020
4189 Clouds 0 1022 18 0 3.19 350 17:58 25.04.2020
4190 Clouds 0 1022 18 0 3.19 350 17:39 25.04.2020
4191 Clouds 0 1022 18 0 3.19 350 17:20 25.04.2020
4192 Clouds 0 1022 18 0 3.19 350 16:58 25.04.2020
4193 Clouds 0 1022 18 0 3.19 350 16:40 25.04.2020
4194 Clouds 0 1022 18 0 3.19 350 16:21 25.04.2020
4195 Clouds 0 1022 18 0 3.19 350 15:42 25.04.2020
4196 Clear 4 1016 15 0 3.26 354 15:21 25.04.2020
4197 Clear 4 1016 15 0 3.26 354 14:58 25.04.2020
4198 Clear 4 1016 15 0 3.13 0 14:39 25.04.2020
4199 Clear 4 1016 15 0 3.13 0 14:20 25.04.2020
4200 Clear 4 1016 15 0 3.13 0 13:55 25.04.2020
4201 Clear 4 1016 15 0 3.13 0 13:37 25.04.2020
4202 Clear 4 1016 15 0 3.13 0 13:18 25.04.2020
4203 Clear 4 1016 15 0 3.13 0 12:54 25.04.2020
4204 Clear 4 1016 15 0 3.13 0 12:36 25.04.2020
4205 Clear 7 1013 13 0 2.94 353 12:18 25.04.2020
4206 Clear 7 1013 13 0 2.94 353 11:41 25.04.2020
4207 Clear 7 1013 13 0 2.94 353 11:23 25.04.2020
4208 Clear 7 1013 13 0 2.94 353 10:55 25.04.2020
4209 Clear 7 1013 13 0 2.94 353 10:37 25.04.2020
4210 Clear 7 1013 13 0 2.94 353 10:18 25.04.2020
4211 Clear 7 1013 13 0 2.94 353 09:41 25.04.2020
4212 Clouds 8 1015 11 0 2 341 09:21 25.04.2020
4213 Clouds 8 1015 11 0 2 341 08:55 25.04.2020
4214 Clouds 8 1015 11 0 1.83 342 08:36 25.04.2020
4215 Clouds 8 1015 11 0 2 341 08:18 25.04.2020
4216 Clouds 8 1015 11 0 1.83 342 07:42 25.04.2020
4217 Clouds 8 1015 11 0 2 341 07:19 25.04.2020
4218 Clouds 8 1015 11 0 2 341 06:42 25.04.2020
4219 Clouds 5 1018 14 0 1.76 356 05:44 25.04.2020
4220 Clouds 5 1018 14 0 1.76 356 05:26 25.04.2020
4221 Clouds 5 1018 14 0 1.76 356 04:20 25.04.2020
4222 Clouds 1 1021 18 0 2.3 7 02:44 25.04.2020
4223 Clouds 1 1021 18 0 2.3 7 02:18 25.04.2020
4224 Clouds 1 1021 18 0 2.3 7 01:45 25.04.2020
4225 Clouds 1 1021 18 0 2.3 7 01:19 25.04.2020
4226 Clouds 1 1021 18 0 2.3 7 00:46 25.04.2020
4227 Clouds 1 1018 18 0 1.96 2 00:28 25.04.2020
4228 Clouds 1 1018 18 0 1.96 2 23:42 24.04.2020
4229 Clouds 1 1018 18 0 1.96 2 23:21 24.04.2020
4230 Clouds 1 1018 18 0 1.96 2 22:41 24.04.2020
4231 Clouds 1 1018 18 0 1.96 2 22:21 24.04.2020
4232 Clouds 1 1018 18 0 1.96 2 21:59 24.04.2020
4233 Clouds 1 1018 18 0 1.96 2 21:41 24.04.2020
4234 Clouds 2 1018 17 0 2 357 21:23 24.04.2020
4235 Snow 3 1019 18 0 2.14 357 21:00 24.04.2020
4236 Snow 3 1019 18 0 2.14 357 20:41 24.04.2020
4237 Snow 3 1019 18 0 2.14 357 20:19 24.04.2020
4238 Snow 3 1019 18 0 2.14 357 20:19 24.04.2020
4239 Snow 3 1019 18 0 2.14 357 19:58 24.04.2020
4240 Snow 3 1019 18 0 2.14 357 19:38 24.04.2020
4241 Snow 3 1019 18 0 2.14 357 19:20 24.04.2020
4242 Snow 3 1019 18 0 2.14 357 18:41 24.04.2020
4243 Snow 3 1019 18 0 2.14 357 18:41 24.04.2020
4244 Snow 3 1017 19 0 1.08 354 18:23 24.04.2020
4245 Snow 3 1017 19 0 1.08 354 17:54 24.04.2020
4246 Snow 3 1017 19 0 1.08 354 17:36 24.04.2020
4247 Snow 3 1017 19 0 1.08 354 17:18 24.04.2020
4248 Snow 3 1017 19 0 1.08 354 16:55 24.04.2020
4249 Snow 3 1017 19 0 1.08 354 16:37 24.04.2020
4250 Snow 3 1017 19 0 1.08 354 16:19 24.04.2020
4251 Snow 3 1017 19 0 1.08 354 15:40 24.04.2020
4252 Clouds 5 1011 18 0 1.58 3 15:20 24.04.2020
4253 Clouds 5 1011 18 0 1.58 3 14:41 24.04.2020
4254 Clouds 5 1011 18 0 1.58 3 14:22 24.04.2020
4255 Clouds 5 1011 17 0 2.24 6 13:58 24.04.2020
4256 Clouds 5 1011 17 0 2.24 6 13:40 24.04.2020
4257 Clouds 5 1011 17 0 2.24 6 13:20 24.04.2020
4258 Clouds 5 1011 17 0 2.24 6 12:46 24.04.2020
4259 Clouds 6 1008 16 0 3.08 21 12:26 24.04.2020
4260 Clouds 6 1008 16 0 3.08 21 11:59 24.04.2020
4261 Clouds 6 1008 16 0 3.08 21 11:40 24.04.2020
4262 Clouds 6 1008 16 0 3.08 21 11:21 24.04.2020
4263 Clouds 6 1008 16 0 3.08 21 10:56 24.04.2020
4264 Clouds 6 1008 16 0 3.08 21 10:38 24.04.2020
4265 Clouds 6 1008 16 0 3.08 21 10:19 24.04.2020
4266 Clouds 6 1008 16 0 3.08 21 10:19 24.04.2020
4267 Clouds 6 1008 16 0 3.08 21 09:47 24.04.2020
4268 Snow 5 1011 21 0 2.65 11 09:24 24.04.2020
4269 Snow 5 1011 21 0 2.65 11 08:59 24.04.2020
4270 Snow 5 1011 21 0 2.65 11 08:40 24.04.2020
4271 Snow 5 1011 21 0 2.65 11 08:19 24.04.2020
4272 Snow 5 1011 21 0 2.65 11 07:47 24.04.2020
4273 Snow 5 1011 21 0 2.65 11 07:27 24.04.2020
4274 -273 0 0 0 0 0 06:59 24.04.2020
4275 Snow 5 1011 21 0 2.65 11 06:41 24.04.2020
4276 Snow 2 1015 21 0 1.59 100 05:49 24.04.2020
4277 Snow 2 1015 21 0 1.59 100 04:48 24.04.2020
4278 Snow 0 1016 23 0 0.74 84 03:28 24.04.2020
4279 Snow 0 1016 23 0 0.74 84 02:47 24.04.2020
4280 Snow 0 1017 23 0 0.95 48 02:23 24.04.2020
4281 Snow 0 1017 23 0 0.95 48 01:37 24.04.2020
4282 Snow 0 1017 23 0 0.95 48 00:46 24.04.2020
4283 Snow 1 1015 24 0 0.63 116 00:18 24.04.2020
4284 Snow 1 1015 24 0 0.63 116 23:45 23.04.2020
4285 Snow 1 1015 24 0 0.63 116 23:27 23.04.2020
4286 Snow 1 1015 24 0 0.63 116 22:57 23.04.2020
4287 Snow 1 1015 24 0 0.63 116 22:38 23.04.2020
4288 Snow 1 1015 24 0 0.63 116 22:19 23.04.2020
4289 Snow 1 1015 24 0 0.63 116 21:57 23.04.2020
4290 Snow 1 1015 24 0 0.63 116 21:38 23.04.2020
4291 Snow 2 1016 23 0 0.82 18 21:20 23.04.2020
4292 Snow 2 1016 23 0 0.82 18 20:56 23.04.2020
4293 Snow 2 1016 23 0 0.82 18 20:37 23.04.2020
4294 Snow 2 1016 23 0 0.82 18 20:18 23.04.2020
4295 Snow 2 1016 23 0 0.82 18 19:55 23.04.2020
4296 Snow 2 1016 23 0 0.82 18 19:37 23.04.2020
4297 Snow 2 1016 23 0 0.82 18 19:19 23.04.2020
4298 Snow 2 1016 23 0 0.82 18 18:40 23.04.2020
4299 Snow 3 1015 22 0 0.81 9 18:22 23.04.2020
4300 Snow 3 1015 22 0 0.81 9 17:57 23.04.2020
4301 Snow 3 1015 22 0 0.81 9 17:39 23.04.2020
4302 Snow 3 1015 22 0 0.81 9 17:21 23.04.2020
4303 Snow 3 1015 22 0 0.81 9 16:44 23.04.2020
4304 Snow 3 1015 22 0 0.81 9 16:21 23.04.2020
4305 Snow 3 1015 22 0 0.81 9 15:59 23.04.2020
4306 Snow 3 1015 22 0 0.81 9 15:40 23.04.2020
4307 Clouds 6 1008 16 0 4.09 25 15:22 23.04.2020
4308 Clouds 6 1008 16 0 4.09 25 14:54 23.04.2020
4309 Clouds 6 1008 16 0 4.09 25 14:36 23.04.2020
4310 Rain 7 1009 15 0 3.23 14 14:18 23.04.2020
4311 Rain 7 1009 15 0 3.23 14 13:40 23.04.2020
4312 Rain 7 1009 15 0 3.23 14 13:22 23.04.2020
4313 Rain 7 1009 15 0 3.23 14 12:58 23.04.2020
4314 Rain 7 1009 15 0 3.23 14 12:38 23.04.2020
4315 Clouds 10 1006 11 0 1.29 279 12:20 23.04.2020
4316 Clouds 10 1006 11 0 1.29 279 11:47 23.04.2020
4317 Clouds 10 1006 11 0 1.29 279 11:27 23.04.2020
4318 Clouds 10 1006 11 0 1.29 279 10:59 23.04.2020
4319 Clouds 10 1006 11 0 1.29 279 10:40 23.04.2020
4320 Clouds 10 1006 11 0 1.29 279 10:20 23.04.2020
4321 Clouds 10 1006 11 0 1.29 279 09:40 23.04.2020
4322 Clouds 9 1009 11 0 2.52 173 09:19 23.04.2020
4323 Clouds 9 1009 11 0 2.52 173 08:51 23.04.2020
4324 Clouds 9 1009 11 0 2.52 173 08:32 23.04.2020
4325 Clouds 9 1009 11 0 2.52 173 07:59 23.04.2020
4326 Clouds 9 1009 11 0 2.52 173 07:40 23.04.2020
4327 Clouds 9 1009 11 0 2.52 173 07:22 23.04.2020
4328 Clouds 9 1009 11 0 2.52 173 06:46 23.04.2020
4329 Clouds 6 1014 14 0 2.49 164 05:54 23.04.2020
4330 Clouds 6 1014 14 0 2.49 164 05:54 23.04.2020
4331 Clouds 6 1014 14 0 2.49 164 05:21 23.04.2020
4332 Clouds 6 1014 14 0 2.49 164 03:48 23.04.2020
4333 Clouds 2 1016 18 0 1.39 136 02:23 23.04.2020
4334 Clouds 2 1016 18 0 1.39 136 01:40 23.04.2020
4335 Clouds 2 1016 18 0 1.39 136 00:56 23.04.2020
4336 Clouds 2 1014 18 0 1.58 136 00:29 23.04.2020
4337 Clouds 2 1014 18 0 1.58 136 23:59 22.04.2020
4338 Clouds 2 1014 18 0 1.58 136 23:41 22.04.2020
4339 Clouds 2 1014 18 0 1.58 136 23:22 22.04.2020
4340 Clouds 2 1014 18 0 1.58 136 22:41 22.04.2020
4341 Clouds 2 1014 18 0 1.58 136 22:20 22.04.2020
4342 Clouds 2 1014 18 0 1.58 136 21:59 22.04.2020
4343 Clouds 2 1014 18 0 1.58 136 21:59 22.04.2020
4344 Clouds 2 1014 18 0 1.58 136 21:41 22.04.2020
4345 Snow 3 1014 21 0 1.76 164 21:22 22.04.2020
4346 Snow 3 1014 21 0 1.76 164 20:59 22.04.2020
4347 Snow 3 1014 21 0 1.76 164 20:59 22.04.2020
4348 Snow 3 1014 21 0 1.76 164 20:41 22.04.2020
4349 Snow 3 1014 21 0 1.76 164 20:19 22.04.2020
4350 Snow 3 1014 21 0 1.76 164 19:57 22.04.2020
4351 Snow 3 1014 21 0 1.76 164 19:38 22.04.2020
4352 Snow 3 1014 21 0 1.76 164 19:18 22.04.2020
4353 Snow 3 1014 21 0 1.76 164 18:58 22.04.2020
4354 Snow 3 1014 21 0 1.76 164 18:40 22.04.2020
4355 Snow 4 1013 21 0 2.33 163 18:21 22.04.2020
4356 Snow 4 1013 21 0 2.33 163 17:44 22.04.2020
4357 Snow 4 1013 21 0 2.33 163 17:26 22.04.2020
4358 Snow 4 1013 21 0 2.33 163 16:58 22.04.2020
4359 Snow 4 1013 21 0 2.33 163 16:58 22.04.2020
4360 Snow 4 1013 21 0 2.33 163 16:40 22.04.2020
4361 Snow 4 1013 21 0 2.33 163 16:21 22.04.2020
4362 Snow 4 1013 21 0 2.33 163 15:41 22.04.2020
4363 Rain 6 1007 16 0 3.67 149 15:22 22.04.2020
4364 Rain 6 1007 16 0 3.67 149 14:58 22.04.2020
4365 Rain 6 1006 16 0 3.87 157 14:38 22.04.2020
4366 Rain 6 1006 16 0 3.87 157 14:20 22.04.2020
4367 Rain 6 1006 16 0 3.87 157 13:55 22.04.2020
4368 Rain 6 1006 16 0 3.87 157 13:36 22.04.2020
4369 Rain 6 1006 16 0 3.87 157 13:18 22.04.2020
4370 Rain 6 1006 16 0 3.87 157 12:39 22.04.2020
4371 Clouds 9 1003 12 0 0.18 290 12:21 22.04.2020
4372 Clouds 9 1003 12 0 0.18 290 11:40 22.04.2020
4373 Clouds 9 1003 12 0 0.18 290 11:20 22.04.2020
4374 Clouds 9 1003 12 0 0.18 290 10:59 22.04.2020
4375 Clouds 9 1003 12 0 0.18 290 10:39 22.04.2020
4376 Clouds 9 1003 12 0 0.18 290 10:20 22.04.2020
4377 Rain 7 1004 15 0 2.44 147 09:39 22.04.2020
4378 Clouds 9 1006 11 0 3 176 09:21 22.04.2020
4379 Clouds 9 1006 11 0 3 176 08:57 22.04.2020
4380 Clouds 9 1006 11 0 3 176 08:38 22.04.2020
4381 Clouds 9 1006 11 0 3 176 08:20 22.04.2020
4382 Clouds 9 1006 11 0 3 176 07:53 22.04.2020
4383 Clouds 9 1006 11 0 3 176 07:28 22.04.2020
4384 Clouds 9 1006 11 0 3 176 06:53 22.04.2020
4385 Clouds 6 1011 14 0 2.92 175 06:18 22.04.2020
4386 Clouds 6 1011 14 0 2.92 175 05:37 22.04.2020
4387 Clouds 6 1011 14 0 2.92 175 04:20 22.04.2020
4388 Snow 2 1013 18 0 1.87 145 02:50 22.04.2020
4389 Snow 3 1012 19 0 1.75 147 01:52 22.04.2020
4390 Snow 3 1012 19 0 1.75 147 01:25 22.04.2020
4391 Snow 3 1012 19 0 1.75 147 00:54 22.04.2020
4392 Snow 3 1012 19 0 1.75 147 00:36 22.04.2020
4393 Snow 3 1011 20 0 2.57 148 00:18 22.04.2020
4394 Snow 3 1011 20 0 2.57 148 23:41 21.04.2020
4395 Snow 3 1011 20 0 2.57 148 23:19 21.04.2020
4396 Snow 3 1011 20 0 2.57 148 23:19 21.04.2020
4397 Snow 3 1011 20 0 2.57 148 22:40 21.04.2020
4398 Snow 3 1011 20 0 2.57 148 22:22 21.04.2020
4399 Snow 3 1011 20 0 2.57 148 21:59 21.04.2020
4400 Snow 3 1011 20 0 2.57 148 21:41 21.04.2020
4401 Clouds 5 1013 17 0 3.05 169 21:22 21.04.2020
4402 Clouds 5 1013 17 0 3.05 169 20:56 21.04.2020
4403 Clouds 5 1012 17 0 3.05 161 20:38 21.04.2020
4404 Clouds 5 1013 17 0 3.05 169 20:20 21.04.2020
4405 Clouds 5 1013 17 0 3.05 169 19:41 21.04.2020
4406 Clouds 5 1012 17 0 3.05 161 19:20 21.04.2020
4407 Clouds 5 1013 17 0 3.05 169 18:58 21.04.2020
4408 Clouds 5 1012 17 0 3.05 161 18:38 21.04.2020
4409 Clouds 7 1013 16 0 1.33 111 18:19 21.04.2020
4410 Clouds 7 1013 16 0 1.33 111 17:55 21.04.2020
4411 Clouds 7 1013 16 0 1.33 111 17:37 21.04.2020
4412 Clouds 7 1012 16 0 2.38 131 17:37 21.04.2020
4413 Clouds 7 1013 16 0 1.33 111 17:18 21.04.2020
4414 Clouds 7 1012 16 0 2.38 131 16:39 21.04.2020
4415 Clouds 7 1012 16 0 2.38 131 16:19 21.04.2020
4416 Clouds 7 1012 16 0 2.38 131 16:19 21.04.2020
4417 Clouds 7 1012 16 0 2.38 131 16:19 21.04.2020
4418 Clouds 7 1012 16 0 2.38 131 15:57 21.04.2020
4419 Clouds 7 1013 16 0 1.33 111 15:39 21.04.2020
4420 Rain 8 1008 16 0 2.29 75 15:21 21.04.2020
4421 Rain 8 1008 16 0 2.29 75 14:57 21.04.2020
4422 Rain 8 1008 16 0 2.29 75 14:39 21.04.2020
4423 Rain 8 1008 16 0 2.29 75 14:21 21.04.2020
4424 Rain 8 1008 16 0 2.29 75 13:41 21.04.2020
4425 Rain 8 1008 16 0 2.29 75 13:22 21.04.2020
4426 Rain 8 1008 16 0 2.29 75 12:57 21.04.2020
4427 Rain 8 1008 16 0 2.29 75 12:37 21.04.2020
4428 Clouds 11 1006 11 0 2.73 240 12:18 21.04.2020
4429 Clouds 11 1006 11 0 2.73 240 11:55 21.04.2020
4430 Clouds 11 1006 11 0 2.73 240 11:36 21.04.2020
4431 Clouds 11 1006 11 0 2.73 240 11:18 21.04.2020
4432 Clouds 11 1006 11 0 2.73 240 11:18 21.04.2020
4433 Clouds 11 1006 11 0 2.73 240 10:56 21.04.2020
4434 Clouds 11 1006 11 0 2.73 240 10:38 21.04.2020
4435 Clouds 11 1006 11 0 2.73 240 10:19 21.04.2020
4436 Clouds 11 1006 11 0 2.73 240 09:37 21.04.2020
4437 Rain 11 1011 10 0 2.89 169 09:19 21.04.2020
4438 Rain 11 1011 10 0 2.89 169 08:57 21.04.2020
4439 Rain 11 1011 10 0 2.89 169 08:38 21.04.2020
4440 Rain 11 1011 10 0 2.89 169 08:19 21.04.2020
4441 Rain 11 1011 10 0 2.89 169 07:43 21.04.2020
4442 Rain 11 1011 10 0 2.89 169 07:22 21.04.2020
4443 Rain 11 1011 10 0 2.89 169 06:47 21.04.2020
4444 Clouds 7 1017 13 0 2.56 161 06:20 21.04.2020
4445 Clouds 7 1017 13 0 2.56 161 05:48 21.04.2020
4446 Clouds 7 1017 13 0 2.56 161 04:19 21.04.2020
4447 Clouds 7 1017 13 0 2.56 161 03:42 21.04.2020
4448 Clouds 4 1020 16 0 2.09 134 01:46 21.04.2020
4449 Clouds 4 1020 16 0 2.09 134 00:58 21.04.2020
4450 Clouds 4 1020 16 0 2.09 134 00:33 21.04.2020
4451 Clouds 4 1018 16 0 1.6 131 23:45 20.04.2020
4452 Clouds 4 1018 16 0 1.6 131 23:25 20.04.2020
4453 Clouds 4 1018 16 0 1.6 131 22:58 20.04.2020
4454 Clouds 4 1018 16 0 1.6 131 22:38 20.04.2020
4455 Clouds 4 1018 16 0 1.6 131 22:20 20.04.2020
4456 Clouds 4 1018 16 0 1.6 131 21:57 20.04.2020
4457 Clouds 4 1018 16 0 1.6 131 21:38 20.04.2020
4458 Clouds 5 1019 18 0 1.33 154 21:19 20.04.2020
4459 Clouds 5 1019 18 0 1.33 154 20:58 20.04.2020
4460 Clouds 5 1019 18 0 1.33 154 20:38 20.04.2020
4461 Clouds 5 1019 18 0 1.33 154 20:18 20.04.2020
4462 Clouds 5 1019 18 0 1.33 154 20:18 20.04.2020
4463 Clouds 5 1019 18 0 1.33 154 20:18 20.04.2020
4464 Clouds 5 1019 18 0 1.33 154 19:57 20.04.2020
4465 Clouds 5 1019 18 0 1.33 154 19:38 20.04.2020
4466 Clouds 5 1019 18 0 1.33 154 19:19 20.04.2020
4467 Clouds 5 1019 18 0 1.33 154 18:42 20.04.2020
4468 Clouds 6 1017 18 0 0.73 159 18:23 20.04.2020
4469 Clouds 6 1017 18 0 0.73 159 17:56 20.04.2020
4470 Clouds 6 1017 18 0 0.73 159 17:38 20.04.2020
4471 Clouds 6 1017 18 0 0.73 159 17:19 20.04.2020
4472 Clouds 6 1017 18 0 0.73 159 16:58 20.04.2020
4473 Clouds 6 1017 18 0 0.73 159 16:39 20.04.2020
4474 Clouds 6 1017 18 0 0.73 159 16:18 20.04.2020
4475 Clouds 6 1017 18 0 0.73 159 15:43 20.04.2020
4476 Clouds 6 1011 17 0 0.96 328 15:23 20.04.2020
4477 Clouds 6 1011 17 0 0.96 328 14:58 20.04.2020
4478 Rain 7 1011 17 0 1.53 66 14:40 20.04.2020
4479 Rain 7 1011 17 0 1.53 66 14:19 20.04.2020
4480 Rain 7 1011 17 0 1.53 66 13:54 20.04.2020
4481 Rain 7 1011 17 0 1.53 66 13:54 20.04.2020
4482 Rain 7 1011 17 0 1.53 66 13:54 20.04.2020
4483 Rain 7 1011 17 0 1.53 66 13:36 20.04.2020
4484 Rain 7 1011 17 0 1.53 66 13:18 20.04.2020
4485 Rain 7 1011 17 0 1.53 66 12:42 20.04.2020
4486 Rain 9 1009 14 0 2.19 154 12:21 20.04.2020
4487 Rain 9 1009 14 0 2.19 154 11:42 20.04.2020
4488 Rain 9 1009 14 0 2.19 154 11:22 20.04.2020
4489 Rain 9 1009 14 0 2.19 154 10:57 20.04.2020
4490 Rain 9 1009 14 0 2.19 154 10:39 20.04.2020
4491 Rain 9 1009 14 0 2.19 154 10:20 20.04.2020
4492 Rain 9 1009 14 0 2.19 154 09:58 20.04.2020
4493 Rain 9 1009 14 0 2.19 154 09:39 20.04.2020
4494 Rain 11 1011 10 0 2.91 176 09:21 20.04.2020
4495 Rain 11 1011 10 0 2.91 176 08:42 20.04.2020
4496 Rain 11 1011 10 0 2.91 176 08:23 20.04.2020
4497 Rain 11 1011 10 0 2.91 176 07:53 20.04.2020
4498 Rain 11 1011 10 0 2.91 176 07:30 20.04.2020
4499 Rain 11 1011 10 0 2.91 176 07:29 20.04.2020
4500 Rain 11 1011 10 0 2.91 176 06:58 20.04.2020
4501 Rain 11 1011 10 0 2.91 176 06:37 20.04.2020
4502 Clouds 8 1016 13 0 2.65 159 05:44 20.04.2020
4503 Clouds 8 1016 13 0 2.65 159 04:33 20.04.2020
4504 Clouds 4 1019 17 0 1.83 129 02:47 20.04.2020
4505 Clouds 4 1019 18 0 1.81 132 02:19 20.04.2020
4506 Clouds 4 1019 18 0 1.81 132 01:28 20.04.2020
4507 Clouds 4 1019 18 0 1.81 132 00:42 20.04.2020
4508 Clouds 4 1016 17 0 1.63 134 23:59 19.04.2020
4509 Clouds 4 1016 17 0 1.63 134 23:39 19.04.2020
4510 Clouds 4 1016 17 0 1.63 134 23:21 19.04.2020
4511 Clouds 4 1016 17 0 1.63 134 22:55 19.04.2020
4512 Clouds 4 1016 17 0 1.63 134 22:36 19.04.2020
4513 Clouds 4 1016 17 0 1.63 134 22:18 19.04.2020
4514 Clouds 4 1016 17 0 1.63 134 21:42 19.04.2020
4515 Clouds 6 1016 16 0 1.85 125 21:23 19.04.2020
4516 Clouds 6 1016 16 0 1.85 125 20:56 19.04.2020
4517 Clouds 6 1016 16 0 1.85 125 20:38 19.04.2020
4518 Clouds 6 1016 16 0 1.85 125 20:20 19.04.2020
4519 Clouds 6 1016 16 0 1.85 125 19:55 19.04.2020
4520 Clouds 6 1016 16 0 1.85 125 19:37 19.04.2020
4521 Clouds 6 1016 16 0 1.85 125 19:19 19.04.2020
4522 Clouds 6 1016 16 0 1.85 125 18:54 19.04.2020
4523 Clouds 6 1016 16 0 1.85 125 18:36 19.04.2020
4524 Clouds 8 1014 12 0 2.5 159 18:18 19.04.2020
4525 Clouds 8 1014 12 0 2.5 159 17:54 19.04.2020
4526 Clouds 8 1014 12 0 2.5 159 17:36 19.04.2020
4527 Clouds 8 1014 12 0 2.5 159 17:18 19.04.2020
4528 Clouds 8 1014 12 0 2.5 159 16:39 19.04.2020
4529 Clouds 8 1014 12 0 2.5 159 16:21 19.04.2020
4530 Clouds 8 1014 12 0 2.5 159 15:57 19.04.2020
4531 Clouds 8 1014 12 0 2.5 159 15:39 19.04.2020
4532 Clouds 12 1008 9 0 3.38 215 15:18 19.04.2020
4533 Clouds 12 1008 9 0 3.38 215 14:39 19.04.2020
4534 Rain 9 1009 13 0 2.47 172 14:20 19.04.2020
4535 Rain 9 1009 13 0 2.47 172 13:56 19.04.2020
4536 Rain 9 1009 13 0 2.47 172 13:36 19.04.2020
4537 Rain 9 1009 13 0 2.47 172 13:18 19.04.2020
4538 Rain 9 1009 13 0 2.47 172 12:44 19.04.2020
4539 Rain 13 1006 9 0 2.8 247 12:24 19.04.2020
4540 Rain 13 1006 9 0 2.8 247 11:54 19.04.2020
4541 Rain 13 1006 9 0 2.8 247 11:36 19.04.2020
4542 Rain 13 1006 9 0 2.8 247 11:18 19.04.2020
4543 Rain 13 1006 9 0 2.8 247 10:41 19.04.2020
4544 Rain 13 1006 9 0 2.8 247 10:41 19.04.2020
4545 Rain 13 1006 9 0 2.8 247 10:21 19.04.2020
4546 Rain 13 1006 9 0 2.8 247 09:57 19.04.2020
4547 Rain 13 1006 9 0 2.8 247 09:39 19.04.2020
4548 Rain 9 1012 13 0 1.84 180 09:18 19.04.2020
4549 Rain 10 1012 12 0 2.39 188 08:40 19.04.2020
4550 Rain 10 1012 12 0 2.39 188 08:21 19.04.2020
4551 Rain 9 1012 13 0 1.84 180 07:48 19.04.2020
4552 Rain 10 1012 12 0 2.39 188 07:25 19.04.2020
4553 Rain 10 1012 12 0 2.39 188 06:57 19.04.2020
4554 Clouds 6 1015 20 0 1.95 171 06:23 19.04.2020
4555 Clouds 5 1015 21 0 1.9 177 05:34 19.04.2020
4556 Clouds 5 1015 21 0 1.9 177 03:40 19.04.2020
4557 Snow 2 1017 22 0 0.82 160 02:23 19.04.2020
4558 Snow 2 1017 22 0 0.82 160 01:58 19.04.2020
4559 Snow 2 1017 22 0 0.82 160 01:22 19.04.2020
4560 Snow 2 1017 22 0 0.82 160 00:41 19.04.2020
4561 Snow 3 1014 25 0 1.47 182 00:19 19.04.2020
4562 Snow 3 1014 25 0 1.47 182 23:43 18.04.2020
4563 Snow 3 1014 25 0 1.47 182 23:19 18.04.2020
4564 Snow 3 1014 25 0 1.47 182 22:44 18.04.2020
4565 Snow 3 1014 25 0 1.47 182 22:24 18.04.2020
4566 Snow 3 1014 25 0 1.47 182 21:59 18.04.2020
4567 Snow 3 1014 25 0 1.47 182 21:59 18.04.2020
4568 Snow 3 1014 25 0 1.47 182 21:41 18.04.2020
4569 Snow 4 1015 25 0 1.95 183 21:22 18.04.2020
4570 Snow 4 1015 25 0 1.95 183 20:58 18.04.2020
4571 Snow 4 1015 25 0 1.95 183 20:40 18.04.2020
4572 Snow 4 1015 25 0 1.95 183 20:20 18.04.2020
4573 Snow 4 1015 25 0 1.95 183 19:42 18.04.2020
4574 Snow 4 1015 25 0 1.95 183 19:24 18.04.2020
4575 Snow 4 1015 25 0 1.95 183 18:40 18.04.2020
4576 Clouds 5 1014 24 0 1.89 183 18:20 18.04.2020
4577 Clouds 5 1014 24 0 1.89 183 17:59 18.04.2020
4578 Clouds 5 1014 24 0 1.89 183 17:40 18.04.2020
4579 Clouds 5 1014 24 0 1.89 183 17:20 18.04.2020
4580 Clouds 5 1014 24 0 1.89 183 16:55 18.04.2020
4581 Clouds 5 1014 24 0 1.89 183 16:36 18.04.2020
4582 Clouds 5 1014 24 0 1.89 183 16:18 18.04.2020
4583 Clouds 5 1014 24 0 1.89 183 15:38 18.04.2020
4584 Rain 6 1011 21 0 1.61 124 15:20 18.04.2020
4585 Rain 6 1011 21 0 1.61 124 14:44 18.04.2020
4586 Clouds 7 1010 21 0 1.49 167 14:25 18.04.2020
4587 Clouds 7 1010 21 0 1.49 167 13:54 18.04.2020
4588 Clouds 7 1010 21 0 1.49 167 13:36 18.04.2020
4589 Clouds 7 1010 21 0 1.49 167 13:18 18.04.2020
4590 Clouds 7 1010 21 0 1.49 167 12:41 18.04.2020
4591 Rain 11 1006 12 0 3.16 223 12:22 18.04.2020
4592 Rain 11 1006 12 0 3.16 223 11:43 18.04.2020
4593 Rain 11 1006 12 0 3.16 223 11:23 18.04.2020
4594 Rain 11 1006 12 0 3.16 223 10:57 18.04.2020
4595 Rain 11 1006 12 0 3.16 223 10:37 18.04.2020
4596 Rain 11 1006 12 0 3.16 223 10:18 18.04.2020
4597 Rain 10 1006 13 0 2.87 235 09:42 18.04.2020
4598 Clouds 13 1011 9 0 2.98 152 09:23 18.04.2020
4599 Clouds 13 1011 10 0 2.8 148 08:44 18.04.2020
4600 Clouds 13 1011 10 0 2.8 148 08:26 18.04.2020
4601 Clouds 13 1011 10 0 2.8 148 07:58 18.04.2020
4602 Clouds 13 1011 10 0 2.8 148 07:36 18.04.2020
4603 Clouds 13 1011 10 0 2.8 148 06:59 18.04.2020
4604 Clouds 9 1015 12 0 2.5 159 06:29 18.04.2020
4605 Clouds 9 1015 12 0 2.5 159 05:36 18.04.2020
4606 Clouds 9 1015 12 0 2.5 159 04:47 18.04.2020
4607 Clouds 9 1015 12 0 2.5 159 04:25 18.04.2020
4608 Clouds 5 1018 15 0 1.93 135 02:49 18.04.2020
4609 Clouds 5 1018 15 0 1.78 134 02:23 18.04.2020
4610 Clouds 5 1018 15 0 1.78 134 01:53 18.04.2020
4611 Clouds 5 1018 15 0 1.78 134 01:34 18.04.2020
4612 Clouds 5 1018 15 0 1.78 134 00:44 18.04.2020
4613 Clouds 5 1017 14 0 1.85 125 00:22 18.04.2020
4614 Clouds 5 1017 14 0 1.85 125 23:55 17.04.2020
4615 Clouds 5 1017 14 0 1.85 125 23:37 17.04.2020
4616 Clouds 5 1017 14 0 1.85 125 23:18 17.04.2020
4617 Clouds 5 1017 14 0 1.85 125 22:56 17.04.2020
4618 Clouds 5 1017 14 0 1.85 125 22:36 17.04.2020
4619 Clouds 5 1017 14 0 1.85 125 22:18 17.04.2020
4620 Clouds 6 1016 14 0 1.86 134 21:42 17.04.2020
4621 Clouds 8 1017 12 0 1.87 136 21:21 17.04.2020
4622 Clouds 8 1016 12 0 1.5 142 20:56 17.04.2020
4623 Clouds 8 1016 12 0 1.5 142 20:38 17.04.2020
4624 Clouds 8 1016 12 0 1.5 142 20:18 17.04.2020
4625 Clouds 8 1016 12 0 1.5 142 19:57 17.04.2020
4626 Clouds 8 1016 12 0 1.5 142 19:38 17.04.2020
4627 Clouds 8 1016 12 0 1.5 142 19:20 17.04.2020
4628 Clouds 8 1016 12 0 1.5 142 18:44 17.04.2020
4629 Clouds 10 1015 11 0 1.59 139 18:23 17.04.2020
4630 Clouds 10 1015 11 0 1.59 139 18:23 17.04.2020
4631 Clouds 10 1015 11 0 1.59 139 17:55 17.04.2020
4632 Clouds 10 1015 11 0 1.59 139 17:36 17.04.2020
4633 Clouds 10 1015 11 0 1.59 139 17:18 17.04.2020
4634 Clouds 10 1015 11 0 1.59 139 16:41 17.04.2020
4635 Clouds 10 1015 11 0 1.59 139 16:41 17.04.2020
4636 Clouds 10 1015 11 0 1.59 139 16:22 17.04.2020
4637 Clouds 10 1015 11 0 1.59 139 15:41 17.04.2020
4638 Clouds 11 1009 10 0 1.32 119 15:23 17.04.2020
4639 Clouds 11 1009 10 0 1.32 119 14:56 17.04.2020
4640 Clouds 11 1009 10 0 1.32 119 14:37 17.04.2020
4641 Clouds 11 1009 10 0 1.89 53 14:19 17.04.2020
4642 Clouds 11 1009 10 0 1.89 53 13:41 17.04.2020
4643 Clouds 11 1009 10 0 1.89 53 13:21 17.04.2020
4644 Clouds 11 1009 10 0 1.89 53 12:58 17.04.2020
4645 Clouds 11 1009 10 0 1.89 53 12:40 17.04.2020
4646 Clouds 13 1007 9 0 1.1 345 12:21 17.04.2020
4647 Clouds 13 1007 9 0 1.1 345 11:40 17.04.2020
4648 Clouds 13 1007 9 0 1.1 345 11:19 17.04.2020
4649 Clouds 13 1007 9 0 1.1 345 10:55 17.04.2020
4650 Clouds 13 1007 9 0 1.1 345 10:37 17.04.2020
4651 Clouds 13 1007 9 0 1.1 345 10:18 17.04.2020
4652 Clouds 12 1009 9 0 2.43 39 09:40 17.04.2020
4653 Rain 12 1013 10 0 0.31 177 09:20 17.04.2020
4654 Rain 12 1013 10 0 0.31 177 08:56 17.04.2020
4655 Rain 12 1013 10 0 0.31 177 08:37 17.04.2020
4656 Rain 12 1013 10 0 0.31 177 08:18 17.04.2020
4657 Rain 12 1013 10 0 0.31 177 07:43 17.04.2020
4658 Rain 12 1013 10 0 0.31 177 07:20 17.04.2020
4659 Rain 12 1013 10 0 0.31 177 06:45 17.04.2020
4660 Clouds 8 1016 16 0 1.79 174 06:21 17.04.2020
4661 Clouds 8 1016 16 0 1.79 174 04:27 17.04.2020
4662 Clouds 3 1019 20 0 1.16 143 03:19 17.04.2020
4663 Clouds 3 1019 20 0 1.12 126 01:58 17.04.2020
4664 Clouds 3 1019 20 0 1.12 126 01:24 17.04.2020
4665 Clouds 3 1019 20 0 1.12 126 00:30 17.04.2020
4666 Snow 5 1016 20 0 1.67 168 23:56 16.04.2020
4667 Snow 5 1016 20 0 1.67 168 23:38 16.04.2020
4668 Snow 5 1016 20 0 1.67 168 23:19 16.04.2020
4669 Snow 5 1016 20 0 1.67 168 22:56 16.04.2020
4670 Snow 5 1016 20 0 1.67 168 22:37 16.04.2020
4671 Snow 5 1016 20 0 1.67 168 22:37 16.04.2020
4672 Snow 5 1016 20 0 1.67 168 22:19 16.04.2020
4673 Snow 5 1016 20 0 1.67 168 21:41 16.04.2020
4674 Clouds 6 1017 21 0 0.3 27 21:20 16.04.2020
4675 Clouds 6 1017 21 0 0.3 27 20:58 16.04.2020
4676 Clouds 6 1017 21 0 0.3 27 20:39 16.04.2020
4677 Clouds 6 1017 21 0 0.3 27 20:19 16.04.2020
4678 Clouds 6 1017 21 0 0.3 27 19:54 16.04.2020
4679 Clouds 6 1017 21 0 0.3 27 19:36 16.04.2020
4680 Clouds 6 1017 21 0 0.3 27 19:18 16.04.2020
4681 Clouds 6 1017 21 0 0.3 27 18:41 16.04.2020
4682 Clouds 7 1016 17 0 0.46 272 18:21 16.04.2020
4683 Clouds 7 1016 17 0 0.46 272 17:56 16.04.2020
4684 Clouds 7 1016 17 0 0.46 272 17:38 16.04.2020
4685 Clouds 7 1016 17 0 0.46 272 17:18 16.04.2020
4686 Clouds 7 1016 17 0 0.46 272 16:42 16.04.2020
4687 Clouds 7 1016 17 0 0.46 272 16:20 16.04.2020
4688 Clouds 7 1016 17 0 0.46 272 15:45 16.04.2020
4689 Rain 9 1010 14 0 1.05 31 15:20 16.04.2020
4690 Rain 9 1010 14 0 1.05 31 14:58 16.04.2020
4691 Rain 9 1010 14 0 1.05 31 14:40 16.04.2020
4692 Rain 9 1010 13 0 1.18 27 14:21 16.04.2020
4693 Rain 9 1010 13 0 1.18 27 13:57 16.04.2020
4694 Rain 9 1010 13 0 1.18 27 13:38 16.04.2020
4695 Rain 9 1010 13 0 1.18 27 13:20 16.04.2020
4696 Rain 9 1010 13 0 1.18 27 12:57 16.04.2020
4697 Rain 9 1010 13 0 1.18 27 12:38 16.04.2020
4698 Clouds 14 1007 8 0 3.33 154 12:19 16.04.2020
4699 Clouds 14 1007 8 0 3.33 154 11:56 16.04.2020
4700 Clouds 14 1007 8 0 3.33 154 11:37 16.04.2020
4701 Clouds 14 1007 8 0 3.33 154 11:18 16.04.2020
4702 Clouds 14 1007 8 0 3.33 154 10:40 16.04.2020
4703 Clouds 14 1007 8 0 3.33 154 10:19 16.04.2020
4704 Clouds 14 1007 8 0 3.33 154 10:19 16.04.2020
4705 Clouds 14 1007 8 0 3.33 154 09:59 16.04.2020
4706 Clouds 14 1007 8 0 3.33 154 09:38 16.04.2020
4707 Clouds 14 1007 8 0 3.33 154 09:38 16.04.2020
4708 Clouds 14 1007 8 0 3.33 154 09:38 16.04.2020
4709 Clouds 12 1013 10 0 3.07 160 09:20 16.04.2020
4710 Clouds 12 1013 10 0 3.07 160 08:45 16.04.2020
4711 Clouds 12 1013 10 0 2.93 158 08:25 16.04.2020
4712 Clouds 12 1013 10 0 3.07 160 07:58 16.04.2020
4713 Clouds 12 1013 10 0 3.07 160 07:39 16.04.2020
4714 Clouds 12 1013 10 0 3.07 160 07:20 16.04.2020
4715 Clouds 12 1013 10 0 2.93 158 06:40 16.04.2020
4716 Clouds 8 1017 12 0 2.29 161 06:22 16.04.2020
4717 Clouds 8 1017 12 0 2.29 161 04:48 16.04.2020
4718 Clouds 4 1021 15 0 1.68 132 03:25 16.04.2020
4719 Clouds 4 1021 16 0 1.68 135 02:58 16.04.2020
4720 Clouds 4 1021 16 0 1.68 135 02:34 16.04.2020
4721 Clouds 4 1021 16 0 1.68 135 01:23 16.04.2020
4722 Clouds 4 1021 16 0 1.68 135 00:53 16.04.2020
4723 Clouds 4 1020 15 0 1.97 146 00:21 16.04.2020
4724 Clouds 4 1020 15 0 1.97 146 00:21 16.04.2020
4725 Clouds 4 1020 15 0 1.97 146 23:54 15.04.2020
4726 Clouds 4 1020 15 0 1.97 146 23:36 15.04.2020
4727 Clouds 4 1020 15 0 1.97 146 23:18 15.04.2020
4728 Clouds 4 1020 15 0 1.97 146 22:38 15.04.2020
4729 Clouds 4 1020 15 0 1.97 146 22:20 15.04.2020
4730 Clouds 4 1020 15 0 1.97 146 21:55 15.04.2020
4731 Clouds 4 1020 15 0 2.25 149 21:37 15.04.2020
4732 Clear 7 1020 13 0 2.28 142 21:18 15.04.2020
4733 Clear 7 1020 13 0 2.28 142 20:54 15.04.2020
4734 Clear 7 1020 13 0 2.28 142 20:36 15.04.2020
4735 Clear 7 1020 13 0 2.28 142 20:18 15.04.2020
4736 Clear 7 1020 13 0 2.28 142 19:40 15.04.2020
4737 Clear 7 1020 13 0 2.28 142 19:20 15.04.2020
4738 Clear 7 1020 13 0 2.28 142 18:41 15.04.2020
4739 Clear 9 1019 10 0 2.05 136 18:23 15.04.2020
4740 Clear 9 1019 10 0 2.05 136 17:58 15.04.2020
4741 Clear 9 1019 10 0 2.05 136 17:39 15.04.2020
4742 Clear 9 1019 10 0 2.05 136 17:20 15.04.2020
4743 Clear 9 1019 10 0 2.05 136 16:56 15.04.2020
4744 Clear 9 1019 10 0 2.05 136 16:37 15.04.2020
4745 Clear 9 1019 10 0 2.05 136 16:19 15.04.2020
4746 Clear 9 1019 10 0 2.05 136 15:57 15.04.2020
4747 Clear 9 1019 10 0 2.05 136 15:38 15.04.2020
4748 Clouds 13 1015 8 0 1.92 121 15:19 15.04.2020
4749 Clouds 13 1015 8 0 1.92 121 14:57 15.04.2020
4750 Clouds 13 1015 8 0 1.92 121 14:38 15.04.2020
4751 Clouds 13 1015 8 0 1.97 135 14:20 15.04.2020
4752 Clouds 13 1015 8 0 1.97 135 13:57 15.04.2020
4753 Clouds 13 1015 8 0 1.97 135 13:38 15.04.2020
4754 Clouds 13 1015 8 0 1.97 135 13:19 15.04.2020
4755 Clouds 13 1015 8 0 1.97 135 12:42 15.04.2020
4756 Clouds 14 1013 8 0 2.41 164 12:23 15.04.2020
4757 Clouds 14 1013 8 0 2.41 164 12:23 15.04.2020
4758 Clouds 14 1013 8 0 2.41 164 11:59 15.04.2020
4759 Clouds 14 1013 8 0 2.41 164 11:41 15.04.2020
4760 Clouds 14 1013 8 0 2.41 164 11:23 15.04.2020
4761 Clouds 14 1013 8 0 2.41 164 10:56 15.04.2020
4762 Clouds 14 1013 8 0 2.41 164 10:36 15.04.2020
4763 Clouds 14 1013 8 0 2.41 164 10:18 15.04.2020
4764 Clouds 14 1013 8 0 2.41 164 09:54 15.04.2020
4765 Clouds 14 1013 8 0 2.41 164 09:36 15.04.2020
4766 Clouds 12 1019 9 0 2.31 168 09:18 15.04.2020
4767 Clouds 12 1019 9 0 2.31 168 08:40 15.04.2020
4768 Clouds 12 1019 9 0 2.31 168 08:19 15.04.2020
4769 Clouds 12 1019 9 0 2.31 168 07:54 15.04.2020
4770 Clouds 12 1019 9 0 2.31 168 07:32 15.04.2020
4771 Clouds 12 1019 9 0 2.31 168 06:34 15.04.2020
4772 Clouds 8 1024 11 0 2.04 166 05:51 15.04.2020
4773 Clouds 8 1024 11 0 2.04 166 05:19 15.04.2020
4774 Clouds 8 1024 11 0 2.04 166 04:44 15.04.2020
4775 Clouds 8 1024 11 0 2.04 166 03:34 15.04.2020
4776 Clouds 3 1027 15 0 1.31 126 02:57 15.04.2020
4777 Clouds 3 1027 15 0 1.31 126 01:57 15.04.2020
4778 Clouds 3 1027 15 0 1.31 126 01:39 15.04.2020
4779 Clouds 3 1027 15 0 1.31 126 01:18 15.04.2020
4780 Clouds 3 1027 15 0 1.31 126 00:36 15.04.2020
4781 Clouds 4 1026 14 0 1.77 144 00:18 15.04.2020
4782 Clouds 4 1026 14 0 1.77 144 23:54 14.04.2020
4783 Clouds 4 1026 14 0 1.77 144 23:36 14.04.2020
4784 Clouds 4 1026 14 0 1.77 144 23:18 14.04.2020
4785 Clouds 4 1026 14 0 1.77 144 22:54 14.04.2020
4786 Clouds 4 1026 14 0 1.77 144 22:36 14.04.2020
4787 Clouds 4 1026 14 0 1.77 144 22:18 14.04.2020
4788 Clouds 4 1026 14 0 1.77 144 21:54 14.04.2020
4789 Clouds 4 1026 14 0 1.77 144 21:36 14.04.2020
4790 Clear 6 1026 13 0 2.07 141 21:18 14.04.2020
4791 Clouds 6 1026 13 0 1.93 144 20:40 14.04.2020
4792 Clear 6 1026 13 0 2.07 141 20:22 14.04.2020
4793 Clear 6 1026 13 0 2.07 141 19:58 14.04.2020
4794 Clear 6 1026 13 0 2.07 141 19:38 14.04.2020
4795 Clouds 6 1026 13 0 1.93 144 19:20 14.04.2020
4796 Clouds 6 1026 13 0 1.93 144 18:55 14.04.2020
4797 Clear 6 1026 13 0 2.07 141 18:37 14.04.2020
4798 Clear 8 1025 10 0 1.66 128 18:18 14.04.2020
4799 Clear 8 1025 10 0 1.66 128 17:55 14.04.2020
4800 Clouds 9 1024 10 0 2.13 133 17:36 14.04.2020
4801 Clear 8 1025 10 0 1.66 128 17:18 14.04.2020
4802 Clouds 9 1024 10 0 2.13 133 16:41 14.04.2020
4803 Clouds 9 1024 10 0 2.13 133 16:22 14.04.2020
4804 Clear 8 1025 10 0 1.66 128 15:57 14.04.2020
4805 Clear 8 1025 10 0 1.66 128 15:38 14.04.2020
4806 Clouds 11 1019 7 0 2.1 84 15:19 14.04.2020
4807 Clouds 11 1019 8 0 1.21 104 14:57 14.04.2020
4808 Clouds 11 1019 7 0 2.1 84 14:39 14.04.2020
4809 Clouds 11 1019 7 0 2.1 84 14:39 14.04.2020
4810 Clouds 11 1019 8 0 1.21 104 14:21 14.04.2020
4811 Clouds 11 1019 8 0 1.21 104 14:21 14.04.2020
4812 Clouds 11 1019 8 0 1.21 104 13:45 14.04.2020
4813 Clouds 11 1019 8 0 1.21 104 13:24 14.04.2020
4814 Clouds 11 1019 8 0 1.21 104 12:59 14.04.2020
4815 Clouds 11 1019 8 0 1.21 104 12:40 14.04.2020
4816 Clear 13 1016 7 0 1.63 134 12:20 14.04.2020
4817 Clear 13 1016 7 0 1.63 134 11:54 14.04.2020
4818 Clear 13 1016 7 0 1.63 134 11:36 14.04.2020
4819 Clear 13 1016 7 0 1.63 134 11:18 14.04.2020
4820 Clear 13 1016 7 0 1.63 134 10:41 14.04.2020
4821 Clear 13 1016 7 0 1.63 134 10:23 14.04.2020
4822 Clear 13 1016 7 0 1.63 134 09:42 14.04.2020
4823 Clear 12 1021 8 0 1.89 176 09:24 14.04.2020
4824 Clear 12 1021 8 0 1.84 175 08:57 14.04.2020
4825 Clear 12 1021 8 0 1.84 175 08:39 14.04.2020
4826 Clear 12 1021 8 0 1.84 175 08:21 14.04.2020
4827 Clear 12 1021 8 0 1.84 175 07:52 14.04.2020
4828 Clear 12 1021 8 0 1.84 175 07:28 14.04.2020
4829 Clear 12 1021 8 0 1.84 175 06:46 14.04.2020
4830 Clear 8 1025 10 0 0.88 152 05:55 14.04.2020
4831 Clear 8 1025 10 0 0.88 152 03:52 14.04.2020
4832 Clear 2 1029 15 0 1.15 44 02:44 14.04.2020
4833 Clear 2 1029 15 0 1.02 47 01:38 14.04.2020
4834 Clear 2 1029 15 0 1.02 47 01:18 14.04.2020
4835 Clear 2 1029 15 0 1.02 47 00:32 14.04.2020
4836 Clear 2 1027 15 0 0.6 78 23:59 13.04.2020
4837 Clear 2 1027 15 0 0.6 78 23:39 13.04.2020
4838 Clear 2 1027 15 0 0.6 78 23:21 13.04.2020
4839 Clear 2 1027 15 0 0.6 78 22:56 13.04.2020
4840 Clear 2 1027 15 0 0.6 78 22:37 13.04.2020
4841 Clear 2 1027 15 0 0.6 78 22:19 13.04.2020
4842 Clear 2 1027 15 0 0.6 78 21:54 13.04.2020
4843 Clear 2 1027 15 0 0.65 80 21:36 13.04.2020
4844 Clear 3 1028 13 0 0.69 96 21:18 13.04.2020
4845 Clear 3 1028 13 0 0.69 96 20:40 13.04.2020
4846 Clear 3 1028 13 0 0.69 96 20:20 13.04.2020
4847 Clear 3 1028 13 0 0.69 96 20:20 13.04.2020
4848 Clear 3 1028 13 0 0.69 96 19:58 13.04.2020
4849 Clear 3 1028 13 0 0.69 96 19:37 13.04.2020
4850 Clear 3 1028 13 0 0.69 96 19:37 13.04.2020
4851 Clear 3 1028 13 0 0.69 96 19:19 13.04.2020
4852 Clear 3 1028 13 0 0.69 96 18:57 13.04.2020
4853 Clear 3 1028 13 0 0.69 96 18:38 13.04.2020
4854 Clear 5 1027 12 0 1.37 81 18:19 13.04.2020
4855 Clear 5 1027 12 0 1.37 81 17:57 13.04.2020
4856 Clear 5 1027 12 0 1.37 81 17:37 13.04.2020
4857 Clear 5 1027 12 0 1.37 81 17:19 13.04.2020
4858 Clear 5 1027 12 0 1.37 81 17:19 13.04.2020
4859 Clear 5 1027 12 0 1.37 81 16:58 13.04.2020
4860 Clear 5 1027 12 0 1.37 81 16:38 13.04.2020
4861 Clear 5 1027 12 0 1.37 81 16:19 13.04.2020
4862 Clear 5 1027 12 0 1.37 81 15:56 13.04.2020
4863 Clear 5 1027 12 0 1.37 81 15:37 13.04.2020
4864 Clouds 8 1021 9 0 2.6 68 15:18 13.04.2020
4865 Clouds 8 1021 9 0 2.6 68 14:41 13.04.2020
4866 Clouds 8 1021 9 0 3.07 63 14:22 13.04.2020
4867 Clouds 8 1021 9 0 3.07 63 13:56 13.04.2020
4868 Clouds 8 1021 9 0 3.07 63 13:38 13.04.2020
4869 Clouds 8 1021 9 0 3.07 63 13:20 13.04.2020
4870 Clouds 8 1021 9 0 3.07 63 12:59 13.04.2020
4871 Clouds 8 1021 9 0 3.07 63 12:40 13.04.2020
4872 Clouds 10 1019 9 0 3.75 29 12:20 13.04.2020
4873 Clouds 10 1019 9 0 3.75 29 11:58 13.04.2020
4874 Clouds 10 1019 9 0 3.75 29 11:40 13.04.2020
4875 Clouds 11 1019 9 0 4.87 15 11:18 13.04.2020
4876 Clouds 11 1019 9 0 4.87 15 10:55 13.04.2020
4877 Clouds 11 1019 9 0 4.87 15 10:37 13.04.2020
4878 Clouds 11 1019 9 0 4.87 15 10:18 13.04.2020
4879 Clouds 11 1019 9 0 4.87 15 09:44 13.04.2020
4880 Rain 9 1022 10 0 2.75 11 09:25 13.04.2020
4881 Rain 9 1022 10 0 2.75 11 08:47 13.04.2020
4882 Rain 9 1022 10 0 2.75 11 08:28 13.04.2020
4883 Rain 9 1022 10 0 2.75 11 07:58 13.04.2020
4884 Rain 9 1022 10 0 2.75 11 07:38 13.04.2020
4885 Rain 9 1022 10 0 2.75 11 07:19 13.04.2020
4886 Rain 9 1022 10 0 2.75 11 06:46 13.04.2020
4887 Clouds 6 1025 12 0 2.44 18 05:53 13.04.2020
4888 Clouds 6 1025 12 0 2.44 18 05:27 13.04.2020
4889 Clouds 6 1025 12 0 2.44 18 04:50 13.04.2020
4890 Clouds 6 1025 12 0 2.44 18 04:20 13.04.2020
4891 Clouds 6 1025 12 0 2.44 18 03:43 13.04.2020
4892 Clouds 2 1027 16 0 2.38 24 02:41 13.04.2020
4893 Clouds 1 1027 16 0 2.59 23 01:48 13.04.2020
4894 Clouds 1 1027 16 0 2.59 23 01:30 13.04.2020
4895 Clouds 1 1027 16 0 2.59 23 00:53 13.04.2020
4896 Clouds 1 1027 16 0 2.59 23 00:30 13.04.2020
4897 Clouds 1 1025 15 0 2.01 43 23:58 12.04.2020
4898 Clouds 1 1025 15 0 2.01 43 23:40 12.04.2020
4899 Clouds 1 1025 15 0 2.01 43 23:21 12.04.2020
4900 Clouds 1 1025 15 0 2.01 43 22:55 12.04.2020
4901 Clouds 1 1025 15 0 2.01 43 22:36 12.04.2020
4902 Clouds 1 1025 15 0 2.01 43 22:18 12.04.2020
4903 Clouds 1 1025 15 0 2.01 43 21:38 12.04.2020
4904 Clear 3 1027 14 0 1.69 34 21:20 12.04.2020
4905 Clear 3 1027 14 0 1.69 34 20:54 12.04.2020
4906 Clear 3 1027 14 0 1.69 34 20:36 12.04.2020
4907 Clear 3 1027 14 0 1.69 34 20:18 12.04.2020
4908 Clear 3 1027 14 0 1.69 34 19:41 12.04.2020
4909 Clear 3 1027 14 0 1.69 34 19:20 12.04.2020
4910 Clear 3 1027 14 0 1.69 34 18:59 12.04.2020
4911 Clear 3 1027 14 0 1.69 34 18:40 12.04.2020
4912 Clear 4 1025 13 0 1.27 45 18:19 12.04.2020
4913 Clear 4 1025 13 0 1.27 45 17:55 12.04.2020
4914 Clear 4 1025 13 0 1.27 45 17:37 12.04.2020
4915 Clear 4 1025 13 0 1.27 45 17:37 12.04.2020
4916 Clear 4 1025 13 0 1.27 45 17:18 12.04.2020
4917 Clear 4 1025 13 0 1.27 45 16:42 12.04.2020
4918 Clear 4 1025 13 0 1.27 45 16:22 12.04.2020
4919 Clear 4 1025 13 0 1.27 45 15:55 12.04.2020
4920 Clear 4 1025 13 0 1.27 45 15:37 12.04.2020
4921 Clouds 7 1020 11 0 2.57 8 15:18 12.04.2020
4922 Clouds 7 1020 11 0 2.57 8 14:39 12.04.2020
4923 Clouds 7 1021 11 0 2.42 11 14:21 12.04.2020
4924 Clouds 7 1021 11 0 2.42 11 13:57 12.04.2020
4925 Clouds 7 1021 11 0 2.42 11 13:37 12.04.2020
4926 Clouds 7 1021 11 0 2.42 11 13:18 12.04.2020
4927 Clouds 7 1021 11 0 2.42 11 12:46 12.04.2020
4928 Clouds 9 1018 9 0 5.65 356 12:22 12.04.2020
4929 Clouds 9 1018 9 0 5.65 356 11:59 12.04.2020
4930 Clouds 9 1018 9 0 5.65 356 11:38 12.04.2020
4931 Clouds 9 1018 9 0 5.65 356 11:19 12.04.2020
4932 Clouds 9 1018 9 0 5.65 356 10:56 12.04.2020
4933 Clouds 9 1018 9 0 5.65 356 10:38 12.04.2020
4934 Clouds 9 1018 9 0 5.65 356 10:19 12.04.2020
4935 Clouds 9 1018 9 0 5.65 356 09:56 12.04.2020
4936 Clouds 9 1018 9 0 5.65 356 09:37 12.04.2020
4937 Clouds 7 1024 12 0 4.65 351 09:19 12.04.2020
4938 Clouds 7 1024 12 0 4.65 351 08:50 12.04.2020
4939 Clouds 7 1024 12 0 4.65 351 08:30 12.04.2020
4940 Clouds 7 1024 12 0 4.65 351 07:47 12.04.2020
4941 Clouds 7 1024 12 0 4.65 351 07:19 12.04.2020
4942 Clouds 7 1024 12 0 4.65 351 06:54 12.04.2020
4943 Rain 4 1026 15 0 3.67 340 06:28 12.04.2020
4944 Rain 4 1026 15 0 3.67 340 05:48 12.04.2020
4945 Rain 4 1026 15 0 3.67 340 04:32 12.04.2020
4946 Rain 4 1026 15 0 3.67 340 03:30 12.04.2020
4947 Snow 1 1027 22 0 0.79 327 02:48 12.04.2020
4948 Snow 1 1026 21 0 1.14 346 02:29 12.04.2020
4949 Snow 1 1026 21 0 1.14 346 01:23 12.04.2020
4950 Snow 1 1026 21 0 1.14 346 00:43 12.04.2020
4951 Snow 2 1023 23 0 0.72 64 00:21 12.04.2020
4952 Snow 2 1023 23 0 0.72 64 23:58 11.04.2020
4953 Snow 2 1023 23 0 0.72 64 23:40 11.04.2020
4954 Snow 2 1023 23 0 0.72 64 23:22 11.04.2020
4955 Snow 2 1023 23 0 0.72 64 22:38 11.04.2020
4956 Snow 2 1023 23 0 0.72 64 22:20 11.04.2020
4957 Snow 2 1023 23 0 0.72 64 21:55 11.04.2020
4958 Snow 2 1023 23 0 0.72 64 21:36 11.04.2020
4959 Snow 2 1024 22 0 1.19 352 21:18 11.04.2020
4960 Snow 2 1024 22 0 1.19 352 20:56 11.04.2020
4961 Snow 2 1024 22 0 1.19 352 20:56 11.04.2020
4962 Snow 2 1024 22 0 1.19 352 20:37 11.04.2020
4963 Snow 2 1024 22 0 1.19 352 20:19 11.04.2020
4964 Snow 2 1024 22 0 1.19 352 20:19 11.04.2020
4965 Snow 2 1024 22 0 1.19 352 19:57 11.04.2020
4966 Snow 2 1024 22 0 1.19 352 19:38 11.04.2020
4967 Snow 2 1024 22 0 1.19 352 19:18 11.04.2020
4968 Snow 2 1024 22 0 1.19 352 18:55 11.04.2020
4969 Snow 2 1024 22 0 1.19 352 18:37 11.04.2020
4970 Clouds 7 1021 13 0 0.96 113 18:18 11.04.2020
4971 Clouds 7 1021 13 0 0.96 113 17:58 11.04.2020
4972 Clouds 7 1021 13 0 0.96 113 17:38 11.04.2020
4973 Clouds 7 1021 13 0 0.96 113 17:19 11.04.2020
4974 Clouds 7 1021 13 0 0.96 113 16:42 11.04.2020
4975 Clouds 7 1021 13 0 0.96 113 16:21 11.04.2020
4976 Clouds 7 1021 13 0 0.96 113 15:42 11.04.2020
4977 Clouds 9 1016 10 0 0.41 337 15:22 11.04.2020
4978 Clouds 9 1016 10 0 0.41 337 14:59 11.04.2020
4979 Clouds 9 1016 10 0 0.41 337 14:41 11.04.2020
4980 Rain 9 1017 11 0 0.93 52 14:23 11.04.2020
4981 Rain 9 1017 11 0 0.93 52 13:55 11.04.2020
4982 Rain 9 1017 11 0 0.93 52 13:36 11.04.2020
4983 Rain 9 1017 11 0 0.93 52 13:18 11.04.2020
4984 Rain 9 1017 11 0 0.93 52 12:39 11.04.2020
4985 Clouds 11 1013 9 0 2.13 275 12:18 11.04.2020
4986 Clouds 11 1013 9 0 2.13 275 11:55 11.04.2020
4987 Clouds 11 1013 9 0 2.13 275 11:37 11.04.2020
4988 Clouds 11 1013 9 0 2.13 275 11:18 11.04.2020
4989 Clouds 11 1013 9 0 2.13 275 10:42 11.04.2020
4990 Clouds 11 1013 9 0 2.13 275 10:42 11.04.2020
4991 Clouds 11 1013 9 0 2.13 275 10:22 11.04.2020
4992 Clouds 11 1013 9 0 2.13 275 09:58 11.04.2020
4993 Clouds 11 1013 9 0 2.13 275 09:39 11.04.2020
4994 Clouds 10 1019 10 0 2.17 166 09:20 11.04.2020
4995 Clouds 10 1019 10 0 2.17 166 08:46 11.04.2020
4996 Clouds 10 1019 10 0 2.17 166 08:27 11.04.2020
4997 Clouds 10 1019 10 0 2.17 166 07:50 11.04.2020
4998 Clouds 10 1019 10 0 2.17 166 07:28 11.04.2020
4999 Clouds 10 1019 10 0 2.17 166 06:49 11.04.2020
5000 Clear 6 1023 13 0 1.81 166 06:19 11.04.2020
5001 Clear 6 1023 13 0 1.81 166 05:52 11.04.2020
5002 Clear 6 1023 13 0 1.81 166 03:40 11.04.2020
5003 Clouds 2 1026 17 0 0.91 94 01:59 11.04.2020
5004 Clouds 2 1026 17 0 0.91 94 01:24 11.04.2020
5005 Clouds 2 1026 17 0 0.91 94 00:44 11.04.2020
5006 Clouds 2 1024 17 0 1.05 120 00:20 11.04.2020
5007 Clouds 2 1024 17 0 1.05 120 00:20 11.04.2020
5008 Clouds 2 1024 17 0 1.05 120 23:58 10.04.2020
5009 Clouds 2 1024 17 0 1.05 120 23:39 10.04.2020
5010 Clouds 2 1024 17 0 1.05 120 23:19 10.04.2020
5011 Clouds 2 1024 17 0 1.05 120 22:44 10.04.2020
5012 Clouds 2 1024 17 0 1.05 120 22:22 10.04.2020
5013 Clouds 2 1024 17 0 1.05 120 21:58 10.04.2020
5014 Clouds 2 1024 17 0 1.05 120 21:40 10.04.2020
5015 Clouds 2 1024 17 0 1.05 120 21:40 10.04.2020
5016 Clouds 5 1024 14 0 1.9 158 21:20 10.04.2020
5017 Clouds 5 1024 14 0 1.9 158 20:55 10.04.2020
5018 Clouds 5 1024 14 0 1.9 158 20:37 10.04.2020
5019 Clouds 5 1024 14 0 1.9 158 20:18 10.04.2020
5020 Clouds 5 1024 14 0 1.9 158 19:41 10.04.2020
5021 Clouds 5 1024 14 0 1.9 158 19:21 10.04.2020
5022 Clouds 5 1024 14 0 1.9 158 18:58 10.04.2020
5023 Clouds 5 1024 14 0 1.9 158 18:58 10.04.2020
5024 Clouds 5 1024 14 0 1.9 158 18:40 10.04.2020
5025 Clouds 5 1024 14 0 1.9 158 18:40 10.04.2020
5026 Clouds 6 1022 12 0 1.24 57 18:21 10.04.2020
5027 Clouds 6 1022 12 0 1.24 57 17:59 10.04.2020
5028 Clouds 6 1022 12 0 1.24 57 17:40 10.04.2020
5029 Clouds 6 1022 12 0 1.24 57 17:21 10.04.2020
5030 Clouds 6 1022 12 0 1.24 57 16:57 10.04.2020
5031 Clouds 6 1022 12 0 1.24 57 16:38 10.04.2020
5032 Clouds 6 1022 12 0 1.24 57 16:20 10.04.2020
5033 Clouds 6 1022 12 0 1.24 57 15:57 10.04.2020
5034 Clouds 6 1022 12 0 1.24 57 15:38 10.04.2020
5035 Clouds 9 1016 10 0 2.99 13 15:19 10.04.2020
5036 Clouds 9 1016 10 0 2.99 13 14:58 10.04.2020
5037 Rain 8 1017 11 0 3.24 49 14:39 10.04.2020
5038 Rain 8 1017 11 0 3.24 49 14:19 10.04.2020
5039 Rain 8 1017 11 0 3.24 49 13:43 10.04.2020
5040 Rain 8 1017 11 0 3.24 49 13:22 10.04.2020
5041 Rain 8 1017 11 0 3.24 49 12:45 10.04.2020
5042 Clouds 10 1014 9 0 1.42 31 12:24 10.04.2020
5043 Clouds 10 1014 9 0 1.42 31 11:59 10.04.2020
5044 Clouds 10 1014 9 0 1.42 31 11:40 10.04.2020
5045 Clouds 10 1014 9 0 1.42 31 11:22 10.04.2020
5046 Clouds 10 1014 9 0 1.42 31 10:56 10.04.2020
5047 Clouds 10 1014 9 0 1.42 31 10:37 10.04.2020
5048 Clouds 10 1014 9 0 1.42 31 10:37 10.04.2020
5049 Clouds 10 1014 9 0 1.42 31 10:18 10.04.2020
5050 Clouds 10 1014 9 0 1.85 312 09:42 10.04.2020
5051 Rain 7 1018 12 0 0.93 146 09:20 10.04.2020
5052 Rain 7 1018 12 0 0.93 146 08:47 10.04.2020
5053 Rain 7 1018 12 0 0.93 146 08:26 10.04.2020
5054 Rain 7 1018 12 0 0.93 146 07:49 10.04.2020
5055 Rain 7 1018 12 0 0.93 146 07:28 10.04.2020
5056 Rain 7 1018 12 0 0.93 146 06:59 10.04.2020
5057 Rain 7 1018 12 0 0.93 146 06:30 10.04.2020
5058 Clouds 5 1021 14 0 1.9 185 05:59 10.04.2020
5059 Clouds 5 1021 14 0 1.9 185 05:22 10.04.2020
5060 Clouds 5 1021 14 0 1.9 185 04:53 10.04.2020
5061 Clouds 5 1021 14 0 1.9 185 03:34 10.04.2020
5062 Clouds 1 1024 18 0 1.04 123 02:51 10.04.2020
5063 Clouds 1 1023 19 0 0.72 118 02:32 10.04.2020
5064 Clouds 1 1023 19 0 0.72 118 01:43 10.04.2020
5065 Clouds 1 1023 19 0 0.72 118 01:25 10.04.2020
5066 Clouds 1 1023 19 0 0.72 118 00:45 10.04.2020
5067 Clouds 1 1020 18 0 1.22 107 00:20 10.04.2020
5068 Clouds 1 1020 18 0 1.22 107 23:41 09.04.2020
5069 Clouds 1 1020 18 0 1.22 107 23:23 09.04.2020
5070 Clouds 1 1020 18 0 1.22 107 22:56 09.04.2020
5071 Clouds 1 1020 18 0 1.22 107 22:38 09.04.2020
5072 Clouds 1 1020 18 0 1.22 107 22:20 09.04.2020
5073 Clouds 1 1020 18 0 1.22 107 21:38 09.04.2020
5074 Rain 3 1021 16 0 1.53 156 21:20 09.04.2020
5075 Rain 3 1021 16 0 1.53 156 20:47 09.04.2020
5076 Rain 3 1021 16 0 1.53 156 20:23 09.04.2020
5077 Rain 3 1021 16 0 1.53 156 19:59 09.04.2020
5078 Rain 3 1021 16 0 1.53 156 19:39 09.04.2020
5079 Rain 3 1021 16 0 1.53 156 19:20 09.04.2020
5080 Rain 3 1021 16 0 1.53 156 18:42 09.04.2020
5081 Clouds 5 1018 14 0 1.55 177 18:21 09.04.2020
5082 Clouds 5 1018 14 0 1.55 177 17:57 09.04.2020
5083 Clouds 5 1018 14 0 1.55 177 17:38 09.04.2020
5084 Clouds 5 1018 14 0 1.55 177 17:18 09.04.2020
5085 Clouds 5 1018 14 0 1.55 177 16:40 09.04.2020
5086 Clouds 5 1018 14 0 1.55 177 16:20 09.04.2020
5087 Clouds 5 1018 14 0 1.55 177 15:56 09.04.2020
5088 Clouds 5 1018 14 0 1.55 177 15:37 09.04.2020
5089 Rain 8 1013 10 0 5.2 261 15:19 09.04.2020
5090 Rain 8 1013 10 0 5.2 261 14:43 09.04.2020
5091 Clouds 8 1013 11 0 3.28 256 14:21 09.04.2020
5092 Clouds 8 1013 11 0 3.28 256 13:58 09.04.2020
5093 Clouds 8 1013 11 0 3.28 256 13:40 09.04.2020
5094 Clouds 8 1013 11 0 3.28 256 13:22 09.04.2020
5095 Clouds 8 1013 11 0 3.28 256 12:55 09.04.2020
5096 Clouds 8 1013 11 0 3.28 256 12:36 09.04.2020
5097 Clouds 10 1009 9 0 3.81 244 12:18 09.04.2020
5098 Clouds 10 1009 9 0 3.81 244 11:43 09.04.2020
5099 Clouds 10 1009 9 0 3.81 244 11:20 09.04.2020
5100 Clouds 10 1009 9 0 3.81 244 10:58 09.04.2020
5101 Clouds 10 1009 9 0 3.81 244 10:40 09.04.2020
5102 Clouds 10 1009 9 0 3.81 244 10:21 09.04.2020
5103 Clouds 10 1009 9 0 3.81 244 09:56 09.04.2020
5104 Clouds 10 1009 9 0 3.81 244 09:56 09.04.2020
5105 Clouds 9 1011 10 0 1.93 256 09:38 09.04.2020
5106 Clouds 7 1014 12 0 2 198 09:20 09.04.2020
5107 Clouds 7 1014 12 0 2 198 08:44 09.04.2020
5108 Clouds 7 1014 12 0 2 198 08:23 09.04.2020
5109 Clouds 7 1014 12 0 2 198 07:57 09.04.2020
5110 Clouds 7 1014 12 0 2 198 07:28 09.04.2020
5111 Clouds 7 1014 12 0 2 198 06:57 09.04.2020
5112 Snow 4 1018 16 0 2.35 173 06:25 09.04.2020
5113 Snow 4 1018 16 0 2.35 173 05:43 09.04.2020
5114 Snow 4 1018 16 0 2.35 173 04:26 09.04.2020
5115 Snow 1 1020 19 0 1.2 150 02:32 09.04.2020
5116 Snow 1 1020 19 0 1.2 150 01:42 09.04.2020
5117 Snow 1 1020 19 0 1.2 150 01:24 09.04.2020
5118 Snow 1 1020 19 0 1.2 150 00:43 09.04.2020
5119 Snow 2 1018 19 0 2.01 161 00:20 09.04.2020
5120 Snow 2 1018 19 0 2.01 161 00:20 09.04.2020
5121 Snow 2 1018 19 0 2.01 161 23:59 08.04.2020
5122 Snow 2 1018 19 0 2.01 161 23:41 08.04.2020
5123 Snow 2 1018 19 0 2.01 161 23:21 08.04.2020
5124 Snow 2 1018 19 0 2.01 161 22:44 08.04.2020
5125 Snow 2 1018 19 0 2.01 161 22:24 08.04.2020
5126 Snow 2 1018 19 0 2.01 161 21:57 08.04.2020
5127 Snow 2 1018 19 0 2.01 161 21:38 08.04.2020
5128 Rain 3 1018 19 0 1.39 182 21:20 08.04.2020
5129 Rain 3 1018 19 0 1.39 182 20:58 08.04.2020
5130 Rain 3 1018 19 0 1.39 182 20:39 08.04.2020
5131 Rain 3 1018 19 0 1.39 182 20:20 08.04.2020
5132 Rain 3 1018 19 0 1.39 182 19:56 08.04.2020
5133 Rain 3 1018 19 0 1.39 182 19:37 08.04.2020
5134 Rain 3 1018 19 0 1.39 182 19:19 08.04.2020
5135 Rain 3 1018 19 0 1.39 182 18:42 08.04.2020
5136 Clouds 5 1017 15 0 2.48 137 18:23 08.04.2020
5137 Clouds 5 1017 15 0 2.48 137 17:56 08.04.2020
5138 Clouds 5 1017 15 0 2.48 137 17:38 08.04.2020
5139 Clouds 5 1017 15 0 2.48 137 17:18 08.04.2020
5140 Clouds 5 1017 15 0 2.48 137 16:42 08.04.2020
5141 Clouds 5 1017 15 0 2.48 137 16:23 08.04.2020
5142 Clouds 5 1017 15 0 2.48 137 15:55 08.04.2020
5143 Clouds 5 1017 15 0 2.48 137 15:37 08.04.2020
5144 Rain 8 1011 11 0 1.14 242 15:18 08.04.2020
5145 Rain 8 1011 11 0 1.14 242 14:42 08.04.2020
5146 Rain 8 1011 11 0 1.14 242 14:24 08.04.2020
5147 Rain 8 1011 12 0 1.46 145 13:54 08.04.2020
5148 Rain 8 1011 12 0 1.46 145 13:54 08.04.2020
5149 Rain 8 1011 12 0 1.46 145 13:36 08.04.2020
5150 Rain 8 1011 12 0 1.46 145 13:18 08.04.2020
5151 Rain 8 1011 12 0 1.46 145 12:41 08.04.2020
5152 Clouds 11 1009 9 0 1.28 171 12:18 08.04.2020
5153 Clouds 11 1009 9 0 1.28 171 12:18 08.04.2020
5154 Clouds 11 1009 9 0 1.28 171 11:56 08.04.2020
5155 Clouds 11 1009 9 0 1.28 171 11:38 08.04.2020
5156 Clouds 11 1009 9 0 1.28 171 11:19 08.04.2020
5157 Clouds 11 1009 9 0 1.28 171 10:55 08.04.2020
5158 Clouds 11 1009 9 0 1.28 171 10:37 08.04.2020
5159 Clouds 11 1009 9 0 1.28 171 10:18 08.04.2020
5160 Clouds 11 1009 9 0 1.28 171 10:18 08.04.2020
5161 Clouds 11 1009 9 0 1.28 171 09:42 08.04.2020
5162 Clear 9 1013 10 0 2.9 187 09:20 08.04.2020
5163 Clear 9 1013 10 0 2.9 187 08:59 08.04.2020
5164 Clear 9 1013 10 0 2.9 187 08:41 08.04.2020
5165 Clear 9 1013 10 0 2.9 187 08:21 08.04.2020
5166 Clear 9 1013 10 0 2.9 187 07:43 08.04.2020
5167 Clear 9 1013 10 0 2.9 187 07:22 08.04.2020
5168 Clear 9 1013 10 0 2.9 187 06:43 08.04.2020
5169 Clear 5 1018 13 0 1.69 164 05:49 08.04.2020
5170 Clear 5 1018 13 0 1.69 164 03:34 08.04.2020
5171 Clouds 0 1022 18 0 1.15 111 02:41 08.04.2020
5172 Clouds 0 1022 18 0 1.15 103 02:19 08.04.2020
5173 Clouds 0 1022 18 0 1.15 103 01:30 08.04.2020
5174 Clouds 0 1022 18 0 1.15 103 00:57 08.04.2020
5175 Clouds 0 1022 18 0 1.15 103 00:39 08.04.2020
5176 Clouds 2 1020 16 0 1.03 76 00:19 08.04.2020
5177 Clouds 2 1020 16 0 1.03 76 23:39 07.04.2020
5178 Clouds 2 1020 16 0 1.03 76 23:20 07.04.2020
5179 Clouds 2 1020 16 0 1.03 76 22:56 07.04.2020
5180 Clouds 2 1020 16 0 1.03 76 22:38 07.04.2020
5181 Clouds 2 1020 16 0 1.03 76 22:19 07.04.2020
5182 Clouds 2 1020 16 0 1.03 76 21:55 07.04.2020
5183 Clouds 2 1020 17 0 1.27 62 21:37 07.04.2020
5184 Clouds 3 1020 16 0 1.66 38 21:18 07.04.2020
5185 Clouds 3 1020 16 0 1.66 38 21:18 07.04.2020
5186 Clouds 3 1020 16 0 1.66 38 20:55 07.04.2020
5187 Clouds 3 1020 16 0 1.66 38 20:55 07.04.2020
5188 Clouds 3 1020 16 0 1.66 38 20:36 07.04.2020
5189 Clouds 3 1020 16 0 1.66 38 20:18 07.04.2020
5190 Clouds 3 1020 16 0 1.66 38 19:55 07.04.2020
5191 Clouds 3 1020 16 0 1.66 38 19:36 07.04.2020
5192 Clouds 3 1020 16 0 1.66 38 19:18 07.04.2020
5193 Clouds 3 1020 16 0 1.66 38 18:41 07.04.2020
5194 Clouds 4 1018 14 0 2.62 26 18:21 07.04.2020
5195 Clouds 4 1018 14 0 2.62 26 18:21 07.04.2020
5196 Clouds 4 1018 14 0 2.62 26 17:56 07.04.2020
5197 Clouds 4 1018 14 0 2.62 26 17:37 07.04.2020
5198 Clouds 4 1018 14 0 2.62 26 17:19 07.04.2020
5199 Clouds 4 1018 14 0 2.62 26 16:44 07.04.2020
5200 Clouds 4 1018 14 0 2.62 26 16:26 07.04.2020
5201 Clouds 4 1018 14 0 2.62 26 16:26 07.04.2020
5202 Clouds 4 1018 14 0 2.62 26 15:46 07.04.2020
5203 Clouds 8 1012 10 0 1.49 288 15:26 07.04.2020
5204 Clouds 8 1012 10 0 1.49 288 14:56 07.04.2020
5205 Clouds 8 1012 10 0 1.49 288 14:38 07.04.2020
5206 Clouds 7 1012 11 0 2.1 299 14:19 07.04.2020
5207 Clouds 7 1012 11 0 2.1 299 13:43 07.04.2020
5208 Clouds 7 1012 11 0 2.1 299 13:20 07.04.2020
5209 Clouds 7 1012 11 0 2.1 299 12:58 07.04.2020
5210 Clouds 7 1012 11 0 2.1 299 12:39 07.04.2020
5211 Clouds 9 1009 9 0 3.8 287 12:21 07.04.2020
5212 Clouds 9 1009 9 0 3.8 287 11:58 07.04.2020
5213 Clouds 9 1009 9 0 3.8 287 11:40 07.04.2020
5214 Clouds 9 1009 9 0 3.8 287 11:20 07.04.2020
5215 Clouds 9 1009 9 0 3.8 287 10:54 07.04.2020
5216 Clouds 9 1009 9 0 3.8 287 10:36 07.04.2020
5217 Clouds 9 1009 9 0 3.8 287 10:18 07.04.2020
5218 Clouds 9 1009 9 0 3.8 287 09:40 07.04.2020
5219 Rain 8 1013 10 0 4.5 258 09:18 07.04.2020
5220 Rain 8 1013 10 0 4.5 258 08:40 07.04.2020
5221 Rain 8 1013 10 0 4.5 258 08:22 07.04.2020
5222 Rain 8 1013 10 0 4.5 258 07:55 07.04.2020
5223 Rain 8 1013 10 0 4.5 258 07:37 07.04.2020
5224 Rain 8 1013 10 0 4.5 258 07:18 07.04.2020
5225 Rain 8 1013 10 0 4.5 258 06:39 07.04.2020
5226 Rain 4 1017 15 0 1.97 195 06:18 07.04.2020
5227 Rain 4 1017 15 0 1.97 195 05:26 07.04.2020
5228 Rain 4 1017 15 0 1.97 195 04:31 07.04.2020
5229 Snow 0 1019 21 0 1.01 97 03:23 07.04.2020
5230 Snow 0 1019 21 0 1.01 97 02:47 07.04.2020
5231 Snow 0 1018 21 0 0.73 98 01:43 07.04.2020
5232 Snow 0 1018 21 0 0.73 98 01:23 07.04.2020
5233 Snow 0 1017 21 0 1.22 69 00:26 07.04.2020
5234 Snow 0 1017 21 0 1.22 69 23:44 06.04.2020
5235 Snow 0 1017 21 0 1.22 69 23:44 06.04.2020
5236 Snow 0 1017 21 0 1.22 69 23:23 06.04.2020
5237 Snow 0 1017 21 0 1.22 69 22:57 06.04.2020
5238 Snow 0 1017 21 0 1.22 69 22:37 06.04.2020
5239 Snow 0 1017 21 0 1.22 69 22:19 06.04.2020
5240 Snow 0 1017 21 0 1.22 69 21:56 06.04.2020
5241 Snow 0 1017 21 0 1.22 69 21:38 06.04.2020
5242 Snow 2 1017 19 0 1.27 77 21:18 06.04.2020
5243 Snow 2 1017 19 0 1.27 77 20:42 06.04.2020
5244 Snow 2 1017 19 0 1.27 77 20:23 06.04.2020
5245 Snow 2 1017 19 0 1.27 77 20:23 06.04.2020
5246 Snow 2 1017 19 0 1.27 77 19:59 06.04.2020
5247 Snow 2 1017 19 0 1.27 77 19:40 06.04.2020
5248 Snow 2 1017 19 0 1.27 77 19:22 06.04.2020
5249 Snow 2 1017 19 0 1.27 77 18:55 06.04.2020
5250 Snow 2 1017 19 0 1.27 77 18:37 06.04.2020
5251 Clouds 3 1017 17 0 3.42 39 18:19 06.04.2020
5252 Clouds 3 1017 17 0 3.42 39 17:42 06.04.2020
5253 Clouds 3 1017 17 0 3.42 39 17:19 06.04.2020
5254 Clouds 3 1017 17 0 3.42 39 17:19 06.04.2020
5255 Clouds 3 1017 17 0 3.42 39 16:50 06.04.2020
5256 Clouds 3 1017 17 0 3.42 39 16:31 06.04.2020
5257 Clouds 3 1017 17 0 3.42 39 15:40 06.04.2020
5258 Rain 6 1012 13 0 3.71 18 13:46 06.04.2020
5259 Rain 6 1012 13 0 3.71 18 13:24 06.04.2020
5260 -273 0 0 0 0 0 12:58 06.04.2020
5261 Rain 6 1012 13 0 3.71 18 12:56 06.04.2020
5262 Rain 6 1012 13 0 3.71 18 12:56 06.04.2020
5263 Rain 6 1012 13 0 3.71 18 12:56 06.04.2020
5264 Rain 6 1012 13 0 3.71 18 12:22 06.04.2020
5265 Rain 6 1012 13 0 3.71 18 12:22 06.04.2020
5266 Rain 8 1010 12 0 1.53 98 11:54 06.04.2020
5267 Rain 8 1010 12 0 1.53 98 11:32 06.04.2020
5268 Rain 8 1010 12 0 1.53 98 11:32 06.04.2020
5269 Rain 8 1010 12 0 1.53 98 11:32 06.04.2020
5270 Rain 8 1010 12 0 1.53 98 11:32 06.04.2020
5271 Rain 8 1010 12 0 1.53 98 11:32 06.04.2020
5272 Rain 8 1010 12 0 1.53 98 10:51 06.04.2020
5273 Rain 8 1010 12 0 1.53 98 10:50 06.04.2020
5274 Rain 8 1010 12 0 1.53 98 10:50 06.04.2020
5275 Rain 8 1010 12 0 1.53 98 10:50 06.04.2020
5276 Rain 8 1010 12 0 1.53 98 10:50 06.04.2020
5277 Rain 8 1010 12 0 1.53 98 10:21 06.04.2020
5278 Rain 8 1010 12 0 1.53 98 09:47 06.04.2020
5279 Rain 8 1010 12 0 1.53 98 09:47 06.04.2020
5280 Rain 8 1010 12 0 1.53 98 09:47 06.04.2020
5281 Rain 8 1010 12 0 1.53 98 09:47 06.04.2020
5282 Rain 8 1010 12 0 1.53 98 09:47 06.04.2020
5283 Rain 8 1010 12 0 1.53 98 09:21 06.04.2020
5284 Rain 8 1010 12 0 1.53 98 09:21 06.04.2020
5285 Clouds 8 1014 11 0 0.8 228 08:54 06.04.2020
5286 Clouds 8 1014 11 0 0.8 228 08:30 06.04.2020
5287 Clouds 8 1014 11 0 0.8 228 07:36 06.04.2020
5288 Clouds 8 1014 11 0 0.8 228 07:36 06.04.2020
5289 Clouds 8 1014 11 0 0.8 228 06:42 06.04.2020
5290 Clouds 8 1014 11 0 0.8 228 06:23 06.04.2020
5291 Clouds 5 1018 14 0 1.58 149 04:20 06.04.2020
5292 Clouds 0 1021 19 0 1.09 63 02:58 06.04.2020
5293 Clouds 0 1021 19 0 1.09 63 02:36 06.04.2020
5294 Clouds 0 1021 19 0 1.37 52 01:26 06.04.2020
5295 Clouds 0 1021 19 0 1.37 52 00:41 06.04.2020
5296 Clouds 0 1021 19 0 1.37 52 00:23 06.04.2020
5297 Clouds 1 1019 18 0 0.96 66 23:43 05.04.2020
5298 Clouds 1 1019 18 0 0.96 66 23:25 05.04.2020
5299 Clouds 1 1019 18 0 0.96 66 23:25 05.04.2020
5300 Clouds 1 1019 18 0 0.96 66 23:25 05.04.2020
5301 Clouds 1 1019 18 0 0.96 66 22:55 05.04.2020
5302 Clouds 1 1019 18 0 0.96 66 22:37 05.04.2020
5303 Clouds 1 1019 18 0 0.96 66 22:18 05.04.2020
5304 Clouds 1 1019 18 0 0.96 66 21:46 05.04.2020
5305 Clouds 1 1019 18 0 0.96 66 21:24 05.04.2020
5306 Clouds 0 1019 19 0 0.96 61 21:24 05.04.2020
5307 Clouds 0 1019 19 0 0.96 61 21:24 05.04.2020
5308 Rain 2 1020 17 0 1.17 27 20:43 05.04.2020
5309 Rain 2 1020 17 0 1.17 27 20:18 05.04.2020
5310 Rain 2 1020 17 0 1.17 27 19:37 05.04.2020
5311 Rain 2 1020 17 0 1.17 27 19:19 05.04.2020
5312 Rain 2 1020 17 0 1.17 27 18:44 05.04.2020
5313 Rain 2 1020 17 0 1.17 27 18:44 05.04.2020
5314 Rain 2 1020 17 0 1.17 27 18:44 05.04.2020
5315 Rain 2 1020 17 0 1.17 27 18:44 05.04.2020
5316 Rain 2 1020 17 0 1.17 27 18:44 05.04.2020
5317 Clouds 3 1019 16 0 2.21 63 17:52 05.04.2020
5318 Clouds 3 1019 16 0 2.21 63 17:52 05.04.2020
5319 Clouds 3 1019 16 0 2.21 63 17:52 05.04.2020
5320 Clouds 3 1019 16 0 2.21 63 17:52 05.04.2020
5321 Clouds 3 1019 16 0 2.21 63 17:52 05.04.2020
5322 Clouds 3 1019 16 0 2.21 63 17:24 05.04.2020
5323 Clouds 3 1019 16 0 2.21 63 17:24 05.04.2020
5324 Clouds 3 1019 16 0 2.21 63 16:47 05.04.2020
5325 Clouds 3 1019 16 0 2.21 63 16:20 05.04.2020
5326 Clouds 3 1019 16 0 2.21 63 15:51 05.04.2020
5327 Clouds 3 1019 16 0 2.21 63 15:32 05.04.2020
5328 Clouds 3 1019 16 0 2.21 63 15:32 05.04.2020
5329 Rain 5 1014 14 0 1.46 21 14:49 05.04.2020
5330 Rain 5 1014 14 0 1.46 21 14:49 05.04.2020
5331 Rain 5 1014 14 0 1.46 21 14:25 05.04.2020
5332 Rain 5 1014 14 0 1.46 21 14:25 05.04.2020
5333 Rain 6 1014 13 0 1.56 356 13:43 05.04.2020
5334 Rain 6 1014 13 0 1.56 356 12:48 05.04.2020
5335 Clouds 6 1010 14 0 1.14 12 11:41 05.04.2020
5336 Clouds 6 1010 14 0 1.14 12 11:21 05.04.2020
5337 Clouds 6 1010 14 0 1.14 12 11:20 05.04.2020
5338 Clouds 6 1010 14 0 1.14 12 10:49 05.04.2020
5339 Clouds 6 1010 14 0 1.14 12 10:24 05.04.2020
5340 Clouds 6 1010 14 0 1.14 12 09:58 05.04.2020
5341 Clouds 6 1010 14 0 1.14 12 09:57 05.04.2020
5342 Clouds 6 1010 14 0 1.14 12 09:31 05.04.2020
5343 Rain 7 1014 11 0 1.51 246 09:02 05.04.2020
5344 Rain 7 1014 11 0 1.51 246 09:02 05.04.2020
5345 Rain 7 1014 11 0 1.51 246 07:31 05.04.2020
5346 Rain 4 1018 15 0 1.71 212 04:36 05.04.2020
5347 Rain 4 1018 15 0 1.71 212 03:32 05.04.2020
5348 Snow 0 1020 20 0 0.74 67 02:51 05.04.2020
5349 Snow 1 1020 19 0 0.68 143 01:48 05.04.2020
5350 Snow 1 1020 19 0 0.68 143 01:28 05.04.2020
5351 Snow 1 1020 19 0 0.68 143 01:28 05.04.2020
5352 Snow 1 1020 19 0 0.68 143 00:44 05.04.2020
5353 Snow 1 1020 19 0 0.68 143 00:21 05.04.2020
5354 Snow 1 1018 18 0 1.27 23 23:55 04.04.2020
5355 Snow 1 1018 18 0 1.27 23 23:37 04.04.2020
5356 Snow 1 1018 18 0 1.27 23 23:18 04.04.2020
5357 Snow 1 1018 18 0 1.27 23 22:40 04.04.2020
5358 Snow 1 1018 18 0 1.27 23 22:21 04.04.2020
5359 Snow 1 1018 18 0 1.27 23 21:59 04.04.2020
5360 Snow 1 1018 18 0 1.27 23 21:40 04.04.2020
5361 Clouds 3 1019 15 0 1.71 41 21:19 04.04.2020
5362 Clouds 3 1018 15 0 1.1 65 20:59 04.04.2020
5363 Clouds 3 1018 15 0 1.1 65 20:40 04.04.2020
5364 Clouds 3 1018 15 0 1.1 65 20:21 04.04.2020
5365 Clouds 3 1018 15 0 1.1 65 19:57 04.04.2020
5366 Clouds 3 1018 15 0 1.1 65 19:37 04.04.2020
5367 Clouds 3 1019 15 0 1.02 76 19:19 04.04.2020
5368 Clouds 3 1018 15 0 1.1 65 18:56 04.04.2020
5369 Clouds 3 1019 15 0 1.02 76 18:38 04.04.2020
5370 Clouds 5 1018 13 0 1.9 71 18:19 04.04.2020
5371 Clouds 4 1018 14 0 1.76 66 17:56 04.04.2020
5372 Clouds 4 1018 14 0 1.76 66 17:38 04.04.2020
5373 Clouds 4 1018 14 0 1.76 66 17:18 04.04.2020
5374 Clouds 5 1018 13 0 1.9 71 16:42 04.04.2020
5375 Clouds 4 1018 14 0 1.76 66 16:22 04.04.2020
5376 Clouds 4 1018 14 0 1.76 66 15:55 04.04.2020
5377 Clouds 5 1018 13 0 1.9 71 15:37 04.04.2020
5378 Clouds 7 1013 11 0 2.91 52 15:18 04.04.2020
5379 Clouds 7 1013 11 0 2.91 52 14:43 04.04.2020
5380 Clouds 6 1013 11 0 2.88 35 14:23 04.04.2020
5381 Clouds 7 1013 11 0 2.91 52 13:56 04.04.2020
5382 Clouds 7 1013 11 0 2.91 52 13:38 04.04.2020
5383 Clouds 7 1013 11 0 2.91 52 13:19 04.04.2020
5384 Clouds 7 1013 11 0 2.91 52 12:45 04.04.2020
5385 Clouds 7 1013 11 0 2.91 52 12:26 04.04.2020
5386 Clouds 9 1011 9 0 1.84 281 11:59 04.04.2020
5387 Clouds 9 1011 9 0 1.84 281 11:38 04.04.2020
5388 Clouds 9 1011 9 0 1.84 281 11:20 04.04.2020
5389 Clouds 9 1011 9 0 1.84 281 11:20 04.04.2020
5390 Clouds 9 1011 9 0 1.84 281 10:56 04.04.2020
5391 Clouds 9 1011 9 0 1.84 281 10:38 04.04.2020
5392 Clouds 9 1011 9 0 1.84 281 10:19 04.04.2020
5393 Clouds 9 1011 9 0 1.84 281 09:55 04.04.2020
5394 Clouds 9 1011 9 0 1.84 281 09:36 04.04.2020
5395 Clouds 7 1016 10 0 2.1 252 09:18 04.04.2020
5396 Clouds 7 1016 10 0 2.1 252 08:42 04.04.2020
5397 Clouds 7 1016 10 0 2.1 252 08:21 04.04.2020
5398 Clouds 7 1016 10 0 2.1 252 08:21 04.04.2020
5399 Clouds 7 1016 10 0 2.1 252 07:46 04.04.2020
5400 Clouds 7 1016 10 0 2.1 252 07:26 04.04.2020
5401 Clouds 7 1016 10 0 2.1 252 06:56 04.04.2020
5402 Clouds 7 1016 10 0 2.1 252 06:20 04.04.2020
5403 Clouds 5 1019 11 0 2.1 247 05:43 04.04.2020
5404 Clouds 5 1019 11 0 2.1 247 05:43 04.04.2020
5405 Clouds 5 1019 11 0 2.1 247 05:24 04.04.2020
5406 Clouds 5 1019 11 0 2.1 247 04:31 04.04.2020
5407 Clouds 5 1019 11 0 2.1 247 03:53 04.04.2020
5408 Clouds 0 1021 17 0 0.43 236 02:54 04.04.2020
5409 Clouds 0 1021 17 0 0.43 236 02:34 04.04.2020
5410 Clouds 0 1021 16 0 1.02 290 01:57 04.04.2020
5411 Clouds 0 1021 16 0 1.02 290 01:25 04.04.2020
5412 Clouds 0 1021 16 0 1.02 290 00:50 04.04.2020
5413 Clouds 0 1021 16 0 1.02 290 00:30 04.04.2020
5414 Clouds 1 1019 15 0 1.62 252 23:41 03.04.2020
5415 Clouds 1 1019 15 0 1.62 252 23:41 03.04.2020
5416 Clouds 1 1019 15 0 1.62 252 23:21 03.04.2020
5417 Clouds 1 1019 15 0 1.62 252 22:59 03.04.2020
5418 Clouds 1 1019 15 0 1.62 252 22:40 03.04.2020
5419 Clouds 1 1019 15 0 1.62 252 22:19 03.04.2020
5420 Clouds 1 1019 15 0 1.62 252 21:45 03.04.2020
5421 Clouds 1 1019 15 0 1.31 252 21:27 03.04.2020
5422 Clouds 3 1018 15 0 1.31 174 20:59 03.04.2020
5423 Clouds 3 1018 15 0 1.31 174 20:40 03.04.2020
5424 Clouds 3 1018 15 0 1.31 174 20:22 03.04.2020
5425 Clouds 3 1018 15 0 1.31 174 19:58 03.04.2020
5426 Clouds 3 1018 15 0 1.31 174 19:40 03.04.2020
5427 Clouds 3 1018 15 0 1.31 174 19:21 03.04.2020
5428 Clouds 3 1018 15 0 1.31 174 19:00 03.04.2020
5429 Clouds 3 1018 15 0 1.31 174 18:41 03.04.2020
5430 Clouds 3 1018 15 0 1.31 174 18:23 03.04.2020
5431 Clouds 5 1016 13 0 2.47 187 17:58 03.04.2020
5432 Clouds 5 1016 13 0 2.47 187 17:39 03.04.2020
5433 Clouds 5 1016 13 0 2.47 187 17:19 03.04.2020
5434 Clouds 5 1016 13 0 2.47 187 16:46 03.04.2020
5435 Clouds 5 1016 13 0 2.47 187 16:22 03.04.2020
5436 Clouds 5 1016 13 0 2.47 187 15:59 03.04.2020
5437 Clouds 5 1016 13 0 2.47 187 15:40 03.04.2020
5438 Clouds 5 1016 13 0 2.47 187 15:22 03.04.2020
5439 Clouds 7 1010 11 0 4.49 185 14:56 03.04.2020
5440 Clouds 7 1010 11 0 4.49 185 14:38 03.04.2020
5441 Clouds 8 1010 10 0 3.57 199 14:20 03.04.2020
5442 Clouds 8 1010 10 0 3.57 199 13:45 03.04.2020
5443 Clouds 8 1010 10 0 3.57 199 13:26 03.04.2020
5444 Clouds 8 1010 10 0 3.57 199 12:56 03.04.2020
5445 Clouds 8 1010 10 0 3.57 199 12:37 03.04.2020
5446 Clouds 10 1008 9 0 6.92 268 12:18 03.04.2020
5447 Clouds 10 1008 9 0 6.92 268 11:55 03.04.2020
5448 Clouds 10 1008 9 0 6.92 268 11:37 03.04.2020
5449 Clouds 10 1008 9 0 6.92 268 11:18 03.04.2020
5450 Clouds 10 1008 9 0 6.92 268 11:18 03.04.2020
5451 Clouds 10 1008 9 0 6.92 268 10:55 03.04.2020
5452 Clouds 10 1008 9 0 6.92 268 10:36 03.04.2020
5453 Clouds 10 1008 9 0 6.92 268 10:18 03.04.2020
5454 Clouds 10 1008 9 0 6.92 268 09:54 03.04.2020
5455 Clouds 10 1008 9 0 6.92 268 09:36 03.04.2020
5456 Clouds 9 1011 9 0 5.38 245 09:18 03.04.2020
5457 Clouds 9 1011 9 0 5.38 245 08:41 03.04.2020
5458 Clouds 9 1011 9 0 5.38 245 08:22 03.04.2020
5459 -273 0 0 0 0 0 07:50 03.04.2020
5460 Clouds 9 1011 9 0 5.38 245 07:32 03.04.2020
5461 Clouds 9 1011 9 0 5.38 245 06:55 03.04.2020
5462 Clouds 9 1011 9 0 5.38 245 06:25 03.04.2020
5463 Clear 5 1016 14 0 3.1 197 05:42 03.04.2020
5464 Clear 5 1016 14 0 3.1 197 03:47 03.04.2020
5465 Clear 5 1016 14 0 3.1 197 03:29 03.04.2020
5466 Clear 0 1018 19 0 1.9 149 02:30 03.04.2020
5467 Clear 0 1018 19 0 1.9 149 01:24 03.04.2020
5468 Clear 0 1018 19 0 1.9 149 00:43 03.04.2020
5469 Clear 0 1018 19 0 1.9 149 00:23 03.04.2020
5470 Clouds 1 1016 18 0 2.04 147 23:43 02.04.2020
5471 Clouds 1 1016 18 0 2.04 147 23:24 02.04.2020
5472 Clouds 1 1016 18 0 2.04 147 22:59 02.04.2020
5473 Clouds 1 1016 18 0 2.04 147 22:41 02.04.2020
5474 Clouds 1 1016 18 0 2.04 147 22:22 02.04.2020
5475 Clouds 1 1016 18 0 2.04 147 21:57 02.04.2020
5476 Clouds 1 1016 18 0 2.04 147 21:37 02.04.2020
5477 Clouds 3 1015 16 0 2.08 155 21:18 02.04.2020
5478 Clouds 3 1015 16 0 2.09 145 20:44 02.04.2020
5479 Clouds 3 1015 16 0 2.09 145 20:44 02.04.2020
5480 Clouds 3 1015 16 0 2.09 145 20:24 02.04.2020
5481 Clouds 3 1015 16 0 2.09 145 19:57 02.04.2020
5482 Clouds 3 1015 16 0 2.09 145 19:38 02.04.2020
5483 Clouds 3 1015 16 0 2.09 145 19:19 02.04.2020
5484 Clouds 3 1015 16 0 2.09 145 18:42 02.04.2020
5485 Clouds 3 1015 16 0 2.09 145 18:21 02.04.2020
5486 Clouds 5 1013 14 0 1.78 196 17:59 02.04.2020
5487 Clouds 5 1013 14 0 1.78 196 17:59 02.04.2020
5488 Clouds 5 1013 14 0 1.78 196 17:41 02.04.2020
5489 Clouds 5 1013 14 0 1.78 196 17:22 02.04.2020
5490 Clouds 5 1013 14 0 1.78 196 16:58 02.04.2020
5491 Clouds 5 1013 14 0 1.78 196 16:39 02.04.2020
5492 Clouds 5 1013 14 0 1.78 196 16:21 02.04.2020
5493 Clouds 5 1013 14 0 1.78 196 15:56 02.04.2020
5494 Clouds 5 1013 14 0 1.78 196 15:38 02.04.2020
5495 Clouds 7 1007 12 0 2.13 242 15:18 02.04.2020
5496 Clouds 7 1007 12 0 2.13 242 14:55 02.04.2020
5497 Clouds 7 1007 12 0 2.13 242 14:37 02.04.2020
5498 Clouds 7 1007 12 0 2.56 231 14:18 02.04.2020
5499 Clouds 7 1007 12 0 2.56 231 13:54 02.04.2020
5500 Clouds 7 1007 12 0 2.56 231 13:36 02.04.2020
5501 Clouds 7 1007 12 0 2.56 231 13:18 02.04.2020
5502 Clouds 7 1007 12 0 2.56 231 12:41 02.04.2020
5503 Clouds 11 1005 9 0 7.04 258 12:19 02.04.2020
5504 Clouds 11 1005 9 0 7.04 258 11:57 02.04.2020
5505 Clouds 11 1005 9 0 7.04 258 11:57 02.04.2020
5506 Clouds 11 1005 9 0 7.04 258 11:39 02.04.2020
5507 Clouds 11 1005 9 0 7.04 258 11:20 02.04.2020
5508 Clouds 11 1005 9 0 7.04 258 10:56 02.04.2020
5509 Clouds 11 1005 9 0 7.04 258 10:37 02.04.2020
5510 Clouds 11 1005 9 0 7.04 258 10:19 02.04.2020
5511 Clouds 11 1005 9 0 7.04 258 10:19 02.04.2020
5512 Clouds 11 1005 9 0 7.04 258 09:58 02.04.2020
5513 Clouds 11 1005 9 0 7.04 258 09:39 02.04.2020
5514 Clouds 7 1009 13 0 2.65 183 09:20 02.04.2020
5515 Clouds 7 1009 13 0 2.65 183 08:47 02.04.2020
5516 Clouds 7 1009 13 0 2.65 183 08:27 02.04.2020
5517 Clouds 7 1009 13 0 2.65 183 07:47 02.04.2020
5518 Clouds 7 1009 13 0 2.65 183 07:22 02.04.2020
5519 Clouds 7 1009 13 0 2.65 183 06:59 02.04.2020
5520 Clouds 7 1009 13 0 2.65 183 06:23 02.04.2020
5521 Snow 4 1014 16 0 2.12 149 05:45 02.04.2020
5522 Snow 4 1014 16 0 2.12 149 04:47 02.04.2020
5523 Snow 0 1015 21 0 1.59 157 02:18 02.04.2020
5524 Snow 0 1015 21 0 1.59 157 00:54 02.04.2020
5525 Snow 0 1015 21 0 1.59 157 00:36 02.04.2020
5526 Snow 1 1014 21 0 1.1 155 00:18 02.04.2020
5527 Snow 1 1014 21 0 1.1 155 23:38 01.04.2020
5528 Snow 1 1014 21 0 1.1 155 23:19 01.04.2020
5529 Snow 1 1014 21 0 1.1 155 22:41 01.04.2020
5530 Snow 1 1014 21 0 1.1 155 22:22 01.04.2020
5531 Snow 1 1014 21 0 1.1 155 21:58 01.04.2020
5532 Snow 1 1014 21 0 1.1 155 21:39 01.04.2020
5533 Snow 2 1015 23 0 2.29 156 21:19 01.04.2020
5534 Snow 2 1015 23 0 2.29 156 20:56 01.04.2020
5535 Snow 2 1015 23 0 2.29 156 20:38 01.04.2020
5536 Snow 2 1015 23 0 2.29 156 20:19 01.04.2020
5537 Snow 2 1015 23 0 2.29 156 19:57 01.04.2020
5538 Snow 2 1015 23 0 2.29 156 19:37 01.04.2020
5539 Snow 2 1015 23 0 2.29 156 19:37 01.04.2020
5540 Snow 2 1015 23 0 2.29 156 19:19 01.04.2020
5541 Snow 2 1015 23 0 2.29 156 18:41 01.04.2020
5542 Snow 2 1015 23 0 2.29 156 18:21 01.04.2020
5543 Snow 4 1014 20 0 3.49 146 17:57 01.04.2020
5544 Snow 4 1014 20 0 3.49 146 17:37 01.04.2020
5545 Snow 4 1014 20 0 3.49 146 17:18 01.04.2020
5546 Snow 4 1014 20 0 3.49 146 16:56 01.04.2020
5547 Snow 4 1014 20 0 3.49 146 16:38 01.04.2020
5548 Snow 4 1014 20 0 3.49 146 16:20 01.04.2020
5549 Snow 4 1014 20 0 3.49 146 15:43 01.04.2020
5550 Snow 4 1014 20 0 3.49 146 15:24 01.04.2020
5551 Clouds 8 1008 12 0 1.02 174 14:59 01.04.2020
5552 Clouds 8 1008 12 0 1.02 174 14:40 01.04.2020
5553 Clouds 7 1008 13 0 0.41 225 14:21 01.04.2020
5554 Clouds 7 1008 13 0 0.41 225 13:59 01.04.2020
5555 Clouds 7 1008 13 0 0.41 225 13:39 01.04.2020
5556 Clouds 7 1008 13 0 0.41 225 13:20 01.04.2020
5557 Clouds 7 1008 13 0 0.41 225 12:57 01.04.2020
5558 Clouds 7 1008 13 0 0.41 225 12:37 01.04.2020
5559 Rain 10 1005 11 0 1.79 230 12:19 01.04.2020
5560 Rain 10 1005 11 0 1.79 230 11:56 01.04.2020
5561 Rain 10 1005 11 0 1.79 230 11:37 01.04.2020
5562 Rain 10 1005 11 0 1.79 230 11:18 01.04.2020
5563 Rain 10 1005 11 0 1.79 230 10:39 01.04.2020
5564 Rain 10 1005 11 0 1.79 230 10:21 01.04.2020
5565 Rain 10 1005 11 0 1.79 230 09:58 01.04.2020
5566 Rain 10 1005 11 0 1.79 230 09:40 01.04.2020
5567 Clear 11 1009 9 0 2.91 151 09:20 01.04.2020
5568 Clear 11 1009 9 0 3.03 153 08:44 01.04.2020
5569 Clear 11 1009 9 0 3.03 153 08:20 01.04.2020
5570 Clear 11 1009 9 0 3.03 153 07:58 01.04.2020
5571 Clear 11 1009 9 0 3.03 153 07:40 01.04.2020
5572 Clear 11 1009 9 0 3.03 153 07:19 01.04.2020
5573 Clear 11 1009 9 0 3.03 153 06:41 01.04.2020
5574 Clear 7 1015 12 0 2.11 154 06:20 01.04.2020
5575 Clear 7 1015 12 0 2.11 154 05:24 01.04.2020
5576 Clear 7 1015 12 0 2.11 154 03:40 01.04.2020
5577 Clouds 2 1019 17 0 1.42 127 02:59 01.04.2020
5578 Clouds 1 1018 17 0 1.34 126 02:31 01.04.2020
5579 Clouds 1 1018 17 0 1.34 126 01:49 01.04.2020
5580 Clouds 1 1018 17 0 1.34 126 01:25 01.04.2020
5581 Clouds 1 1018 17 0 1.34 126 00:47 01.04.2020
5582 Clouds 1 1018 17 0 1.34 126 00:22 01.04.2020
5583 Clouds 3 1018 15 0 1.27 130 23:55 31.03.2020
5584 Clouds 3 1018 15 0 1.27 130 23:37 31.03.2020
5585 Clouds 3 1018 15 0 1.27 130 23:19 31.03.2020
5586 Clouds 3 1018 15 0 1.27 130 22:40 31.03.2020
5587 Clouds 3 1018 15 0 1.27 130 22:21 31.03.2020
5588 Clouds 3 1018 15 0 1.27 130 21:58 31.03.2020
5589 Clouds 3 1018 15 0 1.27 130 21:39 31.03.2020
5590 Clouds 2 1017 16 0 1.18 120 21:21 31.03.2020
5591 Clouds 4 1017 14 0 0.44 36 20:57 31.03.2020
5592 Clouds 4 1017 14 0 0.44 36 20:37 31.03.2020
5593 Clouds 4 1017 14 0 0.44 36 20:19 31.03.2020
5594 Clouds 4 1017 14 0 0.44 36 19:56 31.03.2020
5595 Clouds 4 1017 14 0 0.44 36 19:37 31.03.2020
5596 Clouds 4 1017 14 0 0.44 36 19:19 31.03.2020
5597 Clouds 4 1017 14 0 0.44 36 18:43 31.03.2020
5598 Clouds 4 1017 14 0 0.44 36 18:20 31.03.2020
5599 Clouds 7 1017 12 0 1.54 354 17:57 31.03.2020
5600 Clouds 7 1017 12 0 1.54 354 17:39 31.03.2020
5601 Clouds 7 1017 12 0 1.54 354 17:21 31.03.2020
5602 Clouds 7 1017 12 0 1.54 354 16:56 31.03.2020
5603 Clouds 7 1017 12 0 1.54 354 16:36 31.03.2020
5604 Clouds 7 1017 12 0 1.54 354 16:18 31.03.2020
5605 Clouds 7 1017 12 0 1.54 354 15:55 31.03.2020
5606 Clouds 7 1017 12 0 1.54 354 15:36 31.03.2020
5607 Clouds 10 1011 9 0 3.71 285 15:18 31.03.2020
5608 Clouds 10 1011 9 0 3.71 285 14:42 31.03.2020
5609 Clouds 10 1010 9 0 4 276 14:22 31.03.2020
5610 Clouds 10 1010 9 0 4 276 13:58 31.03.2020
5611 Clouds 10 1010 9 0 4 276 13:40 31.03.2020
5612 Clouds 10 1010 9 0 4 276 13:19 31.03.2020
5613 Clouds 10 1010 9 0 4 276 12:46 31.03.2020
5614 Clouds 10 1010 9 0 4 276 12:20 31.03.2020
5615 Clouds 13 1008 7 0 8.3 260 11:58 31.03.2020
5616 Clouds 13 1008 7 0 8.3 260 11:38 31.03.2020
5617 Clouds 13 1008 7 0 8.3 260 11:19 31.03.2020
5618 Clouds 13 1008 7 0 8.3 260 10:55 31.03.2020
5619 Clouds 13 1008 7 0 8.3 260 10:37 31.03.2020
5620 Clouds 13 1008 7 0 8.3 260 10:19 31.03.2020
5621 Clouds 13 1008 7 0 8.3 260 09:45 31.03.2020
5622 Clouds 13 1008 7 0 8.3 260 09:26 31.03.2020
5623 Clouds 12 1012 7 0 4.07 234 08:59 31.03.2020
5624 Clouds 12 1012 7 0 4.07 234 08:41 31.03.2020
5625 Clouds 12 1012 7 0 4.07 234 08:21 31.03.2020
5626 Clouds 12 1012 7 0 4.07 234 07:59 31.03.2020
5627 Clouds 12 1012 7 0 4.07 234 07:41 31.03.2020
5628 Clouds 12 1012 7 0 4.07 234 07:22 31.03.2020
5629 Clouds 12 1012 7 0 4.07 234 06:55 31.03.2020
5630 Clouds 12 1012 7 0 4.07 234 06:36 31.03.2020
5631 Clear 7 1017 11 0 1.93 176 05:42 31.03.2020
5632 Clear 7 1017 11 0 1.93 176 05:23 31.03.2020
5633 Clear 0 1020 15 0 1.42 134 02:53 31.03.2020
5634 Clouds 0 1020 16 0 1.37 135 01:47 31.03.2020
5635 Clouds 0 1020 16 0 1.37 135 01:19 31.03.2020
5636 Clouds 0 1020 16 0 1.37 135 00:43 31.03.2020
5637 Clouds 0 1020 16 0 1.37 135 00:20 31.03.2020
5638 Clouds 1 1019 14 0 1.4 132 23:40 30.03.2020
5639 Clouds 1 1019 14 0 1.4 132 23:20 30.03.2020
5640 Clouds 1 1019 14 0 1.4 132 22:57 30.03.2020
5641 Clouds 1 1019 14 0 1.4 132 22:38 30.03.2020
5642 Clouds 1 1019 14 0 1.4 132 22:19 30.03.2020
5643 Clouds 1 1019 14 0 1.4 132 21:57 30.03.2020
5644 Clouds 1 1019 14 0 1.4 132 21:38 30.03.2020
5645 Clouds 3 1020 12 0 0.8 119 21:20 30.03.2020
5646 Clouds 3 1020 12 0 0.8 119 20:57 30.03.2020
5647 Clouds 3 1020 12 0 0.8 119 20:38 30.03.2020
5648 Clouds 3 1020 12 0 0.8 119 20:19 30.03.2020
5649 Clouds 3 1020 12 0 0.8 119 19:41 30.03.2020
5650 Clouds 3 1020 12 0 0.8 119 19:22 30.03.2020
5651 Clouds 3 1020 12 0 0.8 119 18:59 30.03.2020
5652 Clouds 3 1020 12 0 0.8 119 18:41 30.03.2020
5653 Clouds 3 1020 12 0 0.8 119 18:22 30.03.2020
5654 Clouds 4 1019 11 0 1.27 68 17:57 30.03.2020
5655 Clouds 4 1019 11 0 1.27 68 17:39 30.03.2020
5656 Clouds 4 1019 11 0 1.27 68 17:39 30.03.2020
5657 Clouds 4 1019 11 0 1.27 68 17:19 30.03.2020
5658 Clouds 4 1019 11 0 1.27 68 16:57 30.03.2020
5659 Clouds 4 1019 11 0 1.27 68 16:38 30.03.2020
5660 Clouds 4 1019 11 0 1.27 68 16:20 30.03.2020
5661 Clouds 4 1019 11 0 1.27 68 15:55 30.03.2020
5662 Clouds 4 1019 11 0 1.27 68 15:37 30.03.2020
5663 Clouds 7 1014 9 0 2.68 321 15:18 30.03.2020
5664 Clouds 7 1014 9 0 2.68 321 14:55 30.03.2020
5665 Clouds 7 1014 9 0 2.68 321 14:36 30.03.2020
5666 Clouds 7 1015 9 0 3.46 317 14:18 30.03.2020
5667 Clouds 7 1015 9 0 3.46 317 13:44 30.03.2020
5668 Clouds 7 1015 9 0 3.46 317 13:21 30.03.2020
5669 Clouds 7 1015 9 0 3.46 317 12:59 30.03.2020
5670 Clouds 7 1015 9 0 3.46 317 12:41 30.03.2020
5671 Clouds 11 1012 8 0 9.61 290 12:19 30.03.2020
5672 Clouds 11 1012 8 0 9.61 290 11:57 30.03.2020
5673 Clouds 11 1012 8 0 9.61 290 11:38 30.03.2020
5674 Clouds 11 1012 8 0 9.61 290 11:20 30.03.2020
5675 Clouds 11 1012 8 0 9.61 290 10:40 30.03.2020
5676 Clouds 11 1012 8 0 9.61 290 10:22 30.03.2020
5677 Clouds 11 1012 8 0 9.61 290 09:57 30.03.2020
5678 Clouds 11 1012 8 0 9.61 290 09:38 30.03.2020
5679 Clouds 9 1015 10 0 10.47 274 09:19 30.03.2020
5680 Clouds 9 1015 10 0 10.47 274 08:42 30.03.2020
5681 Clouds 9 1015 10 0 10.47 274 08:22 30.03.2020
5682 Clouds 9 1015 10 0 10.47 274 07:50 30.03.2020
5683 Clouds 9 1015 10 0 10.47 274 07:31 30.03.2020
5684 Clouds 9 1015 10 0 10.47 274 06:57 30.03.2020
5685 Clouds 9 1015 10 0 10.47 274 06:33 30.03.2020
5686 Clouds 6 1017 12 0 3.78 239 05:55 30.03.2020
5687 Clouds 6 1017 12 0 3.78 239 05:33 30.03.2020
5688 Clouds 6 1017 12 0 3.78 239 04:24 30.03.2020
5689 Clouds 6 1017 12 0 3.78 239 03:44 30.03.2020
5690 Clear 1 1019 18 0 0.82 242 02:42 30.03.2020
5691 Clear 0 1018 18 0 0.66 294 01:48 30.03.2020
5692 Clear 0 1018 18 0 0.66 294 00:55 30.03.2020
5693 Clear 0 1018 18 0 0.66 294 00:24 30.03.2020
5694 Clear 2 1016 16 0 0.97 236 23:43 29.03.2020
5695 Clear 2 1016 16 0 0.97 236 23:24 29.03.2020
5696 Clear 2 1016 16 0 0.97 236 22:59 29.03.2020
5697 Clear 2 1016 16 0 0.97 236 22:39 29.03.2020
5698 Clear 2 1016 16 0 0.97 236 22:19 29.03.2020
5699 Clear 2 1016 16 0 0.97 236 22:19 29.03.2020
5700 Clear 2 1016 16 0 0.97 236 21:58 29.03.2020
5701 Clear 2 1016 16 0 0.97 236 21:37 29.03.2020
5702 Clouds 5 1015 14 0 1.69 257 21:18 29.03.2020
5703 Clouds 5 1015 14 0 1.69 257 20:55 29.03.2020
5704 Clouds 5 1015 14 0 1.69 257 20:37 29.03.2020
5705 Clouds 5 1015 14 0 1.69 257 20:37 29.03.2020
5706 Clouds 5 1015 14 0 1.69 257 20:37 29.03.2020
5707 Clouds 5 1015 14 0 1.69 257 20:18 29.03.2020
5708 Clouds 5 1015 14 0 1.69 257 19:54 29.03.2020
5709 Clouds 5 1015 14 0 1.69 257 19:36 29.03.2020
5710 Clouds 5 1015 14 0 1.69 257 19:18 29.03.2020
5711 Clouds 5 1015 14 0 1.69 257 18:54 29.03.2020
5712 Clouds 5 1015 14 0 1.69 257 18:36 29.03.2020
5713 Clouds 5 1015 14 0 1.69 257 18:36 29.03.2020
5714 Clouds 7 1013 12 0 3.25 251 18:18 29.03.2020
5715 Clouds 7 1013 12 0 3.25 251 18:18 29.03.2020
5716 Clouds 7 1013 12 0 3.25 251 17:42 29.03.2020
5717 Clouds 7 1013 12 0 3.25 251 17:22 29.03.2020
5718 Clouds 7 1013 12 0 3.25 251 16:59 29.03.2020
5719 Clouds 7 1013 12 0 3.25 251 16:40 29.03.2020
5720 Clouds 7 1013 12 0 3.25 251 16:21 29.03.2020
5721 Clouds 7 1013 12 0 3.25 251 15:58 29.03.2020
5722 Clouds 7 1013 12 0 3.25 251 15:40 29.03.2020
5723 Clouds 7 1013 12 0 3.25 251 15:20 29.03.2020
5724 Clouds 10 1006 9 0 7.26 245 14:56 29.03.2020
5725 Clouds 10 1006 9 0 7.26 245 14:37 29.03.2020
5726 Clouds 10 1006 9 0 7.19 256 14:19 29.03.2020
5727 Clouds 10 1006 9 0 7.19 256 13:55 29.03.2020
5728 Clouds 10 1006 9 0 7.19 256 13:37 29.03.2020
5729 Clouds 10 1006 9 0 7.19 256 13:18 29.03.2020
5730 Clouds 10 1006 9 0 7.19 256 12:54 29.03.2020
5731 Clouds 10 1006 9 0 7.19 256 12:54 29.03.2020
5732 Clouds 10 1006 9 0 7.19 256 12:36 29.03.2020
5733 Clouds 14 1004 7 0 9.58 266 12:18 29.03.2020
5734 Clouds 14 1004 7 0 9.58 266 11:38 29.03.2020
5735 Clouds 14 1004 7 0 9.58 266 11:20 29.03.2020
5736 Clouds 14 1004 7 0 9.58 266 10:40 29.03.2020
5737 Clouds 14 1004 7 0 9.58 266 10:21 29.03.2020
5738 Clouds 14 1004 7 0 9.58 266 09:59 29.03.2020
5739 Clouds 14 1004 7 0 9.58 266 09:38 29.03.2020
5740 Clear 12 1010 8 0 4.56 256 09:19 29.03.2020
5741 Clear 11 1010 8 0 3.58 255 08:45 29.03.2020
5742 Clear 11 1010 8 0 3.58 255 08:27 29.03.2020
5743 Clear 11 1010 8 0 3.58 255 07:56 29.03.2020
5744 Clear 11 1010 8 0 3.58 255 07:37 29.03.2020
5745 Clear 11 1010 8 0 3.58 255 07:19 29.03.2020
5746 Clear 7 1015 11 0 2.63 224 04:58 29.03.2020
5747 Clear 7 1015 11 0 2.63 224 03:42 29.03.2020
5748 Clear 7 1015 11 0 2.63 224 03:23 29.03.2020
5749 Clear 0 1018 18 0 1.23 272 01:50 29.03.2020
5750 Clear 0 1018 18 0 1.23 272 01:23 29.03.2020
5751 Clear 0 1018 17 0 1.08 226 00:48 29.03.2020
5752 Clear 0 1018 17 0 1.08 226 00:29 29.03.2020
5753 Clear 0 1018 17 0 1.08 226 23:41 28.03.2020
5754 Clear 0 1018 17 0 1.08 226 23:41 28.03.2020
5755 Clear 0 1018 17 0 1.08 226 23:23 28.03.2020
5756 Clear 2 1017 15 0 1.86 262 22:57 28.03.2020
5757 Clear 2 1017 15 0 1.86 262 22:37 28.03.2020
5758 Clear 2 1017 15 0 1.86 262 22:18 28.03.2020
5759 Clear 2 1017 15 0 1.86 262 21:41 28.03.2020
5760 Clear 2 1017 15 0 1.86 262 21:23 28.03.2020
5761 Clear 2 1017 15 0 1.86 262 20:58 28.03.2020
5762 Clear 2 1017 15 0 1.86 262 20:39 28.03.2020
5763 Clear 1 1016 15 0 1.46 260 20:21 28.03.2020
5764 Clear 3 1016 14 0 1.85 268 19:56 28.03.2020
5765 Clear 3 1016 14 0 1.85 268 19:37 28.03.2020
5766 Clear 3 1016 14 0 1.85 268 19:37 28.03.2020
5767 Clear 3 1016 14 0 1.85 268 19:18 28.03.2020
5768 Clear 3 1016 14 0 1.85 268 18:47 28.03.2020
5769 Clear 3 1016 14 0 1.85 268 18:22 28.03.2020
5770 Clear 3 1016 14 0 1.85 268 17:58 28.03.2020
5771 Clear 3 1016 14 0 1.85 268 17:38 28.03.2020
5772 Clear 6 1013 12 0 3.12 277 17:19 28.03.2020
5773 Clear 6 1013 12 0 3.12 277 16:42 28.03.2020
5774 Clear 6 1013 12 0 3.12 277 16:20 28.03.2020
5775 Clear 6 1013 12 0 3.12 277 15:56 28.03.2020
5776 Clear 6 1013 12 0 3.12 277 15:37 28.03.2020
5777 Clear 6 1013 12 0 3.12 277 15:18 28.03.2020
5778 Clear 6 1013 12 0 3.12 277 14:42 28.03.2020
5779 Clear 6 1013 12 0 3.12 277 14:22 28.03.2020
5780 Clouds 11 1005 9 0 4.79 251 13:57 28.03.2020
5781 Clouds 11 1005 9 0 4.79 251 13:37 28.03.2020
5782 Clouds 10 1006 9 0 4.92 260 13:18 28.03.2020
5783 Clouds 10 1006 9 0 4.92 260 12:38 28.03.2020
5784 Clouds 10 1006 9 0 4.92 260 12:19 28.03.2020
5785 Clouds 10 1006 9 0 4.92 260 11:42 28.03.2020
5786 Clouds 10 1006 9 0 4.92 260 11:42 28.03.2020
5787 Clouds 10 1006 9 0 4.92 260 11:21 28.03.2020
5788 Clouds 14 1002 9 0 5.17 253 10:55 28.03.2020
5789 Clouds 14 1002 9 0 5.17 253 10:36 28.03.2020
5790 Clouds 14 1002 9 0 5.17 253 10:18 28.03.2020
5791 Clouds 14 1002 9 0 5.17 253 09:40 28.03.2020
5792 Clouds 14 1002 9 0 5.17 253 09:22 28.03.2020
5793 Clouds 15 1002 8 0 6.36 262 08:45 28.03.2020
5794 Clouds 15 1002 8 0 6.36 262 08:25 28.03.2020
5795 Clouds 12 1008 12 0 1.86 208 07:58 28.03.2020
5796 Clouds 12 1008 12 0 1.86 208 07:40 28.03.2020
5797 Clouds 12 1008 12 0 1.86 208 06:54 28.03.2020
5798 Clouds 12 1008 12 0 1.86 208 06:29 28.03.2020
5799 Clouds 12 1008 12 0 1.86 208 05:38 28.03.2020
5800 Clear 7 1014 16 0 2.5 172 05:19 28.03.2020
5801 Clear 7 1014 16 0 2.5 172 04:39 28.03.2020
5802 Clear 7 1014 16 0 2.5 172 02:55 28.03.2020
5803 Clear 2 1019 18 0 1.29 167 01:48 28.03.2020
5804 Clear 2 1019 18 0 1.29 167 01:24 28.03.2020
5805 Clear 1 1018 18 0 1.44 161 00:52 28.03.2020
5806 Clear 1 1018 18 0 1.44 161 00:28 28.03.2020
5807 Clear 1 1018 18 0 1.44 161 23:45 27.03.2020
5808 Clear 1 1018 18 0 1.44 161 23:26 27.03.2020
5809 Clear 3 1017 17 0 1.72 153 22:58 27.03.2020
5810 Clear 3 1017 17 0 1.72 153 22:39 27.03.2020
5811 Clear 3 1017 17 0 1.72 153 22:21 27.03.2020
5812 Clear 3 1017 17 0 1.72 153 21:59 27.03.2020
5813 Clear 3 1017 17 0 1.72 153 21:40 27.03.2020
5814 Clear 3 1017 17 0 1.72 153 21:22 27.03.2020
5815 Clear 3 1017 17 0 1.72 153 20:57 27.03.2020
5816 Clouds 3 1017 17 0 1.27 143 20:39 27.03.2020
5817 Clouds 5 1018 15 0 0.54 131 20:19 27.03.2020
5818 Clouds 5 1018 15 0 0.54 131 19:55 27.03.2020
5819 Clouds 5 1018 15 0 0.54 131 19:36 27.03.2020
5820 Clouds 5 1018 15 0 0.54 131 19:18 27.03.2020
5821 Clouds 5 1018 15 0 0.54 131 18:42 27.03.2020
5822 Clouds 5 1018 15 0 0.54 131 18:23 27.03.2020
5823 Clouds 5 1018 15 0 0.54 131 17:55 27.03.2020
5824 Clouds 5 1018 15 0 0.54 131 17:55 27.03.2020
5825 Clouds 5 1018 15 0 0.54 131 17:36 27.03.2020
5826 Clouds 7 1017 13 0 1.09 28 17:18 27.03.2020
5827 Clouds 7 1017 13 0 1.09 28 16:43 27.03.2020
5828 Clouds 7 1017 13 0 1.09 28 16:24 27.03.2020
5829 Clouds 7 1017 13 0 1.09 28 15:45 27.03.2020
5830 Clouds 7 1017 13 0 1.09 28 15:26 27.03.2020
5831 Clouds 7 1017 13 0 1.09 28 14:56 27.03.2020
5832 Clouds 7 1017 13 0 1.09 28 14:37 27.03.2020
5833 Clouds 9 1012 11 0 2.68 39 14:18 27.03.2020
5834 Clouds 9 1012 11 0 2.68 39 13:43 27.03.2020
5835 Clouds 9 1012 11 0 2.76 36 13:22 27.03.2020
5836 Clouds 9 1012 11 0 2.76 36 12:59 27.03.2020
5837 Clouds 9 1012 11 0 2.76 36 12:39 27.03.2020
5838 Clouds 9 1012 11 0 2.76 36 12:19 27.03.2020
5839 Clouds 9 1012 11 0 2.76 36 11:42 27.03.2020
5840 Clouds 9 1012 11 0 2.76 36 11:24 27.03.2020
5841 Clear 13 1010 9 0 0.69 191 10:56 27.03.2020
5842 Clear 13 1010 9 0 0.69 191 10:38 27.03.2020
5843 Clear 13 1010 9 0 0.69 191 10:20 27.03.2020
5844 Clear 13 1010 9 0 0.69 191 09:58 27.03.2020
5845 Clear 13 1010 9 0 0.69 191 09:38 27.03.2020
5846 Clear 13 1010 9 0 0.69 191 09:20 27.03.2020
5847 Clear 13 1010 9 0 0.69 191 08:57 27.03.2020
5848 Clear 13 1010 9 0 0.69 191 08:39 27.03.2020
5849 Clear 13 1010 9 0 0.69 191 08:20 27.03.2020
5850 Clouds 11 1015 10 0 1.18 199 07:52 27.03.2020
5851 Clouds 11 1015 10 0 1.18 199 07:26 27.03.2020
5852 Clouds 11 1015 10 0 1.18 199 06:57 27.03.2020
5853 Clouds 11 1015 10 0 1.18 199 06:37 27.03.2020
5854 Clouds 11 1015 10 0 1.18 199 05:37 27.03.2020
5855 Clouds 6 1020 13 0 0.72 29 02:49 27.03.2020
5856 Clouds 0 1022 17 0 1.33 14 01:36 27.03.2020
5857 Clouds 0 1022 17 0 1.3 12 00:53 27.03.2020
5858 Clouds 0 1022 17 0 1.3 12 00:32 27.03.2020
5859 Clouds 0 1022 17 0 1.3 12 23:44 26.03.2020
5860 Clouds 0 1022 17 0 1.3 12 23:24 26.03.2020
5861 Clouds 1 1021 16 0 1.49 6 22:59 26.03.2020
5862 Clouds 1 1021 16 0 1.49 6 22:59 26.03.2020
5863 Clouds 1 1021 16 0 1.49 6 22:39 26.03.2020
5864 Clouds 1 1021 16 0 1.49 6 22:20 26.03.2020
5865 Clouds 1 1021 16 0 1.49 6 21:58 26.03.2020
5866 Clouds 1 1021 16 0 1.49 6 21:39 26.03.2020
5867 Clouds 1 1021 16 0 1.49 6 21:21 26.03.2020
5868 Clouds 1 1021 16 0 1.49 6 20:58 26.03.2020
5869 Clouds 1 1021 16 0 1.49 6 20:38 26.03.2020
5870 Clouds 3 1022 15 0 2.03 2 20:20 26.03.2020
5871 Clouds 3 1022 15 0 2.03 2 19:56 26.03.2020
5872 Clouds 3 1022 15 0 2.03 2 19:38 26.03.2020
5873 Clouds 3 1022 15 0 2.03 2 19:38 26.03.2020
5874 Clouds 3 1022 15 0 2.03 2 19:20 26.03.2020
5875 Clouds 3 1022 15 0 2.03 2 18:55 26.03.2020
5876 Clouds 3 1022 15 0 2.03 2 18:37 26.03.2020
5877 Clouds 3 1022 15 0 2.03 2 18:19 26.03.2020
5878 Clouds 3 1022 15 0 2.03 2 17:42 26.03.2020
5879 Clouds 5 1020 14 0 2.49 10 17:19 26.03.2020
5880 Clouds 5 1020 14 0 2.49 10 17:19 26.03.2020
5881 Clouds 5 1020 14 0 2.49 10 16:45 26.03.2020
5882 Clouds 5 1020 14 0 2.49 10 16:27 26.03.2020
5883 Clouds 5 1020 14 0 2.49 10 15:59 26.03.2020
5884 Clouds 5 1020 14 0 2.49 10 15:40 26.03.2020
5885 Clouds 5 1020 14 0 2.49 10 15:21 26.03.2020
5886 Clouds 5 1020 14 0 2.49 10 14:58 26.03.2020
5887 Clouds 5 1020 14 0 2.49 10 14:38 26.03.2020
5888 Clouds 5 1020 14 0 2.49 10 14:38 26.03.2020
5889 Clouds 8 1013 11 0 2.52 303 14:19 26.03.2020
5890 Clouds 8 1013 11 0 2.52 303 13:43 26.03.2020
5891 Clouds 8 1012 12 0 1.88 333 13:23 26.03.2020
5892 Clouds 8 1012 12 0 1.88 333 12:57 26.03.2020
5893 Clouds 8 1012 12 0 1.88 333 12:38 26.03.2020
5894 Clouds 8 1012 12 0 1.88 333 12:19 26.03.2020
5895 Clouds 8 1012 12 0 1.88 333 11:45 26.03.2020
5896 Clouds 8 1012 12 0 1.88 333 11:21 26.03.2020
5897 Clouds 11 1010 9 0 3.75 276 10:56 26.03.2020
5898 Clouds 11 1010 9 0 3.75 276 10:37 26.03.2020
5899 Clouds 11 1010 9 0 3.75 276 10:18 26.03.2020
5900 Clouds 11 1010 9 0 3.75 276 09:43 26.03.2020
5901 Clouds 11 1010 9 0 3.75 276 09:19 26.03.2020
5902 Clouds 11 1010 9 0 3.75 276 08:55 26.03.2020
5903 Clouds 11 1010 9 0 3.75 276 08:37 26.03.2020
5904 Clear 8 1015 11 0 1.68 225 08:18 26.03.2020
5905 Clear 8 1016 12 0 1.53 223 07:41 26.03.2020
5906 Clear 8 1016 12 0 1.53 223 07:20 26.03.2020
5907 Clear 8 1016 12 0 1.53 223 06:47 26.03.2020
5908 Clear 8 1016 12 0 1.53 223 05:54 26.03.2020
5909 Clear 4 1020 16 0 0.79 175 03:59 26.03.2020
5910 Clear 4 1020 16 0 0.79 175 03:36 26.03.2020
5911 Clear 4 1020 16 0 0.79 175 02:54 26.03.2020
5912 Clouds -3 1021 22 0 0.52 88 01:50 26.03.2020
5913 Clouds -3 1021 22 0 0.5 108 00:45 26.03.2020
5914 Clouds -3 1021 22 0 0.5 108 23:56 25.03.2020
5915 Clouds -3 1021 22 0 0.5 108 23:36 25.03.2020
5916 Clouds -1 1020 20 0 0.57 75 23:18 25.03.2020
5917 Clouds -1 1020 20 0 0.57 75 22:38 25.03.2020
5918 Clouds -1 1020 20 0 0.57 75 22:20 25.03.2020
5919 Clouds -1 1020 20 0 0.57 75 21:55 25.03.2020
5920 Clouds -1 1020 20 0 0.57 75 21:37 25.03.2020
5921 Clouds -1 1020 20 0 0.57 75 21:18 25.03.2020
5922 Clouds -1 1020 20 0 0.57 75 20:40 25.03.2020
5923 Clouds 1 1019 17 0 0.78 128 20:20 25.03.2020
5924 Clouds 1 1019 17 0 0.78 128 19:59 25.03.2020
5925 Clouds 1 1019 17 0 0.78 128 19:41 25.03.2020
5926 Clouds 1 1019 17 0 0.78 128 19:21 25.03.2020
5927 Clouds 1 1019 17 0 0.78 128 18:56 25.03.2020
5928 Clouds 1 1019 17 0 1.13 163 18:37 25.03.2020
5929 Clouds 1 1019 17 0 0.78 128 18:37 25.03.2020
5930 Clouds 1 1019 17 0 0.78 128 18:19 25.03.2020
5931 Clouds 1 1019 17 0 1.13 163 17:42 25.03.2020
5932 Clouds 1 1019 17 0 0.78 128 17:23 25.03.2020
5933 Clouds 4 1017 15 0 1.35 165 16:59 25.03.2020
5934 Clouds 4 1017 15 0 1.35 165 16:41 25.03.2020
5935 -273 0 0 0 0 0 16:21 25.03.2020
5936 Clouds 4 1017 15 0 1.26 162 15:57 25.03.2020
5937 Clouds 4 1017 15 0 1.26 162 15:37 25.03.2020
5938 Clouds 4 1017 15 0 1.26 162 15:18 25.03.2020
5939 Clouds 4 1017 15 0 1.35 165 15:18 25.03.2020
5940 Clouds 4 1017 15 0 1.35 165 14:41 25.03.2020
5941 Clouds 4 1017 15 0 1.26 162 14:21 25.03.2020
5942 Clouds 5 1010 13 0 0.41 229 13:46 25.03.2020
5943 Clouds 5 1010 14 0 0.34 40 13:26 25.03.2020
5944 Clouds 5 1010 13 0 0.41 229 12:57 25.03.2020
5945 Clouds 5 1010 14 0 0.34 40 12:37 25.03.2020
5946 Clouds 5 1010 14 0 0.34 40 12:18 25.03.2020
5947 Clouds 5 1010 14 0 0.34 40 11:43 25.03.2020
5948 Clouds 5 1010 14 0 0.34 40 11:21 25.03.2020
5949 Clouds 5 1010 14 0 0.34 40 11:21 25.03.2020
5950 Clouds 8 1009 11 0 1.43 113 10:59 25.03.2020
5951 Clouds 8 1009 11 0 1.43 113 10:40 25.03.2020
5952 Clouds 8 1009 11 0 1.43 113 10:19 25.03.2020
5953 Clouds 8 1009 11 0 1.43 113 09:59 25.03.2020
5954 Clouds 8 1009 11 0 1.43 113 09:40 25.03.2020
5955 Clouds 8 1009 11 0 1.43 113 09:22 25.03.2020
5956 Clouds 8 1009 11 0 1.43 113 08:55 25.03.2020
5957 Clouds 8 1009 11 0 1.43 113 08:37 25.03.2020
5958 Clouds 5 1013 12 0 1.41 159 08:18 25.03.2020
5959 Clouds 6 1013 11 0 2.01 169 07:39 25.03.2020
5960 Clouds 6 1013 11 0 2.01 169 07:20 25.03.2020
5961 Clouds 6 1013 11 0 2.01 169 06:46 25.03.2020
5962 Clouds 6 1013 11 0 2.01 169 06:25 25.03.2020
5963 Clouds 6 1013 11 0 2.01 169 05:50 25.03.2020
5964 Clear 2 1020 14 0 1.7 158 04:59 25.03.2020
5965 Clear 2 1020 14 0 1.7 158 04:39 25.03.2020
5966 Clear 2 1020 14 0 1.7 158 03:35 25.03.2020
5967 Clear -4 1023 20 0 0.86 109 01:57 25.03.2020
5968 Clear -4 1023 20 0 0.86 109 01:20 25.03.2020
5969 Clear -4 1023 20 0 0.78 109 00:47 25.03.2020
5970 Clear -4 1023 20 0 0.78 109 00:19 25.03.2020
5971 Clear -4 1023 20 0 0.78 109 23:45 24.03.2020
5972 Clear -4 1023 20 0 0.78 109 23:25 24.03.2020
5973 Clear -3 1023 19 0 0.99 105 22:56 24.03.2020
5974 Clear -3 1023 19 0 0.99 105 22:37 24.03.2020
5975 Clear -3 1023 19 0 0.99 105 22:19 24.03.2020
5976 Clear -3 1023 19 0 0.99 105 21:55 24.03.2020
5977 Clear -3 1023 19 0 0.99 105 21:37 24.03.2020
5978 Clear -3 1023 19 0 0.99 105 21:18 24.03.2020
5979 Clear -3 1023 19 0 0.99 105 20:43 24.03.2020
5980 Clear -3 1023 19 0 0.99 105 20:24 24.03.2020
5981 Clear -2 1024 17 0 0.81 92 19:59 24.03.2020
5982 Clear -2 1024 17 0 0.81 92 19:41 24.03.2020
5983 Clear -2 1024 17 0 0.81 92 19:19 24.03.2020
5984 Clear -2 1024 17 0 0.81 92 18:55 24.03.2020
5985 Clear -2 1024 17 0 0.81 92 18:36 24.03.2020
5986 Clear -2 1024 17 0 0.81 92 18:18 24.03.2020
5987 Clear -2 1024 17 0 0.81 92 17:42 24.03.2020
5988 Clear -2 1024 17 0 0.81 92 17:22 24.03.2020
5989 Clear -2 1024 30 0 0.42 37 16:58 24.03.2020
5990 Clear -2 1024 30 0 0.42 37 16:39 24.03.2020
5991 Clear -2 1024 30 0 0.42 37 16:21 24.03.2020
5992 Clear -2 1024 30 0 0.42 37 15:58 24.03.2020
5993 Clear -2 1024 30 0 0.42 37 15:37 24.03.2020
5994 Clear -2 1024 30 0 0.42 37 15:19 24.03.2020
5995 Clear -2 1024 30 0 0.42 37 14:43 24.03.2020
5996 Clear 2 1018 14 0 0.88 22 14:19 24.03.2020
5997 Clear 2 1018 14 0 0.88 22 13:44 24.03.2020
5998 Clear 2 1018 14 0 0.88 22 13:24 24.03.2020
5999 Clear 2 1018 14 0 0.5 30 12:57 24.03.2020
6000 Clear 2 1018 14 0 0.5 30 12:37 24.03.2020
6001 Clear 2 1018 14 0 0.5 30 12:19 24.03.2020
6002 Clear 2 1018 14 0 0.5 30 11:40 24.03.2020
6003 Clear 5 1017 12 0 1.92 358 11:20 24.03.2020
6004 Clear 5 1017 12 0 1.92 358 10:43 24.03.2020
6005 Clear 5 1017 12 0 1.92 358 10:20 24.03.2020
6006 Clear 5 1017 12 0 1.92 358 10:20 24.03.2020
6007 Clear 5 1017 12 0 1.92 358 09:59 24.03.2020
6008 Clear 5 1017 12 0 1.92 358 09:41 24.03.2020
6009 Clear 5 1017 12 0 1.92 358 09:22 24.03.2020
6010 Clear 5 1017 12 0 1.92 358 08:39 24.03.2020
6011 Clear 5 1017 12 0 1.92 358 08:21 24.03.2020
6012 Clear 4 1017 14 0 2.83 346 08:21 24.03.2020
6013 Clear 4 1017 14 0 2.83 346 08:21 24.03.2020
6014 Clouds 1 1021 22 0 1.63 350 07:50 24.03.2020
6015 Clouds 1 1021 22 0 1.63 350 07:25 24.03.2020
6016 Clouds 1 1021 22 0 1.63 350 07:25 24.03.2020
6017 Clouds 1 1021 22 0 1.63 350 06:59 24.03.2020
6018 Clouds 1 1021 22 0 1.63 350 06:33 24.03.2020
6019 Clouds 1 1021 22 0 1.63 350 05:30 24.03.2020
6020 Clouds -1 1025 51 0 1.53 349 04:41 24.03.2020
6021 Clouds -1 1025 51 0 1.53 349 03:19 24.03.2020
6022 Snow -6 1025 82 0 1.24 311 01:59 24.03.2020
6023 Snow -6 1025 83 0 0.66 327 00:52 24.03.2020
6024 Snow -6 1025 83 0 0.66 327 00:26 24.03.2020
6025 Snow -6 1025 83 0 0.66 327 23:50 23.03.2020
6026 Snow -6 1025 83 0 0.66 327 23:30 23.03.2020
6027 Clouds -3 1023 90 0 1.1 179 22:59 23.03.2020
6028 Clouds -3 1023 90 0 1.1 179 22:40 23.03.2020
6029 Clouds -3 1023 90 0 1.1 179 22:22 23.03.2020
6030 Clouds -3 1023 90 0 1.1 179 21:54 23.03.2020
6031 Clouds -3 1023 90 0 1.1 179 21:36 23.03.2020
6032 Clouds -3 1023 90 0 1.1 179 21:18 23.03.2020
6033 Clouds -3 1023 90 0 1.1 179 20:41 23.03.2020
6034 Clouds -3 1023 90 0 1.1 179 20:23 23.03.2020
6035 Snow 0 1020 62 0 1.58 300 19:55 23.03.2020
6036 Snow 0 1020 62 0 1.58 300 19:55 23.03.2020
6037 Snow 0 1020 62 0 1.58 300 19:55 23.03.2020
6038 Snow 0 1020 62 0 1.58 300 19:37 23.03.2020
6039 Snow 0 1020 62 0 1.58 300 19:18 23.03.2020
6040 Snow 0 1020 62 0 1.58 300 18:43 23.03.2020
6041 Snow 0 1020 62 0 1.58 300 18:24 23.03.2020
6042 Snow 0 1020 62 0 1.58 300 17:58 23.03.2020
6043 Snow 0 1020 62 0 1.58 300 17:39 23.03.2020
6044 Clouds 1 1019 48 0 0.51 296 17:19 23.03.2020
6045 Clouds 1 1019 48 0 0.51 296 16:43 23.03.2020
6046 Clouds 1 1019 48 0 0.51 296 16:25 23.03.2020
6047 Clouds 1 1019 48 0 0.51 296 15:54 23.03.2020
6048 Clouds 1 1019 48 0 0.51 296 15:36 23.03.2020
6049 Clouds 1 1019 48 0 0.51 296 15:18 23.03.2020
6050 Clouds 1 1019 48 0 0.51 296 15:18 23.03.2020
6051 Clouds 1 1019 48 0 0.51 296 14:37 23.03.2020
6052 Clouds 0 1013 58 0 0.87 335 14:19 23.03.2020
6053 Clouds 0 1013 58 0 0.87 335 14:19 23.03.2020
6054 Clouds 0 1013 58 0 0.87 335 13:55 23.03.2020
6055 Clouds 0 1013 58 0 0.87 335 13:37 23.03.2020
6056 Clouds 0 1013 58 0 0.87 335 13:19 23.03.2020
6057 Snow 2 1013 44 0 0.88 335 12:42 23.03.2020
6058 Snow 2 1013 44 0 0.88 335 12:22 23.03.2020
6059 Snow 2 1013 44 0 0.88 335 12:22 23.03.2020
6060 Snow 2 1013 44 0 0.88 335 11:55 23.03.2020
6061 Snow 2 1013 44 0 0.88 335 11:37 23.03.2020
6062 Rain 5 1010 25 0 1.69 252 11:18 23.03.2020
6063 Rain 5 1010 25 0 1.69 252 10:42 23.03.2020
6064 Rain 5 1010 25 0 1.69 252 10:23 23.03.2020
6065 Rain 5 1010 25 0 1.69 252 09:59 23.03.2020
6066 Rain 5 1010 25 0 1.69 252 09:41 23.03.2020
6067 Rain 5 1010 25 0 1.69 252 09:19 23.03.2020
6068 Rain 5 1010 25 0 1.69 252 08:38 23.03.2020
6069 Snow 4 1015 30 0 0.33 154 08:20 23.03.2020
6070 Snow 4 1015 30 0 0.33 154 07:52 23.03.2020
6071 Snow 4 1015 30 0 0.33 154 07:33 23.03.2020
6072 Snow 4 1015 30 0 0.33 154 06:56 23.03.2020
6073 Snow 4 1015 30 0 0.33 154 06:34 23.03.2020
6074 Snow 4 1015 30 0 0.33 154 05:44 23.03.2020
6075 Snow 4 1015 30 0 0.33 154 05:44 23.03.2020
6076 Snow 0 1020 57 0 0.5 147 03:54 23.03.2020
6077 Snow 0 1020 57 0 0.5 147 02:59 23.03.2020
6078 Snow -3 1023 79 0 0.83 324 01:50 23.03.2020
6079 Clouds -3 1023 60 0 0.3 273 00:50 23.03.2020
6080 Clouds -3 1023 60 0 0.3 273 00:29 23.03.2020
6081 Clouds -3 1023 60 0 0.3 273 23:44 22.03.2020
6082 Clouds -3 1023 60 0 0.3 273 23:24 22.03.2020
6083 Clouds -1 1021 53 0 0.35 130 22:42 22.03.2020
6084 Clouds -1 1021 53 0 0.35 130 22:22 22.03.2020
6085 Clouds -1 1021 53 0 0.35 130 21:54 22.03.2020
6086 Clouds -1 1021 53 0 0.35 130 21:36 22.03.2020
6087 Clouds -1 1021 53 0 0.35 130 21:18 22.03.2020
6088 Clouds -1 1021 53 0 0.35 130 20:42 22.03.2020
6089 Snow -2 1021 66 0 0.47 264 20:24 22.03.2020
6090 Clouds 0 1022 42 0 2.19 189 19:56 22.03.2020
6091 Clouds 0 1022 42 0 2.19 189 19:38 22.03.2020
6092 Clouds 0 1022 42 0 2.19 189 19:19 22.03.2020
6093 Clouds 0 1022 42 0 2.19 189 18:58 22.03.2020
6094 Clouds 0 1022 42 0 2.19 189 18:40 22.03.2020
6095 Clouds 0 1022 42 0 2.19 189 18:21 22.03.2020
6096 Clouds 0 1022 42 0 2.19 189 17:57 22.03.2020
6097 Clouds 0 1022 42 0 2.19 189 17:38 22.03.2020
6098 Clouds 1 1021 33 0 1.84 18 17:20 22.03.2020
6099 Clouds 1 1021 33 0 1.84 18 16:57 22.03.2020
6100 Clouds 1 1021 33 0 1.84 18 16:39 22.03.2020
6101 Clouds 1 1021 33 0 1.84 18 16:20 22.03.2020
6102 Clouds 1 1021 33 0 1.84 18 15:40 22.03.2020
6103 Clouds 1 1021 33 0 1.84 18 15:40 22.03.2020
6104 Clouds 1 1021 33 0 1.84 18 15:20 22.03.2020
6105 Clouds 1 1021 33 0 1.84 18 14:46 22.03.2020
6106 Clouds 4 1015 23 0 1.72 75 14:19 22.03.2020
6107 Clouds 4 1015 23 0 1.72 75 14:19 22.03.2020
6108 Clouds 4 1015 23 0 1.72 75 13:44 22.03.2020
6109 Clouds 4 1015 23 0 1.3 100 13:20 22.03.2020
6110 Clouds 4 1015 23 0 1.3 100 12:59 22.03.2020
6111 Clouds 4 1015 23 0 1.3 100 12:41 22.03.2020
6112 Clouds 4 1015 23 0 1.3 100 12:19 22.03.2020
6113 Clouds 4 1015 23 0 1.3 100 11:43 22.03.2020
6114 Clouds 4 1015 23 0 1.3 100 11:25 22.03.2020
6115 Clouds 5 1012 21 0 1.47 23 10:58 22.03.2020
6116 Clouds 5 1012 21 0 1.47 23 10:40 22.03.2020
6117 Clouds 5 1012 21 0 1.47 23 10:22 22.03.2020
6118 Clouds 5 1012 21 0 1.47 23 10:22 22.03.2020
6119 Clouds 5 1012 21 0 1.47 23 09:47 22.03.2020
6120 Clouds 5 1012 21 0 1.47 23 09:28 22.03.2020
6121 Clouds 5 1012 21 0 1.47 23 08:51 22.03.2020
6122 Snow 3 1012 33 0 4.24 350 08:32 22.03.2020
6123 Clouds 3 1017 33 0 0.98 97 07:56 22.03.2020
6124 Clouds 3 1017 33 0 0.98 97 07:38 22.03.2020
6125 Clouds 3 1017 33 0 0.98 97 06:48 22.03.2020
6126 Clouds 3 1017 33 0 0.98 97 05:52 22.03.2020
6127 Clouds -1 1021 56 0 0.31 151 04:39 22.03.2020
6128 Clouds -5 1022 73 0 1.09 35 01:49 22.03.2020
6129 Clouds -5 1022 71 0 0.86 18 00:50 22.03.2020
6130 Clouds -5 1022 71 0 0.86 18 00:31 22.03.2020
6131 Clouds -5 1022 71 0 0.86 18 23:46 21.03.2020
6132 Clouds -5 1022 71 0 0.86 18 23:23 21.03.2020
6133 Clouds -4 1021 61 0 0.94 360 22:59 21.03.2020
6134 Clouds -4 1021 61 0 0.94 360 22:38 21.03.2020
6135 Clouds -4 1021 61 0 0.94 360 22:20 21.03.2020
6136 Clouds -4 1021 61 0 0.94 360 21:58 21.03.2020
6137 Clouds -4 1021 61 0 0.94 360 21:38 21.03.2020
6138 Clouds -4 1021 61 0 0.94 360 21:20 21.03.2020
6139 Clouds -4 1021 61 0 0.94 360 20:43 21.03.2020
6140 Clouds -4 1021 61 0 0.94 360 20:22 21.03.2020
6141 Snow -3 1020 64 0 0.44 68 19:56 21.03.2020
6142 Snow -3 1020 64 0 0.44 68 19:38 21.03.2020
6143 Snow -3 1020 64 0 0.44 68 19:19 21.03.2020
6144 Snow -3 1020 64 0 0.44 68 18:54 21.03.2020
6145 Snow -3 1020 64 0 0.44 68 18:36 21.03.2020
6146 Snow -3 1020 64 0 0.44 68 18:18 21.03.2020
6147 Snow -3 1020 64 0 0.44 68 17:42 21.03.2020
6148 Snow -3 1020 64 0 0.44 68 17:22 21.03.2020
6149 Clouds -1 1019 53 0 1.68 26 16:43 21.03.2020
6150 Clouds -1 1019 53 0 1.68 26 16:24 21.03.2020
6151 Clouds -1 1019 53 0 1.68 26 16:24 21.03.2020
6152 Clouds -1 1019 53 0 1.68 26 15:59 21.03.2020
6153 Clouds -1 1019 53 0 1.68 26 15:41 21.03.2020
6154 Clouds -1 1019 53 0 1.68 26 15:23 21.03.2020
6155 Clouds -1 1019 53 0 1.68 26 14:58 21.03.2020
6156 Clouds -1 1019 53 0 1.68 26 14:58 21.03.2020
6157 Clouds -1 1019 53 0 1.68 26 14:40 21.03.2020
6158 Rain 2 1013 35 0 2.8 58 14:20 21.03.2020
6159 Rain 2 1013 35 0 2.8 58 13:59 21.03.2020
6160 Rain 2 1013 35 0 2.8 58 13:40 21.03.2020
6161 Clouds 3 1013 22 0 2.48 82 13:21 21.03.2020
6162 Clouds 3 1013 22 0 2.48 82 13:21 21.03.2020
6163 Clouds 3 1013 22 0 2.48 82 12:58 21.03.2020
6164 Clouds 3 1013 22 0 2.48 82 12:37 21.03.2020
6165 Clouds 3 1013 22 0 2.48 82 12:19 21.03.2020
6166 Clouds 3 1013 22 0 2.48 82 11:55 21.03.2020
6167 Clouds 3 1013 22 0 2.48 82 11:37 21.03.2020
6168 Clouds 5 1010 19 0 1.64 307 11:18 21.03.2020
6169 Clouds 5 1010 19 0 1.64 307 10:56 21.03.2020
6170 Clouds 5 1010 19 0 1.64 307 10:38 21.03.2020
6171 Clouds 5 1010 19 0 1.64 307 10:19 21.03.2020
6172 Clouds 5 1010 19 0 1.64 307 09:55 21.03.2020
6173 Clouds 5 1010 19 0 1.64 307 09:36 21.03.2020
6174 Clouds 5 1010 19 0 1.64 307 09:18 21.03.2020
6175 Clouds 5 1010 19 0 1.64 307 08:42 21.03.2020
6176 Clouds 5 1010 19 0 1.64 307 08:23 21.03.2020
6177 Snow 2 1013 31 0 1.56 172 07:42 21.03.2020
6178 Snow 2 1013 31 0 1.56 172 07:23 21.03.2020
6179 Snow 2 1013 31 0 1.56 172 06:47 21.03.2020
6180 Snow 2 1013 31 0 1.56 172 06:27 21.03.2020
6181 Snow 2 1013 31 0 1.56 172 05:46 21.03.2020
6182 Clouds -2 1018 54 0 1.1 165 04:46 21.03.2020
6183 Clouds -2 1018 54 0 1.1 165 02:48 21.03.2020
6184 Clouds -2 1018 54 0 1.1 165 02:30 21.03.2020
6185 Clouds -7 1019 75 0 0.04 144 01:32 21.03.2020
6186 Clouds -6 1019 72 0 0.57 221 00:48 21.03.2020
6187 Clouds -6 1019 72 0 0.57 221 00:26 21.03.2020
6188 Clouds -6 1019 72 0 0.57 221 23:51 20.03.2020
6189 Clouds -6 1019 72 0 0.57 221 23:27 20.03.2020
6190 Snow -4 1017 69 0 0.99 120 22:57 20.03.2020
6191 Snow -4 1017 69 0 0.99 120 22:39 20.03.2020
6192 Snow -4 1017 69 0 0.99 120 22:20 20.03.2020
6193 Snow -4 1017 69 0 0.99 120 21:55 20.03.2020
6194 Snow -4 1017 69 0 0.99 120 21:37 20.03.2020
6195 Snow -4 1017 69 0 0.99 120 21:18 20.03.2020
6196 Snow -4 1017 69 0 0.99 120 20:55 20.03.2020
6197 Snow -4 1017 69 0 0.99 120 20:37 20.03.2020
6198 Snow -4 1017 66 0 1 152 20:18 20.03.2020
6199 Snow -4 1017 66 0 1 152 19:44 20.03.2020
6200 Snow -4 1017 66 0 1 152 19:18 20.03.2020
6201 Snow -4 1017 66 0 1 152 18:55 20.03.2020
6202 Snow -4 1017 66 0 1 152 18:36 20.03.2020
6203 Snow -4 1017 66 0 1 152 18:18 20.03.2020
6204 Snow -4 1017 66 0 1 152 17:39 20.03.2020
6205 Snow -4 1017 66 0 1 152 17:21 20.03.2020
6206 Snow -2 1015 56 0 2.42 136 16:57 20.03.2020
6207 Snow -2 1015 56 0 2.42 136 16:39 20.03.2020
6208 Snow -2 1015 56 0 2.42 136 16:18 20.03.2020
6209 Snow -2 1015 56 0 2.42 136 15:42 20.03.2020
6210 Snow -2 1015 56 0 2.42 136 15:21 20.03.2020
6211 Snow -2 1015 56 0 2.42 136 14:55 20.03.2020
6212 Snow -2 1015 56 0 2.42 136 14:37 20.03.2020
6213 Rain 2 1010 31 0 3.36 130 14:18 20.03.2020
6214 Rain 2 1010 31 0 3.36 130 13:42 20.03.2020
6215 Rain 2 1010 31 0 3.36 130 13:19 20.03.2020
6216 Rain 1 1010 39 0 4.08 134 12:40 20.03.2020
6217 Rain 1 1010 39 0 4.08 134 12:22 20.03.2020
6218 Rain 1 1010 39 0 4.08 134 11:57 20.03.2020
6219 Rain 1 1010 39 0 4.08 134 11:38 20.03.2020
6220 Clouds 5 1007 16 0 3.7 264 11:19 20.03.2020
6221 Clouds 5 1007 16 0 3.7 264 10:41 20.03.2020
6222 Clouds 5 1007 16 0 3.7 264 10:21 20.03.2020
6223 Clouds 5 1007 16 0 3.7 264 09:57 20.03.2020
6224 Clouds 5 1007 16 0 3.7 264 09:39 20.03.2020
6225 Clouds 5 1007 16 0 3.7 264 09:19 20.03.2020
6226 Clouds 5 1007 16 0 3.7 264 08:42 20.03.2020
6227 Rain 5 1007 13 0 2.83 236 08:22 20.03.2020
6228 Clouds 3 1012 22 0 2.08 195 07:54 20.03.2020
6229 Clouds 3 1012 22 0 2.08 195 07:36 20.03.2020
6230 Clouds 3 1012 22 0 2.08 195 07:18 20.03.2020
6231 Clouds 3 1012 22 0 2.08 195 06:41 20.03.2020
6232 Clouds 3 1012 22 0 2.08 195 06:41 20.03.2020
6233 Clouds -1 1017 45 0 2.12 172 04:52 20.03.2020
6234 Clouds -1 1017 45 0 2.12 172 03:22 20.03.2020
6235 Clouds -6 1018 79 0 1.79 158 02:20 20.03.2020
6236 Snow -5 1018 75 0 1.42 154 00:59 20.03.2020
6237 Snow -5 1018 75 0 1.42 154 00:31 20.03.2020
6238 Snow -5 1018 75 0 1.42 154 23:49 19.03.2020
6239 Snow -5 1018 75 0 1.42 154 23:30 19.03.2020
6240 Snow -3 1016 56 0 2.42 132 22:57 19.03.2020
6241 Snow -3 1016 56 0 2.42 132 22:38 19.03.2020
6242 Snow -3 1016 56 0 2.42 132 22:20 19.03.2020
6243 Snow -3 1016 56 0 2.42 132 21:42 19.03.2020
6244 Snow -3 1016 56 0 2.42 132 21:20 19.03.2020
6245 Snow -3 1016 56 0 2.42 132 20:59 19.03.2020
6246 Snow -3 1016 56 0 2.42 132 20:41 19.03.2020
6247 Clouds -4 1016 50 0 2.09 151 20:23 19.03.2020
6248 Clouds -2 1016 40 0 0.15 91 19:56 19.03.2020
6249 Clouds -2 1016 40 0 0.15 91 19:38 19.03.2020
6250 Clouds -2 1016 40 0 0.15 91 19:19 19.03.2020
6251 Clouds -2 1016 40 0 0.15 91 18:56 19.03.2020
6252 Clouds -2 1016 40 0 0.15 91 18:38 19.03.2020
6253 Clouds -2 1016 40 0 0.15 91 18:19 19.03.2020
6254 Clouds -2 1016 40 0 0.15 91 17:41 19.03.2020
6255 Clouds 1 1015 24 0 1.79 269 17:19 19.03.2020
6256 Clouds 1 1015 24 0 1.79 269 16:45 19.03.2020
6257 Clouds 1 1015 24 0 1.79 269 16:24 19.03.2020
6258 Clouds 1 1015 24 0 1.79 269 15:54 19.03.2020
6259 Clouds 1 1015 24 0 1.79 269 15:36 19.03.2020
6260 Clouds 1 1015 24 0 1.79 269 15:18 19.03.2020
6261 Clouds 1 1015 24 0 1.79 269 14:42 19.03.2020
6262 Clouds 1 1015 24 0 1.79 269 14:21 19.03.2020
6263 Clouds 4 1010 14 0 6.07 269 13:41 19.03.2020
6264 Clouds 4 1010 14 0 6.07 269 13:19 19.03.2020
6265 Clouds 4 1010 14 0 5.77 271 12:57 19.03.2020
6266 Clouds 4 1010 14 0 5.77 271 12:39 19.03.2020
6267 Clouds 4 1010 14 0 5.77 271 12:21 19.03.2020
6268 Clouds 4 1010 14 0 5.77 271 11:42 19.03.2020
6269 Clouds 4 1010 14 0 5.77 271 11:24 19.03.2020
6270 Rain 4 1006 27 0 2.04 290 10:57 19.03.2020
6271 Rain 4 1006 27 0 2.04 290 10:38 19.03.2020
6272 Rain 4 1006 27 0 2.04 290 10:19 19.03.2020
6273 Rain 4 1006 27 0 2.04 290 09:45 19.03.2020
6274 Rain 4 1006 27 0 2.04 290 09:27 19.03.2020
6275 Rain 4 1006 27 0 2.04 290 08:59 19.03.2020
6276 Rain 4 1006 27 0 2.04 290 08:41 19.03.2020
6277 Snow 4 1011 29 0 1.16 243 08:19 19.03.2020
6278 Snow 2 1012 38 0 1.7 263 07:44 19.03.2020
6279 Snow 2 1012 38 0 1.7 263 07:23 19.03.2020
6280 Snow 2 1012 38 0 1.7 263 06:34 19.03.2020
6281 Snow 2 1012 38 0 1.7 263 05:48 19.03.2020
6282 Clouds -2 1016 63 0 0.75 27 04:54 19.03.2020
6283 Clouds -2 1016 63 0 0.75 27 04:34 19.03.2020
6284 Clouds -2 1016 63 0 0.75 27 02:37 19.03.2020
6285 Snow -5 1017 80 0 1.68 5 00:58 19.03.2020
6286 Snow -5 1017 80 0 1.68 5 00:28 19.03.2020
6287 Snow -5 1017 80 0 1.68 5 23:48 18.03.2020
6288 Snow -5 1017 80 0 1.68 5 23:29 18.03.2020
6289 Snow -4 1016 74 0 2.3 26 22:56 18.03.2020
6290 Snow -4 1016 74 0 2.3 26 22:38 18.03.2020
6291 Snow -4 1016 74 0 2.3 26 22:20 18.03.2020
6292 Snow -4 1016 74 0 2.3 26 21:41 18.03.2020
6293 Snow -4 1016 74 0 2.3 26 21:21 18.03.2020
6294 Snow -4 1016 74 0 2.3 26 20:57 18.03.2020
6295 Snow -4 1016 74 0 2.3 26 20:39 18.03.2020
6296 Clouds 0 1017 50 0 1.7 84 20:20 18.03.2020
6297 Clouds 0 1017 50 0 1.7 84 19:56 18.03.2020
6298 Clouds 0 1017 50 0 1.7 84 19:37 18.03.2020
6299 Clouds 0 1017 50 0 1.7 84 19:19 18.03.2020
6300 Clouds 0 1017 50 0 1.7 84 19:19 18.03.2020
6301 Clouds 0 1017 50 0 1.7 84 18:41 18.03.2020
6302 Clouds 0 1017 50 0 1.7 84 18:20 18.03.2020
6303 Clouds 0 1017 50 0 1.7 84 17:58 18.03.2020
6304 Clouds 0 1017 50 0 1.7 84 17:39 18.03.2020
6305 Clouds 0 1017 50 0 1.7 84 17:21 18.03.2020
6306 Snow 1 1016 35 0 2.56 138 16:55 18.03.2020
6307 Snow 1 1016 35 0 2.56 138 16:37 18.03.2020
6308 Snow 1 1016 35 0 2.56 138 16:19 18.03.2020
6309 Snow 1 1016 35 0 2.56 138 15:45 18.03.2020
6310 Snow 1 1016 35 0 2.56 138 15:20 18.03.2020
6311 Snow 1 1016 35 0 2.56 138 14:45 18.03.2020
6312 Snow 1 1016 35 0 2.56 138 14:22 18.03.2020
6313 Clouds 4 1012 21 0 2.95 76 13:58 18.03.2020
6314 Clouds 4 1012 21 0 2.95 76 13:36 18.03.2020
6315 Clouds 5 1012 20 0 3 91 13:18 18.03.2020
6316 Clouds 5 1012 20 0 3 91 12:41 18.03.2020
6317 Clouds 5 1012 20 0 3 91 12:19 18.03.2020
6318 Clouds 5 1012 20 0 3 91 11:40 18.03.2020
6319 Clouds 5 1012 20 0 3 91 11:21 18.03.2020
6320 Clouds 7 1010 16 0 0.96 16 10:58 18.03.2020
6321 Clouds 7 1010 16 0 0.96 16 10:39 18.03.2020
6322 Clouds 7 1010 16 0 0.96 16 10:20 18.03.2020
6323 Clouds 7 1010 16 0 0.96 16 09:56 18.03.2020
6324 Clouds 7 1010 16 0 0.96 16 09:38 18.03.2020
6325 Clouds 7 1010 16 0 0.96 16 09:20 18.03.2020
6326 Clouds 7 1010 16 0 0.96 16 08:39 18.03.2020
6327 Clouds 7 1010 15 0 1.45 245 08:21 18.03.2020
6328 Clouds 7 1010 15 0 1.45 245 08:21 18.03.2020
6329 Clear 6 1015 23 0 0.63 182 07:49 18.03.2020
6330 Clear 6 1015 23 0 0.63 182 07:30 18.03.2020
6331 Clear 6 1015 23 0 0.63 182 06:45 18.03.2020
6332 Clear 6 1015 23 0 0.63 182 06:24 18.03.2020
6333 Clear 6 1015 23 0 0.63 182 05:35 18.03.2020
6334 Clouds 1 1021 35 0 0.78 175 04:27 18.03.2020
6335 Clouds 1 1021 35 0 0.78 175 02:49 18.03.2020
6336 Clouds 1 1021 35 0 0.78 175 02:23 18.03.2020
6337 Clear -6 1022 49 0 0.32 60 01:29 18.03.2020
6338 Clear -6 1023 47 0 0.29 33 00:26 18.03.2020
6339 Clear -6 1023 47 0 0.29 33 23:59 17.03.2020
6340 Clear -6 1022 50 0 0.23 68 23:40 17.03.2020
6341 Clear -4 1020 44 0 0.7 126 23:19 17.03.2020
6342 Clear -4 1020 44 0 0.7 126 22:42 17.03.2020
6343 Clear -4 1020 44 0 0.7 126 22:23 17.03.2020
6344 Clear -4 1020 44 0 0.7 126 21:42 17.03.2020
6345 Clear -4 1021 42 0 0.72 122 21:22 17.03.2020
6346 Clear -4 1021 42 0 0.72 122 20:56 17.03.2020
6347 Clear -4 1021 42 0 0.72 122 20:37 17.03.2020
6348 Clouds -1 1020 35 0 1.54 151 20:18 17.03.2020
6349 Clouds -1 1020 35 0 1.54 151 19:41 17.03.2020
6350 Clouds -1 1020 35 0 1.54 151 19:18 17.03.2020
6351 Clouds -1 1020 35 0 1.54 151 18:56 17.03.2020
6352 Clouds -1 1020 35 0 1.54 151 18:38 17.03.2020
6353 Clouds -1 1020 35 0 1.54 151 18:38 17.03.2020
6354 Clouds -1 1020 35 0 1.54 151 18:20 17.03.2020
6355 Clouds -1 1020 35 0 1.54 151 17:41 17.03.2020
6356 Clouds -1 1020 35 0 1.54 151 17:22 17.03.2020
6357 Clouds 2 1019 25 0 2.22 160 16:56 17.03.2020
6358 Clouds 2 1019 25 0 2.22 160 16:38 17.03.2020
6359 Clouds 2 1019 25 0 2.22 160 16:18 17.03.2020
6360 Clouds 2 1019 25 0 2.22 160 15:43 17.03.2020
6361 Clouds 2 1019 25 0 2.22 160 15:21 17.03.2020
6362 Clouds 2 1019 25 0 2.22 160 14:44 17.03.2020
6363 Clouds 2 1019 25 0 2.22 160 14:23 17.03.2020
6364 Clouds 5 1013 15 0 2.88 173 13:56 17.03.2020
6365 Clouds 5 1013 15 0 2.88 173 13:38 17.03.2020
6366 Clouds 5 1013 15 0 2.88 173 13:20 17.03.2020
6367 Clear 5 1013 16 0 2.75 193 12:42 17.03.2020
6368 Clear 5 1013 16 0 2.75 193 12:22 17.03.2020
6369 Clear 4 1013 13 0 2.79 194 11:48 17.03.2020
6370 Clear 5 1013 16 0 2.75 193 11:29 17.03.2020
6371 Clear 7 1011 8 0 1.51 230 10:58 17.03.2020
6372 Clear 7 1011 7 0 1.2 247 10:40 17.03.2020
6373 Clear 7 1011 8 0 1.51 230 10:22 17.03.2020
6374 Clear 7 1011 8 0 1.51 230 09:59 17.03.2020
6375 Clear 7 1011 8 0 1.51 230 09:40 17.03.2020
6376 Clear 7 1011 8 0 1.51 230 09:19 17.03.2020
6377 Clear 7 1011 7 0 1.2 247 08:48 17.03.2020
6378 Clear 7 1011 7 0 1.2 247 08:23 17.03.2020
6379 Clear 4 1016 11 0 2.26 216 07:56 17.03.2020
6380 Clear 4 1016 11 0 2.26 216 07:38 17.03.2020
6381 Clear 4 1016 11 0 2.26 216 07:19 17.03.2020
6382 Clear 4 1016 11 0 2.26 216 06:38 17.03.2020
6383 Clear 4 1016 11 0 2.26 216 05:58 17.03.2020
6384 Clear -1 1023 23 0 1.31 188 03:58 17.03.2020
6385 Clear -1 1023 23 0 1.31 188 02:54 17.03.2020
6386 Clear -9 1026 39 0 0.29 326 01:49 17.03.2020
6387 Clear -9 1026 42 0 0.29 329 01:25 17.03.2020
6388 Clear -9 1026 42 0 0.29 329 00:46 17.03.2020
6389 Clear -9 1026 42 0 0.29 329 23:50 16.03.2020
6390 Clear -9 1026 42 0 0.29 329 23:32 16.03.2020
6391 Clear -7 1025 35 0 0.52 29 22:42 16.03.2020
6392 Clear -7 1025 35 0 0.52 29 22:24 16.03.2020
6393 Clear -7 1025 35 0 0.52 29 21:58 16.03.2020
6394 Clear -7 1025 35 0 0.52 29 21:40 16.03.2020
6395 Clear -7 1025 35 0 0.52 29 21:22 16.03.2020
6396 Clear -7 1025 35 0 0.52 29 20:56 16.03.2020
6397 Clear -7 1025 35 0 0.52 29 20:38 16.03.2020
6398 Clouds -5 1025 29 0 0.15 145 20:19 16.03.2020
6399 Clouds -5 1025 26 0 0.37 184 19:41 16.03.2020
6400 Clouds -5 1025 26 0 0.37 184 19:21 16.03.2020
6401 Clouds -5 1025 26 0 0.37 184 18:56 16.03.2020
6402 Clouds -5 1025 26 0 0.37 184 18:37 16.03.2020
6403 Clouds -5 1025 26 0 0.37 184 18:18 16.03.2020
6404 Clouds -5 1025 26 0 0.37 184 17:42 16.03.2020
6405 Clouds -5 1025 26 0 0.37 184 17:22 16.03.2020
6406 Clouds -3 1024 23 0 0.3 293 16:46 16.03.2020
6407 Clouds -3 1024 23 0 0.3 293 16:27 16.03.2020
6408 Clouds -3 1024 23 0 0.3 293 15:56 16.03.2020
6409 Clouds -3 1024 23 0 0.3 293 15:37 16.03.2020
6410 Clouds -3 1024 23 0 0.3 293 15:18 16.03.2020
6411 Clouds -3 1024 23 0 0.3 293 14:39 16.03.2020
6412 Clouds 1 1019 20 0 2.44 300 14:19 16.03.2020
6413 Clouds 1 1019 20 0 2.44 300 13:41 16.03.2020
6414 Clouds 1 1018 18 0 2.73 295 13:23 16.03.2020
6415 Clouds 1 1018 18 0 2.73 295 12:45 16.03.2020
6416 Clouds 1 1018 18 0 2.73 295 12:26 16.03.2020
6417 Clouds 1 1018 18 0 2.73 295 11:58 16.03.2020
6418 Clouds 1 1018 18 0 2.73 295 11:39 16.03.2020
6419 Clouds 3 1015 14 0 3.73 281 11:18 16.03.2020
6420 Clouds 3 1015 14 0 3.73 281 10:41 16.03.2020
6421 Clouds 3 1015 14 0 3.73 281 10:19 16.03.2020
6422 Clouds 3 1015 14 0 3.73 281 09:44 16.03.2020
6423 Clouds 3 1015 14 0 3.73 281 09:24 16.03.2020
6424 Clouds 3 1015 14 0 3.73 281 08:56 16.03.2020
6425 Clouds 4 1015 10 0 5.13 281 08:25 16.03.2020
6426 Clouds 2 1018 17 0 2.74 239 07:50 16.03.2020
6427 Clouds 2 1018 17 0 2.74 239 07:28 16.03.2020
6428 Clouds 2 1018 17 0 2.74 239 06:54 16.03.2020
6429 Clouds 2 1018 17 0 2.74 239 06:26 16.03.2020
6430 Clouds 2 1018 17 0 2.74 239 05:50 16.03.2020
6431 Clouds -1 1022 32 0 2.24 172 02:45 16.03.2020
6432 Clouds -8 1024 56 0 1.36 105 01:20 16.03.2020
6433 Clouds -8 1024 56 0 1.36 105 00:40 16.03.2020
6434 Clouds -8 1024 56 0 1.36 105 23:48 15.03.2020
6435 Clouds -8 1024 56 0 1.36 105 23:20 15.03.2020
6436 Clouds -5 1021 44 0 1.88 125 22:43 15.03.2020
6437 Clouds -5 1021 44 0 1.88 125 22:24 15.03.2020
6438 Clouds -5 1021 44 0 1.88 125 21:59 15.03.2020
6439 Clouds -5 1021 44 0 1.88 125 21:39 15.03.2020
6440 Clouds -5 1021 44 0 1.88 125 21:19 15.03.2020
6441 Clouds -5 1021 44 0 1.88 125 20:43 15.03.2020
6442 Clouds -5 1021 44 0 1.88 125 20:22 15.03.2020
6443 Clouds -4 1019 31 0 1.05 17 19:58 15.03.2020
6444 Clouds -4 1019 31 0 1.05 17 19:40 15.03.2020
6445 Clouds -4 1019 31 0 1.05 17 19:21 15.03.2020
6446 Clouds -4 1019 31 0 1.05 17 18:56 15.03.2020
6447 Clouds -4 1019 31 0 1.05 17 18:38 15.03.2020
6448 Clouds -4 1019 31 0 1.05 17 18:20 15.03.2020
6449 Clouds -4 1019 31 0 1.05 17 17:41 15.03.2020
6450 Clouds -4 1019 31 0 1.05 17 17:22 15.03.2020
6451 Clear -2 1017 26 0 2.15 265 16:59 15.03.2020
6452 Clear -2 1017 26 0 2.15 265 16:40 15.03.2020
6453 Clear -2 1017 26 0 2.15 265 16:21 15.03.2020
6454 Clear -2 1017 26 0 2.15 265 15:54 15.03.2020
6455 Clear -2 1017 26 0 2.15 265 15:36 15.03.2020
6456 Clear -2 1017 26 0 2.15 265 15:18 15.03.2020
6457 Clear -2 1017 26 0 2.15 265 14:39 15.03.2020
6458 Clear -2 1017 26 0 2.15 265 14:21 15.03.2020
6459 Clouds 2 1011 14 0 8.41 229 13:56 15.03.2020
6460 Clouds 2 1011 14 0 8.41 229 13:37 15.03.2020
6461 Clouds 3 1010 14 0 8.09 238 13:18 15.03.2020
6462 Clouds 3 1010 14 0 8.09 238 12:40 15.03.2020
6463 Clouds 3 1010 14 0 8.09 238 12:22 15.03.2020
6464 Clouds 3 1010 14 0 8.09 238 11:44 15.03.2020
6465 Clouds 3 1010 14 0 8.09 238 11:25 15.03.2020
6466 Clouds 7 1007 9 0 17.66 227 10:59 15.03.2020
6467 Clouds 7 1007 9 0 17.66 227 10:40 15.03.2020
6468 Clouds 7 1007 9 0 17.66 227 10:22 15.03.2020
6469 Clouds 7 1007 9 0 17.66 227 09:59 15.03.2020
6470 Clouds 7 1007 9 0 17.66 227 09:38 15.03.2020
6471 Clouds 7 1007 9 0 17.66 227 09:20 15.03.2020
6472 Clouds 7 1007 9 0 17.66 227 08:41 15.03.2020
6473 Clouds 8 1012 7 0 12.82 222 08:19 15.03.2020
6474 Clouds 8 1012 7 0 12.82 222 07:49 15.03.2020
6475 Clouds 8 1012 7 0 12.82 222 07:22 15.03.2020
6476 Clouds 8 1012 7 0 12.82 222 06:44 15.03.2020
6477 Clouds 8 1012 7 0 12.82 222 05:49 15.03.2020
6478 Clear 3 1017 20 0 4.55 195 04:57 15.03.2020
6479 Clear 3 1017 20 0 4.55 195 04:39 15.03.2020
6480 Clear 3 1017 20 0 4.55 195 04:20 15.03.2020
6481 Clear 3 1017 20 0 4.55 195 03:19 15.03.2020
6482 Clear 3 1017 20 0 4.55 195 02:23 15.03.2020
6483 Clouds -5 1019 64 0 1.92 142 00:59 15.03.2020
6484 Clouds -5 1019 64 0 1.92 142 00:40 15.03.2020
6485 Clouds -5 1019 64 0 1.92 142 00:19 15.03.2020
6486 Clouds -5 1019 64 0 1.92 142 23:40 14.03.2020
6487 Clouds -2 1015 54 0 2.32 157 23:20 14.03.2020
6488 Clouds -2 1015 54 0 2.32 157 22:56 14.03.2020
6489 Clouds -2 1015 54 0 2.32 157 22:38 14.03.2020
6490 Clouds -2 1015 54 0 2.32 157 22:19 14.03.2020
6491 Clouds -2 1015 54 0 2.32 157 21:55 14.03.2020
6492 Clouds -2 1015 54 0 2.32 157 21:36 14.03.2020
6493 Clouds -2 1015 54 0 2.32 157 21:36 14.03.2020
6494 Clouds -2 1015 54 0 2.32 157 21:18 14.03.2020
6495 Clouds -2 1015 54 0 2.32 157 21:18 14.03.2020
6496 Clouds -2 1015 54 0 2.32 157 20:56 14.03.2020
6497 Clouds -2 1015 54 0 2.32 157 20:56 14.03.2020
6498 Clouds -2 1015 54 0 2.32 157 20:38 14.03.2020
6499 Clouds 1 1016 50 0 2.55 134 20:18 14.03.2020
6500 Rain 0 1016 57 0 2.44 134 19:41 14.03.2020
6501 Rain 0 1016 57 0 2.44 134 19:21 14.03.2020
6502 Rain 0 1016 57 0 2.44 134 18:41 14.03.2020
6503 Rain 0 1016 57 0 2.44 134 18:21 14.03.2020
6504 Rain 0 1016 57 0 2.44 134 17:43 14.03.2020
6505 Rain 0 1016 57 0 2.44 134 17:24 14.03.2020
6506 Snow 3 1016 50 0 2.7 147 16:59 14.03.2020
6507 Snow 3 1016 50 0 2.7 147 16:40 14.03.2020
6508 Snow 3 1016 50 0 2.7 147 16:21 14.03.2020
6509 Snow 3 1016 50 0 2.7 147 15:51 14.03.2020
6510 Snow 3 1016 50 0 2.7 147 15:25 14.03.2020
6511 Snow 3 1016 50 0 2.7 147 14:45 14.03.2020
6512 Snow 3 1016 50 0 2.7 147 14:23 14.03.2020
6513 Snow 4 1014 52 0 2.06 178 13:57 14.03.2020
6514 Snow 4 1014 52 0 2.06 178 13:39 14.03.2020
6515 Snow 3 1013 61 0 3.4 158 13:20 14.03.2020
6516 Snow 3 1013 61 0 3.4 158 12:44 14.03.2020
6517 Snow 3 1013 61 0 3.4 158 12:26 14.03.2020
6518 Snow 3 1013 61 0 3.4 158 11:48 14.03.2020
6519 Snow 3 1013 61 0 3.4 158 11:28 14.03.2020
6520 Snow 5 1012 40 0 2.57 201 10:59 14.03.2020
6521 Snow 5 1012 40 0 2.57 201 10:41 14.03.2020
6522 Snow 5 1012 40 0 2.57 201 10:23 14.03.2020
6523 Snow 5 1012 40 0 2.57 201 09:44 14.03.2020
6524 Snow 5 1012 40 0 2.57 201 09:24 14.03.2020
6525 Snow 5 1012 40 0 2.57 201 09:24 14.03.2020
6526 Snow 5 1012 40 0 2.57 201 08:48 14.03.2020
6527 Snow 6 1012 32 0 3.68 170 08:29 14.03.2020
6528 Clouds 6 1016 25 0 2.96 182 07:55 14.03.2020
6529 Clouds 6 1016 25 0 2.96 182 07:37 14.03.2020
6530 Clouds 6 1016 25 0 2.96 182 07:19 14.03.2020
6531 Clouds 6 1016 25 0 2.96 182 06:40 14.03.2020
6532 Clouds 6 1016 25 0 2.96 182 05:24 14.03.2020
6533 Clouds 2 1022 39 0 2.26 181 03:49 14.03.2020
6534 Clouds 2 1022 39 0 2.26 181 03:24 14.03.2020
6535 Clouds 2 1022 39 0 2.26 181 02:22 14.03.2020
6536 Clouds -4 1024 64 0 1.96 144 00:49 14.03.2020
6537 Clouds -4 1024 64 0 1.96 144 23:50 13.03.2020
6538 Clouds -4 1024 64 0 1.96 144 23:30 13.03.2020
6539 Clear -2 1023 60 0 2.57 158 22:52 13.03.2020
6540 Clear -2 1023 60 0 2.57 158 22:26 13.03.2020
6541 Clear -2 1023 60 0 2.57 158 21:44 13.03.2020
6542 Clear -2 1023 60 0 2.57 158 21:22 13.03.2020
6543 Clear -2 1023 60 0 2.57 158 20:59 13.03.2020
6544 Clear -2 1023 60 0 2.57 158 20:41 13.03.2020
6545 Clouds -2 1023 59 0 2.11 139 20:21 13.03.2020
6546 Clear 0 1024 48 0 2.08 145 19:48 13.03.2020
6547 Clear 0 1024 48 0 2.08 145 19:30 13.03.2020
6548 Clear 0 1024 48 0 2.08 145 18:49 13.03.2020
6549 Clear 0 1024 48 0 2.08 145 18:31 13.03.2020
6550 Clear 0 1024 48 0 2.08 145 17:57 13.03.2020
6551 Clear 0 1024 48 0 2.08 145 17:39 13.03.2020
6552 Clear 2 1022 29 0 2.52 179 17:20 13.03.2020
6553 Clear 2 1022 29 0 2.52 179 16:42 13.03.2020
6554 Clear 2 1022 29 0 2.52 179 16:24 13.03.2020
6555 Clear 2 1022 29 0 2.52 179 15:58 13.03.2020
6556 Clear 2 1022 29 0 2.52 179 15:38 13.03.2020
6557 Clear 2 1022 29 0 2.52 179 15:20 13.03.2020
6558 Clear 2 1022 29 0 2.52 179 14:43 13.03.2020
6559 Clear 2 1022 29 0 2.52 179 14:22 13.03.2020
6560 Clouds 6 1016 15 0 3.62 237 13:57 13.03.2020
6561 Clouds 6 1016 15 0 3.62 237 13:39 13.03.2020
6562 Clouds 6 1015 17 0 4.65 236 13:19 13.03.2020
6563 Clouds 6 1015 17 0 4.65 236 12:55 13.03.2020
6564 Clouds 6 1015 17 0 4.65 236 12:36 13.03.2020
6565 Clouds 6 1015 17 0 4.65 236 12:18 13.03.2020
6566 Clouds 6 1015 17 0 4.65 236 11:42 13.03.2020
6567 Clouds 6 1015 17 0 4.65 236 11:24 13.03.2020
6568 Clouds 10 1011 10 0 2.91 65 10:57 13.03.2020
6569 Clouds 10 1011 10 0 2.91 65 10:38 13.03.2020
6570 Clouds 10 1011 10 0 2.91 65 10:20 13.03.2020
6571 Clouds 10 1011 10 0 2.91 65 09:43 13.03.2020
6572 Clouds 10 1011 10 0 2.91 65 09:24 13.03.2020
6573 Clouds 10 1011 10 0 2.91 65 08:47 13.03.2020
6574 Clouds 10 1011 10 0 2.91 65 08:23 13.03.2020
6575 Clear 7 1017 10 0 2.13 188 07:58 13.03.2020
6576 Clear 7 1017 10 0 2.13 188 07:38 13.03.2020
6577 Clear 7 1017 10 0 2.13 188 07:18 13.03.2020
6578 Clear 7 1017 10 0 2.13 188 06:43 13.03.2020
6579 Clear 7 1017 10 0 2.13 188 05:56 13.03.2020
6580 Clear 7 1017 10 0 2.13 188 05:37 13.03.2020
6581 Clear 2 1023 25 0 1.64 164 04:38 13.03.2020
6582 Clear 2 1023 25 0 1.64 164 03:46 13.03.2020
6583 Clear -6 1025 45 0 1.03 119 01:48 13.03.2020
6584 Clear -6 1025 49 0 1 120 01:19 13.03.2020
6585 Clear -6 1025 49 0 1 120 00:56 13.03.2020
6586 Clear -6 1025 49 0 1 120 00:37 13.03.2020
6587 Clear -6 1025 49 0 1 120 00:18 13.03.2020
6588 Clear -6 1025 49 0 1 120 23:29 12.03.2020
6589 Clear -3 1023 37 0 1.27 166 22:58 12.03.2020
6590 Clear -3 1023 37 0 1.27 166 22:40 12.03.2020
6591 Clear -3 1023 37 0 1.27 166 22:22 12.03.2020
6592 Clear -3 1023 37 0 1.27 166 21:54 12.03.2020
6593 Clear -3 1023 37 0 1.27 166 21:36 12.03.2020
6594 Clear -3 1023 37 0 1.27 166 21:18 12.03.2020
6595 Clear -3 1023 37 0 1.27 166 20:41 12.03.2020
6596 Clear -1 1022 32 0 0.5 244 20:19 12.03.2020
6597 Clear -1 1022 29 0 0.4 237 19:42 12.03.2020
6598 Clear -1 1022 29 0 0.4 237 19:21 12.03.2020
6599 Clear -1 1022 29 0 0.4 237 18:45 12.03.2020
6600 Clear -1 1022 29 0 0.4 237 18:25 12.03.2020
6601 Clear -1 1022 29 0 0.4 237 17:57 12.03.2020
6602 Clear -1 1022 29 0 0.4 237 17:39 12.03.2020
6603 Clear -1 1022 29 0 0.4 237 17:21 12.03.2020
6604 Clear -1 1022 29 0 0.4 237 17:21 12.03.2020
6605 Clear 1 1020 16 0 2.41 297 16:58 12.03.2020
6606 Clear 1 1020 16 0 2.41 297 16:39 12.03.2020
6607 Clear 1 1020 16 0 2.41 297 16:20 12.03.2020
6608 Clear 1 1020 16 0 2.41 297 15:47 12.03.2020
6609 Clear 1 1020 16 0 2.41 297 15:27 12.03.2020
6610 Clear 1 1020 16 0 2.41 297 14:43 12.03.2020
6611 Clear 1 1020 16 0 2.41 297 14:24 12.03.2020
6612 Clear 6 1014 10 0 4.1 303 13:58 12.03.2020
6613 Clear 6 1014 10 0 4.1 303 13:37 12.03.2020
6614 Clear 6 1013 10 0 4.34 302 13:19 12.03.2020
6615 Clear 6 1013 10 0 4.34 302 12:43 12.03.2020
6616 Clear 6 1013 10 0 4.34 302 12:22 12.03.2020
6617 Clear 6 1013 10 0 4.34 302 11:58 12.03.2020
6618 Clear 6 1013 10 0 4.34 302 11:39 12.03.2020
6619 Clear 6 1013 10 0 4.34 302 11:39 12.03.2020
6620 Clear 10 1009 6 0 10.72 282 11:20 12.03.2020
6621 Clear 10 1009 6 0 10.72 282 10:59 12.03.2020
6622 Clear 10 1009 6 0 10.72 282 10:41 12.03.2020
6623 Clear 10 1009 6 0 10.72 282 10:22 12.03.2020
6624 Clear 10 1009 6 0 10.72 282 09:49 12.03.2020
6625 Clear 10 1009 6 0 10.72 282 09:28 12.03.2020
6626 Clear 10 1009 6 0 10.72 282 08:55 12.03.2020
6627 Clear 10 1009 6 0 10.72 282 08:37 12.03.2020
6628 Clear 9 1014 7 0 4.87 271 08:18 12.03.2020
6629 Clear 9 1013 7 0 6.11 266 07:46 12.03.2020
6630 Clear 9 1013 7 0 6.11 266 07:21 12.03.2020
6631 Clear 9 1013 7 0 6.11 266 05:59 12.03.2020
6632 Clear 9 1013 7 0 6.11 266 05:27 12.03.2020
6633 Clear 3 1017 21 0 2.38 177 02:47 12.03.2020
6634 Clear -5 1020 44 0 0.95 171 01:39 12.03.2020
6635 Clear -6 1019 46 0 1.34 155 01:20 12.03.2020
6636 Clear -6 1019 46 0 1.34 155 00:41 12.03.2020
6637 Clear -6 1019 46 0 1.34 155 23:57 11.03.2020
6638 Clear -6 1019 46 0 1.34 155 23:28 11.03.2020
6639 Clear -4 1017 40 0 1.32 143 22:58 11.03.2020
6640 Clear -4 1017 40 0 1.32 143 22:39 11.03.2020
6641 Clear -4 1017 40 0 1.32 143 22:21 11.03.2020
6642 Clear -4 1017 40 0 1.32 143 21:56 11.03.2020
6643 Clear -4 1017 40 0 1.32 143 21:37 11.03.2020
6644 Clear -4 1017 40 0 1.32 143 21:19 11.03.2020
6645 Clear -4 1017 40 0 1.32 143 20:55 11.03.2020
6646 Clear -4 1017 40 0 1.32 143 20:55 11.03.2020
6647 Clear -4 1017 40 0 1.32 143 20:36 11.03.2020
6648 Clear -2 1017 20 0 1.19 251 20:18 11.03.2020
6649 Clear -2 1017 20 0 1.19 251 19:42 11.03.2020
6650 Clear -2 1017 20 0 1.19 251 19:23 11.03.2020
6651 Clear -2 1017 20 0 1.19 251 18:56 11.03.2020
6652 Clear -2 1017 20 0 1.19 251 18:36 11.03.2020
6653 Clear -2 1017 20 0 1.19 251 18:18 11.03.2020
6654 Clear -2 1017 20 0 1.19 251 17:40 11.03.2020
6655 Clear -2 1017 20 0 1.19 251 17:21 11.03.2020
6656 Clear 1 1014 17 0 2.06 270 16:56 11.03.2020
6657 Clear 1 1014 17 0 2.06 270 16:38 11.03.2020
6658 Clear 1 1014 17 0 2.06 270 16:19 11.03.2020
6659 Clear 1 1014 17 0 2.06 270 15:42 11.03.2020
6660 Clear 1 1014 17 0 2.06 270 15:23 11.03.2020
6661 Clear 1 1014 17 0 2.06 270 14:46 11.03.2020
6662 Clear 1 1014 17 0 2.06 270 14:24 11.03.2020
6663 Clouds 6 1008 10 0 4.76 254 13:59 11.03.2020
6664 Clouds 6 1008 10 0 4.76 254 13:40 11.03.2020
6665 Clouds 6 1007 10 0 5.65 258 13:22 11.03.2020
6666 Clouds 6 1007 10 0 5.65 258 12:56 11.03.2020
6667 Clouds 6 1007 10 0 5.65 258 12:37 11.03.2020
6668 Clouds 6 1007 10 0 5.65 258 12:18 11.03.2020
6669 Clouds 6 1007 10 0 5.65 258 11:40 11.03.2020
6670 Clouds 9 1004 10 0 12.64 274 11:20 11.03.2020
6671 Clouds 9 1004 10 0 12.64 274 10:47 11.03.2020
6672 Clouds 9 1004 10 0 12.64 274 10:20 11.03.2020
6673 Clouds 9 1004 10 0 12.64 274 09:59 11.03.2020
6674 Clouds 9 1004 10 0 12.64 274 09:40 11.03.2020
6675 Clouds 9 1004 10 0 12.64 274 09:21 11.03.2020
6676 Clouds 9 1004 10 0 12.64 274 08:42 11.03.2020
6677 Clouds 9 1004 10 0 12.64 274 08:24 11.03.2020
6678 Clear 6 1009 20 0 1.55 206 07:47 11.03.2020
6679 Clear 6 1009 20 0 1.55 206 07:20 11.03.2020
6680 Clear 6 1009 20 0 1.55 206 06:50 11.03.2020
6681 Clear 6 1009 20 0 1.55 206 06:30 11.03.2020
6682 Clear 6 1009 20 0 1.55 206 05:32 11.03.2020
6683 Clear 0 1015 39 0 1.8 152 02:45 11.03.2020
6684 Clear -6 1017 58 0 1.56 118 01:53 11.03.2020
6685 Clear -6 1017 58 0 1.63 116 01:23 11.03.2020
6686 Clear -6 1017 58 0 1.63 116 00:37 11.03.2020
6687 Clear -6 1017 58 0 1.63 116 23:50 10.03.2020
6688 Clear -6 1017 58 0 1.63 116 23:28 10.03.2020
6689 Clear -4 1014 50 0 1.46 110 22:58 10.03.2020
6690 Clear -4 1014 50 0 1.46 110 22:37 10.03.2020
6691 Clear -4 1014 50 0 1.46 110 22:19 10.03.2020
6692 Clear -4 1014 50 0 1.46 110 21:56 10.03.2020
6693 Clear -4 1014 50 0 1.46 110 21:38 10.03.2020
6694 Clear -4 1014 50 0 1.46 110 21:19 10.03.2020
6695 Clear -4 1014 50 0 1.46 110 20:43 10.03.2020
6696 Clear -4 1014 50 0 1.46 110 20:21 10.03.2020
6697 Clear -1 1016 43 0 2.4 146 19:59 10.03.2020
6698 Clear -1 1016 43 0 2.4 146 19:41 10.03.2020
6699 Clear -1 1016 43 0 2.4 146 19:23 10.03.2020
6700 Clear -1 1016 43 0 2.4 146 18:58 10.03.2020
6701 Clear -1 1016 43 0 2.4 146 18:40 10.03.2020
6702 Clear -1 1016 43 0 2.4 146 18:21 10.03.2020
6703 Clear -1 1016 43 0 2.4 146 17:56 10.03.2020
6704 Clear -1 1016 43 0 2.4 146 17:37 10.03.2020
6705 Clear 1 1013 29 0 2.13 150 17:18 10.03.2020
6706 Clear 1 1013 29 0 2.13 150 16:38 10.03.2020
6707 Clear 1 1013 29 0 2.13 150 16:18 10.03.2020
6708 Clear 1 1013 29 0 2.13 150 15:43 10.03.2020
6709 Clear 1 1013 29 0 2.13 150 15:20 10.03.2020
6710 Clear 1 1013 29 0 2.13 150 14:59 10.03.2020
6711 Clear 1 1013 29 0 2.13 150 14:40 10.03.2020
6712 Clear 4 1008 10 0 1.05 25 14:19 10.03.2020
6713 Clear 4 1008 10 0 1.05 25 13:45 10.03.2020
6714 Clear 4 1008 10 0 1.05 25 13:26 10.03.2020
6715 Clear 4 1008 11 0 1.22 75 12:57 10.03.2020
6716 Clear 4 1008 11 0 1.22 75 12:37 10.03.2020
6717 Clear 4 1008 11 0 1.22 75 12:37 10.03.2020
6718 Clear 4 1008 11 0 1.22 75 12:18 10.03.2020
6719 Clear 4 1008 11 0 1.22 75 11:42 10.03.2020
6720 Clear 4 1008 11 0 1.22 75 11:24 10.03.2020
6721 Clear 8 1005 6 0 1.09 212 10:58 10.03.2020
6722 Clear 8 1005 6 0 1.09 212 10:40 10.03.2020
6723 Clear 8 1005 6 0 1.09 212 10:21 10.03.2020
6724 Clear 8 1005 6 0 1.09 212 09:56 10.03.2020
6725 Clear 8 1005 6 0 1.09 212 09:37 10.03.2020
6726 Clear 8 1005 6 0 1.09 212 09:18 10.03.2020
6727 Clear 8 1005 6 0 1.09 212 08:43 10.03.2020
6728 Clear 8 1004 6 0 1.65 208 08:25 10.03.2020
6729 Clear 6 1011 9 0 2.26 243 07:46 10.03.2020
6730 Clear 6 1011 9 0 2.26 243 07:28 10.03.2020
6731 Clear 6 1011 9 0 2.26 243 06:38 10.03.2020
6732 Clear 6 1011 9 0 2.26 243 05:58 10.03.2020
6733 Clear 6 1011 9 0 2.26 243 05:38 10.03.2020
6734 Clear -1 1016 17 0 0.9 153 04:34 10.03.2020
6735 Clear -1 1016 17 0 0.9 153 03:31 10.03.2020
6736 Clear -8 1020 26 0 1.08 66 01:55 10.03.2020
6737 Clear -8 1019 28 0 0.85 69 00:53 10.03.2020
6738 Clear -8 1019 28 0 0.85 69 00:30 10.03.2020
6739 Clear -8 1019 28 0 0.85 69 23:56 09.03.2020
6740 Clear -8 1019 28 0 0.85 69 23:37 09.03.2020
6741 Clear -6 1017 24 0 0.83 77 23:19 09.03.2020
6742 Clear -6 1017 24 0 0.83 77 22:40 09.03.2020
6743 Clear -6 1017 24 0 0.83 77 22:21 09.03.2020
6744 Clear -6 1017 24 0 0.83 77 21:56 09.03.2020
6745 Clear -6 1017 24 0 0.83 77 21:38 09.03.2020
6746 Clear -6 1017 24 0 0.83 77 21:20 09.03.2020
6747 Clear -6 1017 24 0 0.83 77 20:41 09.03.2020
6748 Clear -6 1017 24 0 0.83 77 20:41 09.03.2020
6749 Clear -7 1017 22 0 0.68 42 20:23 09.03.2020
6750 Clouds -4 1018 18 0 0.5 321 19:59 09.03.2020
6751 Clouds -4 1018 18 0 0.5 321 19:41 09.03.2020
6752 Clouds -4 1018 18 0 0.5 321 19:20 09.03.2020
6753 Clouds -4 1018 18 0 0.5 321 18:57 09.03.2020
6754 Clouds -4 1018 18 0 0.5 321 18:38 09.03.2020
6755 Clouds -4 1018 18 0 0.5 321 18:18 09.03.2020
6756 Clouds -4 1018 18 0 0.5 321 17:56 09.03.2020
6757 Clouds -4 1018 18 0 0.5 321 17:37 09.03.2020
6758 Clouds -4 1018 18 0 0.5 321 17:37 09.03.2020
6759 Clouds -2 1016 14 0 0.68 328 17:19 09.03.2020
6760 Clouds -2 1016 14 0 0.68 328 16:56 09.03.2020
6761 Clouds -2 1016 14 0 0.68 328 16:38 09.03.2020
6762 Clouds -2 1016 14 0 0.68 328 16:20 09.03.2020
6763 Clouds -2 1016 14 0 0.68 328 16:20 09.03.2020
6764 Clouds -2 1016 14 0 0.68 328 15:56 09.03.2020
6765 Clouds -2 1016 14 0 0.68 328 15:38 09.03.2020
6766 Clouds -2 1016 14 0 0.68 328 15:18 09.03.2020
6767 Clouds -2 1016 14 0 0.68 328 14:39 09.03.2020
6768 Clouds 2 1012 10 0 2.54 44 14:21 09.03.2020
6769 Clouds 2 1012 10 0 2.54 44 13:59 09.03.2020
6770 Clouds 2 1012 10 0 2.54 44 13:59 09.03.2020
6771 Clouds 2 1012 10 0 2.54 44 13:39 09.03.2020
6772 Clouds 2 1012 10 0 2.54 44 13:39 09.03.2020
6773 Clouds 2 1012 10 0 2.54 44 13:21 09.03.2020
6774 Clear 2 1012 11 0 2.09 7 12:59 09.03.2020
6775 Clear 2 1012 11 0 2.09 7 12:40 09.03.2020
6776 Clear 2 1012 11 0 2.09 7 12:19 09.03.2020
6777 Clear 2 1012 11 0 2.09 7 11:40 09.03.2020
6778 Clear 2 1012 11 0 2.09 7 11:40 09.03.2020
6779 Clear 6 1008 7 0 5.62 320 11:20 09.03.2020
6780 Clear 6 1008 7 0 5.62 320 10:58 09.03.2020
6781 Clear 6 1008 7 0 5.62 320 10:40 09.03.2020
6782 Clear 6 1008 7 0 5.62 320 10:19 09.03.2020
6783 Clear 6 1008 7 0 5.62 320 09:42 09.03.2020
6784 Clear 6 1008 7 0 5.62 320 09:24 09.03.2020
6785 Clear 6 1008 7 0 5.62 320 08:54 09.03.2020
6786 Clear 6 1008 7 0 5.62 320 08:36 09.03.2020
6787 Clear 5 1014 6 0 4.12 282 08:18 09.03.2020
6788 Clear 5 1014 6 0 4.12 282 07:39 09.03.2020
6789 Clear 5 1014 6 0 4.12 282 07:21 09.03.2020
6790 Clear 5 1014 6 0 4.12 282 06:43 09.03.2020
6791 Clear 5 1014 6 0 4.12 282 06:23 09.03.2020
6792 Clear 5 1014 6 0 4.12 282 05:46 09.03.2020
6793 Clear -1 1017 16 0 0.62 96 04:59 09.03.2020
6794 Clear -1 1017 16 0 0.62 96 04:40 09.03.2020
6795 Clear -1 1017 16 0 0.62 96 04:21 09.03.2020
6796 Clear -1 1017 16 0 0.62 96 02:56 09.03.2020
6797 Clear -9 1020 27 0 1.2 355 00:46 09.03.2020
6798 Clear -9 1020 27 0 1.2 355 00:28 09.03.2020
6799 Clear -9 1020 27 0 1.2 355 23:59 08.03.2020
6800 Clear -9 1020 27 0 1.2 355 23:41 08.03.2020
6801 Clear -9 1020 27 0 1.2 355 23:21 08.03.2020
6802 Clear -6 1017 23 0 1.14 342 22:55 08.03.2020
6803 Clear -6 1017 23 0 1.14 342 22:37 08.03.2020
6804 Clear -6 1017 23 0 1.14 342 22:18 08.03.2020
6805 Clear -6 1017 23 0 1.14 342 21:42 08.03.2020
6806 Clear -6 1017 23 0 1.14 342 21:42 08.03.2020
6807 Clear -6 1017 23 0 1.14 342 21:23 08.03.2020
6808 Clear -6 1017 23 0 1.14 342 20:59 08.03.2020
6809 Clear -6 1017 23 0 1.14 342 20:39 08.03.2020
6810 Clear -6 1017 23 0 1.14 342 20:39 08.03.2020
6811 Clear -4 1017 22 0 0.58 330 20:20 08.03.2020
6812 Clear -4 1016 21 0 0.84 307 19:41 08.03.2020
6813 Clear -4 1016 21 0 0.84 307 19:21 08.03.2020
6814 Clear -4 1016 21 0 0.84 307 18:58 08.03.2020
6815 Clear -4 1016 21 0 0.84 307 18:40 08.03.2020
6816 Clear -4 1016 21 0 0.84 307 18:21 08.03.2020
6817 Clear -4 1016 21 0 0.84 307 17:55 08.03.2020
6818 Clear -4 1016 21 0 0.84 307 17:37 08.03.2020
6819 Clear -2 1015 18 0 1.91 278 17:18 08.03.2020
6820 Clear -2 1015 18 0 1.91 278 16:42 08.03.2020
6821 Clear -2 1015 18 0 1.91 278 16:23 08.03.2020
6822 Clear -2 1015 18 0 1.91 278 15:55 08.03.2020
6823 Clear -2 1015 18 0 1.91 278 15:37 08.03.2020
6824 Clear -2 1015 18 0 1.91 278 15:18 08.03.2020
6825 Clear -2 1015 18 0 1.91 278 14:40 08.03.2020
6826 Clear -2 1015 18 0 1.91 278 14:21 08.03.2020
6827 Clear 2 1009 12 0 2.87 308 13:55 08.03.2020
6828 Clear 2 1009 12 0 2.87 308 13:36 08.03.2020
6829 Clouds 2 1009 15 0 2.24 313 13:18 08.03.2020
6830 Clouds 2 1009 15 0 2.24 313 12:38 08.03.2020
6831 Clouds 2 1009 15 0 2.24 313 12:18 08.03.2020
6832 Clouds 2 1009 15 0 2.24 313 11:42 08.03.2020